<?xml version='1.0' encoding='UTF-8'?><gpx version="1.1" creator="JPX - https://github.com/jenetics/jpx" xmlns="http://www.topografix.com/GPX/1/1"><trk><trkseg><trkpt lat="14.557433335910934" lon="120.99412003945793"><ele>9.0</ele><time>2026-03-30T05:57:34.021Z</time></trkpt><trkpt lat="14.558365494690701" lon="120.99583834488354"><ele>9.0</ele><time>2026-03-30T05:59:59.019Z</time></trkpt><trkpt lat="14.558236290029884" lon="120.9960695017863"><ele>9.0</ele><time>2026-03-30T06:00:07.018Z</time></trkpt><trkpt lat="14.55827355042639" lon="120.9961415071277"><ele>9.0</ele><time>2026-03-30T06:00:10.018Z</time></trkpt><trkpt lat="14.558235219237648" lon="120.9962297638693"><ele>9.0</ele><time>2026-03-30T06:00:12.018Z</time></trkpt><trkpt lat="14.558289945733165" lon="120.99626475929132"><ele>9.0</ele><time>2026-03-30T06:00:14.018Z</time></trkpt><trkpt lat="14.55843135068788" lon="120.99616966771053"><ele>9.0</ele><time>2026-03-30T06:00:20Z</time></trkpt><trkpt lat="14.558515744518752" lon="120.9961612627819"><ele>9.0</ele><time>2026-03-30T06:00:25Z</time></trkpt><trkpt lat="14.558615245640356" lon="120.99614761459272"><ele>9.0</ele><time>2026-03-30T06:00:27Z</time></trkpt><trkpt lat="14.558686108297266" lon="120.99614282874204"><ele>9.0</ele><time>2026-03-30T06:00:29Z</time></trkpt><trkpt lat="14.558773079722597" lon="120.99611796602167"><ele>9.0</ele><time>2026-03-30T06:00:31Z</time></trkpt><trkpt lat="14.558884860106671" lon="120.99610345735096"><ele>9.0</ele><time>2026-03-30T06:00:33Z</time></trkpt><trkpt lat="14.559000148465675" lon="120.9960820508823"><ele>9.0</ele><time>2026-03-30T06:00:35Z</time></trkpt><trkpt lat="14.559116103829348" lon="120.99606035138213"><ele>9.0</ele><time>2026-03-30T06:00:37Z</time></trkpt><trkpt lat="14.559179535709008" lon="120.99604386851115"><ele>9.0</ele><time>2026-03-30T06:00:38Z</time></trkpt><trkpt lat="14.559244513301502" lon="120.99603037399153"><ele>9.0</ele><time>2026-03-30T06:00:39Z</time></trkpt><trkpt lat="14.55931615638071" lon="120.99601340469432"><ele>9.0</ele><time>2026-03-30T06:00:40Z</time></trkpt><trkpt lat="14.5593887974913" lon="120.99599980608357"><ele>9.0</ele><time>2026-03-30T06:00:41Z</time></trkpt><trkpt lat="14.559470483350385" lon="120.99598174697638"><ele>9.0</ele><time>2026-03-30T06:00:42Z</time></trkpt><trkpt lat="14.559555438238736" lon="120.99595602994886"><ele>9.0</ele><time>2026-03-30T06:00:43Z</time></trkpt><trkpt lat="14.559645824604637" lon="120.99594425267618"><ele>9.0</ele><time>2026-03-30T06:00:44Z</time></trkpt><trkpt lat="14.559741591720343" lon="120.99592234849092"><ele>8.8</ele><time>2026-03-30T06:00:45Z</time></trkpt><trkpt lat="14.559837752566231" lon="120.99589956614034"><ele>8.600000000000001</ele><time>2026-03-30T06:00:46Z</time></trkpt><trkpt lat="14.559936677431413" lon="120.99587644762201"><ele>8.4</ele><time>2026-03-30T06:00:47.001Z</time></trkpt><trkpt lat="14.560027668114616" lon="120.99584737096028"><ele>8.200000000000001</ele><time>2026-03-30T06:00:48.001Z</time></trkpt><trkpt lat="14.560140524822929" lon="120.99581314038797"><ele>8.0</ele><time>2026-03-30T06:00:49.001Z</time></trkpt><trkpt lat="14.560257474085343" lon="120.99578709976541"><ele>7.800000000000001</ele><time>2026-03-30T06:00:50.001Z</time></trkpt><trkpt lat="14.560367760775174" lon="120.9957732759098"><ele>7.6000000000000005</ele><time>2026-03-30T06:00:51.001Z</time></trkpt><trkpt lat="14.560482092682834" lon="120.99574167780119"><ele>7.3999999999999995</ele><time>2026-03-30T06:00:52.001Z</time></trkpt><trkpt lat="14.560576089333827" lon="120.99571765310534"><ele>7.199999999999999</ele><time>2026-03-30T06:00:53.001Z</time></trkpt><trkpt lat="14.560665821014261" lon="120.9956969750177"><ele>7.0</ele><time>2026-03-30T06:00:54.001Z</time></trkpt><trkpt lat="14.5607460594009" lon="120.99567953331153"><ele>7.000000000000001</ele><time>2026-03-30T06:00:55.001Z</time></trkpt><trkpt lat="14.560822230055306" lon="120.9956631545181"><ele>7.0</ele><time>2026-03-30T06:00:56.001Z</time></trkpt><trkpt lat="14.560897117985078" lon="120.99564488940744"><ele>7.0</ele><time>2026-03-30T06:00:57.001Z</time></trkpt><trkpt lat="14.560972680678477" lon="120.99562838712805"><ele>7.0</ele><time>2026-03-30T06:00:58.001Z</time></trkpt><trkpt lat="14.561057995974796" lon="120.9955959273989"><ele>7.000000000000001</ele><time>2026-03-30T06:00:59.001Z</time></trkpt><trkpt lat="14.561140694978313" lon="120.99557052490016"><ele>7.0</ele><time>2026-03-30T06:01:00.001Z</time></trkpt><trkpt lat="14.561224577844456" lon="120.9955556686307"><ele>7.333333333333334</ele><time>2026-03-30T06:01:01.001Z</time></trkpt><trkpt lat="14.561310280683845" lon="120.99553936491432"><ele>7.666666666666667</ele><time>2026-03-30T06:01:02.001Z</time></trkpt><trkpt lat="14.561398487540268" lon="120.9955148502294"><ele>8.0</ele><time>2026-03-30T06:01:03.001Z</time></trkpt><trkpt lat="14.561488705218085" lon="120.995501048623"><ele>8.333333333333334</ele><time>2026-03-30T06:01:04.001Z</time></trkpt><trkpt lat="14.561577295283284" lon="120.9954812061434"><ele>8.666666666666666</ele><time>2026-03-30T06:01:05.001Z</time></trkpt><trkpt lat="14.561661416649404" lon="120.99545639353789"><ele>9.0</ele><time>2026-03-30T06:01:06.001Z</time></trkpt><trkpt lat="14.561748958166799" lon="120.99543075801401"><ele>9.0</ele><time>2026-03-30T06:01:07.001Z</time></trkpt><trkpt lat="14.561828929127087" lon="120.99540673612417"><ele>9.0</ele><time>2026-03-30T06:01:08.001Z</time></trkpt><trkpt lat="14.561923520209666" lon="120.99539123656368"><ele>9.0</ele><time>2026-03-30T06:01:09.001Z</time></trkpt><trkpt lat="14.562003115358344" lon="120.99537981926629"><ele>9.0</ele><time>2026-03-30T06:01:10.001Z</time></trkpt><trkpt lat="14.562082253810527" lon="120.99535673885083"><ele>9.0</ele><time>2026-03-30T06:01:11.001Z</time></trkpt><trkpt lat="14.562166266322611" lon="120.99533261921343"><ele>9.0</ele><time>2026-03-30T06:01:12.001Z</time></trkpt><trkpt lat="14.56224386598609" lon="120.99531227873658"><ele>9.2</ele><time>2026-03-30T06:01:13.001Z</time></trkpt><trkpt lat="14.562325132871504" lon="120.99529046744888"><ele>9.4</ele><time>2026-03-30T06:01:14.001Z</time></trkpt><trkpt lat="14.562394947100874" lon="120.99527417006077"><ele>9.6</ele><time>2026-03-30T06:01:15.001Z</time></trkpt><trkpt lat="14.562494677021409" lon="120.99527882894762"><ele>9.8</ele><time>2026-03-30T06:01:17.001Z</time></trkpt><trkpt lat="14.56256170754198" lon="120.9952586491278"><ele>10.0</ele><time>2026-03-30T06:02:14.001Z</time></trkpt><trkpt lat="14.562657490740632" lon="120.99534086485454"><ele>10.0</ele><time>2026-03-30T06:02:16.001Z</time></trkpt><trkpt lat="14.562751772222285" lon="120.99541756172069"><ele>10.0</ele><time>2026-03-30T06:02:18.001Z</time></trkpt><trkpt lat="14.562796877587347" lon="120.99551201836495"><ele>10.0</ele><time>2026-03-30T06:02:20.001Z</time></trkpt><trkpt lat="14.562826557202461" lon="120.99558885459611"><ele>10.0</ele><time>2026-03-30T06:02:22.001Z</time></trkpt><trkpt lat="14.562853916654625" lon="120.99565951439952"><ele>10.0</ele><time>2026-03-30T06:02:24.001Z</time></trkpt><trkpt lat="14.562884414364119" lon="120.99574850522403"><ele>9.833333333333334</ele><time>2026-03-30T06:02:26.001Z</time></trkpt><trkpt lat="14.56291761549006" lon="120.99583443117523"><ele>9.666666666666668</ele><time>2026-03-30T06:02:28.001Z</time></trkpt><trkpt lat="14.562954411358536" lon="120.99591442011408"><ele>9.5</ele><time>2026-03-30T06:02:30.001Z</time></trkpt><trkpt lat="14.562997168036194" lon="120.99598459060621"><ele>9.333333333333334</ele><time>2026-03-30T06:02:32.001Z</time></trkpt><trkpt lat="14.56305352038862" lon="120.99604374303831"><ele>9.166666666666666</ele><time>2026-03-30T06:02:35.001Z</time></trkpt><trkpt lat="14.563096941889903" lon="120.99612157057615"><ele>9.0</ele><time>2026-03-30T06:02:37.001Z</time></trkpt><trkpt lat="14.563139970569624" lon="120.99623704872715"><ele>9.0</ele><time>2026-03-30T06:02:39.001Z</time></trkpt><trkpt lat="14.56319385061904" lon="120.99636687767739"><ele>9.0</ele><time>2026-03-30T06:02:41.001Z</time></trkpt><trkpt lat="14.56322346800788" lon="120.99643696893638"><ele>9.0</ele><time>2026-03-30T06:02:42.001Z</time></trkpt><trkpt lat="14.563255766526705" lon="120.9965069761129"><ele>9.0</ele><time>2026-03-30T06:02:43.001Z</time></trkpt><trkpt lat="14.56328391188624" lon="120.99657514763234"><ele>9.0</ele><time>2026-03-30T06:02:44.001Z</time></trkpt><trkpt lat="14.56332064127376" lon="120.99665792832502"><ele>9.0</ele><time>2026-03-30T06:02:45.001Z</time></trkpt><trkpt lat="14.563345884511849" lon="120.99672992099869"><ele>8.666666666666666</ele><time>2026-03-30T06:02:46.001Z</time></trkpt><trkpt lat="14.563374294897741" lon="120.99678970465271"><ele>8.333333333333334</ele><time>2026-03-30T06:02:47.001Z</time></trkpt><trkpt lat="14.56342097610031" lon="120.99689574441429"><ele>8.0</ele><time>2026-03-30T06:02:49.001Z</time></trkpt><trkpt lat="14.563472485271978" lon="120.99700118361139"><ele>7.666666666666667</ele><time>2026-03-30T06:02:51.001Z</time></trkpt><trkpt lat="14.56350386099466" lon="120.99707426099584"><ele>7.333333333333334</ele><time>2026-03-30T06:02:53.001Z</time></trkpt><trkpt lat="14.563504495628996" lon="120.99715369819205"><ele>7.0</ele><time>2026-03-30T06:02:56.001Z</time></trkpt><trkpt lat="14.563527341601983" lon="120.99721565260907"><ele>7.0</ele><time>2026-03-30T06:03:01.001Z</time></trkpt><trkpt lat="14.563568914915157" lon="120.99728787505835"><ele>6.999999999999999</ele><time>2026-03-30T06:03:06.001Z</time></trkpt><trkpt lat="14.56360240516075" lon="120.99736039070694"><ele>6.999999999999999</ele><time>2026-03-30T06:03:08.001Z</time></trkpt><trkpt lat="14.563644556288095" lon="120.99745241551116"><ele>7.0</ele><time>2026-03-30T06:03:10.001Z</time></trkpt><trkpt lat="14.563677842649613" lon="120.9975117642664"><ele>7.0</ele><time>2026-03-30T06:03:11.001Z</time></trkpt><trkpt lat="14.563745944748263" lon="120.99763201037429"><ele>7.000000000000001</ele><time>2026-03-30T06:03:13.001Z</time></trkpt><trkpt lat="14.56377559196209" lon="120.99770265568654"><ele>7.0</ele><time>2026-03-30T06:03:14.001Z</time></trkpt><trkpt lat="14.563815977204532" lon="120.99777358999498"><ele>7.0</ele><time>2026-03-30T06:03:16.001Z</time></trkpt><trkpt lat="14.563859591847304" lon="120.99786929190437"><ele>7.0</ele><time>2026-03-30T06:03:18.001Z</time></trkpt><trkpt lat="14.563907759628087" lon="120.99796063922618"><ele>7.000000000000001</ele><time>2026-03-30T06:03:20.001Z</time></trkpt><trkpt lat="14.563946458852037" lon="120.99803376897506"><ele>7.0</ele><time>2026-03-30T06:03:22.001Z</time></trkpt><trkpt lat="14.563981374876578" lon="120.99809989788106"><ele>7.000000000000001</ele><time>2026-03-30T06:03:24.001Z</time></trkpt><trkpt lat="14.564017311640605" lon="120.99817271684047"><ele>7.0</ele><time>2026-03-30T06:03:27.001Z</time></trkpt><trkpt lat="14.564038191098641" lon="120.99823685319478"><ele>7.0</ele><time>2026-03-30T06:03:31.001Z</time></trkpt><trkpt lat="14.563974445458637" lon="120.99831060457532"><ele>7.0</ele><time>2026-03-30T06:03:35.001Z</time></trkpt><trkpt lat="14.563891328618" lon="120.99833978035068"><ele>7.000000000000001</ele><time>2026-03-30T06:03:37.001Z</time></trkpt><trkpt lat="14.563783705661853" lon="120.99837068059631"><ele>7.0</ele><time>2026-03-30T06:03:39.001Z</time></trkpt><trkpt lat="14.563670640117731" lon="120.99839676702976"><ele>7.0</ele><time>2026-03-30T06:03:41.001Z</time></trkpt><trkpt lat="14.563605246003341" lon="120.9984084419427"><ele>7.0</ele><time>2026-03-30T06:03:42.001Z</time></trkpt><trkpt lat="14.563539337439359" lon="120.99842281102018"><ele>7.0</ele><time>2026-03-30T06:03:43.001Z</time></trkpt><trkpt lat="14.563472917762038" lon="120.99843881568982"><ele>7.0</ele><time>2026-03-30T06:03:44.001Z</time></trkpt><trkpt lat="14.563408932333372" lon="120.99845478264893"><ele>7.0</ele><time>2026-03-30T06:03:45.001Z</time></trkpt><trkpt lat="14.563344363449707" lon="120.99847202171028"><ele>7.0</ele><time>2026-03-30T06:03:46.001Z</time></trkpt><trkpt lat="14.563278759124172" lon="120.99848858110246"><ele>7.0</ele><time>2026-03-30T06:03:47.001Z</time></trkpt><trkpt lat="14.563183398809699" lon="120.99851646059041"><ele>7.0</ele><time>2026-03-30T06:03:49.001Z</time></trkpt><trkpt lat="14.563103847292716" lon="120.99853600718477"><ele>6.999999999999999</ele><time>2026-03-30T06:03:51.001Z</time></trkpt><trkpt lat="14.563107333103165" lon="120.99846404323708"><ele>6.999999999999999</ele><time>2026-03-30T06:05:09.001Z</time></trkpt><trkpt lat="14.56300408158691" lon="120.9984553211063"><ele>7.0</ele><time>2026-03-30T06:07:25.001Z</time></trkpt><trkpt lat="14.562897740432373" lon="120.99849759015815"><ele>7.0</ele><time>2026-03-30T06:07:27.001Z</time></trkpt><trkpt lat="14.562785324277977" lon="120.99860290044859"><ele>7.285714285714286</ele><time>2026-03-30T06:07:29.001Z</time></trkpt><trkpt lat="14.562725587357628" lon="120.99862797268509"><ele>7.571428571428571</ele><time>2026-03-30T06:07:30.001Z</time></trkpt><trkpt lat="14.562652256006631" lon="120.99865789977876"><ele>7.857142857142858</ele><time>2026-03-30T06:07:31.001Z</time></trkpt><trkpt lat="14.562579566647782" lon="120.99868689932252"><ele>8.142857142857142</ele><time>2026-03-30T06:07:32.001Z</time></trkpt><trkpt lat="14.562517349108507" lon="120.99871162901704"><ele>8.428571428571429</ele><time>2026-03-30T06:07:33.001Z</time></trkpt><trkpt lat="14.562452348656377" lon="120.9987374648354"><ele>8.714285714285715</ele><time>2026-03-30T06:07:34.001Z</time></trkpt><trkpt lat="14.562386172056085" lon="120.99876376816543"><ele>9.0</ele><time>2026-03-30T06:07:35.001Z</time></trkpt><trkpt lat="14.562321233488724" lon="120.99879417706411"><ele>9.0</ele><time>2026-03-30T06:07:36.001Z</time></trkpt><trkpt lat="14.562251822318538" lon="120.99882703521557"><ele>9.0</ele><time>2026-03-30T06:07:37.001Z</time></trkpt><trkpt lat="14.562154473665007" lon="120.99887330392652"><ele>9.0</ele><time>2026-03-30T06:07:39.001Z</time></trkpt><trkpt lat="14.562067426712753" lon="120.9989146763229"><ele>9.0</ele><time>2026-03-30T06:07:41.001Z</time></trkpt><trkpt lat="14.562003413184831" lon="120.99896323610355"><ele>9.0</ele><time>2026-03-30T06:07:44.001Z</time></trkpt><trkpt lat="14.561961205483044" lon="120.99902339633378"><ele>9.0</ele><time>2026-03-30T06:07:48.001Z</time></trkpt><trkpt lat="14.562089193762198" lon="120.99915534889792"><ele>8.857142857142858</ele><time>2026-03-30T06:07:51.001Z</time></trkpt><trkpt lat="14.56213563750708" lon="120.99920266650923"><ele>8.714285714285715</ele><time>2026-03-30T06:07:52.001Z</time></trkpt><trkpt lat="14.562182522587586" lon="120.99924823122053"><ele>8.571428571428571</ele><time>2026-03-30T06:07:53.001Z</time></trkpt><trkpt lat="14.562232734386546" lon="120.9993009823936"><ele>8.428571428571429</ele><time>2026-03-30T06:07:54.001Z</time></trkpt><trkpt lat="14.562284334431945" lon="120.99935877706133"><ele>8.285714285714285</ele><time>2026-03-30T06:07:55.001Z</time></trkpt><trkpt lat="14.562334923352745" lon="120.99941554121403"><ele>8.142857142857142</ele><time>2026-03-30T06:07:56.001Z</time></trkpt><trkpt lat="14.562388953345579" lon="120.99946945633268"><ele>8.0</ele><time>2026-03-30T06:07:57.001Z</time></trkpt><trkpt lat="14.562455223636505" lon="120.99952976549588"><ele>8.0</ele><time>2026-03-30T06:07:58.001Z</time></trkpt><trkpt lat="14.562520335715979" lon="120.9995920887338"><ele>8.0</ele><time>2026-03-30T06:07:59.001Z</time></trkpt><trkpt lat="14.562586199216978" lon="120.99966761148939"><ele>8.0</ele><time>2026-03-30T06:08:00.001Z</time></trkpt><trkpt lat="14.56265877938469" lon="120.9997324696439"><ele>8.0</ele><time>2026-03-30T06:08:01.001Z</time></trkpt><trkpt lat="14.562714701245888" lon="120.99977338414396"><ele>8.0</ele><time>2026-03-30T06:08:02.001Z</time></trkpt><trkpt lat="14.56280652962246" lon="120.99984432545962"><ele>7.999999999999999</ele><time>2026-03-30T06:08:04.001Z</time></trkpt><trkpt lat="14.562855709030453" lon="120.99991067721615"><ele>8.0</ele><time>2026-03-30T06:08:05.001Z</time></trkpt><trkpt lat="14.56291311288157" lon="120.99997056998772"><ele>8.0</ele><time>2026-03-30T06:08:06.001Z</time></trkpt><trkpt lat="14.562968045990669" lon="121.0000284520695"><ele>8.0</ele><time>2026-03-30T06:08:07.001Z</time></trkpt><trkpt lat="14.563027106403299" lon="121.00009079499675"><ele>7.999999999999999</ele><time>2026-03-30T06:08:08.001Z</time></trkpt><trkpt lat="14.563087667564949" lon="121.0001576653849"><ele>8.0</ele><time>2026-03-30T06:08:09.001Z</time></trkpt><trkpt lat="14.563153911719063" lon="121.0002264145358"><ele>7.800000000000001</ele><time>2026-03-30T06:08:10.001Z</time></trkpt><trkpt lat="14.563220481154874" lon="121.00028243361822"><ele>7.6000000000000005</ele><time>2026-03-30T06:08:11.001Z</time></trkpt><trkpt lat="14.56328803173816" lon="121.0003530899137"><ele>7.3999999999999995</ele><time>2026-03-30T06:08:12.001Z</time></trkpt><trkpt lat="14.563349819224559" lon="121.00041825614974"><ele>7.199999999999999</ele><time>2026-03-30T06:08:13.001Z</time></trkpt><trkpt lat="14.563417584336296" lon="121.00048730450085"><ele>7.0</ele><time>2026-03-30T06:08:14.001Z</time></trkpt><trkpt lat="14.563484585567462" lon="121.00055864555765"><ele>7.000000000000001</ele><time>2026-03-30T06:08:15.001Z</time></trkpt><trkpt lat="14.563552354522853" lon="121.00063296220057"><ele>7.0</ele><time>2026-03-30T06:08:16.001Z</time></trkpt><trkpt lat="14.56361837467735" lon="121.00070803320426"><ele>7.0</ele><time>2026-03-30T06:08:17.001Z</time></trkpt><trkpt lat="14.563680403873516" lon="121.00077289062068"><ele>7.0</ele><time>2026-03-30T06:08:18.001Z</time></trkpt><trkpt lat="14.563741428134167" lon="121.0008347876081"><ele>7.000000000000001</ele><time>2026-03-30T06:08:19.001Z</time></trkpt><trkpt lat="14.563796614423635" lon="121.00088088250713"><ele>7.0</ele><time>2026-03-30T06:08:20.001Z</time></trkpt><trkpt lat="14.563856424784266" lon="121.00094077934007"><ele>7.199999999999999</ele><time>2026-03-30T06:08:21.001Z</time></trkpt><trkpt lat="14.563921012326277" lon="121.00100839733507"><ele>7.3999999999999995</ele><time>2026-03-30T06:08:22.001Z</time></trkpt><trkpt lat="14.563988721831548" lon="121.00108180453996"><ele>7.6000000000000005</ele><time>2026-03-30T06:08:23.001Z</time></trkpt><trkpt lat="14.564050012096779" lon="121.0011541885777"><ele>7.800000000000001</ele><time>2026-03-30T06:08:24.001Z</time></trkpt><trkpt lat="14.564119566391756" lon="121.0012087114067"><ele>8.0</ele><time>2026-03-30T06:08:25.001Z</time></trkpt><trkpt lat="14.564190612574183" lon="121.00127760058555"><ele>7.999999999999999</ele><time>2026-03-30T06:08:26.001Z</time></trkpt><trkpt lat="14.564254246750272" lon="121.00134568861775"><ele>8.0</ele><time>2026-03-30T06:08:27.001Z</time></trkpt><trkpt lat="14.564307659150682" lon="121.0013936942588"><ele>8.0</ele><time>2026-03-30T06:08:28.001Z</time></trkpt><trkpt lat="14.564366183184264" lon="121.00144572948301"><ele>8.0</ele><time>2026-03-30T06:08:29.001Z</time></trkpt><trkpt lat="14.564418145535099" lon="121.0014981159725"><ele>7.999999999999999</ele><time>2026-03-30T06:08:30.001Z</time></trkpt><trkpt lat="14.564483395759826" lon="121.00155954171514"><ele>8.0</ele><time>2026-03-30T06:08:31.001Z</time></trkpt><trkpt lat="14.564549375753419" lon="121.00162780514177"><ele>7.6000000000000005</ele><time>2026-03-30T06:08:32.001Z</time></trkpt><trkpt lat="14.564604729106598" lon="121.00168876459861"><ele>7.200000000000001</ele><time>2026-03-30T06:08:33.001Z</time></trkpt><trkpt lat="14.564671450303813" lon="121.001752855193"><ele>6.8</ele><time>2026-03-30T06:08:34.001Z</time></trkpt><trkpt lat="14.56473449129931" lon="121.00182267683866"><ele>6.4</ele><time>2026-03-30T06:08:35.001Z</time></trkpt><trkpt lat="14.564804863410894" lon="121.00189359618035"><ele>6.0</ele><time>2026-03-30T06:08:36.001Z</time></trkpt><trkpt lat="14.5648754961142" lon="121.00196622934567"><ele>6.0</ele><time>2026-03-30T06:08:37.001Z</time></trkpt><trkpt lat="14.564944215203592" lon="121.0020328239559"><ele>6.0</ele><time>2026-03-30T06:08:38.001Z</time></trkpt><trkpt lat="14.565027664535094" lon="121.00211510690946"><ele>6.0</ele><time>2026-03-30T06:08:39.001Z</time></trkpt><trkpt lat="14.565102999007" lon="121.00218227278593"><ele>6.0</ele><time>2026-03-30T06:08:40.001Z</time></trkpt><trkpt lat="14.565175886657572" lon="121.00225462385258"><ele>6.0</ele><time>2026-03-30T06:08:41.001Z</time></trkpt><trkpt lat="14.56525499583244" lon="121.00232320768079"><ele>6.0</ele><time>2026-03-30T06:08:42.001Z</time></trkpt><trkpt lat="14.565329668942178" lon="121.00240068766368"><ele>6.0</ele><time>2026-03-30T06:08:43.001Z</time></trkpt><trkpt lat="14.565404685323998" lon="121.00246921771122"><ele>6.0</ele><time>2026-03-30T06:08:44.001Z</time></trkpt><trkpt lat="14.56548397062917" lon="121.00254810489001"><ele>6.0</ele><time>2026-03-30T06:08:45.001Z</time></trkpt><trkpt lat="14.565563858040615" lon="121.00261891033826"><ele>6.0</ele><time>2026-03-30T06:08:46Z</time></trkpt><trkpt lat="14.565630266079312" lon="121.00269259181155"><ele>6.333333333333333</ele><time>2026-03-30T06:08:47Z</time></trkpt><trkpt lat="14.565695723992468" lon="121.00275992327225"><ele>6.666666666666666</ele><time>2026-03-30T06:08:48Z</time></trkpt><trkpt lat="14.565760862219278" lon="121.00281680844364"><ele>7.0</ele><time>2026-03-30T06:08:49Z</time></trkpt><trkpt lat="14.565827112177557" lon="121.00288164315299"><ele>7.333333333333333</ele><time>2026-03-30T06:08:50Z</time></trkpt><trkpt lat="14.565879366238027" lon="121.00293532149142"><ele>7.666666666666666</ele><time>2026-03-30T06:08:51Z</time></trkpt><trkpt lat="14.565928185493693" lon="121.00299340809711"><ele>8.0</ele><time>2026-03-30T06:08:52Z</time></trkpt><trkpt lat="14.565963221161713" lon="121.00306002732027"><ele>8.0</ele><time>2026-03-30T06:08:53Z</time></trkpt><trkpt lat="14.566009663083829" lon="121.00313204370316"><ele>8.0</ele><time>2026-03-30T06:08:55Z</time></trkpt><trkpt lat="14.56608576858354" lon="121.00313652034548"><ele>8.0</ele><time>2026-03-30T06:08:57Z</time></trkpt><trkpt lat="14.566198556557218" lon="121.0031075759785"><ele>8.0</ele><time>2026-03-30T06:08:59.001Z</time></trkpt><trkpt lat="14.566269582298256" lon="121.00307130644539"><ele>8.0</ele><time>2026-03-30T06:09:01.001Z</time></trkpt><trkpt lat="14.566374183856228" lon="121.00300243974691"><ele>7.4</ele><time>2026-03-30T06:09:03.001Z</time></trkpt><trkpt lat="14.566460216419985" lon="121.00295473313092"><ele>6.800000000000001</ele><time>2026-03-30T06:09:04.001Z</time></trkpt><trkpt lat="14.566552270582534" lon="121.00290306645398"><ele>6.2</ele><time>2026-03-30T06:09:05.001Z</time></trkpt><trkpt lat="14.566645724240946" lon="121.0028493817544"><ele>5.6</ele><time>2026-03-30T06:09:06.001Z</time></trkpt><trkpt lat="14.566751145263074" lon="121.00278882240701"><ele>5.0</ele><time>2026-03-30T06:09:07.001Z</time></trkpt><trkpt lat="14.566865544720489" lon="121.00272310534983"><ele>5.0</ele><time>2026-03-30T06:09:08.001Z</time></trkpt><trkpt lat="14.566971975283021" lon="121.00261802345736"><ele>5.0</ele><time>2026-03-30T06:09:09.001Z</time></trkpt><trkpt lat="14.567077202591452" lon="121.00255297262372"><ele>5.0</ele><time>2026-03-30T06:09:10.001Z</time></trkpt><trkpt lat="14.567206969932066" lon="121.00247919652918"><ele>5.0</ele><time>2026-03-30T06:09:11.001Z</time></trkpt><trkpt lat="14.567345743563163" lon="121.00240521314592"><ele>6.0</ele><time>2026-03-30T06:09:12.001Z</time></trkpt><trkpt lat="14.567490985966394" lon="121.00232250307398"><ele>7.0</ele><time>2026-03-30T06:09:13.001Z</time></trkpt><trkpt lat="14.5676219217204" lon="121.00224423701188"><ele>8.0</ele><time>2026-03-30T06:09:14.001Z</time></trkpt><trkpt lat="14.56776362441971" lon="121.00216143359341"><ele>8.333333333333332</ele><time>2026-03-30T06:09:15.001Z</time></trkpt><trkpt lat="14.567931975665605" lon="121.00206151010346"><ele>8.666666666666666</ele><time>2026-03-30T06:09:16.001Z</time></trkpt><trkpt lat="14.568078225066795" lon="121.00197823744196"><ele>9.0</ele><time>2026-03-30T06:09:17.001Z</time></trkpt><trkpt lat="14.568224551945407" lon="121.00190063305334"><ele>9.0</ele><time>2026-03-30T06:09:18.001Z</time></trkpt><trkpt lat="14.568370150609002" lon="121.00183012094354"><ele>9.0</ele><time>2026-03-30T06:09:19.001Z</time></trkpt><trkpt lat="14.568509753833963" lon="121.00177248031181"><ele>9.0</ele><time>2026-03-30T06:09:20.001Z</time></trkpt><trkpt lat="14.568652658591384" lon="121.00170588243994"><ele>8.333333333333334</ele><time>2026-03-30T06:09:21.001Z</time></trkpt><trkpt lat="14.568786692061677" lon="121.00163633982793"><ele>7.666666666666667</ele><time>2026-03-30T06:09:22.001Z</time></trkpt><trkpt lat="14.568963309216013" lon="121.00155425163037"><ele>7.0</ele><time>2026-03-30T06:09:23.001Z</time></trkpt><trkpt lat="14.56910550219178" lon="121.00148410529513"><ele>7.0</ele><time>2026-03-30T06:09:24.001Z</time></trkpt><trkpt lat="14.569247411432581" lon="121.00141233457501"><ele>7.0</ele><time>2026-03-30T06:09:25.001Z</time></trkpt><trkpt lat="14.569396126658024" lon="121.00132272204355"><ele>7.0</ele><time>2026-03-30T06:09:26.001Z</time></trkpt><trkpt lat="14.569547607942082" lon="121.0012376889306"><ele>8.0</ele><time>2026-03-30T06:09:27.001Z</time></trkpt><trkpt lat="14.56970650271128" lon="121.00115979658038"><ele>9.0</ele><time>2026-03-30T06:09:28.001Z</time></trkpt><trkpt lat="14.569848138812208" lon="121.00107162510002"><ele>10.0</ele><time>2026-03-30T06:09:29.001Z</time></trkpt><trkpt lat="14.569998381455699" lon="121.00099323941502"><ele>10.0</ele><time>2026-03-30T06:09:30.001Z</time></trkpt><trkpt lat="14.570137915132145" lon="121.00092678559632"><ele>10.0</ele><time>2026-03-30T06:09:31.001Z</time></trkpt><trkpt lat="14.570267950558849" lon="121.0008424321629"><ele>10.0</ele><time>2026-03-30T06:09:32.001Z</time></trkpt><trkpt lat="14.570407326182359" lon="121.00078141062352"><ele>8.333333333333334</ele><time>2026-03-30T06:09:33.001Z</time></trkpt><trkpt lat="14.570550669616116" lon="121.00069579652879"><ele>6.666666666666667</ele><time>2026-03-30T06:09:34.001Z</time></trkpt><trkpt lat="14.570693090755356" lon="121.00062777336092"><ele>5.0</ele><time>2026-03-30T06:09:35.001Z</time></trkpt><trkpt lat="14.570813568967612" lon="121.00054559674524"><ele>5.0</ele><time>2026-03-30T06:09:36.001Z</time></trkpt><trkpt lat="14.570972061732938" lon="121.00045934577861"><ele>5.0</ele><time>2026-03-30T06:09:37.001Z</time></trkpt><trkpt lat="14.571106472528383" lon="121.00038620008762"><ele>5.0</ele><time>2026-03-30T06:09:38.001Z</time></trkpt><trkpt lat="14.571249744218683" lon="121.00030823236645"><ele>5.333333333333334</ele><time>2026-03-30T06:09:39.001Z</time></trkpt><trkpt lat="14.571393003105692" lon="121.00023027158764"><ele>5.666666666666667</ele><time>2026-03-30T06:09:40.001Z</time></trkpt><trkpt lat="14.571518440937636" lon="121.00016200895749"><ele>6.0</ele><time>2026-03-30T06:09:41.001Z</time></trkpt><trkpt lat="14.57164823229079" lon="121.00009137714689"><ele>6.0</ele><time>2026-03-30T06:09:42.001Z</time></trkpt><trkpt lat="14.571766187209477" lon="121.00002718667281"><ele>6.0</ele><time>2026-03-30T06:09:43.001Z</time></trkpt><trkpt lat="14.571879853916599" lon="120.99996532981623"><ele>6.0</ele><time>2026-03-30T06:09:44.001Z</time></trkpt><trkpt lat="14.57195226418673" lon="120.99993248628691"><ele>6.0</ele><time>2026-03-30T06:09:45.001Z</time></trkpt><trkpt lat="14.57203678101276" lon="120.99986698142476"><ele>6.0</ele><time>2026-03-30T06:09:46.001Z</time></trkpt><trkpt lat="14.572106111657982" lon="120.99983481417046"><ele>6.166666666666667</ele><time>2026-03-30T06:09:47.001Z</time></trkpt><trkpt lat="14.572181088578459" lon="120.99978973641589"><ele>6.333333333333334</ele><time>2026-03-30T06:09:48.001Z</time></trkpt><trkpt lat="14.572238971431" lon="120.99975362361077"><ele>6.5</ele><time>2026-03-30T06:09:49.001Z</time></trkpt><trkpt lat="14.572330083160654" lon="120.99970320763421"><ele>6.666666666666667</ele><time>2026-03-30T06:09:51.001Z</time></trkpt><trkpt lat="14.572391584686855" lon="120.99967856600355"><ele>6.833333333333334</ele><time>2026-03-30T06:09:54.001Z</time></trkpt><trkpt lat="14.572477787277533" lon="120.9996493931643"><ele>7.0</ele><time>2026-03-30T06:10:18.001Z</time></trkpt><trkpt lat="14.572567336132959" lon="120.99959471087327"><ele>7.000000000000001</ele><time>2026-03-30T06:10:20.001Z</time></trkpt><trkpt lat="14.572627422940263" lon="120.99956523670453"><ele>7.0</ele><time>2026-03-30T06:10:21.001Z</time></trkpt><trkpt lat="14.572694846338912" lon="120.9995297823752"><ele>7.0</ele><time>2026-03-30T06:10:22.001Z</time></trkpt><trkpt lat="14.572768065305786" lon="120.99949215407003"><ele>7.0</ele><time>2026-03-30T06:10:23.001Z</time></trkpt><trkpt lat="14.572860367004075" lon="120.99944965553905"><ele>7.000000000000001</ele><time>2026-03-30T06:10:24.001Z</time></trkpt><trkpt lat="14.572951260655287" lon="120.99939759977688"><ele>7.0</ele><time>2026-03-30T06:10:25.001Z</time></trkpt><trkpt lat="14.573040708703696" lon="120.99934382892515"><ele>7.0</ele><time>2026-03-30T06:10:26.001Z</time></trkpt><trkpt lat="14.573139120439885" lon="120.9992914921429"><ele>7.0</ele><time>2026-03-30T06:10:27.001Z</time></trkpt><trkpt lat="14.573242882715096" lon="120.99922864620206"><ele>7.0</ele><time>2026-03-30T06:10:28.001Z</time></trkpt><trkpt lat="14.573349689261953" lon="120.9991675131276"><ele>7.0</ele><time>2026-03-30T06:10:29.001Z</time></trkpt><trkpt lat="14.573465132190108" lon="120.99910358458486"><ele>7.0</ele><time>2026-03-30T06:10:30.001Z</time></trkpt><trkpt lat="14.573583147033787" lon="120.99902803574341"><ele>7.0</ele><time>2026-03-30T06:10:31.001Z</time></trkpt><trkpt lat="14.573707939893044" lon="120.9989514072033"><ele>7.0</ele><time>2026-03-30T06:10:32.001Z</time></trkpt><trkpt lat="14.573836984446388" lon="120.99888249581612"><ele>7.0</ele><time>2026-03-30T06:10:33.001Z</time></trkpt><trkpt lat="14.573964289714334" lon="120.99881730124739"><ele>6.75</ele><time>2026-03-30T06:10:34Z</time></trkpt><trkpt lat="14.574086290094229" lon="120.99875114129388"><ele>6.5</ele><time>2026-03-30T06:10:35Z</time></trkpt><trkpt lat="14.574211723978104" lon="120.99868007966751"><ele>6.25</ele><time>2026-03-30T06:10:36Z</time></trkpt><trkpt lat="14.57434087337787" lon="120.99861859946758"><ele>6.0</ele><time>2026-03-30T06:10:37Z</time></trkpt><trkpt lat="14.574455415847904" lon="120.99855694863592"><ele>6.0</ele><time>2026-03-30T06:10:38Z</time></trkpt><trkpt lat="14.57456344222325" lon="120.99851453734024"><ele>6.0</ele><time>2026-03-30T06:10:39Z</time></trkpt><trkpt lat="14.5746850163259" lon="120.99843483911586"><ele>6.0</ele><time>2026-03-30T06:10:40Z</time></trkpt><trkpt lat="14.574816004874808" lon="120.99836381729993"><ele>6.0</ele><time>2026-03-30T06:10:41Z</time></trkpt><trkpt lat="14.574955597883417" lon="120.99828057690605"><ele>6.0</ele><time>2026-03-30T06:10:42Z</time></trkpt><trkpt lat="14.575099596028334" lon="120.9982029243834"><ele>6.0</ele><time>2026-03-30T06:10:43Z</time></trkpt><trkpt lat="14.57523896369602" lon="120.99813330791889"><ele>6.0</ele><time>2026-03-30T06:10:44Z</time></trkpt><trkpt lat="14.575368817708986" lon="120.9980608418562"><ele>5.666666666666667</ele><time>2026-03-30T06:10:45Z</time></trkpt><trkpt lat="14.575498415148347" lon="120.99799293994587"><ele>5.333333333333334</ele><time>2026-03-30T06:10:46Z</time></trkpt><trkpt lat="14.575634424478562" lon="120.99792151958546"><ele>5.0</ele><time>2026-03-30T06:10:47Z</time></trkpt><trkpt lat="14.575767846878758" lon="120.99784395457637"><ele>5.0</ele><time>2026-03-30T06:10:48Z</time></trkpt><trkpt lat="14.575905091039298" lon="120.99777818750847"><ele>5.0</ele><time>2026-03-30T06:10:49Z</time></trkpt><trkpt lat="14.576034281114914" lon="120.99770973611137"><ele>5.0</ele><time>2026-03-30T06:10:50Z</time></trkpt><trkpt lat="14.576165271612748" lon="120.99764155508065"><ele>5.0</ele><time>2026-03-30T06:10:51Z</time></trkpt><trkpt lat="14.576277118855497" lon="120.99759914220743"><ele>5.0</ele><time>2026-03-30T06:10:52Z</time></trkpt><trkpt lat="14.576389890618762" lon="120.99754046372212"><ele>5.0</ele><time>2026-03-30T06:10:53Z</time></trkpt><trkpt lat="14.576488580510558" lon="120.99748775112373"><ele>5.0</ele><time>2026-03-30T06:10:54Z</time></trkpt><trkpt lat="14.576583902674368" lon="120.99743412958716"><ele>5.0</ele><time>2026-03-30T06:10:55Z</time></trkpt><trkpt lat="14.576670868434181" lon="120.99739929419746"><ele>5.0</ele><time>2026-03-30T06:10:56Z</time></trkpt><trkpt lat="14.576737331743562" lon="120.99734911808125"><ele>5.0</ele><time>2026-03-30T06:10:57Z</time></trkpt><trkpt lat="14.576836991234412" lon="120.99734146258099"><ele>5.0</ele><time>2026-03-30T06:10:58Z</time></trkpt><trkpt lat="14.576924601246178" lon="120.99732964278995"><ele>5.0</ele><time>2026-03-30T06:10:59Z</time></trkpt><trkpt lat="14.577014992234107" lon="120.99733221226275"><ele>5.0</ele><time>2026-03-30T06:11:00Z</time></trkpt><trkpt lat="14.57708929962271" lon="120.99734354055667"><ele>5.0</ele><time>2026-03-30T06:11:01Z</time></trkpt><trkpt lat="14.57717741998642" lon="120.99736669963005"><ele>5.0</ele><time>2026-03-30T06:11:02Z</time></trkpt><trkpt lat="14.5772595421848" lon="120.99738438822698"><ele>5.0</ele><time>2026-03-30T06:11:03Z</time></trkpt><trkpt lat="14.577349071120883" lon="120.99741575609069"><ele>5.0</ele><time>2026-03-30T06:11:04Z</time></trkpt><trkpt lat="14.577431840309075" lon="120.99745002417913"><ele>5.0</ele><time>2026-03-30T06:11:05Z</time></trkpt><trkpt lat="14.577517159164865" lon="120.99749926398829"><ele>5.0</ele><time>2026-03-30T06:11:06Z</time></trkpt><trkpt lat="14.577610289709776" lon="120.99754823141828"><ele>5.0</ele><time>2026-03-30T06:11:07Z</time></trkpt><trkpt lat="14.577694048441748" lon="120.99761584169836"><ele>5.2</ele><time>2026-03-30T06:11:08Z</time></trkpt><trkpt lat="14.57778229419089" lon="120.99768369842872"><ele>5.4</ele><time>2026-03-30T06:11:09Z</time></trkpt><trkpt lat="14.57787071180942" lon="120.99775542246746"><ele>5.6</ele><time>2026-03-30T06:11:10Z</time></trkpt><trkpt lat="14.57795487318004" lon="120.99782127280201"><ele>5.8</ele><time>2026-03-30T06:11:11Z</time></trkpt><trkpt lat="14.578040591898969" lon="120.9978865113979"><ele>6.0</ele><time>2026-03-30T06:11:12Z</time></trkpt><trkpt lat="14.578114730176097" lon="120.99794600731268"><ele>6.0</ele><time>2026-03-30T06:11:13Z</time></trkpt><trkpt lat="14.578186280643397" lon="120.99801049460915"><ele>6.0</ele><time>2026-03-30T06:11:14Z</time></trkpt><trkpt lat="14.578270705419822" lon="120.99807053273705"><ele>6.0</ele><time>2026-03-30T06:11:15Z</time></trkpt><trkpt lat="14.5783371578327" lon="120.99812204817445"><ele>6.0</ele><time>2026-03-30T06:11:16Z</time></trkpt><trkpt lat="14.578401414490978" lon="120.99818047141564"><ele>6.0</ele><time>2026-03-30T06:11:17Z</time></trkpt><trkpt lat="14.578452855497426" lon="120.99822341784031"><ele>6.0</ele><time>2026-03-30T06:11:18Z</time></trkpt><trkpt lat="14.578503087924494" lon="120.99826397656248"><ele>6.0</ele><time>2026-03-30T06:11:19Z</time></trkpt><trkpt lat="14.578558706601806" lon="120.99831652072177"><ele>6.0</ele><time>2026-03-30T06:11:20Z</time></trkpt><trkpt lat="14.578626756690369" lon="120.99836490674161"><ele>6.0</ele><time>2026-03-30T06:11:21Z</time></trkpt><trkpt lat="14.57869859307048" lon="120.99841534380748"><ele>6.0</ele><time>2026-03-30T06:11:22Z</time></trkpt><trkpt lat="14.57875503777286" lon="120.99846534536991"><ele>6.0</ele><time>2026-03-30T06:11:23Z</time></trkpt><trkpt lat="14.57881812144133" lon="120.99851371610563"><ele>6.0</ele><time>2026-03-30T06:11:24Z</time></trkpt><trkpt lat="14.578884814544116" lon="120.99856057999385"><ele>6.0</ele><time>2026-03-30T06:11:25Z</time></trkpt><trkpt lat="14.578955760369734" lon="120.99861303940182"><ele>6.0</ele><time>2026-03-30T06:11:26Z</time></trkpt><trkpt lat="14.579024318034485" lon="120.99865907548374"><ele>6.0</ele><time>2026-03-30T06:11:27Z</time></trkpt><trkpt lat="14.579091366345663" lon="120.99870414831392"><ele>6.0</ele><time>2026-03-30T06:11:28Z</time></trkpt><trkpt lat="14.579152173854913" lon="120.99875612714007"><ele>6.0</ele><time>2026-03-30T06:11:29Z</time></trkpt><trkpt lat="14.579220893452863" lon="120.99881253964152"><ele>6.0</ele><time>2026-03-30T06:11:30Z</time></trkpt><trkpt lat="14.579296141355096" lon="120.99887241720465"><ele>6.0</ele><time>2026-03-30T06:11:31Z</time></trkpt><trkpt lat="14.579376273092553" lon="120.9989396664939"><ele>6.0</ele><time>2026-03-30T06:11:32Z</time></trkpt><trkpt lat="14.579458305276436" lon="120.99900824148105"><ele>6.0</ele><time>2026-03-30T06:11:33.001Z</time></trkpt><trkpt lat="14.57954277363248" lon="120.9990728109799"><ele>6.0</ele><time>2026-03-30T06:11:34.001Z</time></trkpt><trkpt lat="14.579625426537946" lon="120.99914230312497"><ele>6.0</ele><time>2026-03-30T06:11:35.001Z</time></trkpt><trkpt lat="14.579696794203082" lon="120.9992087192549"><ele>6.8</ele><time>2026-03-30T06:11:36.001Z</time></trkpt><trkpt lat="14.57977251201149" lon="120.99927618596718"><ele>7.6</ele><time>2026-03-30T06:11:37.001Z</time></trkpt><trkpt lat="14.579858587148662" lon="120.9993469324688"><ele>8.4</ele><time>2026-03-30T06:11:38.001Z</time></trkpt><trkpt lat="14.57993840700306" lon="120.99941605256583"><ele>9.2</ele><time>2026-03-30T06:11:39.001Z</time></trkpt><trkpt lat="14.580016050851977" lon="120.9994710140739"><ele>10.0</ele><time>2026-03-30T06:11:40.001Z</time></trkpt><trkpt lat="14.580080078488667" lon="120.99947816301801"><ele>10.0</ele><time>2026-03-30T06:11:41.001Z</time></trkpt><trkpt lat="14.580158718644359" lon="120.9995127955477"><ele>10.0</ele><time>2026-03-30T06:11:42.001Z</time></trkpt><trkpt lat="14.580208214268055" lon="120.99956838200335"><ele>10.0</ele><time>2026-03-30T06:11:43.001Z</time></trkpt><trkpt lat="14.5802891650793" lon="120.99963671365043"><ele>10.0</ele><time>2026-03-30T06:11:44.001Z</time></trkpt><trkpt lat="14.580375975976944" lon="120.99969430724742"><ele>10.0</ele><time>2026-03-30T06:11:45.001Z</time></trkpt><trkpt lat="14.580438165417135" lon="120.99975289254205"><ele>9.6</ele><time>2026-03-30T06:11:46.001Z</time></trkpt><trkpt lat="14.580522653767728" lon="120.99982120643554"><ele>9.2</ele><time>2026-03-30T06:11:47.001Z</time></trkpt><trkpt lat="14.580601800264676" lon="120.99988321755055"><ele>8.8</ele><time>2026-03-30T06:11:48.001Z</time></trkpt><trkpt lat="14.580688129706235" lon="120.9999480604794"><ele>8.4</ele><time>2026-03-30T06:11:49.001Z</time></trkpt><trkpt lat="14.580768888418069" lon="121.00000414027535"><ele>8.0</ele><time>2026-03-30T06:11:50.001Z</time></trkpt><trkpt lat="14.580854676693026" lon="121.00005466070944"><ele>8.0</ele><time>2026-03-30T06:11:51.001Z</time></trkpt><trkpt lat="14.580944050007881" lon="121.0001045717484"><ele>8.0</ele><time>2026-03-30T06:11:53.001Z</time></trkpt><trkpt lat="14.581045184501201" lon="121.00010083673557"><ele>8.0</ele><time>2026-03-30T06:11:55.001Z</time></trkpt><trkpt lat="14.581099660369626" lon="120.99998570072724"><ele>8.0</ele><time>2026-03-30T06:11:57.001Z</time></trkpt><trkpt lat="14.581160245667347" lon="120.99989325594606"><ele>8.0</ele><time>2026-03-30T06:11:59.001Z</time></trkpt><trkpt lat="14.581147165573322" lon="120.99971839826907"><ele>8.0</ele><time>2026-03-30T06:12:01.001Z</time></trkpt><trkpt lat="14.581132255919245" lon="120.99964144279399"><ele>8.0</ele><time>2026-03-30T06:12:02.001Z</time></trkpt><trkpt lat="14.581120430085397" lon="120.99957004865601"><ele>8.0</ele><time>2026-03-30T06:12:03.001Z</time></trkpt><trkpt lat="14.581082477455368" lon="120.99943632901369"><ele>8.0</ele><time>2026-03-30T06:12:05.001Z</time></trkpt><trkpt lat="14.581086395868066" lon="120.99930955106896"><ele>8.0</ele><time>2026-03-30T06:12:07.001Z</time></trkpt><trkpt lat="14.581136468682184" lon="120.99923336815208"><ele>8.0</ele><time>2026-03-30T06:12:08.001Z</time></trkpt><trkpt lat="14.58119036588209" lon="120.99915378437363"><ele>8.0</ele><time>2026-03-30T06:12:09.001Z</time></trkpt><trkpt lat="14.58124818417643" lon="120.99907784243324"><ele>8.0</ele><time>2026-03-30T06:12:10.001Z</time></trkpt><trkpt lat="14.581299917701754" lon="120.99899356879732"><ele>8.0</ele><time>2026-03-30T06:12:11.001Z</time></trkpt><trkpt lat="14.581352046128446" lon="120.99890328003725"><ele>8.0</ele><time>2026-03-30T06:12:12.001Z</time></trkpt><trkpt lat="14.581416895921317" lon="120.99883153388406"><ele>8.0</ele><time>2026-03-30T06:12:13.001Z</time></trkpt><trkpt lat="14.581489863569058" lon="120.99875488280699"><ele>8.0</ele><time>2026-03-30T06:12:14.001Z</time></trkpt><trkpt lat="14.581554955950377" lon="120.99868146696853"><ele>8.0</ele><time>2026-03-30T06:12:15.001Z</time></trkpt><trkpt lat="14.581614618982114" lon="120.99859616023554"><ele>8.0</ele><time>2026-03-30T06:12:16.001Z</time></trkpt><trkpt lat="14.581680286870471" lon="120.99850855540122"><ele>8.0</ele><time>2026-03-30T06:12:17.001Z</time></trkpt><trkpt lat="14.58174525359057" lon="120.99842799722887"><ele>8.0</ele><time>2026-03-30T06:12:18.001Z</time></trkpt><trkpt lat="14.58180655843843" lon="120.99835331500579"><ele>8.0</ele><time>2026-03-30T06:12:19.001Z</time></trkpt><trkpt lat="14.58187904310599" lon="120.99827149827797"><ele>8.0</ele><time>2026-03-30T06:12:20.001Z</time></trkpt><trkpt lat="14.581942112147008" lon="120.99818417800053"><ele>8.0</ele><time>2026-03-30T06:12:21.001Z</time></trkpt><trkpt lat="14.582012862213007" lon="120.99809673651632"><ele>8.0</ele><time>2026-03-30T06:12:22.001Z</time></trkpt><trkpt lat="14.582080829448369" lon="120.99801349159193"><ele>7.2</ele><time>2026-03-30T06:12:23.001Z</time></trkpt><trkpt lat="14.5821471340277" lon="120.99792296797493"><ele>6.4</ele><time>2026-03-30T06:12:24.001Z</time></trkpt><trkpt lat="14.582220239819193" lon="120.9978368767228"><ele>5.6000000000000005</ele><time>2026-03-30T06:12:25.001Z</time></trkpt><trkpt lat="14.582288953518882" lon="120.99775755706094"><ele>4.800000000000001</ele><time>2026-03-30T06:12:26.001Z</time></trkpt><trkpt lat="14.582337670495765" lon="120.99767707493504"><ele>4.0</ele><time>2026-03-30T06:12:27.001Z</time></trkpt><trkpt lat="14.582396560803597" lon="120.99761079056701"><ele>3.9999999999999996</ele><time>2026-03-30T06:12:28.001Z</time></trkpt><trkpt lat="14.582444952196935" lon="120.99754730764289"><ele>4.0</ele><time>2026-03-30T06:12:29.001Z</time></trkpt><trkpt lat="14.582493896727817" lon="120.99750061500956"><ele>4.0</ele><time>2026-03-30T06:12:30.001Z</time></trkpt><trkpt lat="14.582560791970824" lon="120.99743384418784"><ele>4.0</ele><time>2026-03-30T06:12:32.001Z</time></trkpt><trkpt lat="14.582604124728805" lon="120.99737507164623"><ele>3.9999999999999996</ele><time>2026-03-30T06:12:35.001Z</time></trkpt><trkpt lat="14.582626109873479" lon="120.9973122734983"><ele>4.0</ele><time>2026-03-30T06:13:27Z</time></trkpt><trkpt lat="14.582775524947001" lon="120.99713892683094"><ele>4.6</ele><time>2026-03-30T06:13:29Z</time></trkpt><trkpt lat="14.582835242744421" lon="120.99705580957799"><ele>5.2</ele><time>2026-03-30T06:13:30Z</time></trkpt><trkpt lat="14.582906962370405" lon="120.99697345276128"><ele>5.799999999999999</ele><time>2026-03-30T06:13:31Z</time></trkpt><trkpt lat="14.582969084758954" lon="120.99687681647612"><ele>6.3999999999999995</ele><time>2026-03-30T06:13:32Z</time></trkpt><trkpt lat="14.583051760273156" lon="120.9967893507364"><ele>7.0</ele><time>2026-03-30T06:13:33Z</time></trkpt><trkpt lat="14.583140569636416" lon="120.9966989183912"><ele>7.25</ele><time>2026-03-30T06:13:34Z</time></trkpt><trkpt lat="14.583230474081592" lon="120.99660309595997"><ele>7.5</ele><time>2026-03-30T06:13:35Z</time></trkpt><trkpt lat="14.583316419305387" lon="120.99650677680776"><ele>7.75</ele><time>2026-03-30T06:13:36Z</time></trkpt><trkpt lat="14.583403594421524" lon="120.99640703787719"><ele>8.0</ele><time>2026-03-30T06:13:37Z</time></trkpt><trkpt lat="14.583492275701081" lon="120.99630325900675"><ele>8.0</ele><time>2026-03-30T06:13:38Z</time></trkpt><trkpt lat="14.58358042900203" lon="120.99619970518918"><ele>8.0</ele><time>2026-03-30T06:13:39Z</time></trkpt><trkpt lat="14.583667009795233" lon="120.9960991072164"><ele>8.0</ele><time>2026-03-30T06:13:40Z</time></trkpt><trkpt lat="14.583750980181598" lon="120.99599738260564"><ele>8.0</ele><time>2026-03-30T06:13:41Z</time></trkpt><trkpt lat="14.58383626325903" lon="120.99589063191577"><ele>7.25</ele><time>2026-03-30T06:13:42Z</time></trkpt><trkpt lat="14.583919188881076" lon="120.9957827936367"><ele>6.5</ele><time>2026-03-30T06:13:43Z</time></trkpt><trkpt lat="14.584003544183435" lon="120.99567431938705"><ele>5.75</ele><time>2026-03-30T06:13:44Z</time></trkpt><trkpt lat="14.584091360820254" lon="120.99556544385364"><ele>5.0</ele><time>2026-03-30T06:13:45.001Z</time></trkpt><trkpt lat="14.58417711101205" lon="120.99546255660594"><ele>5.0</ele><time>2026-03-30T06:13:46.001Z</time></trkpt><trkpt lat="14.584263527437717" lon="120.9953564337092"><ele>5.0</ele><time>2026-03-30T06:13:47.001Z</time></trkpt><trkpt lat="14.58434491813455" lon="120.99524673252638"><ele>5.0</ele><time>2026-03-30T06:13:48.001Z</time></trkpt><trkpt lat="14.58443297998882" lon="120.99515066665867"><ele>5.0</ele><time>2026-03-30T06:13:49.001Z</time></trkpt><trkpt lat="14.584515145934736" lon="120.99506004164408"><ele>5.5</ele><time>2026-03-30T06:13:50.001Z</time></trkpt><trkpt lat="14.584581302391198" lon="120.9949713547355"><ele>6.0</ele><time>2026-03-30T06:13:51.001Z</time></trkpt><trkpt lat="14.584671622161704" lon="120.99487159377895"><ele>6.5</ele><time>2026-03-30T06:13:52.001Z</time></trkpt><trkpt lat="14.584759663185672" lon="120.99476712492293"><ele>7.0</ele><time>2026-03-30T06:13:53.001Z</time></trkpt><trkpt lat="14.58483386016105" lon="120.99466419562938"><ele>7.0</ele><time>2026-03-30T06:13:54.001Z</time></trkpt><trkpt lat="14.584916186836574" lon="120.99455581787531"><ele>7.0</ele><time>2026-03-30T06:13:55.001Z</time></trkpt><trkpt lat="14.58500191124182" lon="120.99445090926447"><ele>7.0</ele><time>2026-03-30T06:13:56.001Z</time></trkpt><trkpt lat="14.58509199416692" lon="120.99435395392007"><ele>7.0</ele><time>2026-03-30T06:13:57.001Z</time></trkpt><trkpt lat="14.58517711251861" lon="120.9942510935353"><ele>7.25</ele><time>2026-03-30T06:13:58.001Z</time></trkpt><trkpt lat="14.585264592715678" lon="120.99414850513548"><ele>7.5</ele><time>2026-03-30T06:13:59.001Z</time></trkpt><trkpt lat="14.585337674839462" lon="120.99405135457492"><ele>7.75</ele><time>2026-03-30T06:14:00.001Z</time></trkpt><trkpt lat="14.585407170348644" lon="120.99396438111155"><ele>8.0</ele><time>2026-03-30T06:14:01.001Z</time></trkpt><trkpt lat="14.58546756475153" lon="120.99389431135795"><ele>8.0</ele><time>2026-03-30T06:14:02.001Z</time></trkpt><trkpt lat="14.585519501173248" lon="120.99384886374358"><ele>8.0</ele><time>2026-03-30T06:14:03.001Z</time></trkpt><trkpt lat="14.585756499930314" lon="120.9937287117158"><ele>8.0</ele><time>2026-03-30T06:14:04.001Z</time></trkpt><trkpt lat="14.585445389508655" lon="120.993594223349"><ele>8.0</ele><time>2026-03-30T06:14:05.001Z</time></trkpt><trkpt lat="14.585409314614324" lon="120.99349569546389"><ele>8.0</ele><time>2026-03-30T06:14:06.001Z</time></trkpt><trkpt lat="14.58537875708339" lon="120.99338817226041"><ele>8.0</ele><time>2026-03-30T06:14:07.001Z</time></trkpt><trkpt lat="14.585318822011715" lon="120.99328423687474"><ele>8.0</ele><time>2026-03-30T06:14:08.001Z</time></trkpt><trkpt lat="14.58528869275872" lon="120.99318225736447"><ele>8.0</ele><time>2026-03-30T06:14:09.001Z</time></trkpt><trkpt lat="14.585247032438446" lon="120.99308275062945"><ele>7.333333333333333</ele><time>2026-03-30T06:14:10.001Z</time></trkpt><trkpt lat="14.58522056241939" lon="120.99299632881947"><ele>6.666666666666666</ele><time>2026-03-30T06:14:11.001Z</time></trkpt><trkpt lat="14.58522395360916" lon="120.99291026493718"><ele>6.0</ele><time>2026-03-30T06:14:12.001Z</time></trkpt><trkpt lat="14.585199209851123" lon="120.99283635963961"><ele>5.333333333333333</ele><time>2026-03-30T06:14:13.001Z</time></trkpt><trkpt lat="14.585174120220382" lon="120.99276142133237"><ele>4.666666666666666</ele><time>2026-03-30T06:14:14.001Z</time></trkpt><trkpt lat="14.585150429485601" lon="120.99269066126088"><ele>4.0</ele><time>2026-03-30T06:14:15.001Z</time></trkpt><trkpt lat="14.585107465294989" lon="120.99256328141628"><ele>4.800000000000001</ele><time>2026-03-30T06:14:17.001Z</time></trkpt><trkpt lat="14.58508366579072" lon="120.99249410196207"><ele>5.6000000000000005</ele><time>2026-03-30T06:14:18.001Z</time></trkpt><trkpt lat="14.58505573752394" lon="120.99241148093718"><ele>6.4</ele><time>2026-03-30T06:14:19.001Z</time></trkpt><trkpt lat="14.585019784719153" lon="120.99230020649746"><ele>7.2</ele><time>2026-03-30T06:14:20.001Z</time></trkpt><trkpt lat="14.584985475446665" lon="120.99219419059357"><ele>8.0</ele><time>2026-03-30T06:14:21.001Z</time></trkpt><trkpt lat="14.584946083714629" lon="120.99207246980733"><ele>8.0</ele><time>2026-03-30T06:14:22.001Z</time></trkpt><trkpt lat="14.584913105388248" lon="120.99197056654778"><ele>8.0</ele><time>2026-03-30T06:14:23.001Z</time></trkpt><trkpt lat="14.58487910437603" lon="120.99186550349182"><ele>8.0</ele><time>2026-03-30T06:14:24.001Z</time></trkpt><trkpt lat="14.58484069658128" lon="120.99175407372763"><ele>8.0</ele><time>2026-03-30T06:14:25.001Z</time></trkpt><trkpt lat="14.584759657860381" lon="120.99165751502673"><ele>8.0</ele><time>2026-03-30T06:14:26.001Z</time></trkpt><trkpt lat="14.584728289254377" lon="120.99154847356273"><ele>7.800000000000001</ele><time>2026-03-30T06:14:27.001Z</time></trkpt><trkpt lat="14.58468967895658" lon="120.9914412130707"><ele>7.6000000000000005</ele><time>2026-03-30T06:14:28.001Z</time></trkpt><trkpt lat="14.584656098631587" lon="120.99134128025179"><ele>7.3999999999999995</ele><time>2026-03-30T06:14:29.001Z</time></trkpt><trkpt lat="14.58466299220638" lon="120.99123544751009"><ele>7.199999999999999</ele><time>2026-03-30T06:14:30.001Z</time></trkpt><trkpt lat="14.584633102236578" lon="120.99115075482057"><ele>7.0</ele><time>2026-03-30T06:14:31.001Z</time></trkpt><trkpt lat="14.584604551521737" lon="120.991069332623"><ele>7.000000000000001</ele><time>2026-03-30T06:14:32.001Z</time></trkpt><trkpt lat="14.584582239802408" lon="120.99100420427808"><ele>7.0</ele><time>2026-03-30T06:14:33.001Z</time></trkpt><trkpt lat="14.584551922798617" lon="120.9909260338342"><ele>7.0</ele><time>2026-03-30T06:14:34.001Z</time></trkpt><trkpt lat="14.584524049549346" lon="120.99084663917826"><ele>7.0</ele><time>2026-03-30T06:14:35.001Z</time></trkpt><trkpt lat="14.584495541932865" lon="120.99076438807987"><ele>7.000000000000001</ele><time>2026-03-30T06:14:36.001Z</time></trkpt><trkpt lat="14.584464233099574" lon="120.99067405481966"><ele>7.0</ele><time>2026-03-30T06:14:37.001Z</time></trkpt><trkpt lat="14.584436819227614" lon="120.99059495940595"><ele>6.8</ele><time>2026-03-30T06:14:38.001Z</time></trkpt><trkpt lat="14.584400064486665" lon="120.99052570165873"><ele>6.6</ele><time>2026-03-30T06:14:39.001Z</time></trkpt><trkpt lat="14.584366596771138" lon="120.99043495078396"><ele>6.3999999999999995</ele><time>2026-03-30T06:14:40.001Z</time></trkpt><trkpt lat="14.58433942933835" lon="120.99034157381597"><ele>6.199999999999999</ele><time>2026-03-30T06:14:41.001Z</time></trkpt><trkpt lat="14.584316535220422" lon="120.9902465518121"><ele>6.0</ele><time>2026-03-30T06:14:42.001Z</time></trkpt><trkpt lat="14.58428130473849" lon="120.99014428052408"><ele>6.0</ele><time>2026-03-30T06:14:43.001Z</time></trkpt><trkpt lat="14.584246526303705" lon="120.99003397289933"><ele>6.0</ele><time>2026-03-30T06:14:44.001Z</time></trkpt><trkpt lat="14.584219444862093" lon="120.98992711589386"><ele>6.0</ele><time>2026-03-30T06:14:45.001Z</time></trkpt><trkpt lat="14.584184742159561" lon="120.98982114150128"><ele>6.0</ele><time>2026-03-30T06:14:46Z</time></trkpt><trkpt lat="14.584155254084461" lon="120.98972012996136"><ele>6.0</ele><time>2026-03-30T06:14:47Z</time></trkpt><trkpt lat="14.584120832385599" lon="120.9896177476211"><ele>6.4</ele><time>2026-03-30T06:14:48Z</time></trkpt><trkpt lat="14.58409264923566" lon="120.98951414953054"><ele>6.8</ele><time>2026-03-30T06:14:49Z</time></trkpt><trkpt lat="14.584056528042046" lon="120.98940672114513"><ele>7.200000000000001</ele><time>2026-03-30T06:14:50Z</time></trkpt><trkpt lat="14.584018434718223" lon="120.98929716594562"><ele>7.6000000000000005</ele><time>2026-03-30T06:14:51Z</time></trkpt><trkpt lat="14.583988284206443" lon="120.98919482288134"><ele>8.0</ele><time>2026-03-30T06:14:52Z</time></trkpt><trkpt lat="14.583957092244482" lon="120.98908794246917"><ele>8.0</ele><time>2026-03-30T06:14:53Z</time></trkpt><trkpt lat="14.583918551360584" lon="120.98898687428931"><ele>8.0</ele><time>2026-03-30T06:14:54Z</time></trkpt><trkpt lat="14.583881644095197" lon="120.98887433708715"><ele>8.0</ele><time>2026-03-30T06:14:55Z</time></trkpt><trkpt lat="14.583846217738452" lon="120.988770420613"><ele>8.0</ele><time>2026-03-30T06:14:56Z</time></trkpt><trkpt lat="14.583815561845316" lon="120.98867552367419"><ele>8.0</ele><time>2026-03-30T06:14:57Z</time></trkpt><trkpt lat="14.583783718170338" lon="120.98858961062764"><ele>7.999999999999999</ele><time>2026-03-30T06:14:58Z</time></trkpt><trkpt lat="14.583751075492632" lon="120.9885032387215"><ele>8.0</ele><time>2026-03-30T06:14:59Z</time></trkpt><trkpt lat="14.58373195799138" lon="120.98843435369452"><ele>8.0</ele><time>2026-03-30T06:15:00Z</time></trkpt><trkpt lat="14.583714267061906" lon="120.98837037089959"><ele>8.0</ele><time>2026-03-30T06:15:01Z</time></trkpt><trkpt lat="14.58369352400677" lon="120.98829549600873"><ele>7.999999999999999</ele><time>2026-03-30T06:15:02Z</time></trkpt><trkpt lat="14.583679191795804" lon="120.9882152435932"><ele>8.0</ele><time>2026-03-30T06:15:03Z</time></trkpt><trkpt lat="14.583809569546204" lon="120.98812356303895"><ele>8.200000000000001</ele><time>2026-03-30T06:15:06Z</time></trkpt><trkpt lat="14.583881332983283" lon="120.98809490363719"><ele>8.4</ele><time>2026-03-30T06:15:07Z</time></trkpt><trkpt lat="14.583955280966755" lon="120.98806891175511"><ele>8.600000000000001</ele><time>2026-03-30T06:15:08Z</time></trkpt><trkpt lat="14.584046857150103" lon="120.98803559342893"><ele>8.8</ele><time>2026-03-30T06:15:09Z</time></trkpt><trkpt lat="14.584142258601773" lon="120.98800464554317"><ele>9.0</ele><time>2026-03-30T06:15:10Z</time></trkpt><trkpt lat="14.584240541888244" lon="120.9879775114177"><ele>9.0</ele><time>2026-03-30T06:15:11Z</time></trkpt><trkpt lat="14.584345870839032" lon="120.98794902993993"><ele>9.0</ele><time>2026-03-30T06:15:12Z</time></trkpt><trkpt lat="14.584458080820184" lon="120.987918639286"><ele>9.0</ele><time>2026-03-30T06:15:13Z</time></trkpt><trkpt lat="14.584563847012282" lon="120.987878434362"><ele>9.0</ele><time>2026-03-30T06:15:14Z</time></trkpt><trkpt lat="14.584677113551653" lon="120.98783771931363"><ele>8.75</ele><time>2026-03-30T06:15:15Z</time></trkpt><trkpt lat="14.58478460274409" lon="120.9878020254228"><ele>8.5</ele><time>2026-03-30T06:15:16Z</time></trkpt><trkpt lat="14.584897433012491" lon="120.98776385205909"><ele>8.25</ele><time>2026-03-30T06:15:17Z</time></trkpt><trkpt lat="14.58500598907812" lon="120.98772951116266"><ele>8.0</ele><time>2026-03-30T06:15:18Z</time></trkpt><trkpt lat="14.585123022085337" lon="120.987696856576"><ele>8.0</ele><time>2026-03-30T06:15:19Z</time></trkpt><trkpt lat="14.58523711236216" lon="120.98765744531582"><ele>8.0</ele><time>2026-03-30T06:15:20Z</time></trkpt><trkpt lat="14.585354084399345" lon="120.98762177909586"><ele>8.0</ele><time>2026-03-30T06:15:21Z</time></trkpt><trkpt lat="14.585471343782698" lon="120.98758223296808"><ele>8.0</ele><time>2026-03-30T06:15:22Z</time></trkpt><trkpt lat="14.585589470346765" lon="120.98753928578228"><ele>7.5</ele><time>2026-03-30T06:15:23Z</time></trkpt><trkpt lat="14.58570003140572" lon="120.98750376012858"><ele>7.0</ele><time>2026-03-30T06:15:24Z</time></trkpt><trkpt lat="14.585801958260161" lon="120.98747083108125"><ele>6.5</ele><time>2026-03-30T06:15:25Z</time></trkpt><trkpt lat="14.585915691844367" lon="120.98743348382388"><ele>6.0</ele><time>2026-03-30T06:15:26Z</time></trkpt><trkpt lat="14.586023698554786" lon="120.98740027465284"><ele>6.0</ele><time>2026-03-30T06:15:27Z</time></trkpt><trkpt lat="14.586140671395308" lon="120.9873567029883"><ele>6.0</ele><time>2026-03-30T06:15:28Z</time></trkpt><trkpt lat="14.586245561443754" lon="120.98731789002257"><ele>6.0</ele><time>2026-03-30T06:15:29Z</time></trkpt><trkpt lat="14.586359023887882" lon="120.9872786520672"><ele>6.0</ele><time>2026-03-30T06:15:30Z</time></trkpt><trkpt lat="14.586477284105603" lon="120.98724075457814"><ele>6.0</ele><time>2026-03-30T06:15:31Z</time></trkpt><trkpt lat="14.586598630345046" lon="120.98720103330304"><ele>6.0</ele><time>2026-03-30T06:15:32Z</time></trkpt><trkpt lat="14.586718502995577" lon="120.98716178294788"><ele>6.0</ele><time>2026-03-30T06:15:33Z</time></trkpt><trkpt lat="14.58684498335016" lon="120.98711833560367"><ele>6.0</ele><time>2026-03-30T06:15:34Z</time></trkpt><trkpt lat="14.58697855678508" lon="120.9870760009046"><ele>6.0</ele><time>2026-03-30T06:15:35Z</time></trkpt><trkpt lat="14.58710091154247" lon="120.98703893509126"><ele>6.0</ele><time>2026-03-30T06:15:36Z</time></trkpt><trkpt lat="14.58721780148888" lon="120.98700532654793"><ele>6.0</ele><time>2026-03-30T06:15:37Z</time></trkpt><trkpt lat="14.587329164827521" lon="120.98697411617968"><ele>6.0</ele><time>2026-03-30T06:15:38Z</time></trkpt><trkpt lat="14.587435711760591" lon="120.98693662413788"><ele>6.0</ele><time>2026-03-30T06:15:39Z</time></trkpt><trkpt lat="14.587541707789178" lon="120.986900508499"><ele>6.0</ele><time>2026-03-30T06:15:40Z</time></trkpt><trkpt lat="14.587648716706553" lon="120.98686831330708"><ele>6.0</ele><time>2026-03-30T06:15:41Z</time></trkpt><trkpt lat="14.587739309867139" lon="120.98683226710166"><ele>6.0</ele><time>2026-03-30T06:15:42Z</time></trkpt><trkpt lat="14.587820744702542" lon="120.98681305179254"><ele>6.0</ele><time>2026-03-30T06:15:43Z</time></trkpt><trkpt lat="14.587917159919222" lon="120.98678905192037"><ele>6.8</ele><time>2026-03-30T06:15:44Z</time></trkpt><trkpt lat="14.588002094891005" lon="120.98676120928383"><ele>7.6</ele><time>2026-03-30T06:15:45Z</time></trkpt><trkpt lat="14.588078736472873" lon="120.98673650435437"><ele>8.4</ele><time>2026-03-30T06:15:46Z</time></trkpt><trkpt lat="14.588163828665158" lon="120.98671024259244"><ele>9.2</ele><time>2026-03-30T06:15:47Z</time></trkpt><trkpt lat="14.58825839612855" lon="120.98667771264793"><ele>10.0</ele><time>2026-03-30T06:15:48Z</time></trkpt><trkpt lat="14.588348474141949" lon="120.9866505290514"><ele>10.0</ele><time>2026-03-30T06:15:49Z</time></trkpt><trkpt lat="14.58842605875243" lon="120.98662758015895"><ele>10.0</ele><time>2026-03-30T06:15:50Z</time></trkpt><trkpt lat="14.588508361135569" lon="120.9866039270696"><ele>10.0</ele><time>2026-03-30T06:15:52Z</time></trkpt><trkpt lat="14.588604971141754" lon="120.98658537822601"><ele>10.0</ele><time>2026-03-30T06:15:54Z</time></trkpt><trkpt lat="14.58867514341099" lon="120.98656852832774"><ele>10.0</ele><time>2026-03-30T06:15:55Z</time></trkpt><trkpt lat="14.588745970727306" lon="120.986534297415"><ele>10.0</ele><time>2026-03-30T06:15:56Z</time></trkpt><trkpt lat="14.58881787411068" lon="120.98650542569605"><ele>9.833333333333334</ele><time>2026-03-30T06:15:57Z</time></trkpt><trkpt lat="14.588893001755492" lon="120.98648329637285"><ele>9.666666666666668</ele><time>2026-03-30T06:15:58Z</time></trkpt><trkpt lat="14.588975101082793" lon="120.98645715705958"><ele>9.5</ele><time>2026-03-30T06:15:59Z</time></trkpt><trkpt lat="14.589060047780421" lon="120.98642706397278"><ele>9.333333333333334</ele><time>2026-03-30T06:16:00Z</time></trkpt><trkpt lat="14.589147794040219" lon="120.98639733543382"><ele>9.166666666666666</ele><time>2026-03-30T06:16:01Z</time></trkpt><trkpt lat="14.589235701858678" lon="120.98636906820659"><ele>9.0</ele><time>2026-03-30T06:16:02Z</time></trkpt><trkpt lat="14.589318835930197" lon="120.98633999392828"><ele>9.0</ele><time>2026-03-30T06:16:03Z</time></trkpt><trkpt lat="14.589401045889161" lon="120.9863068421286"><ele>9.0</ele><time>2026-03-30T06:16:04Z</time></trkpt><trkpt lat="14.589494767433948" lon="120.98627371565574"><ele>9.0</ele><time>2026-03-30T06:16:05Z</time></trkpt><trkpt lat="14.589589866741804" lon="120.98623162327037"><ele>9.0</ele><time>2026-03-30T06:16:06Z</time></trkpt><trkpt lat="14.589669655427022" lon="120.9861875817051"><ele>9.0</ele><time>2026-03-30T06:16:07Z</time></trkpt><trkpt lat="14.589728703535675" lon="120.9861582896911"><ele>9.0</ele><time>2026-03-30T06:16:08Z</time></trkpt><trkpt lat="14.589793615901298" lon="120.98608412721383"><ele>8.666666666666666</ele><time>2026-03-30T06:16:10Z</time></trkpt><trkpt lat="14.589852336510674" lon="120.98602248292053"><ele>8.333333333333334</ele><time>2026-03-30T06:16:13.001Z</time></trkpt><trkpt lat="14.589917159015192" lon="120.98595146852412"><ele>8.0</ele><time>2026-03-30T06:16:38.001Z</time></trkpt><trkpt lat="14.589969000351163" lon="120.98589766965608"><ele>7.666666666666667</ele><time>2026-03-30T06:16:40.001Z</time></trkpt><trkpt lat="14.59002300433053" lon="120.98583792560531"><ele>7.333333333333334</ele><time>2026-03-30T06:16:42.001Z</time></trkpt><trkpt lat="14.590072787569241" lon="120.98578495524853"><ele>7.0</ele><time>2026-03-30T06:16:44.001Z</time></trkpt><trkpt lat="14.590131283820496" lon="120.9857115304288"><ele>6.6</ele><time>2026-03-30T06:16:46.001Z</time></trkpt><trkpt lat="14.590093255582174" lon="120.98559038663184"><ele>6.199999999999999</ele><time>2026-03-30T06:16:48.001Z</time></trkpt><trkpt lat="14.590042470680128" lon="120.98553906403943"><ele>5.8</ele><time>2026-03-30T06:16:49.001Z</time></trkpt><trkpt lat="14.589985367760773" lon="120.98549049147161"><ele>5.4</ele><time>2026-03-30T06:16:50.001Z</time></trkpt><trkpt lat="14.589910822853886" lon="120.9854365553395"><ele>5.0</ele><time>2026-03-30T06:16:51.001Z</time></trkpt><trkpt lat="14.589827349709362" lon="120.98537321824163"><ele>5.0</ele><time>2026-03-30T06:16:52Z</time></trkpt><trkpt lat="14.589737303687109" lon="120.98530950775442"><ele>5.0</ele><time>2026-03-30T06:16:53Z</time></trkpt><trkpt lat="14.589635319664259" lon="120.98524549011915"><ele>5.0</ele><time>2026-03-30T06:16:54Z</time></trkpt><trkpt lat="14.589549787804396" lon="120.98516473504502"><ele>5.0</ele><time>2026-03-30T06:16:55Z</time></trkpt><trkpt lat="14.589446263205003" lon="120.98508824983732"><ele>5.2</ele><time>2026-03-30T06:16:56Z</time></trkpt><trkpt lat="14.589354283025072" lon="120.98502364684221"><ele>5.4</ele><time>2026-03-30T06:16:57Z</time></trkpt><trkpt lat="14.589266823003566" lon="120.98496273422896"><ele>5.6</ele><time>2026-03-30T06:16:58Z</time></trkpt><trkpt lat="14.589184813738681" lon="120.9849056178923"><ele>5.8</ele><time>2026-03-30T06:16:59Z</time></trkpt><trkpt lat="14.58911323694038" lon="120.98485576735791"><ele>6.0</ele><time>2026-03-30T06:17:00Z</time></trkpt><trkpt lat="14.58905472301829" lon="120.9848150146195"><ele>6.333333333333333</ele><time>2026-03-30T06:17:01Z</time></trkpt><trkpt lat="14.588998138691382" lon="120.98477560575887"><ele>6.666666666666666</ele><time>2026-03-30T06:17:02Z</time></trkpt><trkpt lat="14.588929621020636" lon="120.98474125412545"><ele>7.0</ele><time>2026-03-30T06:17:05Z</time></trkpt><trkpt lat="14.588868010581068" lon="120.98468526935095"><ele>7.333333333333333</ele><time>2026-03-30T06:18:02Z</time></trkpt><trkpt lat="14.588814659113298" lon="120.98464839185489"><ele>7.666666666666666</ele><time>2026-03-30T06:18:03Z</time></trkpt><trkpt lat="14.588754327661777" lon="120.98460668966088"><ele>8.0</ele><time>2026-03-30T06:18:04Z</time></trkpt><trkpt lat="14.588680378048517" lon="120.98455557468291"><ele>7.4</ele><time>2026-03-30T06:18:05Z</time></trkpt><trkpt lat="14.588600617210973" lon="120.98449528294732"><ele>6.800000000000001</ele><time>2026-03-30T06:18:06Z</time></trkpt><trkpt lat="14.588496952094607" lon="120.98444096818444"><ele>6.2</ele><time>2026-03-30T06:18:07Z</time></trkpt><trkpt lat="14.58840509578075" lon="120.98434890984191"><ele>5.6</ele><time>2026-03-30T06:18:08Z</time></trkpt><trkpt lat="14.588329941153857" lon="120.98427274773935"><ele>5.0</ele><time>2026-03-30T06:18:09Z</time></trkpt><trkpt lat="14.588252878765159" lon="120.98426171978595"><ele>5.0</ele><time>2026-03-30T06:18:10Z</time></trkpt><trkpt lat="14.588193889684325" lon="120.9842065482925"><ele>5.0</ele><time>2026-03-30T06:18:11Z</time></trkpt><trkpt lat="14.588101065905096" lon="120.98414082416912"><ele>5.0</ele><time>2026-03-30T06:18:12Z</time></trkpt><trkpt lat="14.587977526733365" lon="120.9840533519055"><ele>5.0</ele><time>2026-03-30T06:18:13.001Z</time></trkpt><trkpt lat="14.587872521965576" lon="120.98398032558549"><ele>6.5</ele><time>2026-03-30T06:18:14.001Z</time></trkpt><trkpt lat="14.587769916639342" lon="120.98390979533161"><ele>8.0</ele><time>2026-03-30T06:18:15.001Z</time></trkpt><trkpt lat="14.587670375137188" lon="120.98383462334616"><ele>9.5</ele><time>2026-03-30T06:18:16.001Z</time></trkpt><trkpt lat="14.58756899681707" lon="120.98375429468757"><ele>11.0</ele><time>2026-03-30T06:18:17.001Z</time></trkpt><trkpt lat="14.587466914421091" lon="120.98367421298656"><ele>11.0</ele><time>2026-03-30T06:18:18.001Z</time></trkpt><trkpt lat="14.587359086177312" lon="120.98359403966545"><ele>11.0</ele><time>2026-03-30T06:18:19.001Z</time></trkpt><trkpt lat="14.587262493628456" lon="120.98352417762428"><ele>11.0</ele><time>2026-03-30T06:18:20.001Z</time></trkpt><trkpt lat="14.587166713083471" lon="120.98345767341532"><ele>11.0</ele><time>2026-03-30T06:18:21.001Z</time></trkpt><trkpt lat="14.587080779736057" lon="120.98339307179006"><ele>10.5</ele><time>2026-03-30T06:18:22.001Z</time></trkpt><trkpt lat="14.586997633968284" lon="120.98333563516309"><ele>10.0</ele><time>2026-03-30T06:18:23.001Z</time></trkpt><trkpt lat="14.58692347724912" lon="120.98327666168593"><ele>9.5</ele><time>2026-03-30T06:18:24.001Z</time></trkpt><trkpt lat="14.586826220572592" lon="120.98322700321923"><ele>9.0</ele><time>2026-03-30T06:18:26.001Z</time></trkpt><trkpt lat="14.586769689382272" lon="120.98318616613"><ele>8.5</ele><time>2026-03-30T06:18:27.001Z</time></trkpt><trkpt lat="14.586708514103545" lon="120.98313864710143"><ele>8.0</ele><time>2026-03-30T06:18:28.001Z</time></trkpt><trkpt lat="14.586661069052159" lon="120.98308968791503"><ele>8.0</ele><time>2026-03-30T06:18:29.001Z</time></trkpt><trkpt lat="14.586615407203313" lon="120.9830356427902"><ele>8.0</ele><time>2026-03-30T06:18:30.001Z</time></trkpt><trkpt lat="14.586554059390515" lon="120.98298073369997"><ele>8.0</ele><time>2026-03-30T06:18:31.001Z</time></trkpt><trkpt lat="14.58648277012549" lon="120.98293746495568"><ele>8.0</ele><time>2026-03-30T06:18:32.001Z</time></trkpt><trkpt lat="14.58638181207553" lon="120.9828556432296"><ele>8.0</ele><time>2026-03-30T06:18:34.001Z</time></trkpt><trkpt lat="14.586315949342268" lon="120.98278258778751"><ele>8.0</ele><time>2026-03-30T06:18:36.001Z</time></trkpt><trkpt lat="14.586279253520726" lon="120.98270496519683"><ele>8.0</ele><time>2026-03-30T06:18:39.001Z</time></trkpt><trkpt lat="14.586343120693794" lon="120.98260584828967"><ele>8.0</ele><time>2026-03-30T06:18:43.001Z</time></trkpt><trkpt lat="14.586425464052436" lon="120.98254613116971"><ele>8.0</ele><time>2026-03-30T06:18:45.001Z</time></trkpt><trkpt lat="14.5864995226607" lon="120.98249116790805"><ele>8.0</ele><time>2026-03-30T06:18:47.001Z</time></trkpt><trkpt lat="14.586596043689005" lon="120.98243183196593"><ele>8.166666666666666</ele><time>2026-03-30T06:18:49.001Z</time></trkpt><trkpt lat="14.586692547703446" lon="120.98237928698376"><ele>8.333333333333332</ele><time>2026-03-30T06:18:51.001Z</time></trkpt><trkpt lat="14.586749857067941" lon="120.9823449047161"><ele>8.5</ele><time>2026-03-30T06:18:53.001Z</time></trkpt><trkpt lat="14.586813806837284" lon="120.9823139773991"><ele>8.666666666666666</ele><time>2026-03-30T06:18:57.001Z</time></trkpt><trkpt lat="14.586884168591327" lon="120.98229400080864"><ele>8.833333333333334</ele><time>2026-03-30T06:18:59Z</time></trkpt><trkpt lat="14.586945105474854" lon="120.9822420501977"><ele>9.0</ele><time>2026-03-30T06:19:02Z</time></trkpt><trkpt lat="14.586999122663341" lon="120.98217447763938"><ele>8.4</ele><time>2026-03-30T06:19:05Z</time></trkpt><trkpt lat="14.587085611614683" lon="120.9821185476742"><ele>7.800000000000001</ele><time>2026-03-30T06:19:07Z</time></trkpt><trkpt lat="14.587157128263234" lon="120.98207749164129"><ele>7.199999999999999</ele><time>2026-03-30T06:19:09Z</time></trkpt><trkpt lat="14.587225314814715" lon="120.98205180022597"><ele>6.6</ele><time>2026-03-30T06:19:14Z</time></trkpt><trkpt lat="14.587329888456559" lon="120.98197959555283"><ele>6.0</ele><time>2026-03-30T06:19:18Z</time></trkpt><trkpt lat="14.587421197801087" lon="120.98192674135944"><ele>5.999999999999999</ele><time>2026-03-30T06:19:20Z</time></trkpt><trkpt lat="14.58748183122386" lon="120.98189863341557"><ele>6.0</ele><time>2026-03-30T06:19:22Z</time></trkpt><trkpt lat="14.587540153429513" lon="120.98187324824897"><ele>6.0</ele><time>2026-03-30T06:19:41Z</time></trkpt><trkpt lat="14.587609456650213" lon="120.98184807246271"><ele>6.0</ele><time>2026-03-30T06:19:45Z</time></trkpt><trkpt lat="14.587685555640807" lon="120.98181678248736"><ele>6.0</ele><time>2026-03-30T06:19:48Z</time></trkpt><trkpt lat="14.587745412753998" lon="120.98178509222765"><ele>5.999999999999999</ele><time>2026-03-30T06:19:51Z</time></trkpt><trkpt lat="14.587815081707786" lon="120.98174728334928"><ele>6.0</ele><time>2026-03-30T06:20:03Z</time></trkpt><trkpt lat="14.587881775639664" lon="120.98171033611018"><ele>5.999999999999999</ele><time>2026-03-30T06:20:07Z</time></trkpt><trkpt lat="14.587939412691647" lon="120.98168246251231"><ele>6.0</ele><time>2026-03-30T06:20:09Z</time></trkpt><trkpt lat="14.588005220746208" lon="120.98164146265087"><ele>6.0</ele><time>2026-03-30T06:20:12Z</time></trkpt><trkpt lat="14.588063009223312" lon="120.98161152944125"><ele>6.0</ele><time>2026-03-30T06:20:16Z</time></trkpt><trkpt lat="14.588127556545691" lon="120.98157779448587"><ele>6.0</ele><time>2026-03-30T06:20:21Z</time></trkpt><trkpt lat="14.588194158275764" lon="120.98155099660009"><ele>5.999999999999999</ele><time>2026-03-30T06:20:28Z</time></trkpt><trkpt lat="14.588252223821216" lon="120.98152461071446"><ele>6.0</ele><time>2026-03-30T06:20:36.001Z</time></trkpt><trkpt lat="14.588324263319324" lon="120.98148521561502"><ele>6.142857142857142</ele><time>2026-03-30T06:20:42.001Z</time></trkpt><trkpt lat="14.588404837933643" lon="120.98146812726408"><ele>6.285714285714286</ele><time>2026-03-30T06:20:53.001Z</time></trkpt><trkpt lat="14.58846826710219" lon="120.98145559499915"><ele>6.428571428571429</ele><time>2026-03-30T06:20:56.001Z</time></trkpt><trkpt lat="14.588542549037369" lon="120.9814526104909"><ele>6.571428571428571</ele><time>2026-03-30T06:20:59.001Z</time></trkpt><trkpt lat="14.588621260554026" lon="120.98140948173827"><ele>6.714285714285714</ele><time>2026-03-30T06:21:01.001Z</time></trkpt><trkpt lat="14.588680816032232" lon="120.98138412402072"><ele>6.857142857142857</ele><time>2026-03-30T06:21:03.001Z</time></trkpt><trkpt lat="14.588733208575272" lon="120.9813450888364"><ele>7.0</ele><time>2026-03-30T06:21:09Z</time></trkpt><trkpt lat="14.588802426222003" lon="120.981341982606"><ele>7.000000000000001</ele><time>2026-03-30T06:21:19Z</time></trkpt><trkpt lat="14.588899677917984" lon="120.98129986008372"><ele>7.0</ele><time>2026-03-30T06:21:22Z</time></trkpt><trkpt lat="14.58897315077806" lon="120.98125921133828"><ele>7.0</ele><time>2026-03-30T06:21:24Z</time></trkpt><trkpt lat="14.589032974189486" lon="120.98123068641983"><ele>7.0</ele><time>2026-03-30T06:21:28Z</time></trkpt><trkpt lat="14.589103939719871" lon="120.9811984322836"><ele>7.000000000000001</ele><time>2026-03-30T06:21:37Z</time></trkpt><trkpt lat="14.589169604191035" lon="120.98116926952083"><ele>7.0</ele><time>2026-03-30T06:21:43Z</time></trkpt><trkpt lat="14.589233435738386" lon="120.9811410265538"><ele>7.000000000000001</ele><time>2026-03-30T06:21:47Z</time></trkpt><trkpt lat="14.58931241400685" lon="120.98112488255832"><ele>7.0</ele><time>2026-03-30T06:21:50Z</time></trkpt><trkpt lat="14.589379240951347" lon="120.98110205520946"><ele>7.0</ele><time>2026-03-30T06:21:53Z</time></trkpt><trkpt lat="14.58944397760468" lon="120.98108174923208"><ele>7.0</ele><time>2026-03-30T06:21:56Z</time></trkpt><trkpt lat="14.589509469296988" lon="120.98105271817685"><ele>7.000000000000001</ele><time>2026-03-30T06:21:58Z</time></trkpt><trkpt lat="14.589590434931692" lon="120.981031083441"><ele>7.0</ele><time>2026-03-30T06:22:01Z</time></trkpt><trkpt lat="14.58966994979014" lon="120.9810091009487"><ele>7.428571428571429</ele><time>2026-03-30T06:22:03Z</time></trkpt><trkpt lat="14.589751556168054" lon="120.98098636810171"><ele>7.857142857142858</ele><time>2026-03-30T06:22:06Z</time></trkpt><trkpt lat="14.589811821820048" lon="120.98096600708843"><ele>8.285714285714285</ele><time>2026-03-30T06:22:09Z</time></trkpt><trkpt lat="14.589878201023044" lon="120.98093666214137"><ele>8.714285714285715</ele><time>2026-03-30T06:22:12Z</time></trkpt><trkpt lat="14.5899392380406" lon="120.98091310997091"><ele>9.142857142857142</ele><time>2026-03-30T06:22:15Z</time></trkpt><trkpt lat="14.589998381593091" lon="120.98088960405182"><ele>9.571428571428571</ele><time>2026-03-30T06:22:18Z</time></trkpt><trkpt lat="14.590076206436864" lon="120.98085798111511"><ele>10.0</ele><time>2026-03-30T06:22:21Z</time></trkpt><trkpt lat="14.590175687961745" lon="120.98083372703177"><ele>10.0</ele><time>2026-03-30T06:22:23Z</time></trkpt><trkpt lat="14.590257155607366" lon="120.98081473950285"><ele>10.0</ele><time>2026-03-30T06:22:24Z</time></trkpt><trkpt lat="14.59033846875274" lon="120.98078760082547"><ele>10.0</ele><time>2026-03-30T06:22:25Z</time></trkpt><trkpt lat="14.590421723862068" lon="120.98076052891348"><ele>10.0</ele><time>2026-03-30T06:22:26Z</time></trkpt><trkpt lat="14.590508037794153" lon="120.98073474283487"><ele>10.0</ele><time>2026-03-30T06:22:27Z</time></trkpt><trkpt lat="14.590593000747544" lon="120.98070085803144"><ele>10.0</ele><time>2026-03-30T06:22:28Z</time></trkpt><trkpt lat="14.590682229990831" lon="120.98066966570669"><ele>9.2</ele><time>2026-03-30T06:22:29Z</time></trkpt><trkpt lat="14.590780945019509" lon="120.9806374985013"><ele>8.4</ele><time>2026-03-30T06:22:30Z</time></trkpt><trkpt lat="14.59086317191618" lon="120.98061494960983"><ele>7.6</ele><time>2026-03-30T06:22:31Z</time></trkpt><trkpt lat="14.590959688597792" lon="120.98057672804715"><ele>6.8</ele><time>2026-03-30T06:22:32.001Z</time></trkpt><trkpt lat="14.59104354660066" lon="120.98055352860153"><ele>6.0</ele><time>2026-03-30T06:22:33.001Z</time></trkpt><trkpt lat="14.591135734483997" lon="120.9805236075274"><ele>7.333333333333334</ele><time>2026-03-30T06:22:34.001Z</time></trkpt><trkpt lat="14.591224269360799" lon="120.98049179209085"><ele>8.666666666666668</ele><time>2026-03-30T06:22:35.001Z</time></trkpt><trkpt lat="14.591305631421488" lon="120.98046410971642"><ele>10.0</ele><time>2026-03-30T06:22:36.001Z</time></trkpt><trkpt lat="14.59138562527628" lon="120.98043496127092"><ele>11.333333333333334</ele><time>2026-03-30T06:22:37.001Z</time></trkpt><trkpt lat="14.591464588428547" lon="120.98040631346375"><ele>12.666666666666668</ele><time>2026-03-30T06:22:38.001Z</time></trkpt><trkpt lat="14.591545142146703" lon="120.98038379108692"><ele>14.0</ele><time>2026-03-30T06:22:39.001Z</time></trkpt><trkpt lat="14.591630237593671" lon="120.9803570660823"><ele>14.0</ele><time>2026-03-30T06:22:40.001Z</time></trkpt><trkpt lat="14.59171676584898" lon="120.98033383908022"><ele>13.999999999999998</ele><time>2026-03-30T06:22:41.001Z</time></trkpt><trkpt lat="14.591801879068901" lon="120.98030448192918"><ele>13.999999999999998</ele><time>2026-03-30T06:22:42.001Z</time></trkpt><trkpt lat="14.591886500956113" lon="120.98027156858724"><ele>14.0</ele><time>2026-03-30T06:22:43.001Z</time></trkpt><trkpt lat="14.591965386509925" lon="120.98024333348263"><ele>14.0</ele><time>2026-03-30T06:22:44.001Z</time></trkpt><trkpt lat="14.592063723773748" lon="120.9801929348468"><ele>12.5</ele><time>2026-03-30T06:22:45.001Z</time></trkpt><trkpt lat="14.592164648756446" lon="120.98013886108792"><ele>11.0</ele><time>2026-03-30T06:22:46.001Z</time></trkpt><trkpt lat="14.592260741418114" lon="120.98007940158985"><ele>9.5</ele><time>2026-03-30T06:22:47.001Z</time></trkpt><trkpt lat="14.59236479638306" lon="120.98003123623339"><ele>8.0</ele><time>2026-03-30T06:22:48.001Z</time></trkpt><trkpt lat="14.592483077658311" lon="120.97997368361415"><ele>8.0</ele><time>2026-03-30T06:22:49.001Z</time></trkpt><trkpt lat="14.592614362543774" lon="120.97992061837674"><ele>8.0</ele><time>2026-03-30T06:22:50.001Z</time></trkpt><trkpt lat="14.592747298524218" lon="120.97987364932963"><ele>8.0</ele><time>2026-03-30T06:22:51.001Z</time></trkpt><trkpt lat="14.592882359346694" lon="120.97983172860442"><ele>8.0</ele><time>2026-03-30T06:22:52.001Z</time></trkpt><trkpt lat="14.593030100162727" lon="120.97978607980058"><ele>7.0</ele><time>2026-03-30T06:22:53.001Z</time></trkpt><trkpt lat="14.593173231971829" lon="120.97973443587617"><ele>6.0</ele><time>2026-03-30T06:22:54.001Z</time></trkpt><trkpt lat="14.593318455326635" lon="120.97967390001793"><ele>5.0</ele><time>2026-03-30T06:22:55.001Z</time></trkpt><trkpt lat="14.593462302037723" lon="120.97959200951682"><ele>5.0</ele><time>2026-03-30T06:22:56.001Z</time></trkpt><trkpt lat="14.593589810823874" lon="120.97950178254192"><ele>5.0</ele><time>2026-03-30T06:22:57.001Z</time></trkpt><trkpt lat="14.593704381403938" lon="120.979401154202"><ele>5.0</ele><time>2026-03-30T06:22:58.001Z</time></trkpt><trkpt lat="14.59380067743976" lon="120.97926775954201"><ele>5.0</ele><time>2026-03-30T06:22:59.001Z</time></trkpt><trkpt lat="14.59388232820226" lon="120.97913310744222"><ele>5.0</ele><time>2026-03-30T06:23:00.001Z</time></trkpt><trkpt lat="14.59397254279507" lon="120.9789960467177"><ele>5.0</ele><time>2026-03-30T06:23:01.001Z</time></trkpt><trkpt lat="14.594068572667537" lon="120.9788645361954"><ele>5.0</ele><time>2026-03-30T06:23:02.001Z</time></trkpt><trkpt lat="14.594163908031998" lon="120.97873503759814"><ele>5.0</ele><time>2026-03-30T06:23:03.001Z</time></trkpt><trkpt lat="14.594253425646228" lon="120.97860559402856"><ele>5.0</ele><time>2026-03-30T06:23:04.001Z</time></trkpt><trkpt lat="14.594339189661948" lon="120.97848214631524"><ele>5.0</ele><time>2026-03-30T06:23:05.001Z</time></trkpt><trkpt lat="14.594425327271038" lon="120.978361657455"><ele>5.0</ele><time>2026-03-30T06:23:06.001Z</time></trkpt><trkpt lat="14.594510416470314" lon="120.97824287950768"><ele>5.0</ele><time>2026-03-30T06:23:07.001Z</time></trkpt><trkpt lat="14.594600456865631" lon="120.97812233811258"><ele>5.0</ele><time>2026-03-30T06:23:08.001Z</time></trkpt><trkpt lat="14.594698640258036" lon="120.97802732344647"><ele>5.75</ele><time>2026-03-30T06:23:09.001Z</time></trkpt><trkpt lat="14.594815573946587" lon="120.97793745775621"><ele>6.5</ele><time>2026-03-30T06:23:10Z</time></trkpt><trkpt lat="14.594940264157099" lon="120.97785735942368"><ele>7.25</ele><time>2026-03-30T06:23:11Z</time></trkpt><trkpt lat="14.595071093921884" lon="120.9777792474461"><ele>8.0</ele><time>2026-03-30T06:23:12Z</time></trkpt><trkpt lat="14.595196194750274" lon="120.97771364929075"><ele>8.0</ele><time>2026-03-30T06:23:13Z</time></trkpt><trkpt lat="14.595327774432318" lon="120.97764874900069"><ele>8.0</ele><time>2026-03-30T06:23:14Z</time></trkpt><trkpt lat="14.595453392125764" lon="120.9775774374122"><ele>8.0</ele><time>2026-03-30T06:23:15Z</time></trkpt><trkpt lat="14.595573204297656" lon="120.97750378544443"><ele>8.0</ele><time>2026-03-30T06:23:16Z</time></trkpt><trkpt lat="14.59569978884841" lon="120.9774314691912"><ele>6.0</ele><time>2026-03-30T06:23:17Z</time></trkpt><trkpt lat="14.595816687481815" lon="120.97736112689643"><ele>4.0</ele><time>2026-03-30T06:23:18Z</time></trkpt><trkpt lat="14.5959366466382" lon="120.97729421266769"><ele>2.0</ele><time>2026-03-30T06:23:19Z</time></trkpt><trkpt lat="14.596048597280634" lon="120.97723181453746"><ele>0.0</ele><time>2026-03-30T06:23:20Z</time></trkpt><trkpt lat="14.596152063623949" lon="120.97716931777605"><ele>1.6</ele><time>2026-03-30T06:23:21Z</time></trkpt><trkpt lat="14.596245880076987" lon="120.97711027295642"><ele>3.2</ele><time>2026-03-30T06:23:22Z</time></trkpt><trkpt lat="14.59633163684979" lon="120.97705512621069"><ele>4.800000000000001</ele><time>2026-03-30T06:23:23Z</time></trkpt><trkpt lat="14.596405005730015" lon="120.9770128259638"><ele>6.4</ele><time>2026-03-30T06:23:24Z</time></trkpt><trkpt lat="14.596480040841085" lon="120.97696662597562"><ele>8.0</ele><time>2026-03-30T06:23:25Z</time></trkpt><trkpt lat="14.59654344670716" lon="120.97692819156009"><ele>8.0</ele><time>2026-03-30T06:23:26Z</time></trkpt><trkpt lat="14.596636111326085" lon="120.97687606001963"><ele>8.0</ele><time>2026-03-30T06:23:28Z</time></trkpt><trkpt lat="14.596712204866623" lon="120.97683386291507"><ele>8.0</ele><time>2026-03-30T06:23:30Z</time></trkpt><trkpt lat="14.596771872680197" lon="120.97677460031751"><ele>8.0</ele><time>2026-03-30T06:23:32Z</time></trkpt><trkpt lat="14.596858164397537" lon="120.97671106500617"><ele>8.0</ele><time>2026-03-30T06:23:38Z</time></trkpt><trkpt lat="14.596923986708623" lon="120.97665281172924"><ele>8.833333333333332</ele><time>2026-03-30T06:23:41Z</time></trkpt><trkpt lat="14.596960950221344" lon="120.97659095656377"><ele>9.666666666666666</ele><time>2026-03-30T06:24:02Z</time></trkpt><trkpt lat="14.596988053311156" lon="120.97652869660887"><ele>10.5</ele><time>2026-03-30T06:24:04Z</time></trkpt><trkpt lat="14.59703979358419" lon="120.9764843046514"><ele>11.333333333333332</ele><time>2026-03-30T06:24:05Z</time></trkpt><trkpt lat="14.597130854658525" lon="120.97644481248729"><ele>12.166666666666666</ele><time>2026-03-30T06:24:06Z</time></trkpt><trkpt lat="14.5971967799363" lon="120.97639859309656"><ele>13.0</ele><time>2026-03-30T06:24:07Z</time></trkpt><trkpt lat="14.597312116484835" lon="120.97631210099036"><ele>13.4</ele><time>2026-03-30T06:24:09Z</time></trkpt><trkpt lat="14.597402558729865" lon="120.9762669783499"><ele>13.8</ele><time>2026-03-30T06:24:10Z</time></trkpt><trkpt lat="14.5974956721342" lon="120.97623066488639"><ele>14.2</ele><time>2026-03-30T06:24:11Z</time></trkpt><trkpt lat="14.597573093961273" lon="120.97618693965335"><ele>14.6</ele><time>2026-03-30T06:24:12Z</time></trkpt><trkpt lat="14.59759887471939" lon="120.97612096425175"><ele>15.0</ele><time>2026-03-30T06:24:14Z</time></trkpt><trkpt lat="14.59767892351746" lon="120.97606213964858"><ele>15.0</ele><time>2026-03-30T06:24:15Z</time></trkpt><trkpt lat="14.597759821137112" lon="120.97601060423428"><ele>15.0</ele><time>2026-03-30T06:24:16Z</time></trkpt><trkpt lat="14.5978595264063" lon="120.97596977519677"><ele>15.0</ele><time>2026-03-30T06:24:17Z</time></trkpt><trkpt lat="14.597959623235354" lon="120.97590243039765"><ele>15.0</ele><time>2026-03-30T06:24:19Z</time></trkpt><trkpt lat="14.598018156188823" lon="120.97587781912571"><ele>15.0</ele><time>2026-03-30T06:24:20Z</time></trkpt><trkpt lat="14.598073514541424" lon="120.97584676571643"><ele>15.0</ele><time>2026-03-30T06:24:22Z</time></trkpt><trkpt lat="14.598144303439385" lon="120.97578749913481"><ele>15.5</ele><time>2026-03-30T06:24:24Z</time></trkpt><trkpt lat="14.598237086633496" lon="120.97573166681774"><ele>16.0</ele><time>2026-03-30T06:24:27Z</time></trkpt><trkpt lat="14.59829559711505" lon="120.97569414914743"><ele>16.5</ele><time>2026-03-30T06:24:28Z</time></trkpt><trkpt lat="14.598369349208125" lon="120.97566054601285"><ele>17.0</ele><time>2026-03-30T06:24:29Z</time></trkpt><trkpt lat="14.598451291417378" lon="120.97563778700933"><ele>17.5</ele><time>2026-03-30T06:24:30Z</time></trkpt><trkpt lat="14.598494920344304" lon="120.97557478735271"><ele>18.0</ele><time>2026-03-30T06:24:31Z</time></trkpt><trkpt lat="14.598589022821976" lon="120.97551755180808"><ele>19.666666666666668</ele><time>2026-03-30T06:24:33.001Z</time></trkpt><trkpt lat="14.598679488237075" lon="120.97546746329976"><ele>21.333333333333336</ele><time>2026-03-30T06:24:35.001Z</time></trkpt><trkpt lat="14.59874097164748" lon="120.97543043018953"><ele>23.0</ele><time>2026-03-30T06:24:37.001Z</time></trkpt><trkpt lat="14.598797339455034" lon="120.9753975476346"><ele>24.666666666666668</ele><time>2026-03-30T06:24:39.001Z</time></trkpt><trkpt lat="14.598864409671616" lon="120.97536355396166"><ele>26.333333333333336</ele><time>2026-03-30T06:24:41.001Z</time></trkpt><trkpt lat="14.598921027441737" lon="120.97532455792019"><ele>28.0</ele><time>2026-03-30T06:24:43.001Z</time></trkpt><trkpt lat="14.598993630017326" lon="120.97527014815368"><ele>28.000000000000004</ele><time>2026-03-30T06:24:45.001Z</time></trkpt><trkpt lat="14.599081704115203" lon="120.97521548267224"><ele>28.0</ele><time>2026-03-30T06:24:47.001Z</time></trkpt><trkpt lat="14.599167839576237" lon="120.97518582837087"><ele>28.0</ele><time>2026-03-30T06:24:49.001Z</time></trkpt><trkpt lat="14.599251283663994" lon="120.97515411977034"><ele>28.0</ele><time>2026-03-30T06:24:51.001Z</time></trkpt><trkpt lat="14.599310293108697" lon="120.97518815915056"><ele>28.000000000000004</ele><time>2026-03-30T06:24:54.001Z</time></trkpt><trkpt lat="14.599376731137589" lon="120.97516769942217"><ele>28.0</ele><time>2026-03-30T06:24:58.001Z</time></trkpt><trkpt lat="14.599496496210653" lon="120.9751061728358"><ele>25.833333333333336</ele><time>2026-03-30T06:25:00.001Z</time></trkpt><trkpt lat="14.599565835063023" lon="120.97505833690889"><ele>23.666666666666668</ele><time>2026-03-30T06:25:01.001Z</time></trkpt><trkpt lat="14.599640930485256" lon="120.97501438504453"><ele>21.5</ele><time>2026-03-30T06:25:02.001Z</time></trkpt><trkpt lat="14.59970685463632" lon="120.97495950770713"><ele>19.333333333333336</ele><time>2026-03-30T06:25:03.001Z</time></trkpt><trkpt lat="14.599764081216415" lon="120.97490646562488"><ele>17.166666666666668</ele><time>2026-03-30T06:25:04.001Z</time></trkpt><trkpt lat="14.599823001256985" lon="120.97487332689276"><ele>15.0</ele><time>2026-03-30T06:25:05.001Z</time></trkpt><trkpt lat="14.599915491770304" lon="120.97481907378052"><ele>15.0</ele><time>2026-03-30T06:25:07.001Z</time></trkpt><trkpt lat="14.599986650453534" lon="120.9748433240119"><ele>15.0</ele><time>2026-03-30T06:25:09.001Z</time></trkpt><trkpt lat="14.600024769644108" lon="120.97490941921876"><ele>15.0</ele><time>2026-03-30T06:25:11.001Z</time></trkpt><trkpt lat="14.600082872506116" lon="120.97499132425841"><ele>15.0</ele><time>2026-03-30T06:25:13.001Z</time></trkpt><trkpt lat="14.600116637853548" lon="120.97506540651655"><ele>15.0</ele><time>2026-03-30T06:25:15.001Z</time></trkpt><trkpt lat="14.600147713247889" lon="120.97513126279456"><ele>15.0</ele><time>2026-03-30T06:25:17Z</time></trkpt><trkpt lat="14.6002139449512" lon="120.97521841219172"><ele>15.0</ele><time>2026-03-30T06:25:19Z</time></trkpt><trkpt lat="14.600286356146732" lon="120.97531670512465"><ele>15.0</ele><time>2026-03-30T06:25:21Z</time></trkpt><trkpt lat="14.600364155075319" lon="120.97541328227722"><ele>15.0</ele><time>2026-03-30T06:25:23Z</time></trkpt><trkpt lat="14.600433153992835" lon="120.97549572607603"><ele>15.0</ele><time>2026-03-30T06:25:25Z</time></trkpt><trkpt lat="14.600473078909092" lon="120.97555154257074"><ele>15.0</ele><time>2026-03-30T06:25:27Z</time></trkpt><trkpt lat="14.60052576478338" lon="120.97559443011268"><ele>15.0</ele><time>2026-03-30T06:25:33Z</time></trkpt><trkpt lat="14.600577221284146" lon="120.97564792665669"><ele>15.0</ele><time>2026-03-30T06:25:37Z</time></trkpt><trkpt lat="14.600644896890337" lon="120.9757049064538"><ele>15.0</ele><time>2026-03-30T06:25:42Z</time></trkpt><trkpt lat="14.600723752649097" lon="120.97572902254007"><ele>15.0</ele><time>2026-03-30T06:25:44Z</time></trkpt><trkpt lat="14.60076546184875" lon="120.97580463433158"><ele>15.0</ele><time>2026-03-30T06:25:46Z</time></trkpt><trkpt lat="14.600826339426494" lon="120.97583949167517"><ele>15.0</ele><time>2026-03-30T06:25:50Z</time></trkpt><trkpt lat="14.600871891480738" lon="120.97589839770248"><ele>15.0</ele><time>2026-03-30T06:25:53Z</time></trkpt><trkpt lat="14.60092128399462" lon="120.9759646331817"><ele>15.0</ele><time>2026-03-30T06:25:56Z</time></trkpt><trkpt lat="14.600983091436067" lon="120.97602214635823"><ele>15.0</ele><time>2026-03-30T06:25:59Z</time></trkpt><trkpt lat="14.601099407336191" lon="120.97602982473157"><ele>15.0</ele><time>2026-03-30T06:26:01Z</time></trkpt><trkpt lat="14.601157744817918" lon="120.97609851315474"><ele>15.0</ele><time>2026-03-30T06:26:02Z</time></trkpt><trkpt lat="14.601211213438024" lon="120.97618840827032"><ele>14.6</ele><time>2026-03-30T06:26:04Z</time></trkpt><trkpt lat="14.601287884333056" lon="120.97625861222456"><ele>14.2</ele><time>2026-03-30T06:26:06Z</time></trkpt><trkpt lat="14.601363461151202" lon="120.97632267042837"><ele>13.8</ele><time>2026-03-30T06:26:08Z</time></trkpt><trkpt lat="14.601423728901025" lon="120.97641549041518"><ele>13.4</ele><time>2026-03-30T06:26:10Z</time></trkpt><trkpt lat="14.601495791617436" lon="120.97649345812329"><ele>13.0</ele><time>2026-03-30T06:26:12Z</time></trkpt><trkpt lat="14.60154973801178" lon="120.97655796496805"><ele>12.999999999999998</ele><time>2026-03-30T06:26:14Z</time></trkpt><trkpt lat="14.601581962879727" lon="120.97661504286961"><ele>13.0</ele><time>2026-03-30T06:26:16Z</time></trkpt><trkpt lat="14.601617676246809" lon="120.97667275864005"><ele>13.0</ele><time>2026-03-30T06:26:18Z</time></trkpt><trkpt lat="14.601669842498024" lon="120.97674614342885"><ele>13.0</ele><time>2026-03-30T06:26:22Z</time></trkpt><trkpt lat="14.601720531188159" lon="120.97681684378165"><ele>12.999999999999998</ele><time>2026-03-30T06:26:24Z</time></trkpt><trkpt lat="14.601777742756127" lon="120.97688769072576"><ele>13.0</ele><time>2026-03-30T06:26:26Z</time></trkpt><trkpt lat="14.601802771333519" lon="120.97696848946457"><ele>12.833333333333332</ele><time>2026-03-30T06:26:29Z</time></trkpt><trkpt lat="14.601798864835347" lon="120.9770539103831"><ele>12.666666666666666</ele><time>2026-03-30T06:26:33.001Z</time></trkpt><trkpt lat="14.601793839726916" lon="120.97714460569243"><ele>12.5</ele><time>2026-03-30T06:26:36.001Z</time></trkpt><trkpt lat="14.601800857310653" lon="120.97722817533972"><ele>12.333333333333332</ele><time>2026-03-30T06:26:38.001Z</time></trkpt><trkpt lat="14.601782223863003" lon="120.97731267620887"><ele>12.166666666666666</ele><time>2026-03-30T06:26:41.001Z</time></trkpt><trkpt lat="14.601773964745329" lon="120.97739092568155"><ele>12.0</ele><time>2026-03-30T06:26:45.001Z</time></trkpt><trkpt lat="14.601741939937664" lon="120.97745350151924"><ele>12.57142857142857</ele><time>2026-03-30T06:26:52.001Z</time></trkpt><trkpt lat="14.601731848987571" lon="120.97752009802602"><ele>13.142857142857142</ele><time>2026-03-30T06:26:58.001Z</time></trkpt><trkpt lat="14.601715446055188" lon="120.97758467338049"><ele>13.714285714285714</ele><time>2026-03-30T06:27:04.001Z</time></trkpt><trkpt lat="14.601702364681605" lon="120.97765519606368"><ele>14.285714285714285</ele><time>2026-03-30T06:27:06.001Z</time></trkpt><trkpt lat="14.601684255459617" lon="120.97772673965994"><ele>14.857142857142856</ele><time>2026-03-30T06:27:08.001Z</time></trkpt><trkpt lat="14.601674001437575" lon="120.97779449930565"><ele>15.428571428571427</ele><time>2026-03-30T06:27:11.001Z</time></trkpt><trkpt lat="14.601659142328549" lon="120.97786563434106"><ele>16.0</ele><time>2026-03-30T06:27:14.001Z</time></trkpt><trkpt lat="14.601641511674853" lon="120.97792983811587"><ele>16.0</ele><time>2026-03-30T06:27:22Z</time></trkpt><trkpt lat="14.601625860688298" lon="120.97799918138597"><ele>15.999999999999998</ele><time>2026-03-30T06:27:29Z</time></trkpt><trkpt lat="14.60160795650763" lon="120.97806396741802"><ele>16.0</ele><time>2026-03-30T06:27:37Z</time></trkpt><trkpt lat="14.601586132706279" lon="120.97814299640207"><ele>16.0</ele><time>2026-03-30T06:27:41Z</time></trkpt><trkpt lat="14.601560066018907" lon="120.97820634429462"><ele>15.999999999999998</ele><time>2026-03-30T06:27:43Z</time></trkpt><trkpt lat="14.601528647572701" lon="120.97827628536368"><ele>16.0</ele><time>2026-03-30T06:27:46Z</time></trkpt><trkpt lat="14.601501439145801" lon="120.97836581226171"><ele>16.0</ele><time>2026-03-30T06:27:51Z</time></trkpt><trkpt lat="14.601484232200209" lon="120.97843005198767"><ele>16.428571428571427</ele><time>2026-03-30T06:27:56Z</time></trkpt><trkpt lat="14.601460421321468" lon="120.97852426238532"><ele>16.857142857142854</ele><time>2026-03-30T06:27:59Z</time></trkpt><trkpt lat="14.60144537098862" lon="120.97859198738216"><ele>17.285714285714285</ele><time>2026-03-30T06:28:01Z</time></trkpt><trkpt lat="14.601424462967252" lon="120.97866198783187"><ele>17.714285714285715</ele><time>2026-03-30T06:28:04Z</time></trkpt><trkpt lat="14.60146079483895" lon="120.97873505251316"><ele>18.142857142857146</ele><time>2026-03-30T06:28:13Z</time></trkpt><trkpt lat="14.601440368959395" lon="120.97879830391041"><ele>18.57142857142857</ele><time>2026-03-30T06:28:19Z</time></trkpt><trkpt lat="14.601373060800082" lon="120.97877970212578"><ele>19.0</ele><time>2026-03-30T06:28:23Z</time></trkpt><trkpt lat="14.601351848835813" lon="120.9788525619092"><ele>19.0</ele><time>2026-03-30T06:28:46.001Z</time></trkpt><trkpt lat="14.601340877805441" lon="120.97893278614752"><ele>19.0</ele><time>2026-03-30T06:28:50.001Z</time></trkpt><trkpt lat="14.601308810119292" lon="120.97899581870352"><ele>19.0</ele><time>2026-03-30T06:28:52.001Z</time></trkpt><trkpt lat="14.601294111170844" lon="120.97908230220004"><ele>19.0</ele><time>2026-03-30T06:28:55.001Z</time></trkpt><trkpt lat="14.601290389292773" lon="120.97915725731853"><ele>19.0</ele><time>2026-03-30T06:28:57.001Z</time></trkpt><trkpt lat="14.6012762912472" lon="120.9792430704662"><ele>19.0</ele><time>2026-03-30T06:29:00.001Z</time></trkpt><trkpt lat="14.601268685785035" lon="120.97932942176188"><ele>18.71428571428571</ele><time>2026-03-30T06:29:03.001Z</time></trkpt><trkpt lat="14.601253849871265" lon="120.97940576537381"><ele>18.42857142857143</ele><time>2026-03-30T06:29:07.001Z</time></trkpt><trkpt lat="14.601231515509678" lon="120.979471500733"><ele>18.142857142857142</ele><time>2026-03-30T06:29:11.001Z</time></trkpt><trkpt lat="14.601206712452909" lon="120.97953660605783"><ele>17.857142857142854</ele><time>2026-03-30T06:29:15.001Z</time></trkpt><trkpt lat="14.601173517625849" lon="120.97962294950271"><ele>17.57142857142857</ele><time>2026-03-30T06:29:47Z</time></trkpt><trkpt lat="14.601124664949019" lon="120.97967528823865"><ele>17.285714285714285</ele><time>2026-03-30T06:35:34Z</time></trkpt><trkpt lat="14.601074919350472" lon="120.97973569926222"><ele>17.0</ele><time>2026-03-30T06:35:39Z</time></trkpt><trkpt lat="14.601018449612589" lon="120.97978216688809"><ele>17.666666666666668</ele><time>2026-03-30T06:35:44.999Z</time></trkpt><trkpt lat="14.600961832533457" lon="120.97982346544829"><ele>18.333333333333336</ele><time>2026-03-30T06:35:48.999Z</time></trkpt><trkpt lat="14.600880540418641" lon="120.97984102694727"><ele>19.0</ele><time>2026-03-30T06:35:52.999Z</time></trkpt><trkpt lat="14.600800825472097" lon="120.97989000252824"><ele>19.666666666666668</ele><time>2026-03-30T06:35:56.999Z</time></trkpt><trkpt lat="14.600746762844201" lon="120.97992718653897"><ele>20.333333333333332</ele><time>2026-03-30T06:35:57.999Z</time></trkpt><trkpt lat="14.600663127710458" lon="120.97995632920765"><ele>21.0</ele><time>2026-03-30T06:35:58.999Z</time></trkpt><trkpt lat="14.600597128740771" lon="120.9800071434245"><ele>20.166666666666668</ele><time>2026-03-30T06:35:59.999Z</time></trkpt><trkpt lat="14.600533522176391" lon="120.98005127754205"><ele>19.333333333333332</ele><time>2026-03-30T06:36:00.999Z</time></trkpt><trkpt lat="14.600458801588927" lon="120.98007141898735"><ele>18.5</ele><time>2026-03-30T06:36:01.999Z</time></trkpt><trkpt lat="14.600355312707155" lon="120.98010675933783"><ele>17.666666666666664</ele><time>2026-03-30T06:36:03.999Z</time></trkpt><trkpt lat="14.600279234016076" lon="120.98013401187937"><ele>16.833333333333332</ele><time>2026-03-30T06:36:05.999Z</time></trkpt><trkpt lat="14.600222139294404" lon="120.9801666893833"><ele>16.0</ele><time>2026-03-30T06:36:08Z</time></trkpt><trkpt lat="14.600145992106858" lon="120.98020603384991"><ele>15.999999999999998</ele><time>2026-03-30T06:36:13Z</time></trkpt><trkpt lat="14.600077684665917" lon="120.98022147573133"><ele>16.0</ele><time>2026-03-30T06:36:17Z</time></trkpt><trkpt lat="14.600006270929157" lon="120.98024531598927"><ele>16.0</ele><time>2026-03-30T06:36:21Z</time></trkpt><trkpt lat="14.599942855981649" lon="120.98022196650982"><ele>16.0</ele><time>2026-03-30T06:36:24Z</time></trkpt><trkpt lat="14.599865491566494" lon="120.98015294781982"><ele>15.999999999999998</ele><time>2026-03-30T06:36:26Z</time></trkpt><trkpt lat="14.599796189517438" lon="120.98006487460725"><ele>16.0</ele><time>2026-03-30T06:36:28Z</time></trkpt><trkpt lat="14.599743936620976" lon="120.97996934416"><ele>15.833333333333332</ele><time>2026-03-30T06:36:30Z</time></trkpt><trkpt lat="14.599707261581015" lon="120.979888019775"><ele>15.666666666666666</ele><time>2026-03-30T06:36:32Z</time></trkpt><trkpt lat="14.599658558697321" lon="120.97983484755031"><ele>15.5</ele><time>2026-03-30T06:36:34Z</time></trkpt><trkpt lat="14.599566484345763" lon="120.97983476289234"><ele>15.333333333333332</ele><time>2026-03-30T06:36:36Z</time></trkpt><trkpt lat="14.599455167519825" lon="120.97989320448302"><ele>15.166666666666666</ele><time>2026-03-30T06:36:38Z</time></trkpt><trkpt lat="14.599391845788082" lon="120.97992650811052"><ele>15.0</ele><time>2026-03-30T06:36:39Z</time></trkpt><trkpt lat="14.599329911369729" lon="120.97996209175923"><ele>15.166666666666666</ele><time>2026-03-30T06:36:40Z</time></trkpt><trkpt lat="14.599275045077677" lon="120.9799971173257"><ele>15.333333333333332</ele><time>2026-03-30T06:36:41Z</time></trkpt><trkpt lat="14.599219612260546" lon="120.98003719966326"><ele>15.5</ele><time>2026-03-30T06:36:42Z</time></trkpt><trkpt lat="14.599115232963186" lon="120.98010233903561"><ele>15.666666666666666</ele><time>2026-03-30T06:36:44Z</time></trkpt><trkpt lat="14.599030263781751" lon="120.98016348777087"><ele>15.833333333333332</ele><time>2026-03-30T06:36:46Z</time></trkpt><trkpt lat="14.598971163268992" lon="120.98020854446278"><ele>16.0</ele><time>2026-03-30T06:36:48Z</time></trkpt><trkpt lat="14.598923480055639" lon="120.98026035071744"><ele>15.999999999999998</ele><time>2026-03-30T06:36:50Z</time></trkpt><trkpt lat="14.598836352209897" lon="120.98033081160442"><ele>16.0</ele><time>2026-03-30T06:36:52Z</time></trkpt><trkpt lat="14.598777164929848" lon="120.98036545940043"><ele>16.0</ele><time>2026-03-30T06:36:53Z</time></trkpt><trkpt lat="14.59871616323817" lon="120.98040574174767"><ele>16.0</ele><time>2026-03-30T06:36:54Z</time></trkpt><trkpt lat="14.59864335105577" lon="120.98045319593358"><ele>15.999999999999998</ele><time>2026-03-30T06:36:55Z</time></trkpt><trkpt lat="14.598565585382481" lon="120.98049822050487"><ele>16.0</ele><time>2026-03-30T06:36:56Z</time></trkpt><trkpt lat="14.598485857943583" lon="120.98053671353985"><ele>15.666666666666666</ele><time>2026-03-30T06:36:57Z</time></trkpt><trkpt lat="14.59841344452168" lon="120.98056208255753"><ele>15.333333333333332</ele><time>2026-03-30T06:36:58Z</time></trkpt><trkpt lat="14.598338380897413" lon="120.9805801655304"><ele>15.0</ele><time>2026-03-30T06:36:59Z</time></trkpt><trkpt lat="14.598261704658974" lon="120.9805909128023"><ele>14.666666666666668</ele><time>2026-03-30T06:37:00Z</time></trkpt><trkpt lat="14.598181693027042" lon="120.98059525791247"><ele>14.333333333333334</ele><time>2026-03-30T06:37:01Z</time></trkpt><trkpt lat="14.598106248173412" lon="120.98058596751919"><ele>14.0</ele><time>2026-03-30T06:37:02Z</time></trkpt><trkpt lat="14.59803001439475" lon="120.98056863989578"><ele>14.0</ele><time>2026-03-30T06:37:03Z</time></trkpt><trkpt lat="14.597952552759807" lon="120.98055921647489"><ele>13.999999999999998</ele><time>2026-03-30T06:37:04Z</time></trkpt><trkpt lat="14.597874374931553" lon="120.98054289469951"><ele>13.999999999999998</ele><time>2026-03-30T06:37:05Z</time></trkpt><trkpt lat="14.597738471922852" lon="120.98052276576283"><ele>14.0</ele><time>2026-03-30T06:37:07Z</time></trkpt><trkpt lat="14.597644643740221" lon="120.98049822572432"><ele>14.0</ele><time>2026-03-30T06:37:08Z</time></trkpt><trkpt lat="14.597556143247527" lon="120.98048457162989"><ele>13.000000000000002</ele><time>2026-03-30T06:37:09Z</time></trkpt><trkpt lat="14.59745433169612" lon="120.98046345445053"><ele>12.0</ele><time>2026-03-30T06:37:11Z</time></trkpt><trkpt lat="14.597377252719953" lon="120.98050570151914"><ele>11.0</ele><time>2026-03-30T06:37:15Z</time></trkpt><trkpt lat="14.597325172863757" lon="120.98054366901275"><ele>10.0</ele><time>2026-03-30T06:37:17Z</time></trkpt><trkpt lat="14.5973950931661" lon="120.98058889488506"><ele>9.0</ele><time>2026-03-30T06:37:19Z</time></trkpt><trkpt lat="14.597462578903592" lon="120.98063490000118"><ele>8.0</ele><time>2026-03-30T06:37:20Z</time></trkpt><trkpt lat="14.597550858971479" lon="120.98063762536412"><ele>8.0</ele><time>2026-03-30T06:37:21Z</time></trkpt><trkpt lat="14.597624917289481" lon="120.98064026821567"><ele>8.0</ele><time>2026-03-30T06:37:22Z</time></trkpt><trkpt lat="14.597736593910868" lon="120.98066414506549"><ele>8.0</ele><time>2026-03-30T06:37:24Z</time></trkpt><trkpt lat="14.59786172120268" lon="120.98069706319787"><ele>8.0</ele><time>2026-03-30T06:37:26Z</time></trkpt><trkpt lat="14.597975355674894" lon="120.98071707021506"><ele>8.0</ele><time>2026-03-30T06:37:28Z</time></trkpt><trkpt lat="14.598092902480335" lon="120.98074149761041"><ele>9.2</ele><time>2026-03-30T06:37:30Z</time></trkpt><trkpt lat="14.598194185032096" lon="120.98075975883204"><ele>10.4</ele><time>2026-03-30T06:37:32Z</time></trkpt><trkpt lat="14.598293823275158" lon="120.98077293339598"><ele>11.599999999999998</ele><time>2026-03-30T06:37:34Z</time></trkpt><trkpt lat="14.598359691515268" lon="120.98081557786986"><ele>12.799999999999999</ele><time>2026-03-30T06:37:36Z</time></trkpt><trkpt lat="14.598363929847253" lon="120.98092763561384"><ele>14.0</ele><time>2026-03-30T06:37:38.001Z</time></trkpt><trkpt lat="14.598350633417608" lon="120.98099520627055"><ele>14.166666666666668</ele><time>2026-03-30T06:37:39.001Z</time></trkpt><trkpt lat="14.59832402108438" lon="120.98110160781975"><ele>14.333333333333334</ele><time>2026-03-30T06:37:41.001Z</time></trkpt><trkpt lat="14.598342313177746" lon="120.98119603385658"><ele>14.5</ele><time>2026-03-30T06:37:43.001Z</time></trkpt><trkpt lat="14.598346480896552" lon="120.98126349129495"><ele>14.666666666666668</ele><time>2026-03-30T06:37:46.001Z</time></trkpt><trkpt lat="14.598334630548464" lon="120.98133384343149"><ele>14.833333333333334</ele><time>2026-03-30T06:37:48.001Z</time></trkpt><trkpt lat="14.598323967115446" lon="120.98142082348474"><ele>15.0</ele><time>2026-03-30T06:37:50.001Z</time></trkpt><trkpt lat="14.598323102235714" lon="120.9814956434372"><ele>15.0</ele><time>2026-03-30T06:37:51Z</time></trkpt><trkpt lat="14.598297592272207" lon="120.98157744194218"><ele>15.0</ele><time>2026-03-30T06:37:52Z</time></trkpt><trkpt lat="14.598293691918037" lon="120.98165206876074"><ele>15.0</ele><time>2026-03-30T06:37:53Z</time></trkpt><trkpt lat="14.598286681102579" lon="120.98173991819861"><ele>15.0</ele><time>2026-03-30T06:37:55Z</time></trkpt><trkpt lat="14.598257752901345" lon="120.98181758215078"><ele>15.0</ele><time>2026-03-30T06:37:57Z</time></trkpt><trkpt lat="14.598231340966235" lon="120.9818947468556"><ele>15.0</ele><time>2026-03-30T06:38:00Z</time></trkpt><trkpt lat="14.598199390447672" lon="120.98195365539962"><ele>14.333333333333334</ele><time>2026-03-30T06:38:03Z</time></trkpt><trkpt lat="14.598173198545824" lon="120.98201922452357"><ele>13.666666666666666</ele><time>2026-03-30T06:38:05Z</time></trkpt><trkpt lat="14.598121145997403" lon="120.98207277550623"><ele>13.0</ele><time>2026-03-30T06:38:07Z</time></trkpt><trkpt lat="14.598031272662126" lon="120.98212394558823"><ele>12.333333333333332</ele><time>2026-03-30T06:38:09Z</time></trkpt><trkpt lat="14.597949460375922" lon="120.98217989006838"><ele>11.666666666666666</ele><time>2026-03-30T06:38:11Z</time></trkpt><trkpt lat="14.597876312662837" lon="120.98222941536858"><ele>11.0</ele><time>2026-03-30T06:38:13Z</time></trkpt><trkpt lat="14.59781870240776" lon="120.98226373895552"><ele>10.5</ele><time>2026-03-30T06:38:15Z</time></trkpt><trkpt lat="14.59775891316001" lon="120.98229776489957"><ele>10.0</ele><time>2026-03-30T06:38:17Z</time></trkpt><trkpt lat="14.597678859804773" lon="120.98236114823146"><ele>9.5</ele><time>2026-03-30T06:38:20Z</time></trkpt><trkpt lat="14.597631810708725" lon="120.9824133792006"><ele>9.0</ele><time>2026-03-30T06:38:22Z</time></trkpt><trkpt lat="14.597588221085655" lon="120.98246531406352"><ele>8.5</ele><time>2026-03-30T06:38:25Z</time></trkpt><trkpt lat="14.597495783511054" lon="120.98246390870165"><ele>8.0</ele><time>2026-03-30T06:41:09Z</time></trkpt><trkpt lat="14.597411154072589" lon="120.98248749547294"><ele>8.600000000000001</ele><time>2026-03-30T06:41:11Z</time></trkpt><trkpt lat="14.597326711989341" lon="120.98254698667665"><ele>9.200000000000001</ele><time>2026-03-30T06:41:13Z</time></trkpt><trkpt lat="14.597240112541161" lon="120.98261570187772"><ele>9.8</ele><time>2026-03-30T06:41:15Z</time></trkpt><trkpt lat="14.597161181707866" lon="120.98268624418382"><ele>10.4</ele><time>2026-03-30T06:41:17.001Z</time></trkpt><trkpt lat="14.597098661678018" lon="120.98273299972671"><ele>11.0</ele><time>2026-03-30T06:41:19.001Z</time></trkpt><trkpt lat="14.597030945758899" lon="120.98278222461593"><ele>10.714285714285715</ele><time>2026-03-30T06:41:21.001Z</time></trkpt><trkpt lat="14.596958091113292" lon="120.98283027291882"><ele>10.428571428571429</ele><time>2026-03-30T06:41:23.001Z</time></trkpt><trkpt lat="14.596898530156476" lon="120.9828711787657"><ele>10.142857142857142</ele><time>2026-03-30T06:41:25.001Z</time></trkpt><trkpt lat="14.596843347800187" lon="120.9829041289112"><ele>9.857142857142858</ele><time>2026-03-30T06:41:27.001Z</time></trkpt><trkpt lat="14.596786457179968" lon="120.98294755997635"><ele>9.571428571428571</ele><time>2026-03-30T06:41:29.001Z</time></trkpt><trkpt lat="14.596725934207495" lon="120.98299260741086"><ele>9.285714285714286</ele><time>2026-03-30T06:41:32.001Z</time></trkpt><trkpt lat="14.596658351443798" lon="120.98303552743216"><ele>9.0</ele><time>2026-03-30T06:41:35.001Z</time></trkpt><trkpt lat="14.596581071841708" lon="120.9830676324732"><ele>9.0</ele><time>2026-03-30T06:41:38.001Z</time></trkpt><trkpt lat="14.596505689644696" lon="120.98312287589431"><ele>9.0</ele><time>2026-03-30T06:41:40.001Z</time></trkpt><trkpt lat="14.596437004426152" lon="120.98318860818527"><ele>9.0</ele><time>2026-03-30T06:41:42.001Z</time></trkpt><trkpt lat="14.596372120754463" lon="120.98325693600076"><ele>9.0</ele><time>2026-03-30T06:41:44.001Z</time></trkpt><trkpt lat="14.596285387316884" lon="120.98330384756521"><ele>9.0</ele><time>2026-03-30T06:41:46.001Z</time></trkpt><trkpt lat="14.596199590283742" lon="120.98333472676843"><ele>8.8</ele><time>2026-03-30T06:41:48.001Z</time></trkpt><trkpt lat="14.59617036634584" lon="120.98340816294434"><ele>8.600000000000001</ele><time>2026-03-30T06:41:50.001Z</time></trkpt><trkpt lat="14.596190598446626" lon="120.9835008353126"><ele>8.4</ele><time>2026-03-30T06:41:53.001Z</time></trkpt><trkpt lat="14.59624698794503" lon="120.98356783511647"><ele>8.200000000000001</ele><time>2026-03-30T06:41:55.001Z</time></trkpt><trkpt lat="14.596346465120881" lon="120.9836613433"><ele>8.0</ele><time>2026-03-30T06:41:57.001Z</time></trkpt><trkpt lat="14.596395370356912" lon="120.98371599720564"><ele>7.999999999999999</ele><time>2026-03-30T06:41:58.001Z</time></trkpt><trkpt lat="14.596465120984133" lon="120.98376551576595"><ele>8.0</ele><time>2026-03-30T06:41:59.001Z</time></trkpt><trkpt lat="14.596530582438877" lon="120.98380384573039"><ele>8.0</ele><time>2026-03-30T06:42:00.001Z</time></trkpt><trkpt lat="14.596601539289791" lon="120.98383850308987"><ele>8.0</ele><time>2026-03-30T06:42:01.001Z</time></trkpt><trkpt lat="14.59668298172108" lon="120.98386807851638"><ele>7.999999999999999</ele><time>2026-03-30T06:42:02.001Z</time></trkpt><trkpt lat="14.596767854852816" lon="120.98389283283288"><ele>8.0</ele><time>2026-03-30T06:42:02.999Z</time></trkpt><trkpt lat="14.596858058194037" lon="120.98391660536744"><ele>8.0</ele><time>2026-03-30T06:42:03.999Z</time></trkpt><trkpt lat="14.596956111974265" lon="120.98393220104076"><ele>8.0</ele><time>2026-03-30T06:42:04.999Z</time></trkpt><trkpt lat="14.597050858900383" lon="120.98395303026129"><ele>8.0</ele><time>2026-03-30T06:42:05.999Z</time></trkpt><trkpt lat="14.597141588299834" lon="120.98396979823418"><ele>8.0</ele><time>2026-03-30T06:42:06.999Z</time></trkpt><trkpt lat="14.597231292082661" lon="120.98398059193681"><ele>8.0</ele><time>2026-03-30T06:42:07.999Z</time></trkpt><trkpt lat="14.597319453278486" lon="120.98399843391424"><ele>8.600000000000001</ele><time>2026-03-30T06:42:08.999Z</time></trkpt><trkpt lat="14.597412950917796" lon="120.98401392427725"><ele>9.200000000000001</ele><time>2026-03-30T06:42:09.999Z</time></trkpt><trkpt lat="14.597507251955438" lon="120.98403042947324"><ele>9.8</ele><time>2026-03-30T06:42:10.999Z</time></trkpt><trkpt lat="14.597601865547357" lon="120.98405018482447"><ele>10.4</ele><time>2026-03-30T06:42:11.999Z</time></trkpt><trkpt lat="14.597710729654871" lon="120.98406173175565"><ele>11.0</ele><time>2026-03-30T06:42:12.999Z</time></trkpt><trkpt lat="14.597811526159969" lon="120.98407123233677"><ele>11.0</ele><time>2026-03-30T06:42:13.999Z</time></trkpt><trkpt lat="14.597908659780321" lon="120.98408606871774"><ele>11.0</ele><time>2026-03-30T06:42:14.999Z</time></trkpt><trkpt lat="14.598013124706226" lon="120.98407822470618"><ele>11.0</ele><time>2026-03-30T06:42:15.999Z</time></trkpt><trkpt lat="14.598115599684165" lon="120.98406700847026"><ele>11.0</ele><time>2026-03-30T06:42:16.999Z</time></trkpt><trkpt lat="14.598199269125034" lon="120.9841062747077"><ele>11.0</ele><time>2026-03-30T06:42:17.999Z</time></trkpt><trkpt lat="14.598295717972844" lon="120.98412175891261"><ele>11.0</ele><time>2026-03-30T06:42:18.999Z</time></trkpt><trkpt lat="14.598390583501255" lon="120.98413124515301"><ele>11.0</ele><time>2026-03-30T06:42:19.999Z</time></trkpt><trkpt lat="14.598488460819416" lon="120.98414480794705"><ele>11.0</ele><time>2026-03-30T06:42:20.999Z</time></trkpt><trkpt lat="14.598580906744465" lon="120.98416541303682"><ele>11.0</ele><time>2026-03-30T06:42:21.999Z</time></trkpt><trkpt lat="14.598653797498514" lon="120.98418049163612"><ele>11.0</ele><time>2026-03-30T06:42:22.999Z</time></trkpt><trkpt lat="14.598720414753723" lon="120.98418860719208"><ele>11.0</ele><time>2026-03-30T06:42:23.999Z</time></trkpt><trkpt lat="14.598833323688483" lon="120.98421253505829"><ele>9.833333333333332</ele><time>2026-03-30T06:42:26Z</time></trkpt><trkpt lat="14.598941426735841" lon="120.98423564464302"><ele>8.666666666666666</ele><time>2026-03-30T06:42:28Z</time></trkpt><trkpt lat="14.599016765940577" lon="120.98424831463859"><ele>7.5</ele><time>2026-03-30T06:42:30Z</time></trkpt><trkpt lat="14.5991071346183" lon="120.98425662903267"><ele>6.333333333333333</ele><time>2026-03-30T06:42:32Z</time></trkpt><trkpt lat="14.59917355063889" lon="120.9842771848025"><ele>5.166666666666666</ele><time>2026-03-30T06:42:33Z</time></trkpt><trkpt lat="14.599240562097851" lon="120.98429244389882"><ele>4.0</ele><time>2026-03-30T06:42:34Z</time></trkpt><trkpt lat="14.599314985299973" lon="120.98430874574073"><ele>4.0</ele><time>2026-03-30T06:42:35Z</time></trkpt><trkpt lat="14.599397162688286" lon="120.98432991811374"><ele>4.0</ele><time>2026-03-30T06:42:36Z</time></trkpt><trkpt lat="14.599492479394302" lon="120.98435005586244"><ele>4.0</ele><time>2026-03-30T06:42:37Z</time></trkpt><trkpt lat="14.59959504093963" lon="120.98436891920839"><ele>4.0</ele><time>2026-03-30T06:42:38Z</time></trkpt><trkpt lat="14.599701653402313" lon="120.98439641975467"><ele>4.0</ele><time>2026-03-30T06:42:39Z</time></trkpt><trkpt lat="14.599817110855733" lon="120.9844154207344"><ele>5.0</ele><time>2026-03-30T06:42:40Z</time></trkpt><trkpt lat="14.599931115384537" lon="120.98445507115231"><ele>6.0</ele><time>2026-03-30T06:42:41Z</time></trkpt><trkpt lat="14.600056386274535" lon="120.98448183757792"><ele>7.0</ele><time>2026-03-30T06:42:42Z</time></trkpt><trkpt lat="14.600179259743806" lon="120.98450825379837"><ele>8.0</ele><time>2026-03-30T06:42:43Z</time></trkpt><trkpt lat="14.600304314728616" lon="120.98452992122387"><ele>8.25</ele><time>2026-03-30T06:42:44Z</time></trkpt><trkpt lat="14.600432296078804" lon="120.98455406499873"><ele>8.5</ele><time>2026-03-30T06:42:45Z</time></trkpt><trkpt lat="14.600562445181247" lon="120.98457837562759"><ele>8.75</ele><time>2026-03-30T06:42:46Z</time></trkpt><trkpt lat="14.600690310564184" lon="120.98460357392902"><ele>9.0</ele><time>2026-03-30T06:42:47Z</time></trkpt><trkpt lat="14.600819925461197" lon="120.98462711252813"><ele>9.0</ele><time>2026-03-30T06:42:48Z</time></trkpt><trkpt lat="14.600951200246605" lon="120.98465139311425"><ele>9.0</ele><time>2026-03-30T06:42:49Z</time></trkpt><trkpt lat="14.601078660326667" lon="120.98467466527543"><ele>9.0</ele><time>2026-03-30T06:42:50Z</time></trkpt><trkpt lat="14.601196468069311" lon="120.98469541332351"><ele>9.0</ele><time>2026-03-30T06:42:51Z</time></trkpt><trkpt lat="14.601312681266583" lon="120.98471679183832"><ele>8.8</ele><time>2026-03-30T06:42:52Z</time></trkpt><trkpt lat="14.60142670292219" lon="120.98474117181667"><ele>8.600000000000001</ele><time>2026-03-30T06:42:53Z</time></trkpt><trkpt lat="14.601536352150477" lon="120.9847614580582"><ele>8.4</ele><time>2026-03-30T06:42:54Z</time></trkpt><trkpt lat="14.601632893504167" lon="120.98478671703378"><ele>8.200000000000001</ele><time>2026-03-30T06:42:55Z</time></trkpt><trkpt lat="14.60173024363499" lon="120.98480416882887"><ele>8.0</ele><time>2026-03-30T06:42:56Z</time></trkpt><trkpt lat="14.601826695019048" lon="120.98482358348033"><ele>8.0</ele><time>2026-03-30T06:42:57Z</time></trkpt><trkpt lat="14.601915019587993" lon="120.9848475110564"><ele>8.0</ele><time>2026-03-30T06:42:58Z</time></trkpt><trkpt lat="14.602009565887196" lon="120.98486557677218"><ele>8.0</ele><time>2026-03-30T06:42:59Z</time></trkpt><trkpt lat="14.602114752850037" lon="120.98488883202195"><ele>8.0</ele><time>2026-03-30T06:43:00Z</time></trkpt><trkpt lat="14.602223055494038" lon="120.98491482515003"><ele>8.0</ele><time>2026-03-30T06:43:01Z</time></trkpt><trkpt lat="14.602332305936608" lon="120.9849365145619"><ele>9.0</ele><time>2026-03-30T06:43:02Z</time></trkpt><trkpt lat="14.602442578541934" lon="120.9849583454681"><ele>10.0</ele><time>2026-03-30T06:43:03Z</time></trkpt><trkpt lat="14.602548261148726" lon="120.9849756076419"><ele>11.0</ele><time>2026-03-30T06:43:04Z</time></trkpt><trkpt lat="14.60266590962121" lon="120.98499949458447"><ele>12.0</ele><time>2026-03-30T06:43:05Z</time></trkpt><trkpt lat="14.60278925676433" lon="120.98502545849053"><ele>11.6</ele><time>2026-03-30T06:43:06Z</time></trkpt><trkpt lat="14.602925434789464" lon="120.98505033408622"><ele>11.2</ele><time>2026-03-30T06:43:07Z</time></trkpt><trkpt lat="14.603044922935052" lon="120.98507899780682"><ele>10.8</ele><time>2026-03-30T06:43:08Z</time></trkpt><trkpt lat="14.603132577575932" lon="120.98509741497537"><ele>10.4</ele><time>2026-03-30T06:43:09Z</time></trkpt><trkpt lat="14.603214891334266" lon="120.98510821293966"><ele>10.0</ele><time>2026-03-30T06:43:10Z</time></trkpt><trkpt lat="14.603302234609302" lon="120.98513154838767"><ele>10.0</ele><time>2026-03-30T06:43:11Z</time></trkpt><trkpt lat="14.603420971421734" lon="120.9851586916648"><ele>10.0</ele><time>2026-03-30T06:43:12Z</time></trkpt><trkpt lat="14.603516065955104" lon="120.9851748484089"><ele>10.0</ele><time>2026-03-30T06:43:14Z</time></trkpt><trkpt lat="14.603633663814495" lon="120.98517333352498"><ele>10.0</ele><time>2026-03-30T06:43:15Z</time></trkpt><trkpt lat="14.603776046879775" lon="120.98520136508762"><ele>10.25</ele><time>2026-03-30T06:43:16Z</time></trkpt><trkpt lat="14.603924685024749" lon="120.98522258573814"><ele>10.5</ele><time>2026-03-30T06:43:17Z</time></trkpt><trkpt lat="14.604012277536684" lon="120.98525835014071"><ele>10.75</ele><time>2026-03-30T06:43:18Z</time></trkpt><trkpt lat="14.60411233409896" lon="120.9852928220256"><ele>11.0</ele><time>2026-03-30T06:43:19Z</time></trkpt><trkpt lat="14.604214343504996" lon="120.98531973699673"><ele>11.0</ele><time>2026-03-30T06:43:20Z</time></trkpt><trkpt lat="14.60431009892828" lon="120.98534596108861"><ele>11.0</ele><time>2026-03-30T06:43:21Z</time></trkpt><trkpt lat="14.604406629464862" lon="120.98537052029077"><ele>11.0</ele><time>2026-03-30T06:43:22Z</time></trkpt><trkpt lat="14.604484645434932" lon="120.98538509935514"><ele>11.0</ele><time>2026-03-30T06:43:23Z</time></trkpt><trkpt lat="14.604614175707963" lon="120.98542880420484"><ele>11.0</ele><time>2026-03-30T06:43:25Z</time></trkpt><trkpt lat="14.604673927006834" lon="120.98549853613854"><ele>11.0</ele><time>2026-03-30T06:43:26Z</time></trkpt><trkpt lat="14.60472341787537" lon="120.98563580885144"><ele>11.0</ele><time>2026-03-30T06:43:28Z</time></trkpt><trkpt lat="14.604758558118911" lon="120.98572811414286"><ele>11.0</ele><time>2026-03-30T06:43:29Z</time></trkpt><trkpt lat="14.604796253716794" lon="120.9858546314858"><ele>11.0</ele><time>2026-03-30T06:43:30Z</time></trkpt><trkpt lat="14.60483183470418" lon="120.98598985393883"><ele>11.0</ele><time>2026-03-30T06:43:31Z</time></trkpt><trkpt lat="14.604859379071554" lon="120.98610424925064"><ele>11.0</ele><time>2026-03-30T06:43:33Z</time></trkpt><trkpt lat="14.604902269645986" lon="120.98621783558758"><ele>11.0</ele><time>2026-03-30T06:43:34Z</time></trkpt><trkpt lat="14.604922019464725" lon="120.98638373428626"><ele>11.0</ele><time>2026-03-30T06:43:35Z</time></trkpt><trkpt lat="14.604941081339948" lon="120.98651697043371"><ele>11.0</ele><time>2026-03-30T06:43:36Z</time></trkpt><trkpt lat="14.604963058421555" lon="120.98664749820524"><ele>11.0</ele><time>2026-03-30T06:43:37.001Z</time></trkpt><trkpt lat="14.60499143179583" lon="120.98678032455031"><ele>11.0</ele><time>2026-03-30T06:43:38.001Z</time></trkpt><trkpt lat="14.60501777663626" lon="120.98689886869714"><ele>11.0</ele><time>2026-03-30T06:43:39.001Z</time></trkpt><trkpt lat="14.605043719704803" lon="120.98701397989892"><ele>11.0</ele><time>2026-03-30T06:43:40.001Z</time></trkpt><trkpt lat="14.605067455351213" lon="120.9871256630537"><ele>11.0</ele><time>2026-03-30T06:43:41.001Z</time></trkpt><trkpt lat="14.605097149386376" lon="120.98724479643494"><ele>11.0</ele><time>2026-03-30T06:43:42.001Z</time></trkpt><trkpt lat="14.60512223481586" lon="120.98734879318766"><ele>11.0</ele><time>2026-03-30T06:43:43.001Z</time></trkpt><trkpt lat="14.605148351776966" lon="120.98745311882861"><ele>11.0</ele><time>2026-03-30T06:43:44.001Z</time></trkpt><trkpt lat="14.605172357347017" lon="120.98754918884713"><ele>10.666666666666666</ele><time>2026-03-30T06:43:45.001Z</time></trkpt><trkpt lat="14.605191857394097" lon="120.98763559239396"><ele>10.333333333333332</ele><time>2026-03-30T06:43:46.001Z</time></trkpt><trkpt lat="14.605208685757239" lon="120.98771183236771"><ele>10.0</ele><time>2026-03-30T06:43:47.001Z</time></trkpt><trkpt lat="14.605233577309741" lon="120.9878189509241"><ele>9.666666666666666</ele><time>2026-03-30T06:43:49.001Z</time></trkpt><trkpt lat="14.605250537226455" lon="120.98788452721936"><ele>9.333333333333334</ele><time>2026-03-30T06:43:51.001Z</time></trkpt><trkpt lat="14.605265234693196" lon="120.98795421170304"><ele>9.0</ele><time>2026-03-30T06:43:53.001Z</time></trkpt><trkpt lat="14.605295752172283" lon="120.98802711186063"><ele>9.142857142857144</ele><time>2026-03-30T06:43:58.001Z</time></trkpt><trkpt lat="14.605331165940202" lon="120.98809191848152"><ele>9.285714285714286</ele><time>2026-03-30T06:44:04.001Z</time></trkpt><trkpt lat="14.605373800037409" lon="120.98816258400596"><ele>9.428571428571429</ele><time>2026-03-30T06:44:07.001Z</time></trkpt><trkpt lat="14.605414125379507" lon="120.98821265079717"><ele>9.571428571428573</ele><time>2026-03-30T06:44:11Z</time></trkpt><trkpt lat="14.605455360264896" lon="120.98826299424651"><ele>9.714285714285715</ele><time>2026-03-30T06:44:16Z</time></trkpt><trkpt lat="14.605513809741538" lon="120.98830771882132"><ele>9.857142857142858</ele><time>2026-03-30T06:44:19Z</time></trkpt><trkpt lat="14.605567685930417" lon="120.98838535744723"><ele>10.0</ele><time>2026-03-30T06:44:22Z</time></trkpt><trkpt lat="14.60564587930422" lon="120.98848737710624"><ele>10.0</ele><time>2026-03-30T06:44:24Z</time></trkpt><trkpt lat="14.605707012728542" lon="120.98854429534201"><ele>10.0</ele><time>2026-03-30T06:44:25Z</time></trkpt><trkpt lat="14.605777468049133" lon="120.98861452749105"><ele>10.0</ele><time>2026-03-30T06:44:26Z</time></trkpt><trkpt lat="14.60582779357707" lon="120.9886772953197"><ele>10.0</ele><time>2026-03-30T06:44:27Z</time></trkpt><trkpt lat="14.605882910493884" lon="120.98874497173065"><ele>10.0</ele><time>2026-03-30T06:44:28Z</time></trkpt><trkpt lat="14.605934004321396" lon="120.98880201140273"><ele>10.0</ele><time>2026-03-30T06:44:29Z</time></trkpt><trkpt lat="14.60598346820185" lon="120.98885849980124"><ele>10.0</ele><time>2026-03-30T06:44:30Z</time></trkpt><trkpt lat="14.6060323417788" lon="120.98891022538079"><ele>10.0</ele><time>2026-03-30T06:44:31Z</time></trkpt><trkpt lat="14.606106695354038" lon="120.98900652974208"><ele>10.0</ele><time>2026-03-30T06:44:33Z</time></trkpt><trkpt lat="14.606143938086586" lon="120.98909009995192"><ele>10.0</ele><time>2026-03-30T06:44:35Z</time></trkpt><trkpt lat="14.606186450447927" lon="120.98914208981807"><ele>10.0</ele><time>2026-03-30T06:44:37Z</time></trkpt><trkpt lat="14.60623652134548" lon="120.9891911452319"><ele>10.0</ele><time>2026-03-30T06:44:39Z</time></trkpt><trkpt lat="14.606283834018274" lon="120.98924454462106"><ele>10.0</ele><time>2026-03-30T06:44:48Z</time></trkpt><trkpt lat="14.606370431261684" lon="120.98927773395401"><ele>10.0</ele><time>2026-03-30T06:44:54Z</time></trkpt><trkpt lat="14.606422269739364" lon="120.98934513798822"><ele>10.0</ele><time>2026-03-30T06:44:56Z</time></trkpt><trkpt lat="14.606475601267569" lon="120.98939563029106"><ele>10.0</ele><time>2026-03-30T06:44:58Z</time></trkpt><trkpt lat="14.606531440556038" lon="120.98945279399243"><ele>10.0</ele><time>2026-03-30T06:45:00Z</time></trkpt><trkpt lat="14.60660511037052" lon="120.98952801762162"><ele>10.0</ele><time>2026-03-30T06:45:02Z</time></trkpt><trkpt lat="14.606686742848005" lon="120.98961336592286"><ele>10.0</ele><time>2026-03-30T06:45:04Z</time></trkpt><trkpt lat="14.606771943162567" lon="120.98970713456545"><ele>10.0</ele><time>2026-03-30T06:45:06Z</time></trkpt><trkpt lat="14.60682634604054" lon="120.98976024753988"><ele>10.0</ele><time>2026-03-30T06:45:07Z</time></trkpt><trkpt lat="14.606883045078733" lon="120.9898118182681"><ele>10.0</ele><time>2026-03-30T06:45:08Z</time></trkpt><trkpt lat="14.606939579969245" lon="120.98986856949101"><ele>10.0</ele><time>2026-03-30T06:45:09Z</time></trkpt><trkpt lat="14.607002594613492" lon="120.98993054136993"><ele>10.0</ele><time>2026-03-30T06:45:10Z</time></trkpt><trkpt lat="14.607064602155516" lon="120.98999786719784"><ele>9.8</ele><time>2026-03-30T06:45:11Z</time></trkpt><trkpt lat="14.607131088642062" lon="120.99007097975056"><ele>9.6</ele><time>2026-03-30T06:45:12Z</time></trkpt><trkpt lat="14.607195038883669" lon="120.99014367317262"><ele>9.4</ele><time>2026-03-30T06:45:13Z</time></trkpt><trkpt lat="14.607265307130728" lon="120.99020761382505"><ele>9.2</ele><time>2026-03-30T06:45:14Z</time></trkpt><trkpt lat="14.60733515694105" lon="120.99027798699792"><ele>9.0</ele><time>2026-03-30T06:45:15Z</time></trkpt><trkpt lat="14.607404107033037" lon="120.99035360671994"><ele>9.0</ele><time>2026-03-30T06:45:16Z</time></trkpt><trkpt lat="14.607481395191718" lon="120.9904285538064"><ele>9.0</ele><time>2026-03-30T06:45:17Z</time></trkpt><trkpt lat="14.607562375405765" lon="120.990506362528"><ele>9.0</ele><time>2026-03-30T06:45:18Z</time></trkpt><trkpt lat="14.607651804610637" lon="120.9905945141197"><ele>9.0</ele><time>2026-03-30T06:45:19Z</time></trkpt><trkpt lat="14.607732944654868" lon="120.99069363121468"><ele>9.0</ele><time>2026-03-30T06:45:20Z</time></trkpt><trkpt lat="14.607802635994359" lon="120.99078561956506"><ele>9.0</ele><time>2026-03-30T06:45:21Z</time></trkpt><trkpt lat="14.607873760808339" lon="120.99086465688993"><ele>9.0</ele><time>2026-03-30T06:45:22Z</time></trkpt><trkpt lat="14.607943198698528" lon="120.99093276687616"><ele>9.0</ele><time>2026-03-30T06:45:23.001Z</time></trkpt><trkpt lat="14.608012323813007" lon="120.9910037778392"><ele>9.0</ele><time>2026-03-30T06:45:24.001Z</time></trkpt><trkpt lat="14.608077875632057" lon="120.9910810811038"><ele>9.4</ele><time>2026-03-30T06:45:25.001Z</time></trkpt><trkpt lat="14.608144329987347" lon="120.99116229111996"><ele>9.8</ele><time>2026-03-30T06:45:26.001Z</time></trkpt><trkpt lat="14.608214867385632" lon="120.99124294571071"><ele>10.200000000000001</ele><time>2026-03-30T06:45:27.001Z</time></trkpt><trkpt lat="14.608286788760028" lon="120.99132403748504"><ele>10.600000000000001</ele><time>2026-03-30T06:45:28.001Z</time></trkpt><trkpt lat="14.608360239520573" lon="120.99140693038215"><ele>11.0</ele><time>2026-03-30T06:45:29.001Z</time></trkpt><trkpt lat="14.608427382539718" lon="120.99148053650757"><ele>11.0</ele><time>2026-03-30T06:45:30.001Z</time></trkpt><trkpt lat="14.608508054343178" lon="120.99156668082041"><ele>11.0</ele><time>2026-03-30T06:45:31.001Z</time></trkpt><trkpt lat="14.60858405111357" lon="120.991646459385"><ele>11.0</ele><time>2026-03-30T06:45:32.001Z</time></trkpt><trkpt lat="14.608656631640262" lon="120.99172291242417"><ele>11.0</ele><time>2026-03-30T06:45:33.001Z</time></trkpt><trkpt lat="14.608725167564941" lon="120.99180466579097"><ele>11.0</ele><time>2026-03-30T06:45:34.001Z</time></trkpt><trkpt lat="14.608789455957728" lon="120.99187929692275"><ele>10.166666666666666</ele><time>2026-03-30T06:45:35.001Z</time></trkpt><trkpt lat="14.60885049993025" lon="120.9919464731283"><ele>9.333333333333332</ele><time>2026-03-30T06:45:36.001Z</time></trkpt><trkpt lat="14.608912892759205" lon="120.99201630499999"><ele>8.5</ele><time>2026-03-30T06:45:37.001Z</time></trkpt><trkpt lat="14.608965924047991" lon="120.99207822065645"><ele>7.666666666666666</ele><time>2026-03-30T06:45:38.001Z</time></trkpt><trkpt lat="14.609014705049438" lon="120.99213999775007"><ele>6.833333333333333</ele><time>2026-03-30T06:45:39.001Z</time></trkpt><trkpt lat="14.609069219886385" lon="120.9922027227478"><ele>6.0</ele><time>2026-03-30T06:45:40.001Z</time></trkpt><trkpt lat="14.609118776218304" lon="120.99225802233505"><ele>6.0</ele><time>2026-03-30T06:45:41.001Z</time></trkpt><trkpt lat="14.609164676210552" lon="120.9923090828923"><ele>6.0</ele><time>2026-03-30T06:45:42.001Z</time></trkpt><trkpt lat="14.609232500283756" lon="120.99238446682644"><ele>6.0</ele><time>2026-03-30T06:45:44.001Z</time></trkpt><trkpt lat="14.6092843752524" lon="120.99243936399684"><ele>6.0</ele><time>2026-03-30T06:45:46.001Z</time></trkpt><trkpt lat="14.60933330926941" lon="120.99250577304001"><ele>6.0</ele><time>2026-03-30T06:45:49.001Z</time></trkpt><trkpt lat="14.609364549632888" lon="120.99256343455875"><ele>6.0</ele><time>2026-03-30T06:45:55.001Z</time></trkpt><trkpt lat="14.609417821582218" lon="120.99262407502123"><ele>5.8</ele><time>2026-03-30T06:46:38Z</time></trkpt><trkpt lat="14.609489446269754" lon="120.99269608572061"><ele>5.6</ele><time>2026-03-30T06:46:40Z</time></trkpt><trkpt lat="14.609539760701301" lon="120.99275200717014"><ele>5.4</ele><time>2026-03-30T06:46:42Z</time></trkpt><trkpt lat="14.609612922245983" lon="120.99283277322532"><ele>5.2</ele><time>2026-03-30T06:46:44Z</time></trkpt><trkpt lat="14.60968712759652" lon="120.99291794943169"><ele>5.0</ele><time>2026-03-30T06:46:46Z</time></trkpt><trkpt lat="14.609784976081064" lon="120.9930124577878"><ele>5.0</ele><time>2026-03-30T06:46:48Z</time></trkpt><trkpt lat="14.609851057702961" lon="120.99306955406414"><ele>5.0</ele><time>2026-03-30T06:46:49Z</time></trkpt><trkpt lat="14.609930698914999" lon="120.99314241806978"><ele>5.0</ele><time>2026-03-30T06:46:50Z</time></trkpt><trkpt lat="14.610005291269625" lon="120.9932237873117"><ele>5.0</ele><time>2026-03-30T06:46:51Z</time></trkpt><trkpt lat="14.610077310520744" lon="120.99330685125284"><ele>5.0</ele><time>2026-03-30T06:46:52Z</time></trkpt><trkpt lat="14.610139596366356" lon="120.99338105592183"><ele>5.4</ele><time>2026-03-30T06:46:53Z</time></trkpt><trkpt lat="14.610204431091146" lon="120.99345765743853"><ele>5.8</ele><time>2026-03-30T06:46:54Z</time></trkpt><trkpt lat="14.610272956504746" lon="120.99353645768817"><ele>6.199999999999999</ele><time>2026-03-30T06:46:55Z</time></trkpt><trkpt lat="14.610341636368661" lon="120.993615170836"><ele>6.6</ele><time>2026-03-30T06:46:56Z</time></trkpt><trkpt lat="14.610406091807764" lon="120.99369124868201"><ele>7.0</ele><time>2026-03-30T06:46:57Z</time></trkpt><trkpt lat="14.610469982051766" lon="120.99375425062388"><ele>7.3999999999999995</ele><time>2026-03-30T06:46:58Z</time></trkpt><trkpt lat="14.61053970806682" lon="120.99383018050769"><ele>7.799999999999999</ele><time>2026-03-30T06:46:59Z</time></trkpt><trkpt lat="14.610599493711774" lon="120.99389906172294"><ele>8.2</ele><time>2026-03-30T06:47:00Z</time></trkpt><trkpt lat="14.610663460592027" lon="120.9939683275064"><ele>8.6</ele><time>2026-03-30T06:47:01Z</time></trkpt><trkpt lat="14.610729768972014" lon="120.99404172125732"><ele>9.0</ele><time>2026-03-30T06:47:02Z</time></trkpt><trkpt lat="14.61079906975046" lon="120.99412291305008"><ele>8.75</ele><time>2026-03-30T06:47:03Z</time></trkpt><trkpt lat="14.610878290563535" lon="120.99421007477557"><ele>8.5</ele><time>2026-03-30T06:47:04Z</time></trkpt><trkpt lat="14.61096483332025" lon="120.99430144755632"><ele>8.25</ele><time>2026-03-30T06:47:05Z</time></trkpt><trkpt lat="14.61105733136455" lon="120.99440285422644"><ele>8.0</ele><time>2026-03-30T06:47:06Z</time></trkpt><trkpt lat="14.611163504300784" lon="120.99450700480836"><ele>7.25</ele><time>2026-03-30T06:47:07Z</time></trkpt><trkpt lat="14.611267762407769" lon="120.9946138679556"><ele>6.5</ele><time>2026-03-30T06:47:08Z</time></trkpt><trkpt lat="14.611355594325238" lon="120.99471483901189"><ele>5.75</ele><time>2026-03-30T06:47:09Z</time></trkpt><trkpt lat="14.611435968493607" lon="120.99480720925744"><ele>5.0</ele><time>2026-03-30T06:47:10Z</time></trkpt><trkpt lat="14.61152572496066" lon="120.99490538980922"><ele>5.0</ele><time>2026-03-30T06:47:11Z</time></trkpt><trkpt lat="14.611609168388659" lon="120.99499929907455"><ele>5.0</ele><time>2026-03-30T06:47:12Z</time></trkpt><trkpt lat="14.611682540588099" lon="120.9950826326525"><ele>5.0</ele><time>2026-03-30T06:47:13Z</time></trkpt><trkpt lat="14.611757927810043" lon="120.99516609489177"><ele>5.0</ele><time>2026-03-30T06:47:14Z</time></trkpt><trkpt lat="14.611832528029106" lon="120.99525047476949"><ele>5.5</ele><time>2026-03-30T06:47:15Z</time></trkpt><trkpt lat="14.611913802324436" lon="120.9953405118587"><ele>6.0</ele><time>2026-03-30T06:47:16Z</time></trkpt><trkpt lat="14.61199012404434" lon="120.99542561097815"><ele>6.5</ele><time>2026-03-30T06:47:17Z</time></trkpt><trkpt lat="14.612065466958251" lon="120.99551052472609"><ele>7.0</ele><time>2026-03-30T06:47:18Z</time></trkpt><trkpt lat="14.612143915513045" lon="120.99559395259395"><ele>7.166666666666667</ele><time>2026-03-30T06:47:19Z</time></trkpt><trkpt lat="14.612215195037548" lon="120.99567120729742"><ele>7.333333333333334</ele><time>2026-03-30T06:47:20.001Z</time></trkpt><trkpt lat="14.612276383496138" lon="120.99574336522812"><ele>7.5</ele><time>2026-03-30T06:47:21.001Z</time></trkpt><trkpt lat="14.612339985426107" lon="120.99581678338123"><ele>7.666666666666666</ele><time>2026-03-30T06:47:22.001Z</time></trkpt><trkpt lat="14.612390280883092" lon="120.99587785994676"><ele>7.833333333333333</ele><time>2026-03-30T06:47:23.001Z</time></trkpt><trkpt lat="14.612440442937348" lon="120.9959363784921"><ele>8.0</ele><time>2026-03-30T06:47:24.001Z</time></trkpt><trkpt lat="14.612509545778789" lon="120.99602616169211"><ele>7.666666666666666</ele><time>2026-03-30T06:47:26.001Z</time></trkpt><trkpt lat="14.612572273498394" lon="120.99609760411587"><ele>7.333333333333333</ele><time>2026-03-30T06:47:28.001Z</time></trkpt><trkpt lat="14.612627927648619" lon="120.99615973176995"><ele>7.0</ele><time>2026-03-30T06:47:30.001Z</time></trkpt><trkpt lat="14.612692845074498" lon="120.99622634005993"><ele>6.666666666666666</ele><time>2026-03-30T06:47:32.001Z</time></trkpt><trkpt lat="14.612752717138829" lon="120.99628715568798"><ele>6.333333333333333</ele><time>2026-03-30T06:47:34.001Z</time></trkpt><trkpt lat="14.612799311366244" lon="120.9963366522593"><ele>6.0</ele><time>2026-03-30T06:47:37.001Z</time></trkpt><trkpt lat="14.612863033911358" lon="120.99639470093157"><ele>6.0</ele><time>2026-03-30T06:47:41.001Z</time></trkpt><trkpt lat="14.612936635370762" lon="120.99645891756388"><ele>6.0</ele><time>2026-03-30T06:47:43.001Z</time></trkpt><trkpt lat="14.612982608271462" lon="120.9965226415057"><ele>6.0</ele><time>2026-03-30T06:47:46.001Z</time></trkpt><trkpt lat="14.61302653060752" lon="120.99657568579867"><ele>6.0</ele><time>2026-03-30T06:47:48.001Z</time></trkpt><trkpt lat="14.613073900810377" lon="120.99663941455329"><ele>6.0</ele><time>2026-03-30T06:47:50.001Z</time></trkpt><trkpt lat="14.613125224002058" lon="120.99668662321173"><ele>6.0</ele><time>2026-03-30T06:47:51.001Z</time></trkpt><trkpt lat="14.613175734526592" lon="120.9967303958283"><ele>6.333333333333333</ele><time>2026-03-30T06:47:52.001Z</time></trkpt><trkpt lat="14.613238471952375" lon="120.99679781441091"><ele>6.666666666666666</ele><time>2026-03-30T06:47:54.001Z</time></trkpt><trkpt lat="14.61329036346041" lon="120.99685131729066"><ele>7.0</ele><time>2026-03-30T06:47:55.001Z</time></trkpt><trkpt lat="14.613347444892975" lon="120.99691209174604"><ele>7.333333333333333</ele><time>2026-03-30T06:47:56.001Z</time></trkpt><trkpt lat="14.613400964863265" lon="120.99697171334161"><ele>7.666666666666666</ele><time>2026-03-30T06:47:57.001Z</time></trkpt><trkpt lat="14.613454137137296" lon="120.99702976350105"><ele>8.0</ele><time>2026-03-30T06:47:58.001Z</time></trkpt><trkpt lat="14.61350160337435" lon="120.99708529128141"><ele>7.999999999999999</ele><time>2026-03-30T06:47:59.001Z</time></trkpt><trkpt lat="14.613548696641399" lon="120.99714130024327"><ele>8.0</ele><time>2026-03-30T06:48:00.001Z</time></trkpt><trkpt lat="14.613602627934313" lon="120.99719917183786"><ele>8.0</ele><time>2026-03-30T06:48:01.001Z</time></trkpt><trkpt lat="14.61365772474585" lon="120.99725873514353"><ele>8.0</ele><time>2026-03-30T06:48:02.001Z</time></trkpt><trkpt lat="14.613717632907422" lon="120.99732107832642"><ele>7.999999999999999</ele><time>2026-03-30T06:48:03.001Z</time></trkpt><trkpt lat="14.613775921590538" lon="120.99738314833324"><ele>8.0</ele><time>2026-03-30T06:48:04.001Z</time></trkpt><trkpt lat="14.61382812452831" lon="120.99743942536053"><ele>8.0</ele><time>2026-03-30T06:48:05.001Z</time></trkpt><trkpt lat="14.613884195666342" lon="120.99750010405228"><ele>8.0</ele><time>2026-03-30T06:48:06.001Z</time></trkpt><trkpt lat="14.613944482193045" lon="120.99756310059655"><ele>8.0</ele><time>2026-03-30T06:48:07.001Z</time></trkpt><trkpt lat="14.61400690925328" lon="120.99763186973836"><ele>8.0</ele><time>2026-03-30T06:48:08.001Z</time></trkpt><trkpt lat="14.614074321287227" lon="120.99770568136093"><ele>8.0</ele><time>2026-03-30T06:48:09.001Z</time></trkpt><trkpt lat="14.614139351559965" lon="120.99777824990736"><ele>8.0</ele><time>2026-03-30T06:48:10.001Z</time></trkpt><trkpt lat="14.614204969369855" lon="120.99785324656577"><ele>8.0</ele><time>2026-03-30T06:48:11.001Z</time></trkpt><trkpt lat="14.614269180246952" lon="120.99792706185677"><ele>8.0</ele><time>2026-03-30T06:48:12.001Z</time></trkpt><trkpt lat="14.614338379973018" lon="120.99800740953691"><ele>8.0</ele><time>2026-03-30T06:48:13.001Z</time></trkpt><trkpt lat="14.614411896968079" lon="120.998096177224"><ele>8.0</ele><time>2026-03-30T06:48:14.001Z</time></trkpt><trkpt lat="14.614489538522454" lon="120.99819078572662"><ele>8.0</ele><time>2026-03-30T06:48:15.001Z</time></trkpt><trkpt lat="14.614571234517687" lon="120.99827736795935"><ele>8.0</ele><time>2026-03-30T06:48:16.001Z</time></trkpt><trkpt lat="14.614643175395315" lon="120.9983542309227"><ele>8.0</ele><time>2026-03-30T06:48:17.001Z</time></trkpt><trkpt lat="14.614712239124552" lon="120.99843119054043"><ele>8.0</ele><time>2026-03-30T06:48:18.001Z</time></trkpt><trkpt lat="14.614779107930518" lon="120.9985064409189"><ele>8.0</ele><time>2026-03-30T06:48:19.001Z</time></trkpt><trkpt lat="14.614844203623877" lon="120.99857830283543"><ele>8.0</ele><time>2026-03-30T06:48:20.001Z</time></trkpt><trkpt lat="14.614908810216601" lon="120.99864956060753"><ele>8.0</ele><time>2026-03-30T06:48:21Z</time></trkpt><trkpt lat="14.614973910157504" lon="120.9987203694478"><ele>8.0</ele><time>2026-03-30T06:48:22Z</time></trkpt><trkpt lat="14.615036935547705" lon="120.9987930658248"><ele>8.0</ele><time>2026-03-30T06:48:23Z</time></trkpt><trkpt lat="14.615096926076877" lon="120.99885988038608"><ele>8.0</ele><time>2026-03-30T06:48:24Z</time></trkpt><trkpt lat="14.615162565085845" lon="120.99893185568168"><ele>8.0</ele><time>2026-03-30T06:48:25Z</time></trkpt><trkpt lat="14.615232255432234" lon="120.99900083046165"><ele>8.0</ele><time>2026-03-30T06:48:26Z</time></trkpt><trkpt lat="14.615304841915947" lon="120.99907312406303"><ele>8.0</ele><time>2026-03-30T06:48:27Z</time></trkpt><trkpt lat="14.615387037744858" lon="120.99915966037736"><ele>8.0</ele><time>2026-03-30T06:48:28Z</time></trkpt><trkpt lat="14.61547462684494" lon="120.99924415537116"><ele>8.0</ele><time>2026-03-30T06:48:29Z</time></trkpt><trkpt lat="14.615566118345315" lon="120.99934074447197"><ele>9.0</ele><time>2026-03-30T06:48:30Z</time></trkpt><trkpt lat="14.615657053553877" lon="120.99944498526298"><ele>10.0</ele><time>2026-03-30T06:48:31Z</time></trkpt><trkpt lat="14.6157522011907" lon="120.99954996525726"><ele>11.0</ele><time>2026-03-30T06:48:32Z</time></trkpt><trkpt lat="14.615847423603592" lon="120.999661480503"><ele>12.0</ele><time>2026-03-30T06:48:33Z</time></trkpt><trkpt lat="14.615942064346767" lon="120.99976906820311"><ele>12.0</ele><time>2026-03-30T06:48:34Z</time></trkpt><trkpt lat="14.616029835376178" lon="120.99986686008744"><ele>12.0</ele><time>2026-03-30T06:48:35Z</time></trkpt><trkpt lat="14.616107000313802" lon="120.99995642126542"><ele>12.0</ele><time>2026-03-30T06:48:36Z</time></trkpt><trkpt lat="14.616191140925892" lon="121.00004595589925"><ele>12.0</ele><time>2026-03-30T06:48:37Z</time></trkpt><trkpt lat="14.616273516680614" lon="121.00013741739438"><ele>14.5</ele><time>2026-03-30T06:48:38Z</time></trkpt><trkpt lat="14.616350015582503" lon="121.00022616143087"><ele>17.0</ele><time>2026-03-30T06:48:39Z</time></trkpt><trkpt lat="14.616430856281148" lon="121.00031528439104"><ele>19.5</ele><time>2026-03-30T06:48:40Z</time></trkpt><trkpt lat="14.61651306505505" lon="121.00040453335389"><ele>22.0</ele><time>2026-03-30T06:48:41Z</time></trkpt><trkpt lat="14.616594311332719" lon="121.00049504383006"><ele>22.0</ele><time>2026-03-30T06:48:42Z</time></trkpt><trkpt lat="14.616670468814178" lon="121.00058054087751"><ele>22.0</ele><time>2026-03-30T06:48:43Z</time></trkpt><trkpt lat="14.616754816767045" lon="121.0006724889279"><ele>22.0</ele><time>2026-03-30T06:48:44Z</time></trkpt><trkpt lat="14.616835501164564" lon="121.00076359460415"><ele>22.0</ele><time>2026-03-30T06:48:45Z</time></trkpt><trkpt lat="14.61689666903818" lon="121.00083499732986"><ele>22.0</ele><time>2026-03-30T06:48:46Z</time></trkpt><trkpt lat="14.61697537435326" lon="121.00091207285278"><ele>21.25</ele><time>2026-03-30T06:48:47Z</time></trkpt><trkpt lat="14.617047862476543" lon="121.00099452294934"><ele>20.5</ele><time>2026-03-30T06:48:48Z</time></trkpt><trkpt lat="14.617133946824453" lon="121.0010852633984"><ele>19.75</ele><time>2026-03-30T06:48:49Z</time></trkpt><trkpt lat="14.617220879363797" lon="121.00117608742815"><ele>19.0</ele><time>2026-03-30T06:48:50Z</time></trkpt><trkpt lat="14.617302057635104" lon="121.00125606412841"><ele>19.0</ele><time>2026-03-30T06:48:51Z</time></trkpt><trkpt lat="14.617373039658249" lon="121.00132531133298"><ele>19.0</ele><time>2026-03-30T06:48:52Z</time></trkpt><trkpt lat="14.617440585570302" lon="121.00139412609477"><ele>19.0</ele><time>2026-03-30T06:48:53Z</time></trkpt><trkpt lat="14.617493251912178" lon="121.0014697882938"><ele>19.0</ele><time>2026-03-30T06:48:54Z</time></trkpt><trkpt lat="14.61753658157447" lon="121.00153571043496"><ele>19.0</ele><time>2026-03-30T06:48:55Z</time></trkpt><trkpt lat="14.617581293655991" lon="121.0016295738938"><ele>18.599999999999998</ele><time>2026-03-30T06:48:57Z</time></trkpt><trkpt lat="14.617597355914166" lon="121.00169312193769"><ele>18.2</ele><time>2026-03-30T06:49:00Z</time></trkpt><trkpt lat="14.617619234964902" lon="121.00176712262154"><ele>17.799999999999997</ele><time>2026-03-30T06:49:04Z</time></trkpt><trkpt lat="14.617670224898509" lon="121.00183070453458"><ele>17.4</ele><time>2026-03-30T06:49:06Z</time></trkpt><trkpt lat="14.617761951586763" lon="121.00188207770827"><ele>17.0</ele><time>2026-03-30T06:49:08Z</time></trkpt><trkpt lat="14.617880867631134" lon="121.00193601440667"><ele>17.0</ele><time>2026-03-30T06:49:10Z</time></trkpt><trkpt lat="14.617976953301646" lon="121.00202195897099"><ele>17.0</ele><time>2026-03-30T06:49:12Z</time></trkpt><trkpt lat="14.61803215611138" lon="121.00207148261923"><ele>17.0</ele><time>2026-03-30T06:49:13Z</time></trkpt><trkpt lat="14.618099293116192" lon="121.00214613839239"><ele>17.0</ele><time>2026-03-30T06:49:14Z</time></trkpt><trkpt lat="14.618172000228569" lon="121.00223120220862"><ele>17.0</ele><time>2026-03-30T06:49:15Z</time></trkpt><trkpt lat="14.618230704218124" lon="121.0023111309648"><ele>17.0</ele><time>2026-03-30T06:49:16Z</time></trkpt><trkpt lat="14.618300493862115" lon="121.00239091665162"><ele>17.0</ele><time>2026-03-30T06:49:17Z</time></trkpt><trkpt lat="14.61836892857434" lon="121.00247198048619"><ele>17.0</ele><time>2026-03-30T06:49:18Z</time></trkpt><trkpt lat="14.618440338230773" lon="121.00256093278074"><ele>17.0</ele><time>2026-03-30T06:49:19Z</time></trkpt><trkpt lat="14.618517528684688" lon="121.00265064547955"><ele>17.0</ele><time>2026-03-30T06:49:20Z</time></trkpt><trkpt lat="14.618597475697028" lon="121.00273989457135"><ele>16.75</ele><time>2026-03-30T06:49:21Z</time></trkpt><trkpt lat="14.618680488877567" lon="121.00283246192983"><ele>16.5</ele><time>2026-03-30T06:49:22Z</time></trkpt><trkpt lat="14.618761228568198" lon="121.00292516594808"><ele>16.25</ele><time>2026-03-30T06:49:23Z</time></trkpt><trkpt lat="14.618842513058292" lon="121.00301632082756"><ele>16.0</ele><time>2026-03-30T06:49:24Z</time></trkpt><trkpt lat="14.61892457856119" lon="121.00310827770592"><ele>16.0</ele><time>2026-03-30T06:49:25Z</time></trkpt><trkpt lat="14.619004372086527" lon="121.00319723057093"><ele>16.0</ele><time>2026-03-30T06:49:26.001Z</time></trkpt><trkpt lat="14.619083882946361" lon="121.00328741466583"><ele>16.0</ele><time>2026-03-30T06:49:27.001Z</time></trkpt><trkpt lat="14.619166581042073" lon="121.00337529484491"><ele>16.0</ele><time>2026-03-30T06:49:28.001Z</time></trkpt><trkpt lat="14.619255098229265" lon="121.00346377807422"><ele>16.5</ele><time>2026-03-30T06:49:29.001Z</time></trkpt><trkpt lat="14.619350740233944" lon="121.00355083731245"><ele>17.0</ele><time>2026-03-30T06:49:30.001Z</time></trkpt><trkpt lat="14.61945052402014" lon="121.00364642257045"><ele>17.5</ele><time>2026-03-30T06:49:31.001Z</time></trkpt><trkpt lat="14.619548721169528" lon="121.00375250282246"><ele>18.0</ele><time>2026-03-30T06:49:32.001Z</time></trkpt><trkpt lat="14.619641844837282" lon="121.00386176367878"><ele>18.0</ele><time>2026-03-30T06:49:33.001Z</time></trkpt><trkpt lat="14.619731514648635" lon="121.00396343933711"><ele>18.0</ele><time>2026-03-30T06:49:34.001Z</time></trkpt><trkpt lat="14.619820712243373" lon="121.00406085181498"><ele>18.0</ele><time>2026-03-30T06:49:35.001Z</time></trkpt><trkpt lat="14.619907179973954" lon="121.00415667527842"><ele>18.0</ele><time>2026-03-30T06:49:36.001Z</time></trkpt><trkpt lat="14.61999887655919" lon="121.00425790028648"><ele>17.0</ele><time>2026-03-30T06:49:37.001Z</time></trkpt><trkpt lat="14.62008952308546" lon="121.00435961756669"><ele>16.0</ele><time>2026-03-30T06:49:38.001Z</time></trkpt><trkpt lat="14.620183167921766" lon="121.00446190984977"><ele>15.0</ele><time>2026-03-30T06:49:39.001Z</time></trkpt><trkpt lat="14.620277449868855" lon="121.00456720175255"><ele>14.0</ele><time>2026-03-30T06:49:40.001Z</time></trkpt><trkpt lat="14.620373519068867" lon="121.00467629631896"><ele>14.0</ele><time>2026-03-30T06:49:41.001Z</time></trkpt><trkpt lat="14.620467518205082" lon="121.00478712767877"><ele>14.0</ele><time>2026-03-30T06:49:42.001Z</time></trkpt><trkpt lat="14.620568110570105" lon="121.00489515183108"><ele>14.0</ele><time>2026-03-30T06:49:43.001Z</time></trkpt><trkpt lat="14.620669059579885" lon="121.00500650805395"><ele>14.0</ele><time>2026-03-30T06:49:44.001Z</time></trkpt><trkpt lat="14.62076742577812" lon="121.00511646208328"><ele>15.25</ele><time>2026-03-30T06:49:45.001Z</time></trkpt><trkpt lat="14.62086513139681" lon="121.00522213097989"><ele>16.5</ele><time>2026-03-30T06:49:46.001Z</time></trkpt><trkpt lat="14.620954526424457" lon="121.00532028871692"><ele>17.75</ele><time>2026-03-30T06:49:47.001Z</time></trkpt><trkpt lat="14.621037424798287" lon="121.00541090834585"><ele>19.0</ele><time>2026-03-30T06:49:48.001Z</time></trkpt><trkpt lat="14.62112146117517" lon="121.00550280712912"><ele>19.2</ele><time>2026-03-30T06:49:49.001Z</time></trkpt><trkpt lat="14.621201873145385" lon="121.00559382985792"><ele>19.4</ele><time>2026-03-30T06:49:50.001Z</time></trkpt><trkpt lat="14.62127517662268" lon="121.00568203891602"><ele>19.6</ele><time>2026-03-30T06:49:51.001Z</time></trkpt><trkpt lat="14.621339469935974" lon="121.00575885410763"><ele>19.8</ele><time>2026-03-30T06:49:52.001Z</time></trkpt><trkpt lat="14.621398785632604" lon="121.00583458569392"><ele>20.0</ele><time>2026-03-30T06:49:53.001Z</time></trkpt><trkpt lat="14.62145062528085" lon="121.00590094303115"><ele>20.0</ele><time>2026-03-30T06:49:54.001Z</time></trkpt><trkpt lat="14.621499020525288" lon="121.00595463360835"><ele>20.0</ele><time>2026-03-30T06:49:55.001Z</time></trkpt><trkpt lat="14.621601861012314" lon="121.00605086766667"><ele>20.0</ele><time>2026-03-30T06:49:57.001Z</time></trkpt><trkpt lat="14.621653862102912" lon="121.00610047712534"><ele>20.0</ele><time>2026-03-30T06:49:58.001Z</time></trkpt><trkpt lat="14.621706041147913" lon="121.00615219367576"><ele>20.0</ele><time>2026-03-30T06:49:59.001Z</time></trkpt><trkpt lat="14.621758757136718" lon="121.0062019049712"><ele>20.0</ele><time>2026-03-30T06:50:00.001Z</time></trkpt><trkpt lat="14.621814903678773" lon="121.00625058920293"><ele>20.0</ele><time>2026-03-30T06:50:01.001Z</time></trkpt><trkpt lat="14.621869148893497" lon="121.00630721500696"><ele>20.0</ele><time>2026-03-30T06:50:02.001Z</time></trkpt><trkpt lat="14.621921416864174" lon="121.00636618782204"><ele>20.0</ele><time>2026-03-30T06:50:03.001Z</time></trkpt><trkpt lat="14.621965733952418" lon="121.00641804732807"><ele>20.0</ele><time>2026-03-30T06:50:04.001Z</time></trkpt><trkpt lat="14.622042139679134" lon="121.00650813574222"><ele>20.0</ele><time>2026-03-30T06:50:06.001Z</time></trkpt><trkpt lat="14.62211338697484" lon="121.00658675438746"><ele>20.0</ele><time>2026-03-30T06:50:08.001Z</time></trkpt><trkpt lat="14.622165042663466" lon="121.00664423922782"><ele>19.714285714285715</ele><time>2026-03-30T06:50:10.001Z</time></trkpt><trkpt lat="14.622212780906324" lon="121.00671237269039"><ele>19.42857142857143</ele><time>2026-03-30T06:50:12.001Z</time></trkpt><trkpt lat="14.622279829226606" lon="121.00678946624535"><ele>19.142857142857146</ele><time>2026-03-30T06:50:14.001Z</time></trkpt><trkpt lat="14.622322813829813" lon="121.00683847687229"><ele>18.857142857142858</ele><time>2026-03-30T06:50:15.001Z</time></trkpt><trkpt lat="14.622367318938169" lon="121.00689130424273"><ele>18.571428571428573</ele><time>2026-03-30T06:50:16.001Z</time></trkpt><trkpt lat="14.622423948514239" lon="121.00693152761458"><ele>18.28571428571429</ele><time>2026-03-30T06:50:17.001Z</time></trkpt><trkpt lat="14.622467838345576" lon="121.00698423702403"><ele>18.0</ele><time>2026-03-30T06:50:18.001Z</time></trkpt><trkpt lat="14.622517193555076" lon="121.00703398923103"><ele>18.0</ele><time>2026-03-30T06:50:19.001Z</time></trkpt><trkpt lat="14.622600378693852" lon="121.00712517960143"><ele>18.0</ele><time>2026-03-30T06:50:21.001Z</time></trkpt><trkpt lat="14.622644504285377" lon="121.00717201859479"><ele>18.0</ele><time>2026-03-30T06:50:22.001Z</time></trkpt><trkpt lat="14.622724685351058" lon="121.00726248127008"><ele>18.0</ele><time>2026-03-30T06:50:24.001Z</time></trkpt><trkpt lat="14.622771646822539" lon="121.00731767937282"><ele>18.0</ele><time>2026-03-30T06:50:25.001Z</time></trkpt><trkpt lat="14.622821533308844" lon="121.0073720532426"><ele>18.0</ele><time>2026-03-30T06:50:26.001Z</time></trkpt><trkpt lat="14.622870010355225" lon="121.00742668886492"><ele>18.166666666666668</ele><time>2026-03-30T06:50:27Z</time></trkpt><trkpt lat="14.622934288608231" lon="121.00749340684418"><ele>18.333333333333332</ele><time>2026-03-30T06:50:28Z</time></trkpt><trkpt lat="14.622988988094175" lon="121.00755839182914"><ele>18.5</ele><time>2026-03-30T06:50:29Z</time></trkpt><trkpt lat="14.623035508772475" lon="121.00761641295848"><ele>18.666666666666664</ele><time>2026-03-30T06:50:30Z</time></trkpt><trkpt lat="14.623083962224943" lon="121.00767032526909"><ele>18.833333333333332</ele><time>2026-03-30T06:50:31Z</time></trkpt><trkpt lat="14.623130898814154" lon="121.00772299684185"><ele>19.0</ele><time>2026-03-30T06:50:32Z</time></trkpt><trkpt lat="14.623172256017385" lon="121.00777369669119"><ele>19.0</ele><time>2026-03-30T06:50:33Z</time></trkpt><trkpt lat="14.623217183039552" lon="121.00782088571391"><ele>19.0</ele><time>2026-03-30T06:50:34Z</time></trkpt><trkpt lat="14.623263867254629" lon="121.00786958570853"><ele>19.0</ele><time>2026-03-30T06:50:35Z</time></trkpt><trkpt lat="14.623313423732546" lon="121.00791898543923"><ele>19.0</ele><time>2026-03-30T06:50:36Z</time></trkpt><trkpt lat="14.623406569864475" lon="121.0080092295073"><ele>19.0</ele><time>2026-03-30T06:50:38Z</time></trkpt><trkpt lat="14.623452186363286" lon="121.00805684940232"><ele>19.0</ele><time>2026-03-30T06:50:39Z</time></trkpt><trkpt lat="14.623498331222194" lon="121.00810935441099"><ele>19.0</ele><time>2026-03-30T06:50:40Z</time></trkpt><trkpt lat="14.623551862305789" lon="121.00817163735064"><ele>19.0</ele><time>2026-03-30T06:50:41Z</time></trkpt><trkpt lat="14.623607492589015" lon="121.00824474043839"><ele>19.0</ele><time>2026-03-30T06:50:42Z</time></trkpt><trkpt lat="14.623667899338065" lon="121.00831595875597"><ele>19.0</ele><time>2026-03-30T06:50:43Z</time></trkpt><trkpt lat="14.623730418825552" lon="121.00838422506646"><ele>19.0</ele><time>2026-03-30T06:50:44Z</time></trkpt><trkpt lat="14.623794640858241" lon="121.00845941105338"><ele>18.0</ele><time>2026-03-30T06:50:45Z</time></trkpt><trkpt lat="14.62385594926216" lon="121.00853938094485"><ele>17.0</ele><time>2026-03-30T06:50:46Z</time></trkpt><trkpt lat="14.6239179378061" lon="121.00860649733602"><ele>16.0</ele><time>2026-03-30T06:50:47Z</time></trkpt><trkpt lat="14.623974792692588" lon="121.00867069958187"><ele>15.0</ele><time>2026-03-30T06:50:48Z</time></trkpt><trkpt lat="14.62403200039031" lon="121.0087316926871"><ele>13.999999999999998</ele><time>2026-03-30T06:50:49Z</time></trkpt><trkpt lat="14.624082423401697" lon="121.00878974939194"><ele>13.0</ele><time>2026-03-30T06:50:50Z</time></trkpt><trkpt lat="14.624130342065039" lon="121.00884003574276"><ele>13.0</ele><time>2026-03-30T06:50:51Z</time></trkpt><trkpt lat="14.624214241037567" lon="121.00892577653431"><ele>13.0</ele><time>2026-03-30T06:50:53Z</time></trkpt><trkpt lat="14.624297711802852" lon="121.0090230882663"><ele>13.0</ele><time>2026-03-30T06:50:55Z</time></trkpt><trkpt lat="14.624376991317577" lon="121.00910801489127"><ele>13.0</ele><time>2026-03-30T06:50:57Z</time></trkpt><trkpt lat="14.624466381216166" lon="121.00921443541976"><ele>13.0</ele><time>2026-03-30T06:50:59Z</time></trkpt><trkpt lat="14.624517434012803" lon="121.00927423963874"><ele>13.0</ele><time>2026-03-30T06:51:00Z</time></trkpt><trkpt lat="14.624573775597153" lon="121.00933772054125"><ele>13.0</ele><time>2026-03-30T06:51:01Z</time></trkpt><trkpt lat="14.624642718540118" lon="121.00940966767072"><ele>13.0</ele><time>2026-03-30T06:51:02Z</time></trkpt><trkpt lat="14.624709706441312" lon="121.00948904227934"><ele>13.0</ele><time>2026-03-30T06:51:03Z</time></trkpt><trkpt lat="14.624775513559497" lon="121.00956081781081"><ele>13.0</ele><time>2026-03-30T06:51:04Z</time></trkpt><trkpt lat="14.624863123275338" lon="121.00965612447861"><ele>13.0</ele><time>2026-03-30T06:51:05Z</time></trkpt><trkpt lat="14.624960664541414" lon="121.00974803763576"><ele>13.0</ele><time>2026-03-30T06:51:06Z</time></trkpt><trkpt lat="14.625030864994091" lon="121.00984384267103"><ele>13.0</ele><time>2026-03-30T06:51:07Z</time></trkpt><trkpt lat="14.625115596627426" lon="121.00993693114502"><ele>13.0</ele><time>2026-03-30T06:51:08Z</time></trkpt><trkpt lat="14.625198968103545" lon="121.01002694184365"><ele>13.0</ele><time>2026-03-30T06:51:09Z</time></trkpt><trkpt lat="14.625259342636108" lon="121.01010556719326"><ele>13.0</ele><time>2026-03-30T06:51:10Z</time></trkpt><trkpt lat="14.625332854565896" lon="121.01018267437928"><ele>13.0</ele><time>2026-03-30T06:51:11Z</time></trkpt><trkpt lat="14.625405329235896" lon="121.01026164664208"><ele>13.0</ele><time>2026-03-30T06:51:12Z</time></trkpt><trkpt lat="14.625472168248931" lon="121.01032955368537"><ele>13.4</ele><time>2026-03-30T06:51:13Z</time></trkpt><trkpt lat="14.62553364645011" lon="121.01040316484917"><ele>13.8</ele><time>2026-03-30T06:51:14Z</time></trkpt><trkpt lat="14.625583193722006" lon="121.01047000191905"><ele>14.2</ele><time>2026-03-30T06:51:15Z</time></trkpt><trkpt lat="14.625649985380365" lon="121.0105543208761"><ele>14.6</ele><time>2026-03-30T06:51:16Z</time></trkpt><trkpt lat="14.625724260564906" lon="121.01064362466677"><ele>15.0</ele><time>2026-03-30T06:51:17Z</time></trkpt><trkpt lat="14.625802940392939" lon="121.01071021037976"><ele>15.0</ele><time>2026-03-30T06:51:18Z</time></trkpt><trkpt lat="14.625865369674683" lon="121.0107702676019"><ele>15.0</ele><time>2026-03-30T06:51:19Z</time></trkpt><trkpt lat="14.625917283063258" lon="121.01082207190588"><ele>15.0</ele><time>2026-03-30T06:51:20Z</time></trkpt><trkpt lat="14.625980075808732" lon="121.01088192071764"><ele>15.0</ele><time>2026-03-30T06:51:22Z</time></trkpt><trkpt lat="14.626036472367746" lon="121.0109373301595"><ele>15.0</ele><time>2026-03-30T06:51:30.001Z</time></trkpt><trkpt lat="14.62608760056181" lon="121.01098862717184"><ele>15.0</ele><time>2026-03-30T06:51:36.001Z</time></trkpt><trkpt lat="14.626178841454822" lon="121.01105372847806"><ele>15.0</ele><time>2026-03-30T06:51:40.001Z</time></trkpt><trkpt lat="14.626273440265285" lon="121.01114713877692"><ele>15.0</ele><time>2026-03-30T06:51:42.001Z</time></trkpt><trkpt lat="14.626321146214135" lon="121.01120416684499"><ele>15.0</ele><time>2026-03-30T06:51:43.001Z</time></trkpt><trkpt lat="14.62636855593786" lon="121.01125474006375"><ele>15.0</ele><time>2026-03-30T06:51:44.001Z</time></trkpt><trkpt lat="14.626452538893066" lon="121.01134505717246"><ele>15.0</ele><time>2026-03-30T06:51:46.001Z</time></trkpt><trkpt lat="14.626499933762645" lon="121.011399107632"><ele>15.0</ele><time>2026-03-30T06:51:47.001Z</time></trkpt><trkpt lat="14.626539622363651" lon="121.01145020868262"><ele>15.0</ele><time>2026-03-30T06:51:48.001Z</time></trkpt><trkpt lat="14.62658364422615" lon="121.01150403759537"><ele>15.0</ele><time>2026-03-30T06:51:49.001Z</time></trkpt><trkpt lat="14.62664118146386" lon="121.01156039818734"><ele>15.0</ele><time>2026-03-30T06:51:50.001Z</time></trkpt><trkpt lat="14.62670539939341" lon="121.01162318877873"><ele>15.0</ele><time>2026-03-30T06:51:51.001Z</time></trkpt><trkpt lat="14.626763602579423" lon="121.01168892411494"><ele>15.0</ele><time>2026-03-30T06:51:52.001Z</time></trkpt><trkpt lat="14.626818327282312" lon="121.01175172401392"><ele>15.5</ele><time>2026-03-30T06:51:53.001Z</time></trkpt><trkpt lat="14.62687677547936" lon="121.01181380028918"><ele>16.0</ele><time>2026-03-30T06:51:54.001Z</time></trkpt><trkpt lat="14.626937753017977" lon="121.01187727770717"><ele>16.5</ele><time>2026-03-30T06:51:55.001Z</time></trkpt><trkpt lat="14.627000563536026" lon="121.01194654667752"><ele>17.0</ele><time>2026-03-30T06:51:56.001Z</time></trkpt><trkpt lat="14.627059419773909" lon="121.01200748427385"><ele>17.5</ele><time>2026-03-30T06:51:57.001Z</time></trkpt><trkpt lat="14.627119733383463" lon="121.01207236224874"><ele>18.0</ele><time>2026-03-30T06:51:58.001Z</time></trkpt><trkpt lat="14.62717855658434" lon="121.01212725363693"><ele>17.8</ele><time>2026-03-30T06:51:59.001Z</time></trkpt><trkpt lat="14.627233639506054" lon="121.01218641106142"><ele>17.6</ele><time>2026-03-30T06:52:00.001Z</time></trkpt><trkpt lat="14.627321423825537" lon="121.01228970083217"><ele>17.4</ele><time>2026-03-30T06:52:02.001Z</time></trkpt><trkpt lat="14.627381675758953" lon="121.01235182577956"><ele>17.2</ele><time>2026-03-30T06:52:03.001Z</time></trkpt><trkpt lat="14.627447334435255" lon="121.01242700035137"><ele>17.0</ele><time>2026-03-30T06:52:04.001Z</time></trkpt><trkpt lat="14.627526231826442" lon="121.01251048868698"><ele>17.0</ele><time>2026-03-30T06:52:05.001Z</time></trkpt><trkpt lat="14.627610403379412" lon="121.01259717632911"><ele>17.0</ele><time>2026-03-30T06:52:06.001Z</time></trkpt><trkpt lat="14.62769264799859" lon="121.01268555513161"><ele>17.0</ele><time>2026-03-30T06:52:07.001Z</time></trkpt><trkpt lat="14.627773829654652" lon="121.01277483115352"><ele>17.0</ele><time>2026-03-30T06:52:08.001Z</time></trkpt><trkpt lat="14.627857542696525" lon="121.01287191523635"><ele>16.4</ele><time>2026-03-30T06:52:09.001Z</time></trkpt><trkpt lat="14.627939528637098" lon="121.01295932041717"><ele>15.799999999999999</ele><time>2026-03-30T06:52:10.001Z</time></trkpt><trkpt lat="14.628019393415395" lon="121.01304075162679"><ele>15.2</ele><time>2026-03-30T06:52:11.001Z</time></trkpt><trkpt lat="14.628095697315494" lon="121.01311362667444"><ele>14.6</ele><time>2026-03-30T06:52:12.001Z</time></trkpt><trkpt lat="14.62814641883289" lon="121.01318468449387"><ele>14.0</ele><time>2026-03-30T06:52:13.001Z</time></trkpt><trkpt lat="14.62819338350839" lon="121.01324009695767"><ele>14.0</ele><time>2026-03-30T06:52:14.001Z</time></trkpt><trkpt lat="14.628242935458905" lon="121.01329860519182"><ele>13.999999999999998</ele><time>2026-03-30T06:52:15.001Z</time></trkpt><trkpt lat="14.628309587721649" lon="121.01336193354359"><ele>13.999999999999998</ele><time>2026-03-30T06:52:16.001Z</time></trkpt><trkpt lat="14.628373342134784" lon="121.01342187716077"><ele>14.0</ele><time>2026-03-30T06:52:17.001Z</time></trkpt><trkpt lat="14.628470710822171" lon="121.01352794021426"><ele>14.0</ele><time>2026-03-30T06:52:19.001Z</time></trkpt><trkpt lat="14.628527240738626" lon="121.01359014282421"><ele>14.000000000000002</ele><time>2026-03-30T06:52:20.001Z</time></trkpt><trkpt lat="14.62858814108319" lon="121.01365108973842"><ele>14.0</ele><time>2026-03-30T06:52:21.001Z</time></trkpt><trkpt lat="14.628649817602051" lon="121.01371604209272"><ele>14.0</ele><time>2026-03-30T06:52:22.001Z</time></trkpt><trkpt lat="14.628705793647379" lon="121.01382323514659"><ele>14.0</ele><time>2026-03-30T06:52:24.001Z</time></trkpt><trkpt lat="14.62875383375277" lon="121.01387914689404"><ele>14.000000000000002</ele><time>2026-03-30T06:52:25.001Z</time></trkpt><trkpt lat="14.628804195647124" lon="121.01393190747991"><ele>14.0</ele><time>2026-03-30T06:52:26.001Z</time></trkpt><trkpt lat="14.628861786854358" lon="121.0139912634932"><ele>13.399999999999999</ele><time>2026-03-30T06:52:27.001Z</time></trkpt><trkpt lat="14.62892511974481" lon="121.01406117410403"><ele>12.799999999999999</ele><time>2026-03-30T06:52:28.001Z</time></trkpt><trkpt lat="14.628995716845116" lon="121.0141360897825"><ele>12.2</ele><time>2026-03-30T06:52:29.001Z</time></trkpt><trkpt lat="14.62907270573074" lon="121.01421244323706"><ele>11.600000000000001</ele><time>2026-03-30T06:52:30.001Z</time></trkpt><trkpt lat="14.629146686313478" lon="121.01429531669062"><ele>11.0</ele><time>2026-03-30T06:52:31.001Z</time></trkpt><trkpt lat="14.629230208181307" lon="121.01438611731959"><ele>12.0</ele><time>2026-03-30T06:52:32.001Z</time></trkpt><trkpt lat="14.62930762717202" lon="121.01446789067401"><ele>13.0</ele><time>2026-03-30T06:52:33Z</time></trkpt><trkpt lat="14.629393231259085" lon="121.01454997868203"><ele>14.0</ele><time>2026-03-30T06:52:34Z</time></trkpt><trkpt lat="14.629479705709622" lon="121.01463748522458"><ele>15.0</ele><time>2026-03-30T06:52:35Z</time></trkpt><trkpt lat="14.629582820827455" lon="121.01474559364655"><ele>15.0</ele><time>2026-03-30T06:52:36Z</time></trkpt><trkpt lat="14.629686630867482" lon="121.01486484314869"><ele>15.0</ele><time>2026-03-30T06:52:37Z</time></trkpt><trkpt lat="14.629758852581372" lon="121.01496760583697"><ele>15.0</ele><time>2026-03-30T06:52:38Z</time></trkpt><trkpt lat="14.629842336212006" lon="121.01507483824449"><ele>15.0</ele><time>2026-03-30T06:52:39Z</time></trkpt><trkpt lat="14.629984054937333" lon="121.01521461480695"><ele>14.333333333333332</ele><time>2026-03-30T06:52:40Z</time></trkpt><trkpt lat="14.630100172234641" lon="121.01534673985411"><ele>13.666666666666666</ele><time>2026-03-30T06:52:41Z</time></trkpt><trkpt lat="14.630216523774694" lon="121.01548312906826"><ele>13.0</ele><time>2026-03-30T06:52:42Z</time></trkpt><trkpt lat="14.630336015000063" lon="121.01562491787593"><ele>13.666666666666666</ele><time>2026-03-30T06:52:43Z</time></trkpt><trkpt lat="14.630458566043139" lon="121.01577060614281"><ele>14.333333333333332</ele><time>2026-03-30T06:52:44Z</time></trkpt><trkpt lat="14.630582625662894" lon="121.01592252368252"><ele>15.0</ele><time>2026-03-30T06:52:45Z</time></trkpt><trkpt lat="14.630705043563788" lon="121.016078592192"><ele>15.0</ele><time>2026-03-30T06:52:46Z</time></trkpt><trkpt lat="14.630826566197747" lon="121.01623757351939"><ele>15.0</ele><time>2026-03-30T06:52:47Z</time></trkpt><trkpt lat="14.630945927190027" lon="121.01640154803718"><ele>15.0</ele><time>2026-03-30T06:52:48Z</time></trkpt><trkpt lat="14.631064283696992" lon="121.0165671178296"><ele>15.333333333333332</ele><time>2026-03-30T06:52:49Z</time></trkpt><trkpt lat="14.631179579389741" lon="121.01672655488866"><ele>15.666666666666666</ele><time>2026-03-30T06:52:50Z</time></trkpt><trkpt lat="14.631284587814175" lon="121.0168807183449"><ele>16.0</ele><time>2026-03-30T06:52:51Z</time></trkpt><trkpt lat="14.631379070851525" lon="121.01702656136813"><ele>16.0</ele><time>2026-03-30T06:52:52Z</time></trkpt><trkpt lat="14.631468265743418" lon="121.01716531992932"><ele>16.0</ele><time>2026-03-30T06:52:53Z</time></trkpt><trkpt lat="14.631546830419495" lon="121.01729828965223"><ele>16.0</ele><time>2026-03-30T06:52:54Z</time></trkpt><trkpt lat="14.631618248447658" lon="121.0174250406888"><ele>15.75</ele><time>2026-03-30T06:52:55Z</time></trkpt><trkpt lat="14.631694632911607" lon="121.01755037978738"><ele>15.5</ele><time>2026-03-30T06:52:56Z</time></trkpt><trkpt lat="14.631769821448486" lon="121.01767018495997"><ele>15.25</ele><time>2026-03-30T06:52:57Z</time></trkpt><trkpt lat="14.631839198673275" lon="121.0177768988096"><ele>15.0</ele><time>2026-03-30T06:52:58Z</time></trkpt><trkpt lat="14.631902538411977" lon="121.01788123792335"><ele>15.0</ele><time>2026-03-30T06:52:59Z</time></trkpt><trkpt lat="14.631969075244188" lon="121.01798828371827"><ele>15.0</ele><time>2026-03-30T06:53:00Z</time></trkpt><trkpt lat="14.632039344199429" lon="121.018095639315"><ele>15.0</ele><time>2026-03-30T06:53:01Z</time></trkpt><trkpt lat="14.63210927325877" lon="121.01820094239869"><ele>15.0</ele><time>2026-03-30T06:53:02Z</time></trkpt><trkpt lat="14.632185115765862" lon="121.01831693656462"><ele>15.5</ele><time>2026-03-30T06:53:03Z</time></trkpt><trkpt lat="14.632264151547124" lon="121.01843585423701"><ele>16.0</ele><time>2026-03-30T06:53:04Z</time></trkpt><trkpt lat="14.632339705273694" lon="121.01855867145382"><ele>16.5</ele><time>2026-03-30T06:53:05Z</time></trkpt><trkpt lat="14.63241839143603" lon="121.01867988019342"><ele>17.0</ele><time>2026-03-30T06:53:06Z</time></trkpt><trkpt lat="14.632496814535864" lon="121.01880101606778"><ele>17.0</ele><time>2026-03-30T06:53:07Z</time></trkpt><trkpt lat="14.632573646994587" lon="121.01892250977589"><ele>17.0</ele><time>2026-03-30T06:53:08Z</time></trkpt><trkpt lat="14.632652372875581" lon="121.0190508527414"><ele>17.0</ele><time>2026-03-30T06:53:09Z</time></trkpt><trkpt lat="14.632722279568297" lon="121.01916666640413"><ele>17.0</ele><time>2026-03-30T06:53:10Z</time></trkpt><trkpt lat="14.632797304016455" lon="121.01928626705345"><ele>18.0</ele><time>2026-03-30T06:53:11Z</time></trkpt><trkpt lat="14.632872909336802" lon="121.01939904081648"><ele>19.0</ele><time>2026-03-30T06:53:12Z</time></trkpt><trkpt lat="14.632946773427426" lon="121.0195164238155"><ele>20.0</ele><time>2026-03-30T06:53:13Z</time></trkpt><trkpt lat="14.633017951808569" lon="121.01963599013223"><ele>21.0</ele><time>2026-03-30T06:53:14Z</time></trkpt><trkpt lat="14.633086826080762" lon="121.01975763953564"><ele>21.0</ele><time>2026-03-30T06:53:15Z</time></trkpt><trkpt lat="14.633157955886132" lon="121.01988421951448"><ele>21.0</ele><time>2026-03-30T06:53:16Z</time></trkpt><trkpt lat="14.633233602886344" lon="121.0200091535292"><ele>21.0</ele><time>2026-03-30T06:53:17Z</time></trkpt><trkpt lat="14.633309259227651" lon="121.02014083445397"><ele>21.0</ele><time>2026-03-30T06:53:18Z</time></trkpt><trkpt lat="14.633387389142941" lon="121.0202749133667"><ele>21.25</ele><time>2026-03-30T06:53:19Z</time></trkpt><trkpt lat="14.633463512793208" lon="121.02040433965337"><ele>21.5</ele><time>2026-03-30T06:53:20Z</time></trkpt><trkpt lat="14.633543274225607" lon="121.02052070622138"><ele>21.75</ele><time>2026-03-30T06:53:21Z</time></trkpt><trkpt lat="14.633613992440775" lon="121.02063455598311"><ele>22.0</ele><time>2026-03-30T06:53:22Z</time></trkpt><trkpt lat="14.633684792045962" lon="121.02074973658922"><ele>21.5</ele><time>2026-03-30T06:53:23Z</time></trkpt><trkpt lat="14.633750977444283" lon="121.0208780680874"><ele>21.0</ele><time>2026-03-30T06:53:24Z</time></trkpt><trkpt lat="14.633817593150898" lon="121.02099201405122"><ele>20.5</ele><time>2026-03-30T06:53:25Z</time></trkpt><trkpt lat="14.633899177717002" lon="121.0211222789454"><ele>20.0</ele><time>2026-03-30T06:53:26Z</time></trkpt><trkpt lat="14.633974456251709" lon="121.02125607687594"><ele>20.0</ele><time>2026-03-30T06:53:27Z</time></trkpt><trkpt lat="14.634052084580615" lon="121.02138832602382"><ele>20.0</ele><time>2026-03-30T06:53:28Z</time></trkpt><trkpt lat="14.634124649780963" lon="121.02151877384905"><ele>20.0</ele><time>2026-03-30T06:53:29Z</time></trkpt><trkpt lat="14.634197251555875" lon="121.02164054368623"><ele>20.0</ele><time>2026-03-30T06:53:30.001Z</time></trkpt><trkpt lat="14.6342697526929" lon="121.02176090955851"><ele>20.0</ele><time>2026-03-30T06:53:31.001Z</time></trkpt><trkpt lat="14.634336817207542" lon="121.02186572687557"><ele>20.0</ele><time>2026-03-30T06:53:32.001Z</time></trkpt><trkpt lat="14.634404896051745" lon="121.02196893705576"><ele>20.0</ele><time>2026-03-30T06:53:33.001Z</time></trkpt><trkpt lat="14.634467441002656" lon="121.02206624629117"><ele>20.0</ele><time>2026-03-30T06:53:34.001Z</time></trkpt><trkpt lat="14.634524352497845" lon="121.02215277214916"><ele>20.2</ele><time>2026-03-30T06:53:35.001Z</time></trkpt><trkpt lat="14.63458550709601" lon="121.02224414189526"><ele>20.4</ele><time>2026-03-30T06:53:36.001Z</time></trkpt><trkpt lat="14.634635787958995" lon="121.02232779111982"><ele>20.6</ele><time>2026-03-30T06:53:37.001Z</time></trkpt><trkpt lat="14.634680615161395" lon="121.0224063519618"><ele>20.8</ele><time>2026-03-30T06:53:38.001Z</time></trkpt><trkpt lat="14.634712252263082" lon="121.0224908660769"><ele>21.0</ele><time>2026-03-30T06:53:39.001Z</time></trkpt><trkpt lat="14.634780079068275" lon="121.02255181781517"><ele>20.6</ele><time>2026-03-30T06:53:41.001Z</time></trkpt><trkpt lat="14.634828822020012" lon="121.02264643246173"><ele>20.200000000000003</ele><time>2026-03-30T06:53:43.001Z</time></trkpt><trkpt lat="14.63488201616369" lon="121.02276209922023"><ele>19.799999999999997</ele><time>2026-03-30T06:53:45.001Z</time></trkpt><trkpt lat="14.63491822762601" lon="121.02283738988237"><ele>19.4</ele><time>2026-03-30T06:53:46.001Z</time></trkpt><trkpt lat="14.634967813324225" lon="121.02292139616613"><ele>19.0</ele><time>2026-03-30T06:53:47.001Z</time></trkpt><trkpt lat="14.635016179770322" lon="121.02300502484034"><ele>19.0</ele><time>2026-03-30T06:53:48.001Z</time></trkpt><trkpt lat="14.635071886625541" lon="121.02309937053471"><ele>19.0</ele><time>2026-03-30T06:53:49.001Z</time></trkpt><trkpt lat="14.635128031039825" lon="121.02319812001045"><ele>19.0</ele><time>2026-03-30T06:53:50.001Z</time></trkpt><trkpt lat="14.635186802243105" lon="121.0232920584587"><ele>19.0</ele><time>2026-03-30T06:53:51.001Z</time></trkpt><trkpt lat="14.635252231311597" lon="121.02338976244968"><ele>19.0</ele><time>2026-03-30T06:53:52.001Z</time></trkpt><trkpt lat="14.635318431578797" lon="121.02349119337731"><ele>20.75</ele><time>2026-03-30T06:53:53.001Z</time></trkpt><trkpt lat="14.63538331871147" lon="121.02358814704846"><ele>22.5</ele><time>2026-03-30T06:53:54.001Z</time></trkpt><trkpt lat="14.635446652641562" lon="121.02369396211678"><ele>24.25</ele><time>2026-03-30T06:53:55.001Z</time></trkpt><trkpt lat="14.635512287269137" lon="121.02379532329165"><ele>26.0</ele><time>2026-03-30T06:53:56.001Z</time></trkpt><trkpt lat="14.635574885450035" lon="121.02389924592515"><ele>26.0</ele><time>2026-03-30T06:53:57.001Z</time></trkpt><trkpt lat="14.635636565855751" lon="121.02401223601547"><ele>26.0</ele><time>2026-03-30T06:53:58.001Z</time></trkpt><trkpt lat="14.635697299223214" lon="121.02411729083154"><ele>26.0</ele><time>2026-03-30T06:53:59.001Z</time></trkpt><trkpt lat="14.6357590853471" lon="121.02422009431983"><ele>26.0</ele><time>2026-03-30T06:54:00.001Z</time></trkpt><trkpt lat="14.635819522443784" lon="121.02432293969869"><ele>26.8</ele><time>2026-03-30T06:54:01.001Z</time></trkpt><trkpt lat="14.635879315605413" lon="121.02442831821746"><ele>27.6</ele><time>2026-03-30T06:54:02.001Z</time></trkpt><trkpt lat="14.63593363526499" lon="121.02451741496998"><ele>28.4</ele><time>2026-03-30T06:54:03.001Z</time></trkpt><trkpt lat="14.635984882815734" lon="121.02459973156803"><ele>29.2</ele><time>2026-03-30T06:54:04.001Z</time></trkpt><trkpt lat="14.636040984809744" lon="121.02467367496561"><ele>30.0</ele><time>2026-03-30T06:54:05.001Z</time></trkpt><trkpt lat="14.636093005925735" lon="121.02475607761312"><ele>30.0</ele><time>2026-03-30T06:54:06.001Z</time></trkpt><trkpt lat="14.636144782638995" lon="121.02483592840181"><ele>30.0</ele><time>2026-03-30T06:54:07.001Z</time></trkpt><trkpt lat="14.636194787516596" lon="121.02492129962474"><ele>30.0</ele><time>2026-03-30T06:54:08.001Z</time></trkpt><trkpt lat="14.6362460420313" lon="121.02501139293035"><ele>30.0</ele><time>2026-03-30T06:54:09.001Z</time></trkpt><trkpt lat="14.63629892674331" lon="121.02510592424453"><ele>30.0</ele><time>2026-03-30T06:54:10.001Z</time></trkpt><trkpt lat="14.636351593300061" lon="121.02519385724052"><ele>30.0</ele><time>2026-03-30T06:54:11.001Z</time></trkpt><trkpt lat="14.636398693643867" lon="121.02528143511721"><ele>30.0</ele><time>2026-03-30T06:54:12.001Z</time></trkpt><trkpt lat="14.636443941313775" lon="121.0253632678605"><ele>30.0</ele><time>2026-03-30T06:54:13.001Z</time></trkpt><trkpt lat="14.636487877611037" lon="121.02544302204534"><ele>30.0</ele><time>2026-03-30T06:54:14.001Z</time></trkpt><trkpt lat="14.636523932449526" lon="121.02552159942502"><ele>30.0</ele><time>2026-03-30T06:54:15.001Z</time></trkpt><trkpt lat="14.636556166919199" lon="121.02559193054365"><ele>30.0</ele><time>2026-03-30T06:54:16.001Z</time></trkpt><trkpt lat="14.636593909995822" lon="121.02566618825527"><ele>30.0</ele><time>2026-03-30T06:54:17.001Z</time></trkpt><trkpt lat="14.636631863956731" lon="121.02573271096719"><ele>30.0</ele><time>2026-03-30T06:54:18.001Z</time></trkpt><trkpt lat="14.636675384678853" lon="121.0258001124961"><ele>30.0</ele><time>2026-03-30T06:54:19.001Z</time></trkpt><trkpt lat="14.63672542235719" lon="121.02591690078788"><ele>30.0</ele><time>2026-03-30T06:54:21.001Z</time></trkpt><trkpt lat="14.63676180042077" lon="121.02604430677651"><ele>30.0</ele><time>2026-03-30T06:54:23.001Z</time></trkpt><trkpt lat="14.63676776019458" lon="121.026112776512"><ele>29.5</ele><time>2026-03-30T06:54:24.001Z</time></trkpt><trkpt lat="14.636768486892235" lon="121.02619107766864"><ele>29.0</ele><time>2026-03-30T06:54:25.001Z</time></trkpt><trkpt lat="14.636762199821291" lon="121.02626211944366"><ele>28.5</ele><time>2026-03-30T06:54:26.001Z</time></trkpt><trkpt lat="14.63675378811295" lon="121.02635804238443"><ele>28.0</ele><time>2026-03-30T06:54:27.001Z</time></trkpt><trkpt lat="14.636745262943927" lon="121.02644645463828"><ele>27.5</ele><time>2026-03-30T06:54:28.001Z</time></trkpt><trkpt lat="14.636735721359358" lon="121.02653249304134"><ele>27.0</ele><time>2026-03-30T06:54:29.001Z</time></trkpt><trkpt lat="14.636712548415128" lon="121.02662357462894"><ele>28.400000000000002</ele><time>2026-03-30T06:54:30.001Z</time></trkpt><trkpt lat="14.6366937171007" lon="121.02669423771657"><ele>29.800000000000004</ele><time>2026-03-30T06:54:31.001Z</time></trkpt><trkpt lat="14.636684782955967" lon="121.0267614000941"><ele>31.2</ele><time>2026-03-30T06:54:32.001Z</time></trkpt><trkpt lat="14.636647315117132" lon="121.02685771200716"><ele>32.6</ele><time>2026-03-30T06:54:34.001Z</time></trkpt><trkpt lat="14.63662246932998" lon="121.02697990569854"><ele>34.0</ele><time>2026-03-30T06:54:36.001Z</time></trkpt><trkpt lat="14.636597073605621" lon="121.0270937501645"><ele>34.0</ele><time>2026-03-30T06:54:38.001Z</time></trkpt><trkpt lat="14.63657449741732" lon="121.02718899017869"><ele>34.0</ele><time>2026-03-30T06:54:40Z</time></trkpt><trkpt lat="14.636553265500595" lon="121.02726064810028"><ele>34.0</ele><time>2026-03-30T06:54:42Z</time></trkpt><trkpt lat="14.636527911612314" lon="121.02734442368958"><ele>34.0</ele><time>2026-03-30T06:54:45Z</time></trkpt><trkpt lat="14.636493245183694" lon="121.02743800146489"><ele>34.0</ele><time>2026-03-30T06:55:30.001Z</time></trkpt><trkpt lat="14.636482601730572" lon="121.02750433893446"><ele>34.0</ele><time>2026-03-30T06:55:31.001Z</time></trkpt><trkpt lat="14.636492831259062" lon="121.02760871951298"><ele>33.2</ele><time>2026-03-30T06:55:32.001Z</time></trkpt><trkpt lat="14.636490663615378" lon="121.0277052234477"><ele>32.4</ele><time>2026-03-30T06:55:33.001Z</time></trkpt><trkpt lat="14.6364695338717" lon="121.02780704099034"><ele>31.6</ele><time>2026-03-30T06:55:34.001Z</time></trkpt><trkpt lat="14.636444044339353" lon="121.02792072887418"><ele>30.8</ele><time>2026-03-30T06:55:35.001Z</time></trkpt><trkpt lat="14.636425944635429" lon="121.02804016752299"><ele>30.0</ele><time>2026-03-30T06:55:36.001Z</time></trkpt><trkpt lat="14.636404516646396" lon="121.02815863990023"><ele>30.0</ele><time>2026-03-30T06:55:37.001Z</time></trkpt><trkpt lat="14.636383302986227" lon="121.02827571642501"><ele>30.0</ele><time>2026-03-30T06:55:38.001Z</time></trkpt><trkpt lat="14.63636065864747" lon="121.02839821885502"><ele>30.0</ele><time>2026-03-30T06:55:39.001Z</time></trkpt><trkpt lat="14.63633540070475" lon="121.02852559305472"><ele>30.0</ele><time>2026-03-30T06:55:40.001Z</time></trkpt><trkpt lat="14.636303365499188" lon="121.0286627483931"><ele>30.25</ele><time>2026-03-30T06:55:41.001Z</time></trkpt><trkpt lat="14.636274000247862" lon="121.02878603498039"><ele>30.5</ele><time>2026-03-30T06:55:42.001Z</time></trkpt><trkpt lat="14.636251071086361" lon="121.02890614640556"><ele>30.75</ele><time>2026-03-30T06:55:43.001Z</time></trkpt><trkpt lat="14.636219919654037" lon="121.02902396909013"><ele>31.0</ele><time>2026-03-30T06:55:44.001Z</time></trkpt><trkpt lat="14.636192981794641" lon="121.0291478865093"><ele>30.5</ele><time>2026-03-30T06:55:45.001Z</time></trkpt><trkpt lat="14.636166515567862" lon="121.02927425052414"><ele>30.0</ele><time>2026-03-30T06:55:46.001Z</time></trkpt><trkpt lat="14.636143629064604" lon="121.02940131436885"><ele>29.5</ele><time>2026-03-30T06:55:47.001Z</time></trkpt><trkpt lat="14.63611985560332" lon="121.02952667460116"><ele>29.0</ele><time>2026-03-30T06:55:48.001Z</time></trkpt><trkpt lat="14.636090946170532" lon="121.02963599899407"><ele>29.0</ele><time>2026-03-30T06:55:49.001Z</time></trkpt><trkpt lat="14.636055788680759" lon="121.02974726437469"><ele>29.0</ele><time>2026-03-30T06:55:50.001Z</time></trkpt><trkpt lat="14.636027032821055" lon="121.02985816028118"><ele>29.0</ele><time>2026-03-30T06:55:51.001Z</time></trkpt><trkpt lat="14.636006345158266" lon="121.02997570613472"><ele>29.0</ele><time>2026-03-30T06:55:52.001Z</time></trkpt><trkpt lat="14.635983580617337" lon="121.03009354814803"><ele>29.0</ele><time>2026-03-30T06:55:53.001Z</time></trkpt><trkpt lat="14.635957769815706" lon="121.03020607987648"><ele>29.0</ele><time>2026-03-30T06:55:54.001Z</time></trkpt><trkpt lat="14.635933396681615" lon="121.03032092663881"><ele>29.0</ele><time>2026-03-30T06:55:55.001Z</time></trkpt><trkpt lat="14.63590369660396" lon="121.03043552943151"><ele>29.0</ele><time>2026-03-30T06:55:56.001Z</time></trkpt><trkpt lat="14.63587118583476" lon="121.03055122921796"><ele>29.0</ele><time>2026-03-30T06:55:57.001Z</time></trkpt><trkpt lat="14.635838153943435" lon="121.0306557677073"><ele>29.0</ele><time>2026-03-30T06:55:58.001Z</time></trkpt><trkpt lat="14.63581267628867" lon="121.0307548297438"><ele>29.0</ele><time>2026-03-30T06:55:59.001Z</time></trkpt><trkpt lat="14.635790867344067" lon="121.03085596306435"><ele>29.0</ele><time>2026-03-30T06:56:00.001Z</time></trkpt><trkpt lat="14.635771507834502" lon="121.03095141296663"><ele>29.0</ele><time>2026-03-30T06:56:01.001Z</time></trkpt><trkpt lat="14.635755766489892" lon="121.03103732822953"><ele>29.4</ele><time>2026-03-30T06:56:02.001Z</time></trkpt><trkpt lat="14.635731077786032" lon="121.03113676728226"><ele>29.799999999999997</ele><time>2026-03-30T06:56:04.001Z</time></trkpt><trkpt lat="14.635701645810753" lon="121.03122711231255"><ele>30.200000000000003</ele><time>2026-03-30T06:56:11.001Z</time></trkpt><trkpt lat="14.635686254773951" lon="121.03137382789362"><ele>30.6</ele><time>2026-03-30T06:56:13.001Z</time></trkpt><trkpt lat="14.635673841862783" lon="121.03146969381417"><ele>31.0</ele><time>2026-03-30T06:56:14.001Z</time></trkpt><trkpt lat="14.635651569848816" lon="121.03157387720084"><ele>30.6</ele><time>2026-03-30T06:56:15.001Z</time></trkpt><trkpt lat="14.635632445207214" lon="121.03168190609851"><ele>30.200000000000003</ele><time>2026-03-30T06:56:16.001Z</time></trkpt><trkpt lat="14.635605516919876" lon="121.03178960783634"><ele>29.799999999999997</ele><time>2026-03-30T06:56:17.001Z</time></trkpt><trkpt lat="14.635584960047094" lon="121.0318967467236"><ele>29.4</ele><time>2026-03-30T06:56:18.001Z</time></trkpt><trkpt lat="14.635560136663607" lon="121.03200584282185"><ele>29.0</ele><time>2026-03-30T06:56:19.001Z</time></trkpt><trkpt lat="14.63554003094964" lon="121.03211822820262"><ele>29.0</ele><time>2026-03-30T06:56:20.001Z</time></trkpt><trkpt lat="14.635524397457148" lon="121.03221152666349"><ele>29.0</ele><time>2026-03-30T06:56:21.001Z</time></trkpt><trkpt lat="14.635505848152734" lon="121.03231491784823"><ele>29.0</ele><time>2026-03-30T06:56:22.001Z</time></trkpt><trkpt lat="14.63548455561387" lon="121.03240731605162"><ele>29.0</ele><time>2026-03-30T06:56:23.001Z</time></trkpt><trkpt lat="14.635463645587489" lon="121.0325101450561"><ele>29.0</ele><time>2026-03-30T06:56:24.001Z</time></trkpt><trkpt lat="14.635444955639414" lon="121.03260249550175"><ele>29.499999999999996</ele><time>2026-03-30T06:56:25.001Z</time></trkpt><trkpt lat="14.635431873793818" lon="121.0326789168893"><ele>30.0</ele><time>2026-03-30T06:56:26.001Z</time></trkpt><trkpt lat="14.635406957206303" lon="121.03278631918197"><ele>30.5</ele><time>2026-03-30T06:56:28.001Z</time></trkpt><trkpt lat="14.63537970512439" lon="121.03288298360204"><ele>31.0</ele><time>2026-03-30T06:56:30.001Z</time></trkpt><trkpt lat="14.635348919206296" lon="121.03296942889591"><ele>31.499999999999996</ele><time>2026-03-30T06:56:33.001Z</time></trkpt><trkpt lat="14.635331014528129" lon="121.03303941127646"><ele>32.0</ele><time>2026-03-30T06:56:36.001Z</time></trkpt><trkpt lat="14.635313089448273" lon="121.0331102105021"><ele>32.166666666666664</ele><time>2026-03-30T06:56:39.001Z</time></trkpt><trkpt lat="14.635292857883114" lon="121.03319240484439"><ele>32.33333333333333</ele><time>2026-03-30T06:56:41.001Z</time></trkpt><trkpt lat="14.635258675262344" lon="121.03327500856763"><ele>32.5</ele><time>2026-03-30T06:56:43.001Z</time></trkpt><trkpt lat="14.635246690793887" lon="121.03338192823088"><ele>32.666666666666664</ele><time>2026-03-30T06:56:44.001Z</time></trkpt><trkpt lat="14.635228137806044" lon="121.03346901152422"><ele>32.833333333333336</ele><time>2026-03-30T06:56:45Z</time></trkpt><trkpt lat="14.63521232537197" lon="121.03355984058913"><ele>33.0</ele><time>2026-03-30T06:56:46Z</time></trkpt><trkpt lat="14.635198932116309" lon="121.0336651538884"><ele>33.0</ele><time>2026-03-30T06:56:47Z</time></trkpt><trkpt lat="14.635176492712587" lon="121.03375786249009"><ele>33.0</ele><time>2026-03-30T06:56:48Z</time></trkpt><trkpt lat="14.635153430953688" lon="121.03385931141432"><ele>33.0</ele><time>2026-03-30T06:56:49Z</time></trkpt><trkpt lat="14.635127980844102" lon="121.03396932193903"><ele>33.0</ele><time>2026-03-30T06:56:50Z</time></trkpt><trkpt lat="14.635101239863411" lon="121.03407898680938"><ele>33.0</ele><time>2026-03-30T06:56:51Z</time></trkpt><trkpt lat="14.635078713692979" lon="121.03419349406964"><ele>33.6</ele><time>2026-03-30T06:56:52Z</time></trkpt><trkpt lat="14.63505537453064" lon="121.03430297670391"><ele>34.199999999999996</ele><time>2026-03-30T06:56:53Z</time></trkpt><trkpt lat="14.63502961571124" lon="121.03442215483776"><ele>34.8</ele><time>2026-03-30T06:56:54Z</time></trkpt><trkpt lat="14.635001950438582" lon="121.03453205181246"><ele>35.4</ele><time>2026-03-30T06:56:55Z</time></trkpt><trkpt lat="14.634979855054722" lon="121.03464201669887"><ele>36.0</ele><time>2026-03-30T06:56:56Z</time></trkpt><trkpt lat="14.634961813069964" lon="121.03473894846185"><ele>36.0</ele><time>2026-03-30T06:56:57Z</time></trkpt><trkpt lat="14.634940899895232" lon="121.03481096615016"><ele>36.0</ele><time>2026-03-30T06:56:58Z</time></trkpt><trkpt lat="14.634920621162799" lon="121.0348853779858"><ele>36.0</ele><time>2026-03-30T06:56:59Z</time></trkpt><trkpt lat="14.634887479933099" lon="121.03496291304265"><ele>36.0</ele><time>2026-03-30T06:57:00Z</time></trkpt><trkpt lat="14.63484345926545" lon="121.03503634157482"><ele>36.0</ele><time>2026-03-30T06:57:01Z</time></trkpt><trkpt lat="14.634803274776896" lon="121.03509276657783"><ele>36.0</ele><time>2026-03-30T06:57:02Z</time></trkpt><trkpt lat="14.63472621719126" lon="121.03518677044512"><ele>36.42857142857143</ele><time>2026-03-30T06:57:04Z</time></trkpt><trkpt lat="14.634689148446792" lon="121.03524015641892"><ele>36.85714285714286</ele><time>2026-03-30T06:57:05Z</time></trkpt><trkpt lat="14.634657653789153" lon="121.03529817501916"><ele>37.28571428571429</ele><time>2026-03-30T06:57:06Z</time></trkpt><trkpt lat="14.634638884619864" lon="121.03536555463039"><ele>37.714285714285715</ele><time>2026-03-30T06:57:07Z</time></trkpt><trkpt lat="14.634634169022547" lon="121.03543913560031"><ele>38.14285714285714</ele><time>2026-03-30T06:57:08Z</time></trkpt><trkpt lat="14.634646409514431" lon="121.03552370674903"><ele>38.57142857142858</ele><time>2026-03-30T06:57:09Z</time></trkpt><trkpt lat="14.634668936302104" lon="121.03561469230868"><ele>39.0</ele><time>2026-03-30T06:57:10Z</time></trkpt><trkpt lat="14.63468453660322" lon="121.03570486549589"><ele>38.8</ele><time>2026-03-30T06:57:11Z</time></trkpt><trkpt lat="14.634685691687611" lon="121.03580882194687"><ele>38.599999999999994</ele><time>2026-03-30T06:57:12Z</time></trkpt><trkpt lat="14.634675977566015" lon="121.03591059100371"><ele>38.4</ele><time>2026-03-30T06:57:13Z</time></trkpt><trkpt lat="14.634660181012613" lon="121.03601891161718"><ele>38.199999999999996</ele><time>2026-03-30T06:57:14Z</time></trkpt><trkpt lat="14.63464116815834" lon="121.03612704441638"><ele>38.0</ele><time>2026-03-30T06:57:15Z</time></trkpt><trkpt lat="14.634619503811681" lon="121.03624012318522"><ele>38.0</ele><time>2026-03-30T06:57:16Z</time></trkpt><trkpt lat="14.63459357865532" lon="121.03635052791826"><ele>38.0</ele><time>2026-03-30T06:57:17Z</time></trkpt><trkpt lat="14.634571118697915" lon="121.03645491948363"><ele>38.0</ele><time>2026-03-30T06:57:18Z</time></trkpt><trkpt lat="14.634550571913085" lon="121.03656286762244"><ele>38.0</ele><time>2026-03-30T06:57:19Z</time></trkpt><trkpt lat="14.634520606631902" lon="121.03666873225693"><ele>38.0</ele><time>2026-03-30T06:57:20Z</time></trkpt><trkpt lat="14.634501006182315" lon="121.03677739377198"><ele>38.166666666666664</ele><time>2026-03-30T06:57:21Z</time></trkpt><trkpt lat="14.63447852321661" lon="121.03687726536434"><ele>38.33333333333333</ele><time>2026-03-30T06:57:22Z</time></trkpt><trkpt lat="14.63445366100563" lon="121.03696411126084"><ele>38.5</ele><time>2026-03-30T06:57:23Z</time></trkpt><trkpt lat="14.634430531443186" lon="121.03704520761987"><ele>38.666666666666664</ele><time>2026-03-30T06:57:24Z</time></trkpt><trkpt lat="14.634414121896642" lon="121.03711552418245"><ele>38.833333333333336</ele><time>2026-03-30T06:57:25Z</time></trkpt><trkpt lat="14.634381175050676" lon="121.03722465065815"><ele>39.0</ele><time>2026-03-30T06:57:27Z</time></trkpt><trkpt lat="14.634360101942544" lon="121.03730323875358"><ele>39.2</ele><time>2026-03-30T06:57:30Z</time></trkpt><trkpt lat="14.63435453687614" lon="121.03736822505648"><ele>39.4</ele><time>2026-03-30T06:57:34Z</time></trkpt><trkpt lat="14.63433725289711" lon="121.03749936515491"><ele>39.6</ele><time>2026-03-30T06:59:06Z</time></trkpt><trkpt lat="14.634310076296545" lon="121.03758679853036"><ele>39.8</ele><time>2026-03-30T06:59:07Z</time></trkpt><trkpt lat="14.634290750934817" lon="121.03769214275607"><ele>40.0</ele><time>2026-03-30T06:59:08Z</time></trkpt><trkpt lat="14.634262607304606" lon="121.03780605667046"><ele>39.5</ele><time>2026-03-30T06:59:09Z</time></trkpt><trkpt lat="14.63423267401452" lon="121.03792906333548"><ele>39.0</ele><time>2026-03-30T06:59:10Z</time></trkpt><trkpt lat="14.634203534481632" lon="121.03805384851938"><ele>38.5</ele><time>2026-03-30T06:59:11Z</time></trkpt><trkpt lat="14.634179892410659" lon="121.03818591001988"><ele>38.0</ele><time>2026-03-30T06:59:12Z</time></trkpt><trkpt lat="14.634154990650458" lon="121.0383153107543"><ele>38.8</ele><time>2026-03-30T06:59:13Z</time></trkpt><trkpt lat="14.634127930224944" lon="121.03843126544757"><ele>39.599999999999994</ele><time>2026-03-30T06:59:14Z</time></trkpt><trkpt lat="14.634089497762705" lon="121.03854335240244"><ele>40.400000000000006</ele><time>2026-03-30T06:59:15Z</time></trkpt><trkpt lat="14.63406628878897" lon="121.03865549783711"><ele>41.2</ele><time>2026-03-30T06:59:16Z</time></trkpt><trkpt lat="14.63403565798461" lon="121.03874053172942"><ele>42.0</ele><time>2026-03-30T06:59:17Z</time></trkpt><trkpt lat="14.634016246884801" lon="121.03884810041329"><ele>42.0</ele><time>2026-03-30T06:59:18Z</time></trkpt><trkpt lat="14.63398900384642" lon="121.03892681084865"><ele>42.0</ele><time>2026-03-30T06:59:19Z</time></trkpt><trkpt lat="14.63396636203568" lon="121.03900074177444"><ele>42.0</ele><time>2026-03-30T06:59:20Z</time></trkpt><trkpt lat="14.633944965091167" lon="121.03906292929267"><ele>42.0</ele><time>2026-03-30T06:59:21Z</time></trkpt><trkpt lat="14.633928534687175" lon="121.03912959111906"><ele>42.0</ele><time>2026-03-30T06:59:22Z</time></trkpt><trkpt lat="14.633913263393257" lon="121.03920302626022"><ele>42.0</ele><time>2026-03-30T06:59:23Z</time></trkpt><trkpt lat="14.633902039822688" lon="121.03927178940883"><ele>42.0</ele><time>2026-03-30T06:59:24Z</time></trkpt><trkpt lat="14.63387217050886" lon="121.0393849950468"><ele>43.400000000000006</ele><time>2026-03-30T06:59:26Z</time></trkpt><trkpt lat="14.633849739723983" lon="121.03950790032663"><ele>44.800000000000004</ele><time>2026-03-30T06:59:28Z</time></trkpt><trkpt lat="14.633841976238484" lon="121.03962927635294"><ele>46.2</ele><time>2026-03-30T06:59:30Z</time></trkpt><trkpt lat="14.633818665413315" lon="121.03972964909424"><ele>47.6</ele><time>2026-03-30T06:59:32Z</time></trkpt><trkpt lat="14.63380513821775" lon="121.03981487065273"><ele>49.0</ele><time>2026-03-30T06:59:34.001Z</time></trkpt><trkpt lat="14.633787093229047" lon="121.03988009387172"><ele>49.0</ele><time>2026-03-30T06:59:35.001Z</time></trkpt><trkpt lat="14.633765820861617" lon="121.03996467640734"><ele>49.0</ele><time>2026-03-30T06:59:36.001Z</time></trkpt><trkpt lat="14.633739246058553" lon="121.04006758782313"><ele>49.0</ele><time>2026-03-30T06:59:37.001Z</time></trkpt><trkpt lat="14.633719924005495" lon="121.04017574644446"><ele>49.0</ele><time>2026-03-30T06:59:38.001Z</time></trkpt><trkpt lat="14.633711118054793" lon="121.04027862777474"><ele>49.0</ele><time>2026-03-30T06:59:39.001Z</time></trkpt><trkpt lat="14.633690784720729" lon="121.04037399917843"><ele>48.800000000000004</ele><time>2026-03-30T06:59:40.001Z</time></trkpt><trkpt lat="14.63366772692427" lon="121.04047659209837"><ele>48.6</ele><time>2026-03-30T06:59:41.001Z</time></trkpt><trkpt lat="14.63364102234639" lon="121.04058235438927"><ele>48.4</ele><time>2026-03-30T06:59:42.001Z</time></trkpt><trkpt lat="14.63362062130031" lon="121.04068769632165"><ele>48.2</ele><time>2026-03-30T06:59:43.001Z</time></trkpt><trkpt lat="14.63360106995966" lon="121.04078396096754"><ele>48.0</ele><time>2026-03-30T06:59:44.001Z</time></trkpt><trkpt lat="14.633580851504055" lon="121.040882275268"><ele>46.833333333333336</ele><time>2026-03-30T06:59:45.001Z</time></trkpt><trkpt lat="14.633558107805067" lon="121.0409799531375"><ele>45.666666666666664</ele><time>2026-03-30T06:59:46.001Z</time></trkpt><trkpt lat="14.633537463382327" lon="121.04106951269371"><ele>44.5</ele><time>2026-03-30T06:59:47.001Z</time></trkpt><trkpt lat="14.633511375285051" lon="121.04115771320353"><ele>43.33333333333333</ele><time>2026-03-30T06:59:48.001Z</time></trkpt><trkpt lat="14.63349573593174" lon="121.04123661511768"><ele>42.166666666666664</ele><time>2026-03-30T06:59:49.001Z</time></trkpt><trkpt lat="14.633478973015363" lon="121.04130136519198"><ele>41.0</ele><time>2026-03-30T06:59:50.001Z</time></trkpt><trkpt lat="14.63345200745295" lon="121.04139150170404"><ele>41.0</ele><time>2026-03-30T06:59:52.001Z</time></trkpt><trkpt lat="14.633430798637235" lon="121.0414668539214"><ele>41.0</ele><time>2026-03-30T06:59:55.001Z</time></trkpt><trkpt lat="14.633407644498817" lon="121.04152965573732"><ele>41.0</ele><time>2026-03-30T07:00:45.001Z</time></trkpt><trkpt lat="14.633397458432293" lon="121.04159550758907"><ele>41.0</ele><time>2026-03-30T07:00:46.001Z</time></trkpt><trkpt lat="14.633385334146508" lon="121.04167383318227"><ele>41.0</ele><time>2026-03-30T07:00:47.001Z</time></trkpt><trkpt lat="14.63335165701585" lon="121.0418088096151"><ele>41.0</ele><time>2026-03-30T07:00:49.001Z</time></trkpt><trkpt lat="14.633332701080645" lon="121.04189983288838"><ele>41.8</ele><time>2026-03-30T07:00:50.001Z</time></trkpt><trkpt lat="14.633317298793754" lon="121.04200177636895"><ele>42.599999999999994</ele><time>2026-03-30T07:00:51.001Z</time></trkpt><trkpt lat="14.633301470362289" lon="121.04211401392826"><ele>43.4</ele><time>2026-03-30T07:00:52.001Z</time></trkpt><trkpt lat="14.63327691523148" lon="121.04222852898856"><ele>44.2</ele><time>2026-03-30T07:00:53.001Z</time></trkpt><trkpt lat="14.633253068935101" lon="121.04235024603304"><ele>45.0</ele><time>2026-03-30T07:00:54.001Z</time></trkpt><trkpt lat="14.633228242587384" lon="121.04247205615441"><ele>45.75</ele><time>2026-03-30T07:00:55.001Z</time></trkpt><trkpt lat="14.633202534046683" lon="121.04259140302126"><ele>46.5</ele><time>2026-03-30T07:00:56.001Z</time></trkpt><trkpt lat="14.633179622295183" lon="121.04271279689644"><ele>47.25</ele><time>2026-03-30T07:00:57Z</time></trkpt><trkpt lat="14.63315637597371" lon="121.04283205852417"><ele>48.0</ele><time>2026-03-30T07:00:58Z</time></trkpt><trkpt lat="14.633128770954228" lon="121.04294074888573"><ele>48.0</ele><time>2026-03-30T07:00:59Z</time></trkpt><trkpt lat="14.633111277014674" lon="121.04303950305628"><ele>48.0</ele><time>2026-03-30T07:01:00Z</time></trkpt><trkpt lat="14.633087166689517" lon="121.04313452390059"><ele>48.0</ele><time>2026-03-30T07:01:01Z</time></trkpt><trkpt lat="14.633062751916773" lon="121.04323248239474"><ele>48.0</ele><time>2026-03-30T07:01:02Z</time></trkpt><trkpt lat="14.633040852045445" lon="121.04333592075494"><ele>48.0</ele><time>2026-03-30T07:01:03Z</time></trkpt><trkpt lat="14.633018879739655" lon="121.04344155833499"><ele>48.166666666666664</ele><time>2026-03-30T07:01:04Z</time></trkpt><trkpt lat="14.632999882091454" lon="121.04354935923283"><ele>48.33333333333333</ele><time>2026-03-30T07:01:05Z</time></trkpt><trkpt lat="14.632982947237853" lon="121.04365043756454"><ele>48.5</ele><time>2026-03-30T07:01:06Z</time></trkpt><trkpt lat="14.632963503183959" lon="121.04374201946878"><ele>48.666666666666664</ele><time>2026-03-30T07:01:07Z</time></trkpt><trkpt lat="14.632947738493051" lon="121.04382160915316"><ele>48.83333333333333</ele><time>2026-03-30T07:01:08Z</time></trkpt><trkpt lat="14.63292576194653" lon="121.04389524663604"><ele>49.0</ele><time>2026-03-30T07:01:09Z</time></trkpt><trkpt lat="14.632908512014039" lon="121.0439704531688"><ele>48.99999999999999</ele><time>2026-03-30T07:01:10Z</time></trkpt><trkpt lat="14.632889820321989" lon="121.04403419342505"><ele>49.0</ele><time>2026-03-30T07:01:11Z</time></trkpt><trkpt lat="14.632867080801999" lon="121.04411894409448"><ele>49.0</ele><time>2026-03-30T07:01:12Z</time></trkpt><trkpt lat="14.632845228260297" lon="121.04419428592288"><ele>49.0</ele><time>2026-03-30T07:01:13Z</time></trkpt><trkpt lat="14.632828507248083" lon="121.04426663078999"><ele>48.99999999999999</ele><time>2026-03-30T07:01:14Z</time></trkpt><trkpt lat="14.6328189460025" lon="121.04433714899893"><ele>49.0</ele><time>2026-03-30T07:01:15Z</time></trkpt><trkpt lat="14.632824610803652" lon="121.04443295011127"><ele>49.49999999999999</ele><time>2026-03-30T07:01:17Z</time></trkpt><trkpt lat="14.632872450800756" lon="121.04447843628279"><ele>50.0</ele><time>2026-03-30T07:01:22Z</time></trkpt><trkpt lat="14.632913833367574" lon="121.04455706694912"><ele>50.5</ele><time>2026-03-30T07:02:01.001Z</time></trkpt><trkpt lat="14.632968892083014" lon="121.0446651441916"><ele>51.0</ele><time>2026-03-30T07:02:03.001Z</time></trkpt><trkpt lat="14.633005482183348" lon="121.04472584290939"><ele>51.49999999999999</ele><time>2026-03-30T07:02:04.001Z</time></trkpt><trkpt lat="14.633039074301685" lon="121.04478906777297"><ele>52.0</ele><time>2026-03-30T07:02:05.001Z</time></trkpt><trkpt lat="14.633075287764434" lon="121.04485901652986"><ele>52.0</ele><time>2026-03-30T07:02:06.001Z</time></trkpt><trkpt lat="14.633112035396003" lon="121.0449266237229"><ele>52.0</ele><time>2026-03-30T07:02:07.001Z</time></trkpt><trkpt lat="14.633160825852347" lon="121.04500282121312"><ele>52.0</ele><time>2026-03-30T07:02:08.001Z</time></trkpt><trkpt lat="14.633253468253454" lon="121.04509982368971"><ele>52.0</ele><time>2026-03-30T07:02:10.001Z</time></trkpt><trkpt lat="14.633330441812145" lon="121.04514983424848"><ele>52.0</ele><time>2026-03-30T07:02:11.001Z</time></trkpt><trkpt lat="14.63340877273609" lon="121.04518469550354"><ele>50.6</ele><time>2026-03-30T07:02:12.001Z</time></trkpt><trkpt lat="14.633509509422014" lon="121.04521740064915"><ele>49.2</ele><time>2026-03-30T07:02:13.001Z</time></trkpt><trkpt lat="14.633615371039426" lon="121.04525132771734"><ele>47.8</ele><time>2026-03-30T07:02:14.001Z</time></trkpt><trkpt lat="14.633719686382335" lon="121.04528334042395"><ele>46.4</ele><time>2026-03-30T07:02:15.001Z</time></trkpt><trkpt lat="14.633819993678154" lon="121.04531018125941"><ele>45.0</ele><time>2026-03-30T07:02:16.001Z</time></trkpt><trkpt lat="14.633922358281879" lon="121.04533517426766"><ele>45.0</ele><time>2026-03-30T07:02:17.001Z</time></trkpt><trkpt lat="14.63402128851758" lon="121.0453571403429"><ele>45.0</ele><time>2026-03-30T07:02:18.001Z</time></trkpt><trkpt lat="14.634116039473561" lon="121.04537715232539"><ele>45.0</ele><time>2026-03-30T07:02:19.001Z</time></trkpt><trkpt lat="14.634203873077613" lon="121.04539323178871"><ele>45.0</ele><time>2026-03-30T07:02:20.001Z</time></trkpt><trkpt lat="14.634280092892189" lon="121.04541728284774"><ele>45.0</ele><time>2026-03-30T07:02:21.001Z</time></trkpt><trkpt lat="14.634344576469214" lon="121.04543906292456"><ele>45.0</ele><time>2026-03-30T07:02:22.001Z</time></trkpt><trkpt lat="14.634431043748029" lon="121.04548172722232"><ele>45.0</ele><time>2026-03-30T07:02:24.001Z</time></trkpt><trkpt lat="14.634468470761377" lon="121.04556786414926"><ele>45.0</ele><time>2026-03-30T07:02:27.001Z</time></trkpt><trkpt lat="14.634443710891874" lon="121.0456614173477"><ele>45.0</ele><time>2026-03-30T07:02:29.001Z</time></trkpt><trkpt lat="14.634421643310011" lon="121.0457892572655"><ele>45.0</ele><time>2026-03-30T07:02:31.001Z</time></trkpt><trkpt lat="14.634407212021257" lon="121.04585940937234"><ele>45.0</ele><time>2026-03-30T07:02:32.001Z</time></trkpt><trkpt lat="14.634383017841028" lon="121.0459204159402"><ele>45.0</ele><time>2026-03-30T07:02:33.001Z</time></trkpt><trkpt lat="14.634357131795152" lon="121.04600838970896"><ele>45.166666666666664</ele><time>2026-03-30T07:02:35.001Z</time></trkpt><trkpt lat="14.634335563984168" lon="121.0460878503661"><ele>45.333333333333336</ele><time>2026-03-30T07:02:37.001Z</time></trkpt><trkpt lat="14.634309056696363" lon="121.04616296350018"><ele>45.5</ele><time>2026-03-30T07:02:40.001Z</time></trkpt><trkpt lat="14.63428955777132" lon="121.04624203411221"><ele>45.66666666666667</ele><time>2026-03-30T07:02:46.001Z</time></trkpt><trkpt lat="14.63427573107296" lon="121.04630604277507"><ele>45.833333333333336</ele><time>2026-03-30T07:02:48.001Z</time></trkpt><trkpt lat="14.63424029136092" lon="121.04639821370708"><ele>46.0</ele><time>2026-03-30T07:02:50.001Z</time></trkpt><trkpt lat="14.634221974354372" lon="121.04647248877222"><ele>46.0</ele><time>2026-03-30T07:02:51.001Z</time></trkpt><trkpt lat="14.634197166204396" lon="121.0465544330243"><ele>46.0</ele><time>2026-03-30T07:02:52.001Z</time></trkpt><trkpt lat="14.63414295739461" lon="121.04662417993028"><ele>46.0</ele><time>2026-03-30T07:02:53.001Z</time></trkpt><trkpt lat="14.634105980284364" lon="121.0467123011971"><ele>46.0</ele><time>2026-03-30T07:02:54.001Z</time></trkpt><trkpt lat="14.634070505716553" lon="121.04679997150254"><ele>46.0</ele><time>2026-03-30T07:02:55.001Z</time></trkpt><trkpt lat="14.634033593584082" lon="121.04688065135069"><ele>46.0</ele><time>2026-03-30T07:02:56.001Z</time></trkpt><trkpt lat="14.633998222153357" lon="121.04695059600111"><ele>46.333333333333336</ele><time>2026-03-30T07:02:57.001Z</time></trkpt><trkpt lat="14.633967539077691" lon="121.04701416442035"><ele>46.66666666666667</ele><time>2026-03-30T07:02:58.001Z</time></trkpt><trkpt lat="14.633923690383053" lon="121.04711790558582"><ele>47.0</ele><time>2026-03-30T07:03:00.001Z</time></trkpt><trkpt lat="14.633917515690404" lon="121.04718968684448"><ele>47.333333333333336</ele><time>2026-03-30T07:03:02.001Z</time></trkpt><trkpt lat="14.633972019922513" lon="121.04724388587225"><ele>47.666666666666664</ele><time>2026-03-30T07:03:04Z</time></trkpt><trkpt lat="14.634080081727511" lon="121.04728242836033"><ele>48.0</ele><time>2026-03-30T07:03:06Z</time></trkpt><trkpt lat="14.634197250612623" lon="121.04729230459354"><ele>48.0</ele><time>2026-03-30T07:03:08Z</time></trkpt><trkpt lat="14.634281158392145" lon="121.04731019257332"><ele>48.0</ele><time>2026-03-30T07:03:09Z</time></trkpt><trkpt lat="14.634369544498448" lon="121.04732926806348"><ele>48.0</ele><time>2026-03-30T07:03:10Z</time></trkpt><trkpt lat="14.634454338121458" lon="121.047352790651"><ele>48.0</ele><time>2026-03-30T07:03:11Z</time></trkpt><trkpt lat="14.634550121151648" lon="121.04738162037663"><ele>48.0</ele><time>2026-03-30T07:03:12Z</time></trkpt><trkpt lat="14.634638567167263" lon="121.04740718360027"><ele>48.166666666666664</ele><time>2026-03-30T07:03:13Z</time></trkpt><trkpt lat="14.63472660815243" lon="121.04742946705841"><ele>48.33333333333333</ele><time>2026-03-30T07:03:14Z</time></trkpt><trkpt lat="14.63481104720188" lon="121.04745059877216"><ele>48.5</ele><time>2026-03-30T07:03:15Z</time></trkpt><trkpt lat="14.634890579625942" lon="121.0474721886814"><ele>48.666666666666664</ele><time>2026-03-30T07:03:16Z</time></trkpt><trkpt lat="14.634969629857967" lon="121.04748794581538"><ele>48.83333333333333</ele><time>2026-03-30T07:03:17Z</time></trkpt><trkpt lat="14.635047068859226" lon="121.04750173168324"><ele>49.0</ele><time>2026-03-30T07:03:18Z</time></trkpt><trkpt lat="14.635117752714079" lon="121.04751109870857"><ele>49.2</ele><time>2026-03-30T07:03:19Z</time></trkpt><trkpt lat="14.635209721586813" lon="121.0475297413243"><ele>49.400000000000006</ele><time>2026-03-30T07:03:21Z</time></trkpt><trkpt lat="14.635305281684353" lon="121.04754758067915"><ele>49.6</ele><time>2026-03-30T07:03:24Z</time></trkpt><trkpt lat="14.635408271520651" lon="121.04756711889998"><ele>49.8</ele><time>2026-03-30T07:03:26Z</time></trkpt><trkpt lat="14.63549665870786" lon="121.04759172691625"><ele>50.0</ele><time>2026-03-30T07:03:27Z</time></trkpt><trkpt lat="14.63558837453884" lon="121.04762142942303"><ele>50.833333333333336</ele><time>2026-03-30T07:03:28Z</time></trkpt><trkpt lat="14.635670928810395" lon="121.04764495487953"><ele>51.66666666666667</ele><time>2026-03-30T07:03:29Z</time></trkpt><trkpt lat="14.635755034370103" lon="121.04766219706319"><ele>52.5</ele><time>2026-03-30T07:03:30Z</time></trkpt><trkpt lat="14.635844296406788" lon="121.04768113485012"><ele>53.33333333333333</ele><time>2026-03-30T07:03:31Z</time></trkpt><trkpt lat="14.635921077512814" lon="121.04770294649697"><ele>54.166666666666664</ele><time>2026-03-30T07:03:32Z</time></trkpt><trkpt lat="14.636011726127958" lon="121.0477271515618"><ele>55.0</ele><time>2026-03-30T07:03:33Z</time></trkpt><trkpt lat="14.636100581631986" lon="121.04772743729731"><ele>54.6</ele><time>2026-03-30T07:03:34Z</time></trkpt><trkpt lat="14.636195893267985" lon="121.04774442016091"><ele>54.2</ele><time>2026-03-30T07:03:35Z</time></trkpt><trkpt lat="14.636290840531672" lon="121.0477643417738"><ele>53.8</ele><time>2026-03-30T07:03:36Z</time></trkpt><trkpt lat="14.636388204484614" lon="121.04779256502579"><ele>53.4</ele><time>2026-03-30T07:03:37Z</time></trkpt><trkpt lat="14.636477534074002" lon="121.04781498309234"><ele>53.0</ele><time>2026-03-30T07:03:38Z</time></trkpt><trkpt lat="14.636560885591043" lon="121.04783647421704"><ele>53.0</ele><time>2026-03-30T07:03:39Z</time></trkpt><trkpt lat="14.636632678611655" lon="121.0478566284018"><ele>53.0</ele><time>2026-03-30T07:03:40Z</time></trkpt><trkpt lat="14.636698870415609" lon="121.04787206504304"><ele>53.0</ele><time>2026-03-30T07:03:41Z</time></trkpt><trkpt lat="14.636813342411786" lon="121.04789748622488"><ele>53.0</ele><time>2026-03-30T07:03:43Z</time></trkpt><trkpt lat="14.63692971518609" lon="121.04791258371272"><ele>53.0</ele><time>2026-03-30T07:03:45Z</time></trkpt><trkpt lat="14.637055712862862" lon="121.04792445300731"><ele>52.0</ele><time>2026-03-30T07:03:47Z</time></trkpt><trkpt lat="14.637176799586005" lon="121.04794635108698"><ele>51.0</ele><time>2026-03-30T07:03:49Z</time></trkpt><trkpt lat="14.637287986577023" lon="121.04798617679401"><ele>50.0</ele><time>2026-03-30T07:03:51Z</time></trkpt><trkpt lat="14.637393307040341" lon="121.0480313216815"><ele>49.0</ele><time>2026-03-30T07:03:53Z</time></trkpt><trkpt lat="14.637486964754704" lon="121.04807194057311"><ele>48.99999999999999</ele><time>2026-03-30T07:03:55Z</time></trkpt><trkpt lat="14.63752143744842" lon="121.04817156630129"><ele>49.0</ele><time>2026-03-30T07:03:58Z</time></trkpt><trkpt lat="14.637508014889457" lon="121.04824051921892"><ele>49.0</ele><time>2026-03-30T07:03:59Z</time></trkpt><trkpt lat="14.63748440194477" lon="121.04831401387973"><ele>49.0</ele><time>2026-03-30T07:04:00Z</time></trkpt><trkpt lat="14.637467063019008" lon="121.04838692861165"><ele>48.99999999999999</ele><time>2026-03-30T07:04:01Z</time></trkpt><trkpt lat="14.637455725099487" lon="121.04846786005247"><ele>49.0</ele><time>2026-03-30T07:04:02Z</time></trkpt><trkpt lat="14.637436456136763" lon="121.04855812887541"><ele>49.2</ele><time>2026-03-30T07:04:03Z</time></trkpt><trkpt lat="14.637412095437345" lon="121.04865277220757"><ele>49.400000000000006</ele><time>2026-03-30T07:04:04Z</time></trkpt><trkpt lat="14.637395388018474" lon="121.0487465124342"><ele>49.6</ele><time>2026-03-30T07:04:05Z</time></trkpt><trkpt lat="14.637375541683646" lon="121.04884500169393"><ele>49.8</ele><time>2026-03-30T07:04:06Z</time></trkpt><trkpt lat="14.63735245530392" lon="121.04894927232212"><ele>50.0</ele><time>2026-03-30T07:04:07Z</time></trkpt><trkpt lat="14.637335854337968" lon="121.04905209532907"><ele>50.6</ele><time>2026-03-30T07:04:08Z</time></trkpt><trkpt lat="14.637313881925124" lon="121.04915528731433"><ele>51.2</ele><time>2026-03-30T07:04:09Z</time></trkpt><trkpt lat="14.6372904769287" lon="121.04925357486546"><ele>51.8</ele><time>2026-03-30T07:04:10Z</time></trkpt><trkpt lat="14.637267711366134" lon="121.04934228574105"><ele>52.4</ele><time>2026-03-30T07:04:11Z</time></trkpt><trkpt lat="14.637245639537074" lon="121.0494280964745"><ele>53.0</ele><time>2026-03-30T07:04:12.001Z</time></trkpt><trkpt lat="14.637227285150281" lon="121.04951643876896"><ele>53.00000000000001</ele><time>2026-03-30T07:04:13.001Z</time></trkpt><trkpt lat="14.63721031910745" lon="121.0496024656869"><ele>53.0</ele><time>2026-03-30T07:04:14.001Z</time></trkpt><trkpt lat="14.637193094512819" lon="121.0496877708538"><ele>53.0</ele><time>2026-03-30T07:04:15.001Z</time></trkpt><trkpt lat="14.63717487526354" lon="121.04976872396608"><ele>53.0</ele><time>2026-03-30T07:04:16.001Z</time></trkpt><trkpt lat="14.637156371540248" lon="121.04984757191241"><ele>53.00000000000001</ele><time>2026-03-30T07:04:17.001Z</time></trkpt><trkpt lat="14.63713827822788" lon="121.04992634031532"><ele>53.0</ele><time>2026-03-30T07:04:18.001Z</time></trkpt><trkpt lat="14.637118169425758" lon="121.0500030485138"><ele>53.00000000000001</ele><time>2026-03-30T07:04:19.001Z</time></trkpt><trkpt lat="14.6370968265033" lon="121.0500821197429"><ele>53.0</ele><time>2026-03-30T07:04:20.001Z</time></trkpt><trkpt lat="14.637076325790648" lon="121.05016218994568"><ele>53.0</ele><time>2026-03-30T07:04:21.001Z</time></trkpt><trkpt lat="14.637057356708358" lon="121.05025325904116"><ele>53.0</ele><time>2026-03-30T07:04:22.001Z</time></trkpt><trkpt lat="14.637038142307782" lon="121.05034683351784"><ele>53.00000000000001</ele><time>2026-03-30T07:04:23.001Z</time></trkpt><trkpt lat="14.637016689661449" lon="121.05044527767367"><ele>53.0</ele><time>2026-03-30T07:04:24.001Z</time></trkpt><trkpt lat="14.636994195898621" lon="121.05054534459875"><ele>53.00000000000001</ele><time>2026-03-30T07:04:25.001Z</time></trkpt><trkpt lat="14.636972467843746" lon="121.05062263694035"><ele>53.0</ele><time>2026-03-30T07:04:26.001Z</time></trkpt><trkpt lat="14.636960468205773" lon="121.05068663657816"><ele>53.0</ele><time>2026-03-30T07:04:27.001Z</time></trkpt><trkpt lat="14.636940938060656" lon="121.05081196751858"><ele>53.0</ele><time>2026-03-30T07:04:29.001Z</time></trkpt><trkpt lat="14.6369286148443" lon="121.05087653427238"><ele>53.00000000000001</ele><time>2026-03-30T07:04:30.001Z</time></trkpt><trkpt lat="14.636903663112008" lon="121.05098670737783"><ele>53.0</ele><time>2026-03-30T07:04:32.001Z</time></trkpt><trkpt lat="14.636884033153152" lon="121.0510567923292"><ele>52.833333333333336</ele><time>2026-03-30T07:04:34.001Z</time></trkpt><trkpt lat="14.636863954655274" lon="121.05112423308465"><ele>52.66666666666667</ele><time>2026-03-30T07:04:36.001Z</time></trkpt><trkpt lat="14.63684082715622" lon="121.05122864449898"><ele>52.5</ele><time>2026-03-30T07:04:38.001Z</time></trkpt><trkpt lat="14.636830161256901" lon="121.05129536514028"><ele>52.33333333333333</ele><time>2026-03-30T07:04:39.001Z</time></trkpt><trkpt lat="14.636813532892075" lon="121.0513765475076"><ele>52.166666666666664</ele><time>2026-03-30T07:04:41.001Z</time></trkpt><trkpt lat="14.636800564541145" lon="121.05145156770426"><ele>52.0</ele><time>2026-03-30T07:04:43.001Z</time></trkpt><trkpt lat="14.636794059524357" lon="121.05155117052647"><ele>51.99999999999999</ele><time>2026-03-30T07:04:45.001Z</time></trkpt><trkpt lat="14.636742658999312" lon="121.05162242316378"><ele>52.0</ele><time>2026-03-30T07:04:47.001Z</time></trkpt><trkpt lat="14.636738468684287" lon="121.05171412309717"><ele>52.0</ele><time>2026-03-30T07:04:48.001Z</time></trkpt><trkpt lat="14.636728768691674" lon="121.05180325164743"><ele>52.0</ele><time>2026-03-30T07:04:49.001Z</time></trkpt><trkpt lat="14.636712942816496" lon="121.05187740087514"><ele>51.99999999999999</ele><time>2026-03-30T07:04:50.001Z</time></trkpt><trkpt lat="14.636697751950434" lon="121.05195413447926"><ele>52.0</ele><time>2026-03-30T07:04:51.001Z</time></trkpt><trkpt lat="14.63668109955796" lon="121.05203362745537"><ele>51.33333333333333</ele><time>2026-03-30T07:04:52.001Z</time></trkpt><trkpt lat="14.636666078337294" lon="121.05211863717741"><ele>50.666666666666664</ele><time>2026-03-30T07:04:53.001Z</time></trkpt><trkpt lat="14.636648594777194" lon="121.05220001495769"><ele>50.0</ele><time>2026-03-30T07:04:54.001Z</time></trkpt><trkpt lat="14.636630834962457" lon="121.05227700067641"><ele>49.33333333333333</ele><time>2026-03-30T07:04:55.001Z</time></trkpt><trkpt lat="14.636611005762171" lon="121.0523506542737"><ele>48.666666666666664</ele><time>2026-03-30T07:04:56.001Z</time></trkpt><trkpt lat="14.63659794851089" lon="121.0524241772046"><ele>48.0</ele><time>2026-03-30T07:04:57.001Z</time></trkpt><trkpt lat="14.636575977293123" lon="121.05254759445907"><ele>48.0</ele><time>2026-03-30T07:04:59.001Z</time></trkpt><trkpt lat="14.63656167090506" lon="121.05266055180978"><ele>48.0</ele><time>2026-03-30T07:05:01.001Z</time></trkpt><trkpt lat="14.636542667980109" lon="121.05276567212792"><ele>48.0</ele><time>2026-03-30T07:05:03.001Z</time></trkpt><trkpt lat="14.636529092288962" lon="121.05283422056512"><ele>48.0</ele><time>2026-03-30T07:05:04.001Z</time></trkpt><trkpt lat="14.636508208177757" lon="121.05290637554079"><ele>48.0</ele><time>2026-03-30T07:05:05.001Z</time></trkpt><trkpt lat="14.636487739720913" lon="121.05299451398464"><ele>48.0</ele><time>2026-03-30T07:05:06.001Z</time></trkpt><trkpt lat="14.636464834494866" lon="121.0530888837079"><ele>48.0</ele><time>2026-03-30T07:05:07.001Z</time></trkpt><trkpt lat="14.636438334675079" lon="121.05318841591972"><ele>48.0</ele><time>2026-03-30T07:05:08.001Z</time></trkpt><trkpt lat="14.636413728915274" lon="121.05328993465994"><ele>48.0</ele><time>2026-03-30T07:05:09Z</time></trkpt><trkpt lat="14.636385982046885" lon="121.05339120434448"><ele>48.0</ele><time>2026-03-30T07:05:10Z</time></trkpt><trkpt lat="14.63636236666891" lon="121.0534966010497"><ele>48.0</ele><time>2026-03-30T07:05:11Z</time></trkpt><trkpt lat="14.636337935582175" lon="121.0535879547337"><ele>48.5</ele><time>2026-03-30T07:05:12Z</time></trkpt><trkpt lat="14.636315635429087" lon="121.05367200986042"><ele>49.0</ele><time>2026-03-30T07:05:13Z</time></trkpt><trkpt lat="14.636298981696909" lon="121.05376214026556"><ele>49.5</ele><time>2026-03-30T07:05:14Z</time></trkpt><trkpt lat="14.636280423637894" lon="121.05385194552058"><ele>50.0</ele><time>2026-03-30T07:05:15Z</time></trkpt><trkpt lat="14.636256303732182" lon="121.05394438137557"><ele>50.5</ele><time>2026-03-30T07:05:16Z</time></trkpt><trkpt lat="14.636239605822718" lon="121.05402488336668"><ele>51.0</ele><time>2026-03-30T07:05:17Z</time></trkpt><trkpt lat="14.636222034613413" lon="121.05409772501372"><ele>51.0</ele><time>2026-03-30T07:05:18Z</time></trkpt><trkpt lat="14.63619707854833" lon="121.05420943756711"><ele>51.0</ele><time>2026-03-30T07:05:20Z</time></trkpt><trkpt lat="14.6361862936684" lon="121.05427402423909"><ele>51.0</ele><time>2026-03-30T07:05:23Z</time></trkpt><trkpt lat="14.636175622476069" lon="121.05434440748412"><ele>51.0</ele><time>2026-03-30T07:06:11Z</time></trkpt><trkpt lat="14.636157623677734" lon="121.05441242943417"><ele>51.0</ele><time>2026-03-30T07:06:13Z</time></trkpt><trkpt lat="14.636143187612314" lon="121.05448262198891"><ele>51.0</ele><time>2026-03-30T07:06:15Z</time></trkpt><trkpt lat="14.636128895814876" lon="121.05455637906994"><ele>51.0</ele><time>2026-03-30T07:06:17.001Z</time></trkpt><trkpt lat="14.636112895223988" lon="121.05462037480682"><ele>51.0</ele><time>2026-03-30T07:06:18.001Z</time></trkpt><trkpt lat="14.636096025989302" lon="121.05469734118884"><ele>51.0</ele><time>2026-03-30T07:06:19.001Z</time></trkpt><trkpt lat="14.636085258830006" lon="121.05478437566248"><ele>51.0</ele><time>2026-03-30T07:06:20.001Z</time></trkpt><trkpt lat="14.636068703037143" lon="121.05487830354163"><ele>51.0</ele><time>2026-03-30T07:06:21.001Z</time></trkpt><trkpt lat="14.63604602862189" lon="121.0549801317152"><ele>51.0</ele><time>2026-03-30T07:06:22.001Z</time></trkpt><trkpt lat="14.636026743191623" lon="121.05509217000824"><ele>51.0</ele><time>2026-03-30T07:06:23.001Z</time></trkpt><trkpt lat="14.636000854234556" lon="121.05520521706998"><ele>51.0</ele><time>2026-03-30T07:06:24.001Z</time></trkpt><trkpt lat="14.635978850107506" lon="121.0553204279321"><ele>51.0</ele><time>2026-03-30T07:06:25.001Z</time></trkpt><trkpt lat="14.635946285533278" lon="121.05543732654088"><ele>51.0</ele><time>2026-03-30T07:06:26.001Z</time></trkpt><trkpt lat="14.635912035097716" lon="121.05554892422576"><ele>51.0</ele><time>2026-03-30T07:06:27.001Z</time></trkpt><trkpt lat="14.635875234420876" lon="121.05565583898745"><ele>51.0</ele><time>2026-03-30T07:06:28.001Z</time></trkpt><trkpt lat="14.635831356896269" lon="121.05574972289435"><ele>51.0</ele><time>2026-03-30T07:06:29.001Z</time></trkpt><trkpt lat="14.6357823900174" lon="121.05583494109042"><ele>51.0</ele><time>2026-03-30T07:06:30.001Z</time></trkpt><trkpt lat="14.635728861588507" lon="121.05591606957076"><ele>51.0</ele><time>2026-03-30T07:06:31.001Z</time></trkpt><trkpt lat="14.635679171559794" lon="121.05598835881518"><ele>50.666666666666664</ele><time>2026-03-30T07:06:32.001Z</time></trkpt><trkpt lat="14.635633199467557" lon="121.05605440566646"><ele>50.33333333333333</ele><time>2026-03-30T07:06:33.001Z</time></trkpt><trkpt lat="14.635592774376844" lon="121.05611761744072"><ele>50.0</ele><time>2026-03-30T07:06:34.001Z</time></trkpt><trkpt lat="14.63554485207642" lon="121.05618554557276"><ele>49.666666666666664</ele><time>2026-03-30T07:06:35.001Z</time></trkpt><trkpt lat="14.635490006180262" lon="121.05626163380327"><ele>49.33333333333333</ele><time>2026-03-30T07:06:36.001Z</time></trkpt><trkpt lat="14.635429720846476" lon="121.05634479323133"><ele>49.0</ele><time>2026-03-30T07:06:37.001Z</time></trkpt><trkpt lat="14.635368374355618" lon="121.05643692916244"><ele>49.0</ele><time>2026-03-30T07:06:38.001Z</time></trkpt><trkpt lat="14.635315247133972" lon="121.05653329294289"><ele>49.0</ele><time>2026-03-30T07:06:39.001Z</time></trkpt><trkpt lat="14.635285273433349" lon="121.05663927762001"><ele>49.0</ele><time>2026-03-30T07:06:40.001Z</time></trkpt><trkpt lat="14.635251906804793" lon="121.05673104380408"><ele>49.0</ele><time>2026-03-30T07:06:41.001Z</time></trkpt><trkpt lat="14.635227039949942" lon="121.05682548094994"><ele>49.0</ele><time>2026-03-30T07:06:42.001Z</time></trkpt><trkpt lat="14.635203585244625" lon="121.05692567735966"><ele>49.2</ele><time>2026-03-30T07:06:43.001Z</time></trkpt><trkpt lat="14.635196079417947" lon="121.05703529031891"><ele>49.400000000000006</ele><time>2026-03-30T07:06:44.001Z</time></trkpt><trkpt lat="14.635194899134936" lon="121.05714297701711"><ele>49.6</ele><time>2026-03-30T07:06:45.001Z</time></trkpt><trkpt lat="14.635202955588383" lon="121.0572542956968"><ele>49.8</ele><time>2026-03-30T07:06:46.001Z</time></trkpt><trkpt lat="14.635217400109171" lon="121.05736849413815"><ele>50.0</ele><time>2026-03-30T07:06:47.001Z</time></trkpt><trkpt lat="14.635237009605913" lon="121.05748488478098"><ele>50.0</ele><time>2026-03-30T07:06:48.001Z</time></trkpt><trkpt lat="14.635261125387276" lon="121.05760894275438"><ele>50.0</ele><time>2026-03-30T07:06:49.001Z</time></trkpt><trkpt lat="14.635288562287437" lon="121.05773059528767"><ele>50.0</ele><time>2026-03-30T07:06:50.001Z</time></trkpt><trkpt lat="14.635320076291013" lon="121.05785237623064"><ele>50.0</ele><time>2026-03-30T07:06:51.001Z</time></trkpt><trkpt lat="14.635350155790208" lon="121.05796537665884"><ele>49.50000000000001</ele><time>2026-03-30T07:06:52.001Z</time></trkpt><trkpt lat="14.63537774127915" lon="121.05807319471508"><ele>49.0</ele><time>2026-03-30T07:06:53.001Z</time></trkpt><trkpt lat="14.635400000719757" lon="121.05815950905765"><ele>48.5</ele><time>2026-03-30T07:06:54.001Z</time></trkpt><trkpt lat="14.635422232332877" lon="121.05824269545413"><ele>48.0</ele><time>2026-03-30T07:06:55.001Z</time></trkpt><trkpt lat="14.635443650833722" lon="121.0583219608274"><ele>47.5</ele><time>2026-03-30T07:06:56.001Z</time></trkpt><trkpt lat="14.635463726189988" lon="121.05839651746805"><ele>47.0</ele><time>2026-03-30T07:06:57.001Z</time></trkpt><trkpt lat="14.635482730688432" lon="121.05848861272852"><ele>46.8</ele><time>2026-03-30T07:06:59.001Z</time></trkpt><trkpt lat="14.635407923308907" lon="121.0585488471409"><ele>46.6</ele><time>2026-03-30T07:07:02.001Z</time></trkpt><trkpt lat="14.635288545577772" lon="121.05857089377268"><ele>46.4</ele><time>2026-03-30T07:07:04.001Z</time></trkpt><trkpt lat="14.635223829042982" lon="121.05858978245507"><ele>46.199999999999996</ele><time>2026-03-30T07:07:05.001Z</time></trkpt><trkpt lat="14.635145808593295" lon="121.05860999178776"><ele>46.0</ele><time>2026-03-30T07:07:06.001Z</time></trkpt><trkpt lat="14.635051719759382" lon="121.05863132023177"><ele>45.5</ele><time>2026-03-30T07:07:07.001Z</time></trkpt><trkpt lat="14.634972101441779" lon="121.0586470977647"><ele>45.0</ele><time>2026-03-30T07:07:08.001Z</time></trkpt><trkpt lat="14.63490428813762" lon="121.05866667662693"><ele>44.5</ele><time>2026-03-30T07:07:09.001Z</time></trkpt><trkpt lat="14.634814467892081" lon="121.05870893756804"><ele>44.0</ele><time>2026-03-30T07:07:11.001Z</time></trkpt><trkpt lat="14.63475556739398" lon="121.0587682523826"><ele>43.5</ele><time>2026-03-30T07:07:14.001Z</time></trkpt><trkpt lat="14.634684866749689" lon="121.05879809129281"><ele>43.0</ele><time>2026-03-30T07:07:26Z</time></trkpt><trkpt lat="14.634623966890945" lon="121.05884233194821"><ele>43.0</ele><time>2026-03-30T07:08:39.001Z</time></trkpt><trkpt lat="14.634547925121046" lon="121.05888079627654"><ele>43.0</ele><time>2026-03-30T07:08:41.001Z</time></trkpt><trkpt lat="14.634483956696275" lon="121.05898483468388"><ele>43.0</ele><time>2026-03-30T07:08:43.001Z</time></trkpt><trkpt lat="14.634480431532591" lon="121.05905118311593"><ele>43.0</ele><time>2026-03-30T07:08:44.001Z</time></trkpt><trkpt lat="14.634501689939562" lon="121.05914291890458"><ele>43.0</ele><time>2026-03-30T07:08:45.001Z</time></trkpt><trkpt lat="14.634537781844658" lon="121.05923635078366"><ele>43.2</ele><time>2026-03-30T07:08:46.001Z</time></trkpt><trkpt lat="14.634576119264871" lon="121.0593336178525"><ele>43.4</ele><time>2026-03-30T07:08:47.001Z</time></trkpt><trkpt lat="14.6346116008876" lon="121.05944486262054"><ele>43.6</ele><time>2026-03-30T07:08:48.001Z</time></trkpt><trkpt lat="14.634645831603725" lon="121.05955711661397"><ele>43.800000000000004</ele><time>2026-03-30T07:08:49.001Z</time></trkpt><trkpt lat="14.634681776000402" lon="121.05967560550668"><ele>44.0</ele><time>2026-03-30T07:08:50.001Z</time></trkpt><trkpt lat="14.634717621076511" lon="121.05979894654082"><ele>44.0</ele><time>2026-03-30T07:08:51.001Z</time></trkpt><trkpt lat="14.634754916380363" lon="121.05992757767403"><ele>44.0</ele><time>2026-03-30T07:08:52.001Z</time></trkpt><trkpt lat="14.634787948269032" lon="121.06005623457443"><ele>44.0</ele><time>2026-03-30T07:08:53.001Z</time></trkpt><trkpt lat="14.634826225218209" lon="121.06018822233314"><ele>44.0</ele><time>2026-03-30T07:08:54.001Z</time></trkpt><trkpt lat="14.634866909767084" lon="121.06032672965564"><ele>45.25</ele><time>2026-03-30T07:08:55.001Z</time></trkpt><trkpt lat="14.6349044441206" lon="121.06046441069765"><ele>46.5</ele><time>2026-03-30T07:08:56.001Z</time></trkpt><trkpt lat="14.634945485574843" lon="121.06059848151733"><ele>47.75</ele><time>2026-03-30T07:08:57.001Z</time></trkpt><trkpt lat="14.634982686276667" lon="121.06071944152086"><ele>49.0</ele><time>2026-03-30T07:08:58.001Z</time></trkpt><trkpt lat="14.635012672996066" lon="121.06081711980455"><ele>49.49999999999999</ele><time>2026-03-30T07:08:59.001Z</time></trkpt><trkpt lat="14.635037694403604" lon="121.06091156663759"><ele>50.0</ele><time>2026-03-30T07:09:00.001Z</time></trkpt><trkpt lat="14.635062100279947" lon="121.06099726524157"><ele>50.5</ele><time>2026-03-30T07:09:01.001Z</time></trkpt><trkpt lat="14.635077255138366" lon="121.06107398426758"><ele>51.0</ele><time>2026-03-30T07:09:02.001Z</time></trkpt><trkpt lat="14.635083581965562" lon="121.0611402864634"><ele>51.49999999999999</ele><time>2026-03-30T07:09:03.001Z</time></trkpt><trkpt lat="14.635079256780937" lon="121.06120682554761"><ele>52.0</ele><time>2026-03-30T07:09:04.001Z</time></trkpt><trkpt lat="14.635048513162122" lon="121.06126997640213"><ele>51.99999999999999</ele><time>2026-03-30T07:09:05.001Z</time></trkpt><trkpt lat="14.63499080817553" lon="121.06132870780004"><ele>52.0</ele><time>2026-03-30T07:09:06.001Z</time></trkpt><trkpt lat="14.634919245654178" lon="121.06138730403244"><ele>52.0</ele><time>2026-03-30T07:09:07.001Z</time></trkpt><trkpt lat="14.634857628672817" lon="121.06144961153782"><ele>52.0</ele><time>2026-03-30T07:09:08.001Z</time></trkpt><trkpt lat="14.634796234607414" lon="121.06151925478576"><ele>51.99999999999999</ele><time>2026-03-30T07:09:09.001Z</time></trkpt><trkpt lat="14.634728285263028" lon="121.06158974003999"><ele>52.0</ele><time>2026-03-30T07:09:10.001Z</time></trkpt><trkpt lat="14.634663215753598" lon="121.06165972697183"><ele>51.83333333333333</ele><time>2026-03-30T07:09:11.001Z</time></trkpt><trkpt lat="14.63461113137361" lon="121.06172579913645"><ele>51.666666666666664</ele><time>2026-03-30T07:09:12.001Z</time></trkpt><trkpt lat="14.634561481816787" lon="121.06177730251973"><ele>51.5</ele><time>2026-03-30T07:09:13.001Z</time></trkpt><trkpt lat="14.634484841634787" lon="121.06185099245916"><ele>51.33333333333333</ele><time>2026-03-30T07:09:15.001Z</time></trkpt><trkpt lat="14.634426781723645" lon="121.06190753653216"><ele>51.166666666666664</ele><time>2026-03-30T07:09:17.001Z</time></trkpt><trkpt lat="14.634376807720175" lon="121.06197809807941"><ele>51.0</ele><time>2026-03-30T07:10:04Z</time></trkpt><trkpt lat="14.63431932077036" lon="121.06202879017022"><ele>51.0</ele><time>2026-03-30T07:10:06Z</time></trkpt><trkpt lat="14.634373088369308" lon="121.06213405633568"><ele>51.0</ele><time>2026-03-30T07:10:08Z</time></trkpt><trkpt lat="14.634430083395861" lon="121.06218658047138"><ele>51.0</ele><time>2026-03-30T07:10:09Z</time></trkpt><trkpt lat="14.634499765414224" lon="121.06224427543341"><ele>51.0</ele><time>2026-03-30T07:10:10Z</time></trkpt><trkpt lat="14.634572576450141" lon="121.06231133174623"><ele>51.0</ele><time>2026-03-30T07:10:11Z</time></trkpt><trkpt lat="14.634645886942282" lon="121.06238083369703"><ele>50.599999999999994</ele><time>2026-03-30T07:10:12Z</time></trkpt><trkpt lat="14.634720548426264" lon="121.06245613024747"><ele>50.2</ele><time>2026-03-30T07:10:13Z</time></trkpt><trkpt lat="14.634800919437483" lon="121.06253193752929"><ele>49.8</ele><time>2026-03-30T07:10:14Z</time></trkpt><trkpt lat="14.634879098854013" lon="121.06260793455387"><ele>49.400000000000006</ele><time>2026-03-30T07:10:15.001Z</time></trkpt><trkpt lat="14.634960851388644" lon="121.06268595384105"><ele>49.0</ele><time>2026-03-30T07:10:16.001Z</time></trkpt><trkpt lat="14.635041228444484" lon="121.06277098426851"><ele>49.0</ele><time>2026-03-30T07:10:17.001Z</time></trkpt><trkpt lat="14.635127207747486" lon="121.06285195266229"><ele>49.0</ele><time>2026-03-30T07:10:18.001Z</time></trkpt><trkpt lat="14.635201506085032" lon="121.06292995290696"><ele>49.0</ele><time>2026-03-30T07:10:19.001Z</time></trkpt><trkpt lat="14.635278270513721" lon="121.06301158277917"><ele>49.0</ele><time>2026-03-30T07:10:20.001Z</time></trkpt><trkpt lat="14.635366821954035" lon="121.06309045757015"><ele>49.0</ele><time>2026-03-30T07:10:21.001Z</time></trkpt><trkpt lat="14.635439218933664" lon="121.06317305577699"><ele>48.800000000000004</ele><time>2026-03-30T07:10:22.001Z</time></trkpt><trkpt lat="14.635506927805773" lon="121.06326415694849"><ele>48.6</ele><time>2026-03-30T07:10:23.001Z</time></trkpt><trkpt lat="14.63556518754674" lon="121.06336433920433"><ele>48.4</ele><time>2026-03-30T07:10:24.001Z</time></trkpt><trkpt lat="14.635608330607656" lon="121.06346749252064"><ele>48.2</ele><time>2026-03-30T07:10:25.001Z</time></trkpt><trkpt lat="14.635635693144195" lon="121.06357231646534"><ele>48.0</ele><time>2026-03-30T07:10:26.001Z</time></trkpt><trkpt lat="14.635661250906407" lon="121.06367023520279"><ele>47.857142857142854</ele><time>2026-03-30T07:10:27.001Z</time></trkpt><trkpt lat="14.63568645015942" lon="121.06375986580406"><ele>47.714285714285715</ele><time>2026-03-30T07:10:28.001Z</time></trkpt><trkpt lat="14.635676449245736" lon="121.0638357427232"><ele>47.57142857142857</ele><time>2026-03-30T07:10:29.001Z</time></trkpt><trkpt lat="14.635693234959692" lon="121.06390871771045"><ele>47.42857142857143</ele><time>2026-03-30T07:10:30.001Z</time></trkpt><trkpt lat="14.635710561764053" lon="121.06397930769855"><ele>47.285714285714285</ele><time>2026-03-30T07:10:31.001Z</time></trkpt><trkpt lat="14.635720059301013" lon="121.06405174318824"><ele>47.14285714285714</ele><time>2026-03-30T07:10:32.001Z</time></trkpt><trkpt lat="14.635731636120932" lon="121.06412181318105"><ele>47.0</ele><time>2026-03-30T07:10:33.001Z</time></trkpt><trkpt lat="14.63574415843523" lon="121.06423000609588"><ele>47.0</ele><time>2026-03-30T07:10:35.001Z</time></trkpt><trkpt lat="14.635760520378419" lon="121.0643166661535"><ele>47.0</ele><time>2026-03-30T07:10:37.001Z</time></trkpt><trkpt lat="14.635782389201772" lon="121.06438236479227"><ele>47.0</ele><time>2026-03-30T07:10:38.001Z</time></trkpt><trkpt lat="14.635805997878169" lon="121.06445920254775"><ele>47.0</ele><time>2026-03-30T07:10:39.001Z</time></trkpt><trkpt lat="14.635837631974312" lon="121.06454048728575"><ele>47.0</ele><time>2026-03-30T07:10:40.001Z</time></trkpt><trkpt lat="14.63587727469326" lon="121.06462371515262"><ele>47.0</ele><time>2026-03-30T07:10:41.001Z</time></trkpt><trkpt lat="14.635916971241421" lon="121.06471136242088"><ele>47.0</ele><time>2026-03-30T07:10:42.001Z</time></trkpt><trkpt lat="14.63595714514234" lon="121.06479979424218"><ele>47.0</ele><time>2026-03-30T07:10:43.001Z</time></trkpt><trkpt lat="14.63598861753415" lon="121.06488318946111"><ele>47.0</ele><time>2026-03-30T07:10:44.001Z</time></trkpt><trkpt lat="14.63601854472091" lon="121.06495403222411"><ele>47.0</ele><time>2026-03-30T07:10:45.001Z</time></trkpt><trkpt lat="14.63604778294897" lon="121.06502069308615"><ele>47.0</ele><time>2026-03-30T07:10:46.001Z</time></trkpt><trkpt lat="14.636072403384535" lon="121.0650877959352"><ele>47.0</ele><time>2026-03-30T07:10:47.001Z</time></trkpt><trkpt lat="14.636113303924889" lon="121.06518780094893"><ele>47.33333333333333</ele><time>2026-03-30T07:10:49.001Z</time></trkpt><trkpt lat="14.636139317165656" lon="121.06524825523492"><ele>47.666666666666664</ele><time>2026-03-30T07:10:50.001Z</time></trkpt><trkpt lat="14.636163935341582" lon="121.06532369237607"><ele>48.0</ele><time>2026-03-30T07:10:51.001Z</time></trkpt><trkpt lat="14.636179090027456" lon="121.06539306998597"><ele>48.33333333333333</ele><time>2026-03-30T07:10:52.001Z</time></trkpt><trkpt lat="14.636189405110468" lon="121.06550517177841"><ele>48.666666666666664</ele><time>2026-03-30T07:10:54.001Z</time></trkpt><trkpt lat="14.63619668478867" lon="121.06558684277766"><ele>49.0</ele><time>2026-03-30T07:10:56.001Z</time></trkpt><trkpt lat="14.636190254858745" lon="121.0656576553934"><ele>48.99999999999999</ele><time>2026-03-30T07:10:58.001Z</time></trkpt><trkpt lat="14.6361745562917" lon="121.06575651811298"><ele>49.0</ele><time>2026-03-30T07:11:00.001Z</time></trkpt><trkpt lat="14.636167068509952" lon="121.06583393735605"><ele>49.0</ele><time>2026-03-30T07:11:01.001Z</time></trkpt><trkpt lat="14.636153761154707" lon="121.06591837005519"><ele>49.0</ele><time>2026-03-30T07:11:02.001Z</time></trkpt><trkpt lat="14.636138478916822" lon="121.06601616922113"><ele>48.99999999999999</ele><time>2026-03-30T07:11:03.001Z</time></trkpt><trkpt lat="14.63612556575841" lon="121.06611406606498"><ele>49.0</ele><time>2026-03-30T07:11:04.001Z</time></trkpt><trkpt lat="14.636102741893547" lon="121.06621887620774"><ele>48.800000000000004</ele><time>2026-03-30T07:11:05.001Z</time></trkpt><trkpt lat="14.636069005403778" lon="121.06632658207421"><ele>48.6</ele><time>2026-03-30T07:11:06.001Z</time></trkpt><trkpt lat="14.636033685105524" lon="121.0664346760985"><ele>48.4</ele><time>2026-03-30T07:11:07.001Z</time></trkpt><trkpt lat="14.636004500512964" lon="121.06653609183579"><ele>48.2</ele><time>2026-03-30T07:11:08.001Z</time></trkpt><trkpt lat="14.635976118218311" lon="121.06665098263106"><ele>48.0</ele><time>2026-03-30T07:11:09.001Z</time></trkpt><trkpt lat="14.635944956747142" lon="121.06676606545865"><ele>48.8</ele><time>2026-03-30T07:11:10.001Z</time></trkpt><trkpt lat="14.635912103713611" lon="121.06687504781402"><ele>49.599999999999994</ele><time>2026-03-30T07:11:11.001Z</time></trkpt><trkpt lat="14.635878792685538" lon="121.0669840922783"><ele>50.400000000000006</ele><time>2026-03-30T07:11:12.001Z</time></trkpt><trkpt lat="14.63584975132867" lon="121.06708556825194"><ele>51.2</ele><time>2026-03-30T07:11:13.001Z</time></trkpt><trkpt lat="14.635819866666807" lon="121.06717932476849"><ele>52.0</ele><time>2026-03-30T07:11:14.001Z</time></trkpt><trkpt lat="14.635799193337204" lon="121.06726709236523"><ele>52.0</ele><time>2026-03-30T07:11:15.001Z</time></trkpt><trkpt lat="14.635779226017402" lon="121.06735320085497"><ele>52.0</ele><time>2026-03-30T07:11:16.001Z</time></trkpt><trkpt lat="14.63575419492259" lon="121.0674419692897"><ele>52.0</ele><time>2026-03-30T07:11:17.001Z</time></trkpt><trkpt lat="14.635722299221987" lon="121.06753330908386"><ele>52.0</ele><time>2026-03-30T07:11:18.001Z</time></trkpt><trkpt lat="14.63568791528896" lon="121.06762549376806"><ele>52.0</ele><time>2026-03-30T07:11:19.001Z</time></trkpt><trkpt lat="14.635653655373671" lon="121.06772278416214"><ele>52.0</ele><time>2026-03-30T07:11:20.001Z</time></trkpt><trkpt lat="14.635619573684457" lon="121.06782628660218"><ele>52.0</ele><time>2026-03-30T07:11:21.001Z</time></trkpt><trkpt lat="14.635586608267348" lon="121.0679335132202"><ele>52.0</ele><time>2026-03-30T07:11:22.001Z</time></trkpt><trkpt lat="14.635555184194573" lon="121.06803850193316"><ele>52.0</ele><time>2026-03-30T07:11:23.001Z</time></trkpt><trkpt lat="14.6355226225959" lon="121.06814076099883"><ele>52.0</ele><time>2026-03-30T07:11:24.001Z</time></trkpt><trkpt lat="14.635492761926335" lon="121.0682440835418"><ele>52.2</ele><time>2026-03-30T07:11:25.001Z</time></trkpt><trkpt lat="14.635464655810589" lon="121.06834117763378"><ele>52.400000000000006</ele><time>2026-03-30T07:11:26.001Z</time></trkpt><trkpt lat="14.635431470667724" lon="121.06844096957171"><ele>52.599999999999994</ele><time>2026-03-30T07:11:27Z</time></trkpt><trkpt lat="14.635402757335758" lon="121.06854162866135"><ele>52.8</ele><time>2026-03-30T07:11:28Z</time></trkpt><trkpt lat="14.635373075361686" lon="121.06863974026538"><ele>53.0</ele><time>2026-03-30T07:11:29Z</time></trkpt><trkpt lat="14.635340263452973" lon="121.06874246721212"><ele>53.0</ele><time>2026-03-30T07:11:30Z</time></trkpt><trkpt lat="14.635306015727421" lon="121.06884617613598"><ele>53.0</ele><time>2026-03-30T07:11:31Z</time></trkpt><trkpt lat="14.63527861497898" lon="121.06894828753147"><ele>53.0</ele><time>2026-03-30T07:11:32Z</time></trkpt><trkpt lat="14.635250840078466" lon="121.06905498336583"><ele>53.0</ele><time>2026-03-30T07:11:33Z</time></trkpt><trkpt lat="14.635217533973314" lon="121.06916043116158"><ele>53.0</ele><time>2026-03-30T07:11:34Z</time></trkpt><trkpt lat="14.635186308386382" lon="121.06926292113617"><ele>53.2</ele><time>2026-03-30T07:11:35Z</time></trkpt><trkpt lat="14.635155486287882" lon="121.0693585303316"><ele>53.4</ele><time>2026-03-30T07:11:36Z</time></trkpt><trkpt lat="14.63513248379193" lon="121.06944630140325"><ele>53.60000000000001</ele><time>2026-03-30T07:11:37Z</time></trkpt><trkpt lat="14.63510858390098" lon="121.06952718670252"><ele>53.800000000000004</ele><time>2026-03-30T07:11:38Z</time></trkpt><trkpt lat="14.63508857236334" lon="121.06959661887112"><ele>54.0</ele><time>2026-03-30T07:11:39Z</time></trkpt><trkpt lat="14.635050155003134" lon="121.06971880086897"><ele>54.0</ele><time>2026-03-30T07:11:41Z</time></trkpt><trkpt lat="14.635024590506632" lon="121.06979850673329"><ele>54.0</ele><time>2026-03-30T07:11:42Z</time></trkpt><trkpt lat="14.635000341436845" lon="121.06989175507765"><ele>54.0</ele><time>2026-03-30T07:11:43Z</time></trkpt><trkpt lat="14.634972437401835" lon="121.06998481846352"><ele>54.0</ele><time>2026-03-30T07:11:44Z</time></trkpt><trkpt lat="14.634949534657563" lon="121.07007404374872"><ele>54.0</ele><time>2026-03-30T07:11:45Z</time></trkpt><trkpt lat="14.634924325846775" lon="121.07015434474508"><ele>54.0</ele><time>2026-03-30T07:11:46Z</time></trkpt><trkpt lat="14.634901148884483" lon="121.07023189361144"><ele>54.0</ele><time>2026-03-30T07:11:47Z</time></trkpt><trkpt lat="14.634877154236708" lon="121.0703148458659"><ele>54.0</ele><time>2026-03-30T07:11:48Z</time></trkpt><trkpt lat="14.634852218130957" lon="121.07039761122655"><ele>54.0</ele><time>2026-03-30T07:11:49Z</time></trkpt><trkpt lat="14.634827501981865" lon="121.07047969424316"><ele>54.0</ele><time>2026-03-30T07:11:50Z</time></trkpt><trkpt lat="14.63480518139975" lon="121.07055892566333"><ele>54.0</ele><time>2026-03-30T07:11:51Z</time></trkpt><trkpt lat="14.63478255115381" lon="121.07063382491017"><ele>54.0</ele><time>2026-03-30T07:11:52Z</time></trkpt><trkpt lat="14.634765070359666" lon="121.0707097266014"><ele>53.5</ele><time>2026-03-30T07:11:53Z</time></trkpt><trkpt lat="14.634741481630739" lon="121.07078777018027"><ele>53.0</ele><time>2026-03-30T07:11:54Z</time></trkpt><trkpt lat="14.634718157515152" lon="121.07085777619768"><ele>52.5</ele><time>2026-03-30T07:11:55Z</time></trkpt><trkpt lat="14.634688414455901" lon="121.07093357639366"><ele>52.0</ele><time>2026-03-30T07:11:56Z</time></trkpt><trkpt lat="14.634665957861467" lon="121.07100437426664"><ele>51.5</ele><time>2026-03-30T07:11:57Z</time></trkpt><trkpt lat="14.634648458390142" lon="121.07108137505195"><ele>51.0</ele><time>2026-03-30T07:11:58Z</time></trkpt><trkpt lat="14.63462169773549" lon="121.07116419735206"><ele>51.0</ele><time>2026-03-30T07:11:59Z</time></trkpt><trkpt lat="14.634594516432918" lon="121.07125923365376"><ele>51.0</ele><time>2026-03-30T07:12:00Z</time></trkpt><trkpt lat="14.634561249532046" lon="121.0713569888278"><ele>51.0</ele><time>2026-03-30T07:12:01Z</time></trkpt><trkpt lat="14.634535454058053" lon="121.07144745327469"><ele>51.0</ele><time>2026-03-30T07:12:02Z</time></trkpt><trkpt lat="14.63450847595317" lon="121.0715499505112"><ele>51.0</ele><time>2026-03-30T07:12:03Z</time></trkpt><trkpt lat="14.63449114765221" lon="121.0716252770909"><ele>51.0</ele><time>2026-03-30T07:12:04Z</time></trkpt><trkpt lat="14.634456081659254" lon="121.07171319454729"><ele>51.0</ele><time>2026-03-30T07:12:05Z</time></trkpt><trkpt lat="14.634430598408192" lon="121.07180359363585"><ele>51.0</ele><time>2026-03-30T07:12:06Z</time></trkpt><trkpt lat="14.634402533057498" lon="121.07189803844649"><ele>51.0</ele><time>2026-03-30T07:12:07Z</time></trkpt><trkpt lat="14.634372860211077" lon="121.07198534816251"><ele>51.0</ele><time>2026-03-30T07:12:08Z</time></trkpt><trkpt lat="14.634347671078572" lon="121.07207691712762"><ele>51.0</ele><time>2026-03-30T07:12:09Z</time></trkpt><trkpt lat="14.634320517988062" lon="121.07216244782884"><ele>51.0</ele><time>2026-03-30T07:12:10Z</time></trkpt><trkpt lat="14.63429623265174" lon="121.07224690507066"><ele>51.0</ele><time>2026-03-30T07:12:11Z</time></trkpt><trkpt lat="14.634276500123244" lon="121.07233035265342"><ele>51.0</ele><time>2026-03-30T07:12:12Z</time></trkpt><trkpt lat="14.634256580304179" lon="121.07239855099473"><ele>51.0</ele><time>2026-03-30T07:12:13Z</time></trkpt><trkpt lat="14.634238907244631" lon="121.07246422350273"><ele>51.0</ele><time>2026-03-30T07:12:14Z</time></trkpt><trkpt lat="14.634211345828296" lon="121.07256971061732"><ele>51.0</ele><time>2026-03-30T07:12:16Z</time></trkpt><trkpt lat="14.634191852737864" lon="121.07265756466496"><ele>51.0</ele><time>2026-03-30T07:12:18Z</time></trkpt><trkpt lat="14.63415046944046" lon="121.07274076051546"><ele>51.0</ele><time>2026-03-30T07:12:20Z</time></trkpt><trkpt lat="14.634118317468692" lon="121.07284427982373"><ele>51.0</ele><time>2026-03-30T07:12:22Z</time></trkpt><trkpt lat="14.634088898073255" lon="121.07293049368278"><ele>51.0</ele><time>2026-03-30T07:12:24Z</time></trkpt><trkpt lat="14.634007895266258" lon="121.07297723948967"><ele>51.0</ele><time>2026-03-30T07:12:26Z</time></trkpt><trkpt lat="14.633936213595067" lon="121.07297807648554"><ele>51.0</ele><time>2026-03-30T07:12:27Z</time></trkpt><trkpt lat="14.63385241934734" lon="121.07296532723815"><ele>51.0</ele><time>2026-03-30T07:12:28Z</time></trkpt><trkpt lat="14.633759042794564" lon="121.0729549789665"><ele>51.0</ele><time>2026-03-30T07:12:29Z</time></trkpt><trkpt lat="14.633660115032654" lon="121.07295665040245"><ele>51.0</ele><time>2026-03-30T07:12:30Z</time></trkpt><trkpt lat="14.633556939028075" lon="121.07295253757877"><ele>51.0</ele><time>2026-03-30T07:12:31Z</time></trkpt><trkpt lat="14.63344939674994" lon="121.07294536660287"><ele>51.0</ele><time>2026-03-30T07:12:32Z</time></trkpt><trkpt lat="14.633351889575032" lon="121.07293676634468"><ele>51.0</ele><time>2026-03-30T07:12:33Z</time></trkpt><trkpt lat="14.633254629814575" lon="121.0729358605565"><ele>51.0</ele><time>2026-03-30T07:12:34Z</time></trkpt><trkpt lat="14.63317393600221" lon="121.07293269708656"><ele>51.0</ele><time>2026-03-30T07:12:35Z</time></trkpt><trkpt lat="14.633100903374125" lon="121.07293381846165"><ele>51.0</ele><time>2026-03-30T07:12:36Z</time></trkpt><trkpt lat="14.632992349251913" lon="121.07297518848453"><ele>51.0</ele><time>2026-03-30T07:12:38.001Z</time></trkpt><trkpt lat="14.632949058356827" lon="121.07302671393978"><ele>51.0</ele><time>2026-03-30T07:12:39.001Z</time></trkpt><trkpt lat="14.632916917448867" lon="121.07309385485809"><ele>51.0</ele><time>2026-03-30T07:12:40.001Z</time></trkpt><trkpt lat="14.6328641949583" lon="121.07315579759994"><ele>51.0</ele><time>2026-03-30T07:12:41.001Z</time></trkpt><trkpt lat="14.63279894542767" lon="121.07321101076327"><ele>51.0</ele><time>2026-03-30T07:12:42.001Z</time></trkpt><trkpt lat="14.632748258004096" lon="121.07327983251282"><ele>51.599999999999994</ele><time>2026-03-30T07:12:43.001Z</time></trkpt><trkpt lat="14.632697664984326" lon="121.07334673597806"><ele>52.2</ele><time>2026-03-30T07:12:44.001Z</time></trkpt><trkpt lat="14.632649919381066" lon="121.07340690077933"><ele>52.800000000000004</ele><time>2026-03-30T07:12:45.001Z</time></trkpt><trkpt lat="14.632602887209039" lon="121.07346377840229"><ele>53.400000000000006</ele><time>2026-03-30T07:12:46.001Z</time></trkpt><trkpt lat="14.632528467967136" lon="121.07356396540712"><ele>54.0</ele><time>2026-03-30T07:12:48.001Z</time></trkpt><trkpt lat="14.632463641671142" lon="121.07367501034594"><ele>54.0</ele><time>2026-03-30T07:12:50.001Z</time></trkpt><trkpt lat="14.632394428554562" lon="121.07376434007742"><ele>54.0</ele><time>2026-03-30T07:12:52.001Z</time></trkpt><trkpt lat="14.632329522981673" lon="121.07385703062208"><ele>54.0</ele><time>2026-03-30T07:12:54.001Z</time></trkpt><trkpt lat="14.63227867374141" lon="121.07391779564442"><ele>54.0</ele><time>2026-03-30T07:12:56.001Z</time></trkpt><trkpt lat="14.632237038397907" lon="121.0739687083514"><ele>54.0</ele><time>2026-03-30T07:13:00.001Z</time></trkpt><trkpt lat="14.632205178521348" lon="121.07402527077893"><ele>54.0</ele><time>2026-03-30T07:13:05.001Z</time></trkpt><trkpt lat="14.632130614465007" lon="121.07403754977958"><ele>54.0</ele><time>2026-03-30T07:13:09.001Z</time></trkpt><trkpt lat="14.632048578624083" lon="121.07403971201944"><ele>54.0</ele><time>2026-03-30T07:13:11.001Z</time></trkpt><trkpt lat="14.631960277014027" lon="121.07404188712933"><ele>54.0</ele><time>2026-03-30T07:13:13.001Z</time></trkpt><trkpt lat="14.631892101655174" lon="121.0740508704652"><ele>54.0</ele><time>2026-03-30T07:13:15.001Z</time></trkpt><trkpt lat="14.631811700040805" lon="121.07405771866"><ele>54.0</ele><time>2026-03-30T07:13:17.001Z</time></trkpt><trkpt lat="14.631741278962288" lon="121.0740903513677"><ele>54.0</ele><time>2026-03-30T07:13:19.001Z</time></trkpt><trkpt lat="14.63170112716887" lon="121.07418326254296"><ele>53.333333333333336</ele><time>2026-03-30T07:13:21.001Z</time></trkpt><trkpt lat="14.631693039508379" lon="121.07425061714609"><ele>52.66666666666667</ele><time>2026-03-30T07:13:22.001Z</time></trkpt><trkpt lat="14.631695463307329" lon="121.07433551247648"><ele>52.0</ele><time>2026-03-30T07:13:23.001Z</time></trkpt><trkpt lat="14.631716637122274" lon="121.07440980919961"><ele>51.333333333333336</ele><time>2026-03-30T07:13:24.001Z</time></trkpt><trkpt lat="14.63176610713216" lon="121.07448125864913"><ele>50.66666666666667</ele><time>2026-03-30T07:13:25.001Z</time></trkpt><trkpt lat="14.6318150310304" lon="121.07454542380513"><ele>50.0</ele><time>2026-03-30T07:13:26.001Z</time></trkpt><trkpt lat="14.63186690346679" lon="121.0746173512291"><ele>50.0</ele><time>2026-03-30T07:13:27.001Z</time></trkpt><trkpt lat="14.63191892438483" lon="121.07469772912086"><ele>50.0</ele><time>2026-03-30T07:13:28.001Z</time></trkpt><trkpt lat="14.631970737885025" lon="121.07479266551613"><ele>50.0</ele><time>2026-03-30T07:13:29.001Z</time></trkpt><trkpt lat="14.632028912713071" lon="121.07488384563791"><ele>50.0</ele><time>2026-03-30T07:13:30.001Z</time></trkpt><trkpt lat="14.632084802353186" lon="121.07498312174228"><ele>50.0</ele><time>2026-03-30T07:13:31.001Z</time></trkpt><trkpt lat="14.632144678903275" lon="121.07508735184463"><ele>50.5</ele><time>2026-03-30T07:13:32.001Z</time></trkpt><trkpt lat="14.63220136312568" lon="121.07519818565457"><ele>51.0</ele><time>2026-03-30T07:13:33Z</time></trkpt><trkpt lat="14.632261689414424" lon="121.0753127572855"><ele>51.5</ele><time>2026-03-30T07:13:34Z</time></trkpt><trkpt lat="14.632325334857383" lon="121.07543397250431"><ele>52.0</ele><time>2026-03-30T07:13:35Z</time></trkpt><trkpt lat="14.63238554865355" lon="121.07555348795479"><ele>52.0</ele><time>2026-03-30T07:13:36Z</time></trkpt><trkpt lat="14.632445047787549" lon="121.0756773432731"><ele>52.0</ele><time>2026-03-30T07:13:37Z</time></trkpt><trkpt lat="14.632501671678202" lon="121.07580830016435"><ele>52.0</ele><time>2026-03-30T07:13:38Z</time></trkpt><trkpt lat="14.63254598108409" lon="121.0759355319873"><ele>52.0</ele><time>2026-03-30T07:13:39Z</time></trkpt><trkpt lat="14.632587325851281" lon="121.07606042590555"><ele>51.0</ele><time>2026-03-30T07:13:40Z</time></trkpt><trkpt lat="14.632619588375203" lon="121.07618210003737"><ele>50.0</ele><time>2026-03-30T07:13:41Z</time></trkpt><trkpt lat="14.632638517439363" lon="121.0763132680837"><ele>49.0</ele><time>2026-03-30T07:13:42Z</time></trkpt><trkpt lat="14.63263980667712" lon="121.07644533260031"><ele>48.0</ele><time>2026-03-30T07:13:43Z</time></trkpt><trkpt lat="14.63263202253444" lon="121.0765745551155"><ele>47.5</ele><time>2026-03-30T07:13:44Z</time></trkpt><trkpt lat="14.632614300912197" lon="121.07671135656145"><ele>47.0</ele><time>2026-03-30T07:13:45Z</time></trkpt><trkpt lat="14.632581773358138" lon="121.07683882757213"><ele>46.5</ele><time>2026-03-30T07:13:46Z</time></trkpt><trkpt lat="14.632542064769273" lon="121.07698394786074"><ele>46.0</ele><time>2026-03-30T07:13:47Z</time></trkpt><trkpt lat="14.632492908010539" lon="121.07713474576904"><ele>46.0</ele><time>2026-03-30T07:13:48Z</time></trkpt><trkpt lat="14.632430111366626" lon="121.07729124061548"><ele>46.0</ele><time>2026-03-30T07:13:49Z</time></trkpt><trkpt lat="14.632347292168706" lon="121.077437332834"><ele>46.0</ele><time>2026-03-30T07:13:50Z</time></trkpt><trkpt lat="14.63225100077688" lon="121.07756746659325"><ele>44.75</ele><time>2026-03-30T07:13:51Z</time></trkpt><trkpt lat="14.632151763288611" lon="121.07768682853052"><ele>43.5</ele><time>2026-03-30T07:13:52Z</time></trkpt><trkpt lat="14.632066182116839" lon="121.07779489695683"><ele>42.25</ele><time>2026-03-30T07:13:53Z</time></trkpt><trkpt lat="14.63199414700893" lon="121.0779034534501"><ele>41.0</ele><time>2026-03-30T07:13:54Z</time></trkpt><trkpt lat="14.631942932628938" lon="121.07801238549396"><ele>41.0</ele><time>2026-03-30T07:13:55Z</time></trkpt><trkpt lat="14.631909327500669" lon="121.07813014646209"><ele>41.0</ele><time>2026-03-30T07:13:56Z</time></trkpt><trkpt lat="14.631891591313599" lon="121.0782447828316"><ele>41.0</ele><time>2026-03-30T07:13:57Z</time></trkpt><trkpt lat="14.631886110163462" lon="121.07836525496407"><ele>41.0</ele><time>2026-03-30T07:13:58Z</time></trkpt><trkpt lat="14.631897172178618" lon="121.07848942894513"><ele>40.25</ele><time>2026-03-30T07:13:59Z</time></trkpt><trkpt lat="14.631927615306328" lon="121.07862000992655"><ele>39.5</ele><time>2026-03-30T07:14:00Z</time></trkpt><trkpt lat="14.631962075438098" lon="121.07876175218384"><ele>38.75</ele><time>2026-03-30T07:14:01Z</time></trkpt><trkpt lat="14.631992372369222" lon="121.07890728807213"><ele>38.0</ele><time>2026-03-30T07:14:02Z</time></trkpt><trkpt lat="14.632018390018237" lon="121.0790445569285"><ele>36.5</ele><time>2026-03-30T07:14:03Z</time></trkpt><trkpt lat="14.632043921636177" lon="121.0791781112527"><ele>35.0</ele><time>2026-03-30T07:14:04Z</time></trkpt><trkpt lat="14.63206667893517" lon="121.0793105806841"><ele>33.5</ele><time>2026-03-30T07:14:05Z</time></trkpt><trkpt lat="14.632087876998606" lon="121.0794490008765"><ele>32.0</ele><time>2026-03-30T07:14:06Z</time></trkpt><trkpt lat="14.632109431817925" lon="121.0795838720456"><ele>32.0</ele><time>2026-03-30T07:14:07Z</time></trkpt><trkpt lat="14.632131016475885" lon="121.07971545902889"><ele>32.0</ele><time>2026-03-30T07:14:08Z</time></trkpt><trkpt lat="14.63215970239855" lon="121.07984429872323"><ele>32.0</ele><time>2026-03-30T07:14:09Z</time></trkpt><trkpt lat="14.632173350163766" lon="121.0799440728696"><ele>32.0</ele><time>2026-03-30T07:14:10Z</time></trkpt><trkpt lat="14.632185258939662" lon="121.08001075103826"><ele>32.0</ele><time>2026-03-30T07:14:11Z</time></trkpt><trkpt lat="14.632204105412235" lon="121.08009923419647"><ele>30.400000000000002</ele><time>2026-03-30T07:14:13Z</time></trkpt><trkpt lat="14.632225289732979" lon="121.08020536847863"><ele>28.800000000000004</ele><time>2026-03-30T07:14:15Z</time></trkpt><trkpt lat="14.632245247387393" lon="121.08029010825199"><ele>27.2</ele><time>2026-03-30T07:14:16Z</time></trkpt><trkpt lat="14.632260680657879" lon="121.08039511231605"><ele>25.6</ele><time>2026-03-30T07:14:17Z</time></trkpt><trkpt lat="14.632274370047954" lon="121.08051342360588"><ele>24.0</ele><time>2026-03-30T07:14:18Z</time></trkpt><trkpt lat="14.632289349807685" lon="121.0806169225155"><ele>24.0</ele><time>2026-03-30T07:14:19Z</time></trkpt><trkpt lat="14.632307236971112" lon="121.08070319431192"><ele>24.0</ele><time>2026-03-30T07:14:20Z</time></trkpt><trkpt lat="14.632329669269692" lon="121.08081979634724"><ele>24.0</ele><time>2026-03-30T07:14:22Z</time></trkpt><trkpt lat="14.63234587904483" lon="121.08090806728606"><ele>24.0</ele><time>2026-03-30T07:14:24Z</time></trkpt><trkpt lat="14.63236142562395" lon="121.08098092253506"><ele>24.0</ele><time>2026-03-30T07:14:26Z</time></trkpt><trkpt lat="14.632380114234499" lon="121.08105382144424"><ele>24.0</ele><time>2026-03-30T07:14:28Z</time></trkpt><trkpt lat="14.63239630489854" lon="121.08114037748796"><ele>23.666666666666668</ele><time>2026-03-30T07:14:31Z</time></trkpt><trkpt lat="14.63241569477942" lon="121.08121742113462"><ele>23.333333333333332</ele><time>2026-03-30T07:14:36Z</time></trkpt><trkpt lat="14.632432125097715" lon="121.08128198713024"><ele>23.0</ele><time>2026-03-30T07:14:39Z</time></trkpt><trkpt lat="14.632449434498286" lon="121.08135885573132"><ele>22.666666666666664</ele><time>2026-03-30T07:14:42Z</time></trkpt><trkpt lat="14.632472801896805" lon="121.08144746216401"><ele>22.333333333333332</ele><time>2026-03-30T07:14:45Z</time></trkpt><trkpt lat="14.632491374815173" lon="121.08151778659142"><ele>22.0</ele><time>2026-03-30T07:14:47Z</time></trkpt><trkpt lat="14.632526988817435" lon="121.08163923842167"><ele>21.42857142857143</ele><time>2026-03-30T07:14:49.001Z</time></trkpt><trkpt lat="14.63255387129797" lon="121.08171381582635"><ele>20.857142857142858</ele><time>2026-03-30T07:14:50.001Z</time></trkpt><trkpt lat="14.632567798598386" lon="121.08177779964"><ele>20.285714285714285</ele><time>2026-03-30T07:14:51.001Z</time></trkpt><trkpt lat="14.632580577783912" lon="121.08184365391661"><ele>19.714285714285715</ele><time>2026-03-30T07:14:52.001Z</time></trkpt><trkpt lat="14.632596400024708" lon="121.08191032386357"><ele>19.142857142857142</ele><time>2026-03-30T07:14:53.001Z</time></trkpt><trkpt lat="14.632613039843609" lon="121.08197566623359"><ele>18.571428571428573</ele><time>2026-03-30T07:14:54.001Z</time></trkpt><trkpt lat="14.632643920518044" lon="121.08208705729284"><ele>18.0</ele><time>2026-03-30T07:14:56.001Z</time></trkpt><trkpt lat="14.632667926966242" lon="121.08216438520373"><ele>18.0</ele><time>2026-03-30T07:14:58.001Z</time></trkpt><trkpt lat="14.632692650842975" lon="121.08225103306576"><ele>18.0</ele><time>2026-03-30T07:15:00.001Z</time></trkpt><trkpt lat="14.632729104855084" lon="121.08235417129225"><ele>18.0</ele><time>2026-03-30T07:15:02.001Z</time></trkpt><trkpt lat="14.632764755409843" lon="121.08245005411733"><ele>18.0</ele><time>2026-03-30T07:15:04.001Z</time></trkpt><trkpt lat="14.632791295867207" lon="121.08253962900476"><ele>18.0</ele><time>2026-03-30T07:15:06.001Z</time></trkpt><trkpt lat="14.632807767540404" lon="121.08260640859726"><ele>17.833333333333332</ele><time>2026-03-30T07:15:08.001Z</time></trkpt><trkpt lat="14.63282939710847" lon="121.08266858959033"><ele>17.666666666666668</ele><time>2026-03-30T07:15:41Z</time></trkpt><trkpt lat="14.632864065481547" lon="121.08277678272393"><ele>17.5</ele><time>2026-03-30T07:15:50Z</time></trkpt><trkpt lat="14.632875433399802" lon="121.08284347304419"><ele>17.333333333333336</ele><time>2026-03-30T07:15:51Z</time></trkpt><trkpt lat="14.63289163161539" lon="121.08293153448538"><ele>17.166666666666668</ele><time>2026-03-30T07:15:52Z</time></trkpt><trkpt lat="14.63291790080581" lon="121.08302309155292"><ele>17.0</ele><time>2026-03-30T07:15:53Z</time></trkpt><trkpt lat="14.63294555025899" lon="121.08312470968771"><ele>17.0</ele><time>2026-03-30T07:15:54Z</time></trkpt><trkpt lat="14.63297429912287" lon="121.08322991601717"><ele>17.0</ele><time>2026-03-30T07:15:55Z</time></trkpt><trkpt lat="14.633016004827626" lon="121.08334519147837"><ele>17.0</ele><time>2026-03-30T07:15:56Z</time></trkpt><trkpt lat="14.633060667109566" lon="121.08346706946799"><ele>17.0</ele><time>2026-03-30T07:15:57Z</time></trkpt><trkpt lat="14.633103151616512" lon="121.08359235668634"><ele>16.75</ele><time>2026-03-30T07:15:58Z</time></trkpt><trkpt lat="14.63314300427263" lon="121.08370923431997"><ele>16.5</ele><time>2026-03-30T07:15:59Z</time></trkpt><trkpt lat="14.633185527034769" lon="121.08383284809237"><ele>16.25</ele><time>2026-03-30T07:16:00Z</time></trkpt><trkpt lat="14.633227606231742" lon="121.08395074023912"><ele>16.0</ele><time>2026-03-30T07:16:01Z</time></trkpt><trkpt lat="14.633265517582153" lon="121.08406903905195"><ele>15.5</ele><time>2026-03-30T07:16:02Z</time></trkpt><trkpt lat="14.633308956782761" lon="121.08419989548464"><ele>15.0</ele><time>2026-03-30T07:16:03Z</time></trkpt><trkpt lat="14.633347723678254" lon="121.08433470916462"><ele>14.5</ele><time>2026-03-30T07:16:04Z</time></trkpt><trkpt lat="14.633386139996626" lon="121.08447509848548"><ele>14.0</ele><time>2026-03-30T07:16:05Z</time></trkpt><trkpt lat="14.633427439965697" lon="121.08461896739537"><ele>14.0</ele><time>2026-03-30T07:16:06Z</time></trkpt><trkpt lat="14.633470760094335" lon="121.08476317686386"><ele>14.0</ele><time>2026-03-30T07:16:07Z</time></trkpt><trkpt lat="14.633512798345672" lon="121.08490316909732"><ele>14.0</ele><time>2026-03-30T07:16:08Z</time></trkpt><trkpt lat="14.633554757290913" lon="121.08503514348087"><ele>14.0</ele><time>2026-03-30T07:16:09Z</time></trkpt><trkpt lat="14.633597484003992" lon="121.0851572103226"><ele>14.25</ele><time>2026-03-30T07:16:10Z</time></trkpt><trkpt lat="14.633640238617627" lon="121.08527654659652"><ele>14.5</ele><time>2026-03-30T07:16:11Z</time></trkpt><trkpt lat="14.633692721142387" lon="121.08539520287357"><ele>14.75</ele><time>2026-03-30T07:16:12Z</time></trkpt><trkpt lat="14.633749919605611" lon="121.08551325169802"><ele>15.0</ele><time>2026-03-30T07:16:13Z</time></trkpt><trkpt lat="14.63380571775638" lon="121.08562844325506"><ele>15.0</ele><time>2026-03-30T07:16:14Z</time></trkpt><trkpt lat="14.633863269065818" lon="121.08574704960729"><ele>15.0</ele><time>2026-03-30T07:16:15Z</time></trkpt><trkpt lat="14.63391871436862" lon="121.08586019781846"><ele>15.0</ele><time>2026-03-30T07:16:16Z</time></trkpt><trkpt lat="14.63397477502864" lon="121.08597752032907"><ele>15.0</ele><time>2026-03-30T07:16:17Z</time></trkpt><trkpt lat="14.63403074472471" lon="121.0860939250354"><ele>14.5</ele><time>2026-03-30T07:16:18Z</time></trkpt><trkpt lat="14.634086888042077" lon="121.08621094663722"><ele>14.0</ele><time>2026-03-30T07:16:19Z</time></trkpt><trkpt lat="14.63414227516127" lon="121.08632798214778"><ele>13.5</ele><time>2026-03-30T07:16:20Z</time></trkpt><trkpt lat="14.63419799796272" lon="121.08645027039515"><ele>13.0</ele><time>2026-03-30T07:16:21Z</time></trkpt><trkpt lat="14.634257526651826" lon="121.08657126763353"><ele>13.5</ele><time>2026-03-30T07:16:22Z</time></trkpt><trkpt lat="14.634320231866791" lon="121.08669299987983"><ele>14.0</ele><time>2026-03-30T07:16:23Z</time></trkpt><trkpt lat="14.634384931756006" lon="121.08681876527599"><ele>14.5</ele><time>2026-03-30T07:16:24Z</time></trkpt><trkpt lat="14.634449588131794" lon="121.08694177406535"><ele>15.0</ele><time>2026-03-30T07:16:25Z</time></trkpt><trkpt lat="14.63451372316684" lon="121.08706237067305"><ele>15.0</ele><time>2026-03-30T07:16:26Z</time></trkpt><trkpt lat="14.634570026600112" lon="121.0871764420193"><ele>15.0</ele><time>2026-03-30T07:16:27Z</time></trkpt><trkpt lat="14.634621207431051" lon="121.08728334189385"><ele>15.0</ele><time>2026-03-30T07:16:28Z</time></trkpt><trkpt lat="14.634675871646627" lon="121.08739376123202"><ele>15.0</ele><time>2026-03-30T07:16:29Z</time></trkpt><trkpt lat="14.634731697333192" lon="121.08750137465593"><ele>14.5</ele><time>2026-03-30T07:16:30Z</time></trkpt><trkpt lat="14.634790919662795" lon="121.08760843610153"><ele>14.0</ele><time>2026-03-30T07:16:31Z</time></trkpt><trkpt lat="14.634844918459448" lon="121.08771399980844"><ele>13.5</ele><time>2026-03-30T07:16:32Z</time></trkpt><trkpt lat="14.63490411300003" lon="121.08781806466861"><ele>13.0</ele><time>2026-03-30T07:16:33Z</time></trkpt><trkpt lat="14.63495661683065" lon="121.08792294825885"><ele>13.0</ele><time>2026-03-30T07:16:34Z</time></trkpt><trkpt lat="14.634998399490764" lon="121.08803391780464"><ele>13.0</ele><time>2026-03-30T07:16:35Z</time></trkpt><trkpt lat="14.635039514938944" lon="121.08815909643454"><ele>13.0</ele><time>2026-03-30T07:16:36Z</time></trkpt><trkpt lat="14.63508642800114" lon="121.08827740778068"><ele>13.0</ele><time>2026-03-30T07:16:37Z</time></trkpt><trkpt lat="14.635138573932531" lon="121.08838924293964"><ele>13.0</ele><time>2026-03-30T07:16:38Z</time></trkpt><trkpt lat="14.635184826082963" lon="121.08848945465375"><ele>13.0</ele><time>2026-03-30T07:16:39Z</time></trkpt><trkpt lat="14.635238516132581" lon="121.08859164488375"><ele>13.0</ele><time>2026-03-30T07:16:40Z</time></trkpt><trkpt lat="14.635291289048283" lon="121.08868893610233"><ele>13.0</ele><time>2026-03-30T07:16:41Z</time></trkpt><trkpt lat="14.63533776572332" lon="121.08878372152519"><ele>13.0</ele><time>2026-03-30T07:16:42Z</time></trkpt><trkpt lat="14.6353800795554" lon="121.08886101802074"><ele>12.999999999999998</ele><time>2026-03-30T07:16:43Z</time></trkpt><trkpt lat="14.635407452635127" lon="121.08893123134881"><ele>13.0</ele><time>2026-03-30T07:16:44Z</time></trkpt><trkpt lat="14.635435960666497" lon="121.0890073362651"><ele>13.0</ele><time>2026-03-30T07:16:45Z</time></trkpt><trkpt lat="14.63547435887186" lon="121.08909004544408"><ele>13.0</ele><time>2026-03-30T07:16:46Z</time></trkpt><trkpt lat="14.635520355625435" lon="121.08917763011193"><ele>12.999999999999998</ele><time>2026-03-30T07:16:47Z</time></trkpt><trkpt lat="14.635567536978767" lon="121.08927403020631"><ele>13.0</ele><time>2026-03-30T07:16:48Z</time></trkpt><trkpt lat="14.635615455823542" lon="121.08936184697932"><ele>13.4</ele><time>2026-03-30T07:16:49Z</time></trkpt><trkpt lat="14.635652397489434" lon="121.08944498545526"><ele>13.8</ele><time>2026-03-30T07:16:50Z</time></trkpt><trkpt lat="14.635699040940631" lon="121.08953481596176"><ele>14.2</ele><time>2026-03-30T07:16:51Z</time></trkpt><trkpt lat="14.635744492265372" lon="121.08962557847032"><ele>14.6</ele><time>2026-03-30T07:16:52Z</time></trkpt><trkpt lat="14.635792621730687" lon="121.08972184412086"><ele>15.0</ele><time>2026-03-30T07:16:53Z</time></trkpt><trkpt lat="14.635838514533813" lon="121.08982016092584"><ele>15.0</ele><time>2026-03-30T07:16:54Z</time></trkpt><trkpt lat="14.635880938769501" lon="121.08990922794631"><ele>15.0</ele><time>2026-03-30T07:16:55Z</time></trkpt><trkpt lat="14.635917405485293" lon="121.08999092385407"><ele>15.0</ele><time>2026-03-30T07:16:56Z</time></trkpt><trkpt lat="14.63595620682533" lon="121.09007303909218"><ele>15.0</ele><time>2026-03-30T07:16:57Z</time></trkpt><trkpt lat="14.63599651296566" lon="121.09016076776791"><ele>15.0</ele><time>2026-03-30T07:16:58.001Z</time></trkpt><trkpt lat="14.63604012670033" lon="121.09025071070448"><ele>15.166666666666666</ele><time>2026-03-30T07:16:59.001Z</time></trkpt><trkpt lat="14.636087760493385" lon="121.09033950287909"><ele>15.333333333333332</ele><time>2026-03-30T07:17:00.001Z</time></trkpt><trkpt lat="14.636122183288593" lon="121.09041822658838"><ele>15.5</ele><time>2026-03-30T07:17:01.001Z</time></trkpt><trkpt lat="14.636145789564024" lon="121.09049249719091"><ele>15.666666666666666</ele><time>2026-03-30T07:17:02.001Z</time></trkpt><trkpt lat="14.636154799959021" lon="121.09056487763428"><ele>15.833333333333332</ele><time>2026-03-30T07:17:03.001Z</time></trkpt><trkpt lat="14.636149072568799" lon="121.09063432713158"><ele>16.0</ele><time>2026-03-30T07:17:04.001Z</time></trkpt><trkpt lat="14.636134507957907" lon="121.09078225046306"><ele>16.166666666666664</ele><time>2026-03-30T07:17:06.001Z</time></trkpt><trkpt lat="14.63612757613638" lon="121.09086158717804"><ele>16.333333333333332</ele><time>2026-03-30T07:17:07.001Z</time></trkpt><trkpt lat="14.636124926811897" lon="121.09095366347388"><ele>16.5</ele><time>2026-03-30T07:17:08.001Z</time></trkpt><trkpt lat="14.636117398958362" lon="121.09103907628729"><ele>16.666666666666668</ele><time>2026-03-30T07:17:09.001Z</time></trkpt><trkpt lat="14.636112508072031" lon="121.09111715025637"><ele>16.833333333333336</ele><time>2026-03-30T07:17:10.001Z</time></trkpt><trkpt lat="14.63610685134121" lon="121.0911933721765"><ele>17.0</ele><time>2026-03-30T07:17:11.001Z</time></trkpt><trkpt lat="14.636099696790348" lon="121.09126241431676"><ele>17.0</ele><time>2026-03-30T07:17:12.001Z</time></trkpt><trkpt lat="14.636090457523856" lon="121.09138543964232"><ele>17.0</ele><time>2026-03-30T07:17:14.001Z</time></trkpt><trkpt lat="14.63608314191742" lon="121.09149141666386"><ele>17.0</ele><time>2026-03-30T07:17:16.001Z</time></trkpt><trkpt lat="14.63608041226299" lon="121.09160753209035"><ele>17.0</ele><time>2026-03-30T07:17:18.001Z</time></trkpt><trkpt lat="14.636079318791799" lon="121.09167598405806"><ele>17.0</ele><time>2026-03-30T07:17:19.001Z</time></trkpt><trkpt lat="14.636071606608144" lon="121.09175015887695"><ele>16.8</ele><time>2026-03-30T07:17:20.001Z</time></trkpt><trkpt lat="14.636062368773636" lon="121.09183136606511"><ele>16.6</ele><time>2026-03-30T07:17:21.001Z</time></trkpt><trkpt lat="14.63605286434055" lon="121.09192290343144"><ele>16.400000000000002</ele><time>2026-03-30T07:17:22.001Z</time></trkpt><trkpt lat="14.636041224770594" lon="121.0920199202482"><ele>16.2</ele><time>2026-03-30T07:17:23.001Z</time></trkpt><trkpt lat="14.636029620305452" lon="121.09212447527894"><ele>16.0</ele><time>2026-03-30T07:17:24.001Z</time></trkpt><trkpt lat="14.636014080366534" lon="121.09223672364568"><ele>16.0</ele><time>2026-03-30T07:17:25.001Z</time></trkpt><trkpt lat="14.636003358288711" lon="121.09235811204864"><ele>16.0</ele><time>2026-03-30T07:17:26.001Z</time></trkpt><trkpt lat="14.635991148214671" lon="121.0924914530626"><ele>16.0</ele><time>2026-03-30T07:17:27.001Z</time></trkpt><trkpt lat="14.635980947203471" lon="121.09259111119147"><ele>16.0</ele><time>2026-03-30T07:17:28.001Z</time></trkpt><trkpt lat="14.635968927163255" lon="121.09271085461026"><ele>15.200000000000001</ele><time>2026-03-30T07:17:29.001Z</time></trkpt><trkpt lat="14.635959105247093" lon="121.0928285536382"><ele>14.400000000000002</ele><time>2026-03-30T07:17:30.001Z</time></trkpt><trkpt lat="14.635950701786976" lon="121.0929455027201"><ele>13.6</ele><time>2026-03-30T07:17:31.001Z</time></trkpt><trkpt lat="14.635944980256518" lon="121.0930531279235"><ele>12.8</ele><time>2026-03-30T07:17:32.001Z</time></trkpt><trkpt lat="14.63593763525849" lon="121.09316204418491"><ele>12.0</ele><time>2026-03-30T07:17:33.001Z</time></trkpt><trkpt lat="14.635926725531768" lon="121.09327009901642"><ele>11.0</ele><time>2026-03-30T07:17:34.001Z</time></trkpt><trkpt lat="14.635918290005915" lon="121.0933795532489"><ele>10.0</ele><time>2026-03-30T07:17:35.001Z</time></trkpt><trkpt lat="14.635908845162819" lon="121.09348294217625"><ele>9.0</ele><time>2026-03-30T07:17:36.001Z</time></trkpt><trkpt lat="14.635902174589171" lon="121.09357678001953"><ele>8.0</ele><time>2026-03-30T07:17:37.001Z</time></trkpt><trkpt lat="14.635895993473738" lon="121.0936622909809"><ele>7.0</ele><time>2026-03-30T07:17:38.001Z</time></trkpt><trkpt lat="14.635888738038732" lon="121.09374334457976"><ele>7.000000000000001</ele><time>2026-03-30T07:17:39.001Z</time></trkpt><trkpt lat="14.635884498591874" lon="121.09382277628872"><ele>7.0</ele><time>2026-03-30T07:17:40.001Z</time></trkpt><trkpt lat="14.635877985988627" lon="121.0939018058612"><ele>7.0</ele><time>2026-03-30T07:17:41.001Z</time></trkpt><trkpt lat="14.635869555411972" lon="121.09397643290522"><ele>7.0</ele><time>2026-03-30T07:17:42.001Z</time></trkpt><trkpt lat="14.635863839925195" lon="121.09404838997303"><ele>7.000000000000001</ele><time>2026-03-30T07:17:43.001Z</time></trkpt><trkpt lat="14.635855609555607" lon="121.0941522873201"><ele>7.0</ele><time>2026-03-30T07:17:45Z</time></trkpt><trkpt lat="14.63586141456249" lon="121.09422975631084"><ele>8.333333333333334</ele><time>2026-03-30T07:17:47Z</time></trkpt><trkpt lat="14.635857145214342" lon="121.0943406259006"><ele>9.666666666666668</ele><time>2026-03-30T07:17:49Z</time></trkpt><trkpt lat="14.635854269713837" lon="121.0944107993617"><ele>11.0</ele><time>2026-03-30T07:17:50Z</time></trkpt><trkpt lat="14.635858756477932" lon="121.09448641350411"><ele>12.333333333333334</ele><time>2026-03-30T07:17:51Z</time></trkpt><trkpt lat="14.635855525750049" lon="121.09456378447734"><ele>13.666666666666666</ele><time>2026-03-30T07:17:52Z</time></trkpt><trkpt lat="14.635845070750966" lon="121.09466680855947"><ele>15.0</ele><time>2026-03-30T07:17:54Z</time></trkpt><trkpt lat="14.635823920240846" lon="121.09477927140148"><ele>15.0</ele><time>2026-03-30T07:17:56Z</time></trkpt><trkpt lat="14.63581231996936" lon="121.09489727751405"><ele>15.0</ele><time>2026-03-30T07:17:58Z</time></trkpt><trkpt lat="14.63579904750351" lon="121.09499291123088"><ele>15.0</ele><time>2026-03-30T07:18:00Z</time></trkpt><trkpt lat="14.635787316687548" lon="121.09505831665895"><ele>15.0</ele><time>2026-03-30T07:18:02Z</time></trkpt><trkpt lat="14.63577312575603" lon="121.09512917740396"><ele>15.0</ele><time>2026-03-30T07:18:05Z</time></trkpt><trkpt lat="14.635775857292455" lon="121.09521414530106"><ele>15.0</ele><time>2026-03-30T07:18:09Z</time></trkpt><trkpt lat="14.635771580947397" lon="121.09530430532358"><ele>15.333333333333334</ele><time>2026-03-30T07:18:13Z</time></trkpt><trkpt lat="14.635769822629237" lon="121.09540278432002"><ele>15.666666666666668</ele><time>2026-03-30T07:18:15Z</time></trkpt><trkpt lat="14.63577447414865" lon="121.0955005885178"><ele>16.0</ele><time>2026-03-30T07:18:17Z</time></trkpt><trkpt lat="14.635767900421612" lon="121.09556856221478"><ele>16.333333333333336</ele><time>2026-03-30T07:18:18Z</time></trkpt><trkpt lat="14.635762190172537" lon="121.095637057631"><ele>16.666666666666668</ele><time>2026-03-30T07:18:19Z</time></trkpt><trkpt lat="14.635750214963842" lon="121.09571032699192"><ele>17.0</ele><time>2026-03-30T07:18:20Z</time></trkpt><trkpt lat="14.635737094230217" lon="121.09582285226138"><ele>17.0</ele><time>2026-03-30T07:18:22Z</time></trkpt><trkpt lat="14.635729088515712" lon="121.09590054278722"><ele>17.0</ele><time>2026-03-30T07:18:25Z</time></trkpt><trkpt lat="14.635723844564168" lon="121.09599664223003"><ele>17.0</ele><time>2026-03-30T07:18:34Z</time></trkpt><trkpt lat="14.635742261608101" lon="121.09607477976046"><ele>17.0</ele><time>2026-03-30T07:18:36Z</time></trkpt><trkpt lat="14.63575333435074" lon="121.09616023999881"><ele>17.0</ele><time>2026-03-30T07:18:38Z</time></trkpt><trkpt lat="14.635739702307426" lon="121.09626460601942"><ele>17.0</ele><time>2026-03-30T07:18:40Z</time></trkpt><trkpt lat="14.635739471477969" lon="121.0963630671007"><ele>17.0</ele><time>2026-03-30T07:18:43Z</time></trkpt><trkpt lat="14.635741729238822" lon="121.09645204683636"><ele>17.0</ele><time>2026-03-30T07:18:45Z</time></trkpt><trkpt lat="14.635733955163769" lon="121.0965771074867"><ele>17.0</ele><time>2026-03-30T07:18:47Z</time></trkpt><trkpt lat="14.6357191888262" lon="121.09665620459575"><ele>17.0</ele><time>2026-03-30T07:18:48Z</time></trkpt><trkpt lat="14.635705259615087" lon="121.0967264596247"><ele>17.0</ele><time>2026-03-30T07:18:49Z</time></trkpt><trkpt lat="14.635693574146353" lon="121.0968237247373"><ele>16.71428571428571</ele><time>2026-03-30T07:18:51Z</time></trkpt><trkpt lat="14.635703604564366" lon="121.09689509358658"><ele>16.428571428571427</ele><time>2026-03-30T07:18:53Z</time></trkpt><trkpt lat="14.635666923533664" lon="121.09695355959629"><ele>16.142857142857142</ele><time>2026-03-30T07:18:57Z</time></trkpt><trkpt lat="14.635617672123447" lon="121.09700919598085"><ele>15.857142857142856</ele><time>2026-03-30T07:19:02Z</time></trkpt><trkpt lat="14.635621018673762" lon="121.09708738705825"><ele>15.57142857142857</ele><time>2026-03-30T07:19:04Z</time></trkpt><trkpt lat="14.635620854931503" lon="121.09715959283655"><ele>15.285714285714286</ele><time>2026-03-30T07:19:07.001Z</time></trkpt><trkpt lat="14.63562430503687" lon="121.09724760652374"><ele>15.0</ele><time>2026-03-30T07:20:06Z</time></trkpt><trkpt lat="14.63561908457844" lon="121.09736573326366"><ele>15.166666666666666</ele><time>2026-03-30T07:20:08Z</time></trkpt><trkpt lat="14.635610390864374" lon="121.09744861292755"><ele>15.333333333333332</ele><time>2026-03-30T07:20:09Z</time></trkpt><trkpt lat="14.635606096796282" lon="121.09752140375811"><ele>15.5</ele><time>2026-03-30T07:20:10Z</time></trkpt><trkpt lat="14.63560598108333" lon="121.0976096975513"><ele>15.666666666666666</ele><time>2026-03-30T07:20:11Z</time></trkpt><trkpt lat="14.63560649024457" lon="121.09769841178456"><ele>15.833333333333332</ele><time>2026-03-30T07:20:12Z</time></trkpt><trkpt lat="14.635600619790841" lon="121.09778477638069"><ele>16.0</ele><time>2026-03-30T07:20:13Z</time></trkpt><trkpt lat="14.635595891875592" lon="121.09786107711142"><ele>16.0</ele><time>2026-03-30T07:20:14Z</time></trkpt><trkpt lat="14.635598041309677" lon="121.0979452025494"><ele>16.0</ele><time>2026-03-30T07:20:15Z</time></trkpt><trkpt lat="14.635601319790183" lon="121.09802460204254"><ele>16.0</ele><time>2026-03-30T07:20:16Z</time></trkpt><trkpt lat="14.635605386392248" lon="121.098118996319"><ele>16.0</ele><time>2026-03-30T07:20:17Z</time></trkpt><trkpt lat="14.6355997597041" lon="121.0982129638383"><ele>16.0</ele><time>2026-03-30T07:20:18Z</time></trkpt><trkpt lat="14.635586838277298" lon="121.09832774492627"><ele>15.4</ele><time>2026-03-30T07:20:19Z</time></trkpt><trkpt lat="14.635579431272125" lon="121.09843414578941"><ele>14.8</ele><time>2026-03-30T07:20:20Z</time></trkpt><trkpt lat="14.63556743274297" lon="121.09854855397333"><ele>14.200000000000001</ele><time>2026-03-30T07:20:21Z</time></trkpt><trkpt lat="14.635551879001191" lon="121.09866270796059"><ele>13.600000000000001</ele><time>2026-03-30T07:20:22Z</time></trkpt><trkpt lat="14.635535885588359" lon="121.09876675927963"><ele>13.0</ele><time>2026-03-30T07:20:23Z</time></trkpt><trkpt lat="14.635519503587748" lon="121.09887107561434"><ele>12.999999999999998</ele><time>2026-03-30T07:20:24Z</time></trkpt><trkpt lat="14.63550575780433" lon="121.09895931190968"><ele>13.0</ele><time>2026-03-30T07:20:25Z</time></trkpt><trkpt lat="14.635496997301521" lon="121.09903990653342"><ele>13.0</ele><time>2026-03-30T07:20:26Z</time></trkpt><trkpt lat="14.635482551249778" lon="121.09910678101751"><ele>13.0</ele><time>2026-03-30T07:20:27Z</time></trkpt><trkpt lat="14.635476605795" lon="121.09919212753196"><ele>12.999999999999998</ele><time>2026-03-30T07:20:29Z</time></trkpt><trkpt lat="14.635460548610283" lon="121.09928082295626"><ele>13.0</ele><time>2026-03-30T07:20:32Z</time></trkpt><trkpt lat="14.635442371632335" lon="121.09937438636052"><ele>13.4</ele><time>2026-03-30T07:20:34Z</time></trkpt><trkpt lat="14.635429270224986" lon="121.09944886457731"><ele>13.8</ele><time>2026-03-30T07:20:35Z</time></trkpt><trkpt lat="14.635413961297065" lon="121.09953690158011"><ele>14.2</ele><time>2026-03-30T07:20:36Z</time></trkpt><trkpt lat="14.635389487363135" lon="121.09963095866678"><ele>14.6</ele><time>2026-03-30T07:20:37Z</time></trkpt><trkpt lat="14.635365126885317" lon="121.0997351803764"><ele>15.0</ele><time>2026-03-30T07:20:38Z</time></trkpt><trkpt lat="14.635345191197692" lon="121.0998490343632"><ele>14.5</ele><time>2026-03-30T07:20:39Z</time></trkpt><trkpt lat="14.635325941213589" lon="121.09996189680284"><ele>14.0</ele><time>2026-03-30T07:20:40Z</time></trkpt><trkpt lat="14.635304158657123" lon="121.10008239396934"><ele>13.5</ele><time>2026-03-30T07:20:41Z</time></trkpt><trkpt lat="14.635280459965696" lon="121.10021208774191"><ele>13.0</ele><time>2026-03-30T07:20:42Z</time></trkpt><trkpt lat="14.635253853013307" lon="121.10033814792482"><ele>13.0</ele><time>2026-03-30T07:20:43Z</time></trkpt><trkpt lat="14.635229580709883" lon="121.10046760140199"><ele>13.0</ele><time>2026-03-30T07:20:44Z</time></trkpt><trkpt lat="14.635205927224002" lon="121.10059160900202"><ele>13.0</ele><time>2026-03-30T07:20:45Z</time></trkpt><trkpt lat="14.635183423421068" lon="121.10071141177292"><ele>13.0</ele><time>2026-03-30T07:20:46Z</time></trkpt><trkpt lat="14.635164248078162" lon="121.10082584381706"><ele>13.0</ele><time>2026-03-30T07:20:47Z</time></trkpt><trkpt lat="14.635144574509555" lon="121.10094522860068"><ele>13.0</ele><time>2026-03-30T07:20:48Z</time></trkpt><trkpt lat="14.635121431539847" lon="121.10104527566214"><ele>13.0</ele><time>2026-03-30T07:20:49Z</time></trkpt><trkpt lat="14.635099090608163" lon="121.10114534949841"><ele>13.0</ele><time>2026-03-30T07:20:50Z</time></trkpt><trkpt lat="14.635079669435493" lon="121.10124728973749"><ele>13.0</ele><time>2026-03-30T07:20:51Z</time></trkpt><trkpt lat="14.635060539942453" lon="121.1013458092984"><ele>12.999999999999998</ele><time>2026-03-30T07:20:52Z</time></trkpt><trkpt lat="14.635040792601124" lon="121.1014318131107"><ele>13.0</ele><time>2026-03-30T07:20:53Z</time></trkpt><trkpt lat="14.635020530236703" lon="121.10150711603214"><ele>13.0</ele><time>2026-03-30T07:20:54Z</time></trkpt><trkpt lat="14.635002722359838" lon="121.10157736432701"><ele>13.0</ele><time>2026-03-30T07:20:55Z</time></trkpt><trkpt lat="14.634979034059548" lon="121.10168902835157"><ele>12.999999999999998</ele><time>2026-03-30T07:20:57Z</time></trkpt><trkpt lat="14.634955165787414" lon="121.1017645588204"><ele>13.0</ele><time>2026-03-30T07:20:59Z</time></trkpt><trkpt lat="14.634972242320332" lon="121.10185222604403"><ele>12.8</ele><time>2026-03-30T07:22:30Z</time></trkpt><trkpt lat="14.634964801155018" lon="121.101922199659"><ele>12.600000000000001</ele><time>2026-03-30T07:22:31Z</time></trkpt><trkpt lat="14.634943744187142" lon="121.10201291721013"><ele>12.399999999999999</ele><time>2026-03-30T07:22:32Z</time></trkpt><trkpt lat="14.634919666086097" lon="121.10211280092282"><ele>12.2</ele><time>2026-03-30T07:22:33Z</time></trkpt><trkpt lat="14.634886272983787" lon="121.10227041454898"><ele>12.0</ele><time>2026-03-30T07:22:35Z</time></trkpt><trkpt lat="14.634871522428629" lon="121.10236669350716"><ele>12.666666666666666</ele><time>2026-03-30T07:22:36Z</time></trkpt><trkpt lat="14.634859815494556" lon="121.10245761035478"><ele>13.333333333333332</ele><time>2026-03-30T07:22:37Z</time></trkpt><trkpt lat="14.634834571639173" lon="121.10253317225163"><ele>14.0</ele><time>2026-03-30T07:22:38Z</time></trkpt><trkpt lat="14.634822700595475" lon="121.10260216279494"><ele>14.666666666666666</ele><time>2026-03-30T07:22:39Z</time></trkpt><trkpt lat="14.634782167451206" lon="121.10271784471121"><ele>15.333333333333332</ele><time>2026-03-30T07:22:41Z</time></trkpt><trkpt lat="14.634764218964143" lon="121.102783412031"><ele>16.0</ele><time>2026-03-30T07:22:42Z</time></trkpt><trkpt lat="14.634747372935953" lon="121.10285818039097"><ele>16.0</ele><time>2026-03-30T07:22:43Z</time></trkpt><trkpt lat="14.634737749532174" lon="121.10294646944644"><ele>16.0</ele><time>2026-03-30T07:22:44Z</time></trkpt><trkpt lat="14.63471378578516" lon="121.10303766259293"><ele>16.0</ele><time>2026-03-30T07:22:45Z</time></trkpt><trkpt lat="14.634695435011038" lon="121.10313666942011"><ele>16.0</ele><time>2026-03-30T07:22:46Z</time></trkpt><trkpt lat="14.634679756698702" lon="121.10323650469361"><ele>16.0</ele><time>2026-03-30T07:22:47Z</time></trkpt><trkpt lat="14.63465857699886" lon="121.10332679114752"><ele>15.8</ele><time>2026-03-30T07:22:48Z</time></trkpt><trkpt lat="14.634645786145063" lon="121.10341907026671"><ele>15.600000000000001</ele><time>2026-03-30T07:22:49Z</time></trkpt><trkpt lat="14.63462438467995" lon="121.10351264210684"><ele>15.4</ele><time>2026-03-30T07:22:50Z</time></trkpt><trkpt lat="14.634603397695143" lon="121.10361502706442"><ele>15.2</ele><time>2026-03-30T07:22:51Z</time></trkpt><trkpt lat="14.634584356394283" lon="121.10371874115384"><ele>15.0</ele><time>2026-03-30T07:22:52Z</time></trkpt><trkpt lat="14.634555588234978" lon="121.1038251379336"><ele>15.0</ele><time>2026-03-30T07:22:53Z</time></trkpt><trkpt lat="14.63453180858112" lon="121.10393887987287"><ele>15.0</ele><time>2026-03-30T07:22:54Z</time></trkpt><trkpt lat="14.63450974662693" lon="121.10405436897594"><ele>15.0</ele><time>2026-03-30T07:22:55Z</time></trkpt><trkpt lat="14.634481844668452" lon="121.10417278251266"><ele>15.0</ele><time>2026-03-30T07:22:56Z</time></trkpt><trkpt lat="14.634452829919788" lon="121.10428962845268"><ele>15.5</ele><time>2026-03-30T07:22:57Z</time></trkpt><trkpt lat="14.63442933111834" lon="121.10441137892794"><ele>16.0</ele><time>2026-03-30T07:22:58Z</time></trkpt><trkpt lat="14.63440093422772" lon="121.10453690949602"><ele>16.5</ele><time>2026-03-30T07:22:59Z</time></trkpt><trkpt lat="14.634375277942704" lon="121.10466406502417"><ele>17.0</ele><time>2026-03-30T07:23:00Z</time></trkpt><trkpt lat="14.634351793940663" lon="121.10479534976996"><ele>16.25</ele><time>2026-03-30T07:23:01Z</time></trkpt><trkpt lat="14.634328424083865" lon="121.10492346972808"><ele>15.5</ele><time>2026-03-30T07:23:02Z</time></trkpt><trkpt lat="14.634308015223056" lon="121.1050545272015"><ele>14.75</ele><time>2026-03-30T07:23:03Z</time></trkpt><trkpt lat="14.634288039799097" lon="121.10517968839062"><ele>14.0</ele><time>2026-03-30T07:23:04Z</time></trkpt><trkpt lat="14.634259416211249" lon="121.10529009998903"><ele>14.0</ele><time>2026-03-30T07:23:05Z</time></trkpt><trkpt lat="14.634237504967205" lon="121.10539832335694"><ele>13.999999999999998</ele><time>2026-03-30T07:23:06Z</time></trkpt><trkpt lat="14.63421966637293" lon="121.10551115559328"><ele>13.999999999999998</ele><time>2026-03-30T07:23:07Z</time></trkpt><trkpt lat="14.634196468895434" lon="121.10561604934553"><ele>14.0</ele><time>2026-03-30T07:23:08Z</time></trkpt><trkpt lat="14.634172454406503" lon="121.10571972507452"><ele>14.0</ele><time>2026-03-30T07:23:09Z</time></trkpt><trkpt lat="14.634146212551585" lon="121.10581891107664"><ele>13.833333333333334</ele><time>2026-03-30T07:23:10Z</time></trkpt><trkpt lat="14.634123557084004" lon="121.10590642246363"><ele>13.666666666666668</ele><time>2026-03-30T07:23:11Z</time></trkpt><trkpt lat="14.634104589268913" lon="121.10597535267938"><ele>13.5</ele><time>2026-03-30T07:23:12Z</time></trkpt><trkpt lat="14.634075203097064" lon="121.10607173424742"><ele>13.333333333333332</ele><time>2026-03-30T07:23:14Z</time></trkpt><trkpt lat="14.6340833631839" lon="121.1061641398195"><ele>13.166666666666666</ele><time>2026-03-30T07:23:17Z</time></trkpt><trkpt lat="14.634070136735785" lon="121.10623854632142"><ele>13.0</ele><time>2026-03-30T07:24:50Z</time></trkpt><trkpt lat="14.634048843380441" lon="121.10637590210945"><ele>13.0</ele><time>2026-03-30T07:24:52Z</time></trkpt><trkpt lat="14.634034795925132" lon="121.10646464054796"><ele>13.0</ele><time>2026-03-30T07:24:53Z</time></trkpt><trkpt lat="14.634015434857975" lon="121.10657432705217"><ele>13.0</ele><time>2026-03-30T07:24:54Z</time></trkpt><trkpt lat="14.63399219719899" lon="121.10668472094639"><ele>13.0</ele><time>2026-03-30T07:24:55Z</time></trkpt><trkpt lat="14.633974927196027" lon="121.10680829428959"><ele>13.0</ele><time>2026-03-30T07:24:56Z</time></trkpt><trkpt lat="14.633947340001857" lon="121.10694077839138"><ele>13.0</ele><time>2026-03-30T07:24:57Z</time></trkpt><trkpt lat="14.633919314020648" lon="121.10708587937492"><ele>13.0</ele><time>2026-03-30T07:24:58Z</time></trkpt><trkpt lat="14.633889141630856" lon="121.10722732210951"><ele>13.0</ele><time>2026-03-30T07:24:59Z</time></trkpt><trkpt lat="14.633859210126005" lon="121.10736932297696"><ele>13.0</ele><time>2026-03-30T07:25:00Z</time></trkpt><trkpt lat="14.633834660138103" lon="121.1075122511484"><ele>13.0</ele><time>2026-03-30T07:25:01Z</time></trkpt><trkpt lat="14.633805552766377" lon="121.10764921916356"><ele>13.0</ele><time>2026-03-30T07:25:02Z</time></trkpt><trkpt lat="14.633777492585052" lon="121.10777809655258"><ele>13.0</ele><time>2026-03-30T07:25:03Z</time></trkpt><trkpt lat="14.63375024188453" lon="121.10790597574304"><ele>13.0</ele><time>2026-03-30T07:25:04Z</time></trkpt><trkpt lat="14.633723124062243" lon="121.10803238011326"><ele>13.0</ele><time>2026-03-30T07:25:05Z</time></trkpt><trkpt lat="14.633695774191176" lon="121.10814546087704"><ele>13.0</ele><time>2026-03-30T07:25:06Z</time></trkpt><trkpt lat="14.633668827037372" lon="121.10825411563751"><ele>13.0</ele><time>2026-03-30T07:25:07Z</time></trkpt><trkpt lat="14.633646216619614" lon="121.10834974435767"><ele>13.0</ele><time>2026-03-30T07:25:08Z</time></trkpt><trkpt lat="14.633629187437588" lon="121.10842712248495"><ele>13.0</ele><time>2026-03-30T07:25:09Z</time></trkpt><trkpt lat="14.633618698037013" lon="121.10849471479528"><ele>13.4</ele><time>2026-03-30T07:25:10Z</time></trkpt><trkpt lat="14.633603600772366" lon="121.10863520476204"><ele>13.8</ele><time>2026-03-30T07:25:12Z</time></trkpt><trkpt lat="14.633597921853914" lon="121.10872060058918"><ele>14.2</ele><time>2026-03-30T07:25:13Z</time></trkpt><trkpt lat="14.63358027641535" lon="121.10880523091446"><ele>14.6</ele><time>2026-03-30T07:25:14Z</time></trkpt><trkpt lat="14.633552656720553" lon="121.10890048727161"><ele>15.0</ele><time>2026-03-30T07:25:15Z</time></trkpt><trkpt lat="14.633527719839755" lon="121.10900777494778"><ele>15.25</ele><time>2026-03-30T07:25:16Z</time></trkpt><trkpt lat="14.633501826862863" lon="121.10912278180007"><ele>15.5</ele><time>2026-03-30T07:25:17Z</time></trkpt><trkpt lat="14.63347429773329" lon="121.10924401539692"><ele>15.75</ele><time>2026-03-30T07:25:18Z</time></trkpt><trkpt lat="14.633447878969337" lon="121.1093649298073"><ele>16.0</ele><time>2026-03-30T07:25:19Z</time></trkpt><trkpt lat="14.633423770956217" lon="121.10949514610546"><ele>16.0</ele><time>2026-03-30T07:25:20Z</time></trkpt><trkpt lat="14.633397212972776" lon="121.10962659164642"><ele>16.0</ele><time>2026-03-30T07:25:21Z</time></trkpt><trkpt lat="14.633372066284032" lon="121.10976370992354"><ele>16.0</ele><time>2026-03-30T07:25:22Z</time></trkpt><trkpt lat="14.633345504083374" lon="121.10989898267245"><ele>16.0</ele><time>2026-03-30T07:25:23Z</time></trkpt><trkpt lat="14.633317982538047" lon="121.11003812188103"><ele>15.75</ele><time>2026-03-30T07:25:24Z</time></trkpt><trkpt lat="14.633289581589993" lon="121.11018087261164"><ele>15.5</ele><time>2026-03-30T07:25:25Z</time></trkpt><trkpt lat="14.6332588575354" lon="121.11032282514059"><ele>15.25</ele><time>2026-03-30T07:25:26Z</time></trkpt><trkpt lat="14.633229844982282" lon="121.11046672842642"><ele>15.0</ele><time>2026-03-30T07:25:27Z</time></trkpt><trkpt lat="14.633200644293488" lon="121.11061070203105"><ele>15.0</ele><time>2026-03-30T07:25:28Z</time></trkpt><trkpt lat="14.633172964304277" lon="121.11075717404147"><ele>15.0</ele><time>2026-03-30T07:25:29Z</time></trkpt><trkpt lat="14.633143444842696" lon="121.1109052478584"><ele>15.0</ele><time>2026-03-30T07:25:30Z</time></trkpt><trkpt lat="14.633111535233848" lon="121.11105311647208"><ele>15.0</ele><time>2026-03-30T07:25:31Z</time></trkpt><trkpt lat="14.633082170155319" lon="121.1112037357816"><ele>15.0</ele><time>2026-03-30T07:25:32Z</time></trkpt><trkpt lat="14.6330518924038" lon="121.11135867525125"><ele>15.0</ele><time>2026-03-30T07:25:33Z</time></trkpt><trkpt lat="14.633021629282904" lon="121.11151165746115"><ele>15.0</ele><time>2026-03-30T07:25:34Z</time></trkpt><trkpt lat="14.63298566749313" lon="121.11165553907843"><ele>15.0</ele><time>2026-03-30T07:25:35Z</time></trkpt><trkpt lat="14.63296032922902" lon="121.11178964938959"><ele>14.5</ele><time>2026-03-30T07:25:36Z</time></trkpt><trkpt lat="14.63293660639132" lon="121.11192057110274"><ele>14.0</ele><time>2026-03-30T07:25:37Z</time></trkpt><trkpt lat="14.632909732642867" lon="121.11204900037015"><ele>13.5</ele><time>2026-03-30T07:25:38Z</time></trkpt><trkpt lat="14.63288319214505" lon="121.1121811321423"><ele>13.0</ele><time>2026-03-30T07:25:39Z</time></trkpt><trkpt lat="14.632857571093242" lon="121.11231597812332"><ele>13.0</ele><time>2026-03-30T07:25:40Z</time></trkpt><trkpt lat="14.63283043273192" lon="121.11245255496196"><ele>13.0</ele><time>2026-03-30T07:25:41Z</time></trkpt><trkpt lat="14.632801402115495" lon="121.11259179488687"><ele>13.0</ele><time>2026-03-30T07:25:42Z</time></trkpt><trkpt lat="14.632773257711998" lon="121.11272671755628"><ele>13.0</ele><time>2026-03-30T07:25:43Z</time></trkpt><trkpt lat="14.632745025355106" lon="121.11285368773724"><ele>13.0</ele><time>2026-03-30T07:25:44.001Z</time></trkpt><trkpt lat="14.632720225498618" lon="121.11296508378186"><ele>13.0</ele><time>2026-03-30T07:25:45.001Z</time></trkpt><trkpt lat="14.632696843758504" lon="121.1130715200048"><ele>13.0</ele><time>2026-03-30T07:25:46.001Z</time></trkpt><trkpt lat="14.632677145373501" lon="121.11316532645442"><ele>13.0</ele><time>2026-03-30T07:25:47.001Z</time></trkpt><trkpt lat="14.632660739192815" lon="121.11325143275054"><ele>13.0</ele><time>2026-03-30T07:25:48.001Z</time></trkpt><trkpt lat="14.632646323084778" lon="121.11333727463776"><ele>13.2</ele><time>2026-03-30T07:25:49.001Z</time></trkpt><trkpt lat="14.632631711841727" lon="121.11342995894123"><ele>13.4</ele><time>2026-03-30T07:25:50.001Z</time></trkpt><trkpt lat="14.632607920641256" lon="121.11352343690474"><ele>13.599999999999998</ele><time>2026-03-30T07:25:51.001Z</time></trkpt><trkpt lat="14.632581648752431" lon="121.11360979689756"><ele>13.799999999999999</ele><time>2026-03-30T07:25:52.001Z</time></trkpt><trkpt lat="14.632560531219442" lon="121.113698437629"><ele>14.0</ele><time>2026-03-30T07:25:53.001Z</time></trkpt><trkpt lat="14.63254021117481" lon="121.11379215546923"><ele>14.000000000000002</ele><time>2026-03-30T07:25:54.001Z</time></trkpt><trkpt lat="14.63252012195616" lon="121.11389670071638"><ele>14.0</ele><time>2026-03-30T07:25:55.001Z</time></trkpt><trkpt lat="14.632499270201786" lon="121.11399779717924"><ele>14.0</ele><time>2026-03-30T07:25:56.001Z</time></trkpt><trkpt lat="14.632481274499296" lon="121.1140870403889"><ele>14.0</ele><time>2026-03-30T07:25:57.001Z</time></trkpt><trkpt lat="14.632465317061698" lon="121.11416806047153"><ele>14.000000000000002</ele><time>2026-03-30T07:25:58.001Z</time></trkpt><trkpt lat="14.632456303484302" lon="121.11423845821668"><ele>14.0</ele><time>2026-03-30T07:25:59.001Z</time></trkpt><trkpt lat="14.63244196354922" lon="121.11432106841922"><ele>14.000000000000002</ele><time>2026-03-30T07:26:00.001Z</time></trkpt><trkpt lat="14.632435209419498" lon="121.11440249552716"><ele>14.0</ele><time>2026-03-30T07:26:01.001Z</time></trkpt><trkpt lat="14.632419020064015" lon="121.114486259614"><ele>14.0</ele><time>2026-03-30T07:26:02.001Z</time></trkpt><trkpt lat="14.632398711831387" lon="121.11456164959301"><ele>14.0</ele><time>2026-03-30T07:26:03.001Z</time></trkpt><trkpt lat="14.632388637522434" lon="121.11463461278403"><ele>14.000000000000002</ele><time>2026-03-30T07:26:04.001Z</time></trkpt><trkpt lat="14.632374177641326" lon="121.11471787913415"><ele>14.0</ele><time>2026-03-30T07:26:05.001Z</time></trkpt><trkpt lat="14.632356626863283" lon="121.11479962170912"><ele>14.0</ele><time>2026-03-30T07:26:06.001Z</time></trkpt><trkpt lat="14.6323378020365" lon="121.11489070613617"><ele>13.999999999999998</ele><time>2026-03-30T07:26:07.001Z</time></trkpt><trkpt lat="14.632317183215147" lon="121.11497744632572"><ele>13.999999999999998</ele><time>2026-03-30T07:26:08.001Z</time></trkpt><trkpt lat="14.632295726544324" lon="121.11507034640596"><ele>14.0</ele><time>2026-03-30T07:26:08.999Z</time></trkpt><trkpt lat="14.632277392142838" lon="121.11516511437569"><ele>14.0</ele><time>2026-03-30T07:26:09.999Z</time></trkpt><trkpt lat="14.632258778416379" lon="121.1152593994133"><ele>14.166666666666668</ele><time>2026-03-30T07:26:10.999Z</time></trkpt><trkpt lat="14.632236786793756" lon="121.1153384094701"><ele>14.333333333333334</ele><time>2026-03-30T07:26:11.999Z</time></trkpt><trkpt lat="14.632216440108712" lon="121.11541364555744"><ele>14.5</ele><time>2026-03-30T07:26:12.999Z</time></trkpt><trkpt lat="14.63219906595616" lon="121.11549543178904"><ele>14.666666666666668</ele><time>2026-03-30T07:26:13.999Z</time></trkpt><trkpt lat="14.63218932892706" lon="121.11559686631061"><ele>14.833333333333334</ele><time>2026-03-30T07:26:14.999Z</time></trkpt><trkpt lat="14.632178177889077" lon="121.11569659161228"><ele>15.0</ele><time>2026-03-30T07:26:15.999Z</time></trkpt><trkpt lat="14.632156711893057" lon="121.11580715928662"><ele>15.25</ele><time>2026-03-30T07:26:16.999Z</time></trkpt><trkpt lat="14.632130787141007" lon="121.11591482401167"><ele>15.5</ele><time>2026-03-30T07:26:17.999Z</time></trkpt><trkpt lat="14.632100359584266" lon="121.11602864578626"><ele>15.75</ele><time>2026-03-30T07:26:18.999Z</time></trkpt><trkpt lat="14.632062507526879" lon="121.11614892301749"><ele>16.0</ele><time>2026-03-30T07:26:19.999Z</time></trkpt><trkpt lat="14.632012106827142" lon="121.11626752008297"><ele>15.75</ele><time>2026-03-30T07:26:20.999Z</time></trkpt><trkpt lat="14.63195168739187" lon="121.11638492347143"><ele>15.5</ele><time>2026-03-30T07:26:21.999Z</time></trkpt><trkpt lat="14.63188469078254" lon="121.1165021533079"><ele>15.25</ele><time>2026-03-30T07:26:22.999Z</time></trkpt><trkpt lat="14.631812979886035" lon="121.11661792707648"><ele>15.0</ele><time>2026-03-30T07:26:23.999Z</time></trkpt><trkpt lat="14.631743272695275" lon="121.11672971285064"><ele>15.4</ele><time>2026-03-30T07:26:24.999Z</time></trkpt><trkpt lat="14.63168303344381" lon="121.11682604135473"><ele>15.8</ele><time>2026-03-30T07:26:26Z</time></trkpt><trkpt lat="14.631622856485379" lon="121.11691984044647"><ele>16.2</ele><time>2026-03-30T07:26:27Z</time></trkpt><trkpt lat="14.631568900244503" lon="121.11701840028944"><ele>16.6</ele><time>2026-03-30T07:26:28Z</time></trkpt><trkpt lat="14.631516324694477" lon="121.11710685002876"><ele>17.0</ele><time>2026-03-30T07:26:29Z</time></trkpt><trkpt lat="14.631465397312718" lon="121.11718523298491"><ele>16.999999999999996</ele><time>2026-03-30T07:26:30Z</time></trkpt><trkpt lat="14.631417919552929" lon="121.11725536515493"><ele>17.0</ele><time>2026-03-30T07:26:31Z</time></trkpt><trkpt lat="14.631376169100985" lon="121.11731834175836"><ele>17.0</ele><time>2026-03-30T07:26:32Z</time></trkpt><trkpt lat="14.631339123435767" lon="121.11737953551291"><ele>17.0</ele><time>2026-03-30T07:26:33Z</time></trkpt><trkpt lat="14.631305000502707" lon="121.11744361690131"><ele>17.0</ele><time>2026-03-30T07:26:34Z</time></trkpt><trkpt lat="14.631268107343088" lon="121.11750875300748"><ele>16.999999999999996</ele><time>2026-03-30T07:26:35Z</time></trkpt><trkpt lat="14.631227096727828" lon="121.11757764414519"><ele>17.0</ele><time>2026-03-30T07:26:36Z</time></trkpt><trkpt lat="14.631185700520005" lon="121.11764585486114"><ele>17.8</ele><time>2026-03-30T07:26:37Z</time></trkpt><trkpt lat="14.631136852008675" lon="121.11772274350855"><ele>18.6</ele><time>2026-03-30T07:26:38Z</time></trkpt><trkpt lat="14.631081802813007" lon="121.11779898473952"><ele>19.400000000000002</ele><time>2026-03-30T07:26:39Z</time></trkpt><trkpt lat="14.631018926144272" lon="121.11788452527655"><ele>20.2</ele><time>2026-03-30T07:26:40Z</time></trkpt><trkpt lat="14.630958137746836" lon="121.11797747208448"><ele>21.0</ele><time>2026-03-30T07:26:41Z</time></trkpt><trkpt lat="14.630897130360424" lon="121.11807114865076"><ele>21.0</ele><time>2026-03-30T07:26:42Z</time></trkpt><trkpt lat="14.63083254494349" lon="121.11816626146724"><ele>21.0</ele><time>2026-03-30T07:26:43Z</time></trkpt><trkpt lat="14.630772325801692" lon="121.11826362166616"><ele>21.0</ele><time>2026-03-30T07:26:44Z</time></trkpt><trkpt lat="14.630711258546325" lon="121.11835843546619"><ele>21.0</ele><time>2026-03-30T07:26:45Z</time></trkpt><trkpt lat="14.63065998963978" lon="121.11843807253565"><ele>21.0</ele><time>2026-03-30T07:26:46Z</time></trkpt><trkpt lat="14.63061403305473" lon="121.11851340193986"><ele>20.833333333333332</ele><time>2026-03-30T07:26:47Z</time></trkpt><trkpt lat="14.630573613335997" lon="121.11858107921806"><ele>20.666666666666668</ele><time>2026-03-30T07:26:48Z</time></trkpt><trkpt lat="14.63053720833145" lon="121.11863706774317"><ele>20.5</ele><time>2026-03-30T07:26:49Z</time></trkpt><trkpt lat="14.630478503865067" lon="121.11873624503366"><ele>20.333333333333336</ele><time>2026-03-30T07:26:51Z</time></trkpt><trkpt lat="14.630445480188044" lon="121.11879722463021"><ele>20.166666666666668</ele><time>2026-03-30T07:26:53Z</time></trkpt><trkpt lat="14.63041389824797" lon="121.11885718807511"><ele>20.0</ele><time>2026-03-30T07:26:55Z</time></trkpt><trkpt lat="14.630361572744121" lon="121.11893548083019"><ele>19.833333333333336</ele><time>2026-03-30T07:26:57Z</time></trkpt><trkpt lat="14.630297857258004" lon="121.11904087809522"><ele>19.666666666666668</ele><time>2026-03-30T07:26:59Z</time></trkpt><trkpt lat="14.630260811607501" lon="121.11910440669227"><ele>19.5</ele><time>2026-03-30T07:27:00Z</time></trkpt><trkpt lat="14.630218854011824" lon="121.11917285124427"><ele>19.333333333333332</ele><time>2026-03-30T07:27:01Z</time></trkpt><trkpt lat="14.630176542111931" lon="121.11924204784358"><ele>19.166666666666664</ele><time>2026-03-30T07:27:02Z</time></trkpt><trkpt lat="14.630131316175056" lon="121.11931479672339"><ele>19.0</ele><time>2026-03-30T07:27:03Z</time></trkpt><trkpt lat="14.630090773363415" lon="121.1193795093594"><ele>19.0</ele><time>2026-03-30T07:27:04Z</time></trkpt><trkpt lat="14.630053098903524" lon="121.11944078195725"><ele>19.0</ele><time>2026-03-30T07:27:05Z</time></trkpt><trkpt lat="14.630012412911393" lon="121.1194984731661"><ele>19.0</ele><time>2026-03-30T07:27:06Z</time></trkpt><trkpt lat="14.629974347811528" lon="121.11955607089624"><ele>19.0</ele><time>2026-03-30T07:27:07Z</time></trkpt><trkpt lat="14.629935301884565" lon="121.11961936546733"><ele>19.0</ele><time>2026-03-30T07:27:08Z</time></trkpt><trkpt lat="14.629889939339371" lon="121.11968789103854"><ele>19.0</ele><time>2026-03-30T07:27:09Z</time></trkpt><trkpt lat="14.629839680509873" lon="121.11976336178199"><ele>19.0</ele><time>2026-03-30T07:27:10Z</time></trkpt><trkpt lat="14.629796963402365" lon="121.11983919753885"><ele>19.5</ele><time>2026-03-30T07:27:11Z</time></trkpt><trkpt lat="14.629760566368839" lon="121.11990456290003"><ele>20.0</ele><time>2026-03-30T07:27:12Z</time></trkpt><trkpt lat="14.629727810917649" lon="121.11996471820144"><ele>20.5</ele><time>2026-03-30T07:27:13Z</time></trkpt><trkpt lat="14.629687731267696" lon="121.12005066232676"><ele>21.0</ele><time>2026-03-30T07:27:15Z</time></trkpt><trkpt lat="14.62964171667002" lon="121.12013237017182"><ele>21.5</ele><time>2026-03-30T07:27:17Z</time></trkpt><trkpt lat="14.62960048688429" lon="121.12020588838443"><ele>22.0</ele><time>2026-03-30T07:27:19Z</time></trkpt><trkpt lat="14.629557722156425" lon="121.12031475286955"><ele>22.0</ele><time>2026-03-30T07:27:21Z</time></trkpt><trkpt lat="14.629515595684527" lon="121.12042355653497"><ele>22.0</ele><time>2026-03-30T07:27:23Z</time></trkpt><trkpt lat="14.629497710995224" lon="121.12048618257624"><ele>22.0</ele><time>2026-03-30T07:27:24Z</time></trkpt><trkpt lat="14.629464847225604" lon="121.12061146022496"><ele>22.0</ele><time>2026-03-30T07:27:26Z</time></trkpt><trkpt lat="14.629451921459241" lon="121.12067742208691"><ele>22.0</ele><time>2026-03-30T07:27:27Z</time></trkpt><trkpt lat="14.629429622859016" lon="121.1207999029455"><ele>22.0</ele><time>2026-03-30T07:27:29Z</time></trkpt><trkpt lat="14.629408831857686" lon="121.1209084387091"><ele>22.0</ele><time>2026-03-30T07:27:31Z</time></trkpt><trkpt lat="14.629396067449196" lon="121.1209859630614"><ele>22.0</ele><time>2026-03-30T07:27:33Z</time></trkpt><trkpt lat="14.629377968746962" lon="121.12105727026163"><ele>22.0</ele><time>2026-03-30T07:27:35.001Z</time></trkpt><trkpt lat="14.629363153688619" lon="121.12113386300543"><ele>22.0</ele><time>2026-03-30T07:27:37.001Z</time></trkpt><trkpt lat="14.62934795574165" lon="121.12121773166814"><ele>22.0</ele><time>2026-03-30T07:27:39.001Z</time></trkpt><trkpt lat="14.629329166920302" lon="121.12131125341418"><ele>22.0</ele><time>2026-03-30T07:27:41.001Z</time></trkpt><trkpt lat="14.629314921346907" lon="121.12140825793647"><ele>22.0</ele><time>2026-03-30T07:27:43.001Z</time></trkpt><trkpt lat="14.629301617251793" lon="121.1215116338735"><ele>22.0</ele><time>2026-03-30T07:27:45.001Z</time></trkpt><trkpt lat="14.629283906710027" lon="121.12162935118988"><ele>22.0</ele><time>2026-03-30T07:27:47.001Z</time></trkpt><trkpt lat="14.62926961180143" lon="121.12173890940903"><ele>22.0</ele><time>2026-03-30T07:27:49.001Z</time></trkpt><trkpt lat="14.629266928747066" lon="121.12182390964664"><ele>22.0</ele><time>2026-03-30T07:27:51.001Z</time></trkpt><trkpt lat="14.629284580787292" lon="121.12189978314439"><ele>22.0</ele><time>2026-03-30T07:27:54.001Z</time></trkpt><trkpt lat="14.629326025115384" lon="121.12196221445502"><ele>22.0</ele><time>2026-03-30T07:27:57.001Z</time></trkpt><trkpt lat="14.629434247505438" lon="121.12194481336462"><ele>22.0</ele><time>2026-03-30T07:27:59.001Z</time></trkpt><trkpt lat="14.629496806173606" lon="121.1219316076281"><ele>22.0</ele><time>2026-03-30T07:28:00.001Z</time></trkpt><trkpt lat="14.629567972968783" lon="121.12192588053257"><ele>22.0</ele><time>2026-03-30T07:28:01.001Z</time></trkpt><trkpt lat="14.62965269865777" lon="121.12191305068468"><ele>21.400000000000002</ele><time>2026-03-30T07:28:02.001Z</time></trkpt><trkpt lat="14.62975575665831" lon="121.1218976997733"><ele>20.8</ele><time>2026-03-30T07:28:03.001Z</time></trkpt><trkpt lat="14.629863351481722" lon="121.12188372006449"><ele>20.2</ele><time>2026-03-30T07:28:04.001Z</time></trkpt><trkpt lat="14.629979414104609" lon="121.1218779961761"><ele>19.6</ele><time>2026-03-30T07:28:05.001Z</time></trkpt><trkpt lat="14.63009513755518" lon="121.1218720462973"><ele>19.0</ele><time>2026-03-30T07:28:06.001Z</time></trkpt><trkpt lat="14.630209031759339" lon="121.12186972235202"><ele>18.8</ele><time>2026-03-30T07:28:07.001Z</time></trkpt><trkpt lat="14.630313596672748" lon="121.1218648198628"><ele>18.599999999999998</ele><time>2026-03-30T07:28:08.001Z</time></trkpt><trkpt lat="14.630406898828776" lon="121.12185459146407"><ele>18.4</ele><time>2026-03-30T07:28:09.001Z</time></trkpt><trkpt lat="14.63050421343967" lon="121.12184911244933"><ele>18.2</ele><time>2026-03-30T07:28:10.001Z</time></trkpt><trkpt lat="14.630602183310968" lon="121.12184052577153"><ele>18.0</ele><time>2026-03-30T07:28:11.001Z</time></trkpt><trkpt lat="14.630694556919538" lon="121.1218336442344"><ele>18.0</ele><time>2026-03-30T07:28:12.001Z</time></trkpt><trkpt lat="14.630783318505188" lon="121.1218222660921"><ele>18.0</ele><time>2026-03-30T07:28:13.001Z</time></trkpt><trkpt lat="14.630871187344141" lon="121.12180826042231"><ele>18.0</ele><time>2026-03-30T07:28:14.001Z</time></trkpt><trkpt lat="14.63095719141583" lon="121.12180035616173"><ele>18.0</ele><time>2026-03-30T07:28:15Z</time></trkpt><trkpt lat="14.631038710581153" lon="121.12179530887204"><ele>18.0</ele><time>2026-03-30T07:28:16Z</time></trkpt><trkpt lat="14.631143946083203" lon="121.12179009746907"><ele>17.75</ele><time>2026-03-30T07:28:18Z</time></trkpt><trkpt lat="14.631284851024878" lon="121.12176695401693"><ele>17.5</ele><time>2026-03-30T07:28:20Z</time></trkpt><trkpt lat="14.631385032120644" lon="121.12175469514841"><ele>17.25</ele><time>2026-03-30T07:28:21Z</time></trkpt><trkpt lat="14.631491426137973" lon="121.12175129414757"><ele>17.0</ele><time>2026-03-30T07:28:22Z</time></trkpt><trkpt lat="14.631597825912932" lon="121.12175172640936"><ele>17.0</ele><time>2026-03-30T07:28:23Z</time></trkpt><trkpt lat="14.631708592755501" lon="121.1217509515384"><ele>17.0</ele><time>2026-03-30T07:28:24Z</time></trkpt><trkpt lat="14.63180576459873" lon="121.12174202699816"><ele>17.0</ele><time>2026-03-30T07:28:25Z</time></trkpt><trkpt lat="14.631899829983265" lon="121.12173213831609"><ele>17.0</ele><time>2026-03-30T07:28:26Z</time></trkpt><trkpt lat="14.631996107189538" lon="121.1217225909061"><ele>17.0</ele><time>2026-03-30T07:28:27Z</time></trkpt><trkpt lat="14.632097122111535" lon="121.12171199788062"><ele>16.8</ele><time>2026-03-30T07:28:28Z</time></trkpt><trkpt lat="14.632199980894656" lon="121.1217053360457"><ele>16.6</ele><time>2026-03-30T07:28:29Z</time></trkpt><trkpt lat="14.632307612467665" lon="121.12170075238019"><ele>16.400000000000002</ele><time>2026-03-30T07:28:30Z</time></trkpt><trkpt lat="14.632416384832634" lon="121.12169143775385"><ele>16.2</ele><time>2026-03-30T07:28:31Z</time></trkpt><trkpt lat="14.632524621427208" lon="121.1216819191748"><ele>16.0</ele><time>2026-03-30T07:28:32Z</time></trkpt><trkpt lat="14.63263000763067" lon="121.1216650591436"><ele>16.0</ele><time>2026-03-30T07:28:33Z</time></trkpt><trkpt lat="14.632737423991848" lon="121.12165879404091"><ele>16.0</ele><time>2026-03-30T07:28:34Z</time></trkpt><trkpt lat="14.63282548010983" lon="121.12165156540475"><ele>16.0</ele><time>2026-03-30T07:28:35Z</time></trkpt><trkpt lat="14.632921954104255" lon="121.12164641219672"><ele>16.0</ele><time>2026-03-30T07:28:36Z</time></trkpt><trkpt lat="14.633022436259036" lon="121.12164279706087"><ele>16.0</ele><time>2026-03-30T07:28:37Z</time></trkpt><trkpt lat="14.633099429041517" lon="121.12163274500507"><ele>16.166666666666664</ele><time>2026-03-30T07:28:38Z</time></trkpt><trkpt lat="14.633171934899392" lon="121.12162917837846"><ele>16.333333333333332</ele><time>2026-03-30T07:28:39Z</time></trkpt><trkpt lat="14.633238212605566" lon="121.12162222829477"><ele>16.5</ele><time>2026-03-30T07:28:40Z</time></trkpt><trkpt lat="14.63331552810271" lon="121.12161988546109"><ele>16.666666666666668</ele><time>2026-03-30T07:28:41Z</time></trkpt><trkpt lat="14.633386421215205" lon="121.12161834896021"><ele>16.833333333333336</ele><time>2026-03-30T07:28:42Z</time></trkpt><trkpt lat="14.63350180943514" lon="121.12160621373896"><ele>17.0</ele><time>2026-03-30T07:28:44Z</time></trkpt><trkpt lat="14.633630261836847" lon="121.12161033050434"><ele>17.0</ele><time>2026-03-30T07:28:46Z</time></trkpt><trkpt lat="14.633704469364247" lon="121.12160489723743"><ele>17.0</ele><time>2026-03-30T07:28:47Z</time></trkpt><trkpt lat="14.633777783388023" lon="121.12159007966949"><ele>17.0</ele><time>2026-03-30T07:28:48Z</time></trkpt><trkpt lat="14.633854580640978" lon="121.1215758986996"><ele>17.0</ele><time>2026-03-30T07:28:49Z</time></trkpt><trkpt lat="14.63393007723031" lon="121.12156648901616"><ele>17.0</ele><time>2026-03-30T07:28:50Z</time></trkpt><trkpt lat="14.634012991292025" lon="121.12156668894288"><ele>17.0</ele><time>2026-03-30T07:28:51Z</time></trkpt><trkpt lat="14.634138800189907" lon="121.12155499230022"><ele>17.0</ele><time>2026-03-30T07:28:53Z</time></trkpt><trkpt lat="14.634209610489886" lon="121.1215549270792"><ele>17.0</ele><time>2026-03-30T07:28:54Z</time></trkpt><trkpt lat="14.634273925867397" lon="121.12155065725422"><ele>17.0</ele><time>2026-03-30T07:28:55Z</time></trkpt><trkpt lat="14.634388516532322" lon="121.1215437362144"><ele>17.0</ele><time>2026-03-30T07:28:57Z</time></trkpt><trkpt lat="14.634458752707603" lon="121.12153083241924"><ele>17.0</ele><time>2026-03-30T07:28:58Z</time></trkpt><trkpt lat="14.634525875529723" lon="121.12151497637863"><ele>17.0</ele><time>2026-03-30T07:28:59Z</time></trkpt><trkpt lat="14.634650761690335" lon="121.12150438823188"><ele>17.6</ele><time>2026-03-30T07:29:01Z</time></trkpt><trkpt lat="14.634783986648035" lon="121.12149311286974"><ele>18.2</ele><time>2026-03-30T07:29:03Z</time></trkpt><trkpt lat="14.634855532294784" lon="121.12149081410364"><ele>18.8</ele><time>2026-03-30T07:29:04Z</time></trkpt><trkpt lat="14.634969698873665" lon="121.12148911275622"><ele>19.4</ele><time>2026-03-30T07:29:06Z</time></trkpt><trkpt lat="14.635032645809442" lon="121.12148056360518"><ele>20.0</ele><time>2026-03-30T07:29:07Z</time></trkpt><trkpt lat="14.635132286426725" lon="121.1214815989633"><ele>20.0</ele><time>2026-03-30T07:29:09Z</time></trkpt><trkpt lat="14.635234324943276" lon="121.1214703219455"><ele>20.0</ele><time>2026-03-30T07:29:11Z</time></trkpt><trkpt lat="14.635338043437294" lon="121.12145406612557"><ele>20.0</ele><time>2026-03-30T07:29:13Z</time></trkpt><trkpt lat="14.635429727697318" lon="121.12144253233112"><ele>20.0</ele><time>2026-03-30T07:29:16Z</time></trkpt><trkpt lat="14.635496740940187" lon="121.12144292197624"><ele>20.0</ele><time>2026-03-30T07:29:18Z</time></trkpt><trkpt lat="14.6355655312982" lon="121.12144483892425"><ele>20.0</ele><time>2026-03-30T07:29:20Z</time></trkpt><trkpt lat="14.635645798713806" lon="121.12144308821941"><ele>19.6</ele><time>2026-03-30T07:29:22Z</time></trkpt><trkpt lat="14.635760479477163" lon="121.12144284233047"><ele>19.2</ele><time>2026-03-30T07:29:24Z</time></trkpt><trkpt lat="14.635859102563696" lon="121.12145739940766"><ele>18.8</ele><time>2026-03-30T07:29:26.001Z</time></trkpt><trkpt lat="14.635941054247072" lon="121.1214639786015"><ele>18.4</ele><time>2026-03-30T07:29:28.001Z</time></trkpt><trkpt lat="14.63600368260198" lon="121.1214713235658"><ele>18.0</ele><time>2026-03-30T07:29:29.001Z</time></trkpt><trkpt lat="14.636115081629082" lon="121.12148797530244"><ele>18.0</ele><time>2026-03-30T07:29:31.001Z</time></trkpt><trkpt lat="14.636192116929982" lon="121.12149680416273"><ele>18.0</ele><time>2026-03-30T07:29:34.001Z</time></trkpt><trkpt lat="14.636302303446074" lon="121.12150289615697"><ele>18.0</ele><time>2026-03-30T07:29:36.001Z</time></trkpt><trkpt lat="14.636373953211178" lon="121.12151003876724"><ele>18.0</ele><time>2026-03-30T07:29:37.001Z</time></trkpt><trkpt lat="14.636483609001006" lon="121.12152186592337"><ele>18.0</ele><time>2026-03-30T07:29:39.001Z</time></trkpt><trkpt lat="14.636602524652854" lon="121.12152822654416"><ele>18.000000000000004</ele><time>2026-03-30T07:29:41.001Z</time></trkpt><trkpt lat="14.63668182452577" lon="121.12153561420398"><ele>18.0</ele><time>2026-03-30T07:29:43.001Z</time></trkpt><trkpt lat="14.636749177518636" lon="121.12154054165569"><ele>18.0</ele><time>2026-03-30T07:29:45.001Z</time></trkpt><trkpt lat="14.636840905370486" lon="121.12153989019419"><ele>18.0</ele><time>2026-03-30T07:29:47.001Z</time></trkpt><trkpt lat="14.636908233222517" lon="121.12153705937733"><ele>18.0</ele><time>2026-03-30T07:29:48.001Z</time></trkpt><trkpt lat="14.636975289832215" lon="121.1215414185363"><ele>18.000000000000004</ele><time>2026-03-30T07:29:49.001Z</time></trkpt><trkpt lat="14.637041583039787" lon="121.12154492107639"><ele>18.0</ele><time>2026-03-30T07:29:50.001Z</time></trkpt><trkpt lat="14.637110855370437" lon="121.12155796097849"><ele>18.0</ele><time>2026-03-30T07:29:51.001Z</time></trkpt><trkpt lat="14.637234131933566" lon="121.12157423288733"><ele>18.0</ele><time>2026-03-30T07:29:53.001Z</time></trkpt><trkpt lat="14.63732535506073" lon="121.12158250368157"><ele>18.0</ele><time>2026-03-30T07:29:55.001Z</time></trkpt><trkpt lat="14.637417499846666" lon="121.12159611954367"><ele>18.0</ele><time>2026-03-30T07:29:57.001Z</time></trkpt><trkpt lat="14.63748109425027" lon="121.12160274593292"><ele>18.0</ele><time>2026-03-30T07:29:59.001Z</time></trkpt><trkpt lat="14.637557076937428" lon="121.12162019873888"><ele>18.0</ele><time>2026-03-30T07:30:04.001Z</time></trkpt><trkpt lat="14.63763835652731" lon="121.12163331016066"><ele>18.0</ele><time>2026-03-30T07:30:07.001Z</time></trkpt><trkpt lat="14.637704578660012" lon="121.12164035418478"><ele>18.0</ele><time>2026-03-30T07:30:10.001Z</time></trkpt><trkpt lat="14.637784133615085" lon="121.12163926270485"><ele>18.0</ele><time>2026-03-30T07:30:13.001Z</time></trkpt><trkpt lat="14.637896983148789" lon="121.1216306798658"><ele>18.0</ele><time>2026-03-30T07:30:16.001Z</time></trkpt><trkpt lat="14.637959715197631" lon="121.1216450408577"><ele>18.0</ele><time>2026-03-30T07:30:17.001Z</time></trkpt><trkpt lat="14.63805493680677" lon="121.12165479542257"><ele>18.6</ele><time>2026-03-30T07:30:19.001Z</time></trkpt><trkpt lat="14.638137149587385" lon="121.1216664918297"><ele>19.200000000000003</ele><time>2026-03-30T07:30:21Z</time></trkpt><trkpt lat="14.638255190174513" lon="121.12169078881169"><ele>19.8</ele><time>2026-03-30T07:30:23Z</time></trkpt><trkpt lat="14.638376714964156" lon="121.12170857777005"><ele>20.400000000000002</ele><time>2026-03-30T07:30:25Z</time></trkpt><trkpt lat="14.63844848518695" lon="121.12171202313604"><ele>21.0</ele><time>2026-03-30T07:30:26Z</time></trkpt><trkpt lat="14.638527287184" lon="121.12171953584604"><ele>21.0</ele><time>2026-03-30T07:30:27Z</time></trkpt><trkpt lat="14.638610135256824" lon="121.12172882204116"><ele>21.0</ele><time>2026-03-30T07:30:28Z</time></trkpt><trkpt lat="14.638687406927625" lon="121.12174126008689"><ele>21.0</ele><time>2026-03-30T07:30:29Z</time></trkpt><trkpt lat="14.638770185741626" lon="121.1217477783997"><ele>21.0</ele><time>2026-03-30T07:30:30Z</time></trkpt><trkpt lat="14.638855360071085" lon="121.12175460890457"><ele>21.0</ele><time>2026-03-30T07:30:31Z</time></trkpt><trkpt lat="14.638937238687461" lon="121.12176449786539"><ele>21.0</ele><time>2026-03-30T07:30:32Z</time></trkpt><trkpt lat="14.639017754791192" lon="121.12177543593702"><ele>21.0</ele><time>2026-03-30T07:30:33Z</time></trkpt><trkpt lat="14.639083681684365" lon="121.12178436135837"><ele>21.0</ele><time>2026-03-30T07:30:34Z</time></trkpt><trkpt lat="14.639146790896179" lon="121.12179194206969"><ele>21.0</ele><time>2026-03-30T07:30:35Z</time></trkpt><trkpt lat="14.63926280095874" lon="121.1218041892873"><ele>21.0</ele><time>2026-03-30T07:30:37Z</time></trkpt><trkpt lat="14.639382653065582" lon="121.12181305651455"><ele>21.0</ele><time>2026-03-30T07:30:39Z</time></trkpt><trkpt lat="14.639500278458282" lon="121.1218286585697"><ele>20.833333333333332</ele><time>2026-03-30T07:30:41Z</time></trkpt><trkpt lat="14.639616077022959" lon="121.12184489687033"><ele>20.666666666666668</ele><time>2026-03-30T07:30:43Z</time></trkpt><trkpt lat="14.63968179454691" lon="121.12185557201704"><ele>20.5</ele><time>2026-03-30T07:30:44Z</time></trkpt><trkpt lat="14.639753588983746" lon="121.12186047438202"><ele>20.333333333333336</ele><time>2026-03-30T07:30:45Z</time></trkpt><trkpt lat="14.639819720730578" lon="121.12186726941238"><ele>20.166666666666668</ele><time>2026-03-30T07:30:46Z</time></trkpt><trkpt lat="14.639885076824049" lon="121.12187476561982"><ele>20.0</ele><time>2026-03-30T07:30:47Z</time></trkpt><trkpt lat="14.639989387543512" lon="121.12188581918916"><ele>20.0</ele><time>2026-03-30T07:30:49Z</time></trkpt><trkpt lat="14.640071785438533" lon="121.12189652620536"><ele>20.0</ele><time>2026-03-30T07:30:51Z</time></trkpt><trkpt lat="14.64013485659903" lon="121.12190069345158"><ele>20.0</ele><time>2026-03-30T07:30:53Z</time></trkpt><trkpt lat="14.64022879973965" lon="121.12190531289788"><ele>20.0</ele><time>2026-03-30T07:30:56Z</time></trkpt><trkpt lat="14.640292413855196" lon="121.12192220069889"><ele>20.0</ele><time>2026-03-30T07:30:59Z</time></trkpt><trkpt lat="14.64035726787828" lon="121.1219387840306"><ele>20.0</ele><time>2026-03-30T07:31:02Z</time></trkpt><trkpt lat="14.64045310555752" lon="121.12194447834571"><ele>20.2</ele><time>2026-03-30T07:31:05Z</time></trkpt><trkpt lat="14.640578973701967" lon="121.12195496856943"><ele>20.4</ele><time>2026-03-30T07:31:07Z</time></trkpt><trkpt lat="14.640656591621653" lon="121.12195998839356"><ele>20.6</ele><time>2026-03-30T07:31:08Z</time></trkpt><trkpt lat="14.640747555947112" lon="121.12196130310664"><ele>20.8</ele><time>2026-03-30T07:31:09Z</time></trkpt><trkpt lat="14.640847043291139" lon="121.12196597312467"><ele>21.0</ele><time>2026-03-30T07:31:10Z</time></trkpt><trkpt lat="14.640951665513574" lon="121.12197891245918"><ele>21.0</ele><time>2026-03-30T07:31:11Z</time></trkpt><trkpt lat="14.641049482584238" lon="121.12199062629493"><ele>21.0</ele><time>2026-03-30T07:31:12Z</time></trkpt><trkpt lat="14.641140304977482" lon="121.12200030617699"><ele>21.0</ele><time>2026-03-30T07:31:13Z</time></trkpt><trkpt lat="14.641231252729757" lon="121.12200760628188"><ele>21.0</ele><time>2026-03-30T07:31:14Z</time></trkpt><trkpt lat="14.641317805270614" lon="121.12201462727721"><ele>21.0</ele><time>2026-03-30T07:31:15Z</time></trkpt><trkpt lat="14.641393832401459" lon="121.12202195661796"><ele>21.0</ele><time>2026-03-30T07:31:16Z</time></trkpt><trkpt lat="14.641467232958272" lon="121.12203082207151"><ele>21.200000000000003</ele><time>2026-03-30T07:31:17Z</time></trkpt><trkpt lat="14.641580499989548" lon="121.12203686663642"><ele>21.400000000000002</ele><time>2026-03-30T07:31:19Z</time></trkpt><trkpt lat="14.641658885874564" lon="121.12203657574936"><ele>21.6</ele><time>2026-03-30T07:31:21Z</time></trkpt><trkpt lat="14.641750601601862" lon="121.12204555763759"><ele>21.8</ele><time>2026-03-30T07:31:24Z</time></trkpt><trkpt lat="14.641843170957516" lon="121.12205208885213"><ele>22.0</ele><time>2026-03-30T07:31:26Z</time></trkpt><trkpt lat="14.641925634919296" lon="121.12206266690522"><ele>22.8</ele><time>2026-03-30T07:31:28Z</time></trkpt><trkpt lat="14.642017428931034" lon="121.12206764107151"><ele>23.6</ele><time>2026-03-30T07:31:30Z</time></trkpt><trkpt lat="14.64208471997366" lon="121.1220605610146"><ele>24.400000000000002</ele><time>2026-03-30T07:31:31Z</time></trkpt><trkpt lat="14.642209522700817" lon="121.12204844858014"><ele>25.200000000000003</ele><time>2026-03-30T07:31:33Z</time></trkpt><trkpt lat="14.64230054546444" lon="121.12203635789922"><ele>26.0</ele><time>2026-03-30T07:31:35.001Z</time></trkpt><trkpt lat="14.642378323062882" lon="121.12204811888878"><ele>25.999999999999996</ele><time>2026-03-30T07:31:39.001Z</time></trkpt><trkpt lat="14.64244602939294" lon="121.1220633238705"><ele>26.0</ele><time>2026-03-30T07:31:43.001Z</time></trkpt><trkpt lat="14.642379850998712" lon="121.1220801584155"><ele>26.0</ele><time>2026-03-30T07:35:20Z</time></trkpt><trkpt lat="14.6423172156821" lon="121.12205730512106"><ele>26.0</ele><time>2026-03-30T07:35:23Z</time></trkpt><trkpt lat="14.642221624323822" lon="121.12203369915214"><ele>25.999999999999996</ele><time>2026-03-30T07:35:28Z</time></trkpt><trkpt lat="14.642139455643436" lon="121.12203380234807"><ele>26.0</ele><time>2026-03-30T07:35:30Z</time></trkpt><trkpt lat="14.642057364205339" lon="121.12203677518667"><ele>25.333333333333332</ele><time>2026-03-30T07:35:32Z</time></trkpt><trkpt lat="14.641962884171457" lon="121.12204446521582"><ele>24.666666666666664</ele><time>2026-03-30T07:35:34Z</time></trkpt><trkpt lat="14.64187633139628" lon="121.1220447422198"><ele>24.0</ele><time>2026-03-30T07:35:36Z</time></trkpt><trkpt lat="14.641768312319563" lon="121.12204488395552"><ele>23.333333333333332</ele><time>2026-03-30T07:35:38Z</time></trkpt><trkpt lat="14.641684815612082" lon="121.1220474277167"><ele>22.666666666666664</ele><time>2026-03-30T07:35:40Z</time></trkpt><trkpt lat="14.641617131583567" lon="121.12205265740415"><ele>22.0</ele><time>2026-03-30T07:35:44.001Z</time></trkpt><trkpt lat="14.641548096143671" lon="121.12205566752382"><ele>22.0</ele><time>2026-03-30T07:35:47.001Z</time></trkpt><trkpt lat="14.641437721216912" lon="121.12204819679998"><ele>22.0</ele><time>2026-03-30T07:35:49.001Z</time></trkpt><trkpt lat="14.64135232506299" lon="121.12203791949496"><ele>22.0</ele><time>2026-03-30T07:35:51.001Z</time></trkpt><trkpt lat="14.641288446777551" lon="121.12203427989995"><ele>22.0</ele><time>2026-03-30T07:35:54.001Z</time></trkpt><trkpt lat="14.641204311512235" lon="121.12203080039599"><ele>22.0</ele><time>2026-03-30T07:35:57.001Z</time></trkpt><trkpt lat="14.641106960859942" lon="121.12201414190535"><ele>22.0</ele><time>2026-03-30T07:36:00.001Z</time></trkpt><trkpt lat="14.641032576632565" lon="121.12200706788285"><ele>21.833333333333332</ele><time>2026-03-30T07:36:02.001Z</time></trkpt><trkpt lat="14.64093869116539" lon="121.12199888446601"><ele>21.666666666666664</ele><time>2026-03-30T07:36:04.001Z</time></trkpt><trkpt lat="14.640868989077543" lon="121.12199202257304"><ele>21.5</ele><time>2026-03-30T07:36:05.001Z</time></trkpt><trkpt lat="14.640794010507216" lon="121.12198456064823"><ele>21.333333333333332</ele><time>2026-03-30T07:36:06.001Z</time></trkpt><trkpt lat="14.640711487392588" lon="121.12197168121153"><ele>21.166666666666668</ele><time>2026-03-30T07:36:07.001Z</time></trkpt><trkpt lat="14.640633508426031" lon="121.12196040549445"><ele>21.0</ele><time>2026-03-30T07:36:08.001Z</time></trkpt><trkpt lat="14.640559427374013" lon="121.1219516769618"><ele>21.0</ele><time>2026-03-30T07:36:09.001Z</time></trkpt><trkpt lat="14.640480846035445" lon="121.12194266503145"><ele>21.0</ele><time>2026-03-30T07:36:10.001Z</time></trkpt><trkpt lat="14.640405308449857" lon="121.12193380962152"><ele>21.0</ele><time>2026-03-30T07:36:11.001Z</time></trkpt><trkpt lat="14.640325216311037" lon="121.12192541450449"><ele>21.0</ele><time>2026-03-30T07:36:12.001Z</time></trkpt><trkpt lat="14.640247439538662" lon="121.12191824436593"><ele>21.0</ele><time>2026-03-30T07:36:13.001Z</time></trkpt><trkpt lat="14.640179417833982" lon="121.12190979312807"><ele>21.0</ele><time>2026-03-30T07:36:14.001Z</time></trkpt><trkpt lat="14.640108662435038" lon="121.12190417496599"><ele>20.833333333333332</ele><time>2026-03-30T07:36:15.001Z</time></trkpt><trkpt lat="14.640035038600905" lon="121.1218942308065"><ele>20.666666666666668</ele><time>2026-03-30T07:36:16.001Z</time></trkpt><trkpt lat="14.639958419024484" lon="121.12188787676881"><ele>20.5</ele><time>2026-03-30T07:36:17.001Z</time></trkpt><trkpt lat="14.639892836966588" lon="121.12188081536435"><ele>20.333333333333336</ele><time>2026-03-30T07:36:18.001Z</time></trkpt><trkpt lat="14.639828303461737" lon="121.12187380184625"><ele>20.166666666666668</ele><time>2026-03-30T07:36:19.001Z</time></trkpt><trkpt lat="14.639729695597978" lon="121.12186071610247"><ele>20.0</ele><time>2026-03-30T07:36:21.001Z</time></trkpt><trkpt lat="14.639651111354826" lon="121.12185179087427"><ele>20.0</ele><time>2026-03-30T07:36:23.001Z</time></trkpt><trkpt lat="14.639588226001305" lon="121.12184595643711"><ele>20.0</ele><time>2026-03-30T07:36:25.001Z</time></trkpt><trkpt lat="14.63951863073692" lon="121.12183987096704"><ele>20.0</ele><time>2026-03-30T07:36:28.001Z</time></trkpt><trkpt lat="14.639483986681553" lon="121.12191167977254"><ele>20.0</ele><time>2026-03-30T07:36:35.001Z</time></trkpt><trkpt lat="14.639436991016003" lon="121.12170350539235"><ele>20.0</ele><time>2026-03-30T07:39:06.032Z</time></trkpt><trkpt lat="14.639453545084885" lon="121.12182731979694"><ele>20.0</ele><time>2026-03-30T07:39:42.032Z</time></trkpt><trkpt lat="14.639500358088675" lon="121.1219079473744"><ele>20.0</ele><time>2026-03-30T07:40:27Z</time></trkpt><trkpt lat="14.639532676106732" lon="121.12198241053434"><ele>20.0</ele><time>2026-03-30T07:40:37Z</time></trkpt><trkpt lat="14.639437094461213" lon="121.12203050972732"><ele>20.0</ele><time>2026-03-30T07:40:56Z</time></trkpt><trkpt lat="14.639427113248148" lon="121.12195911496826"><ele>20.0</ele><time>2026-03-30T07:41:20Z</time></trkpt><trkpt lat="14.639444383704612" lon="121.12180048282809"><ele>20.0</ele><time>2026-03-30T07:41:26.001Z</time></trkpt><trkpt lat="14.639445337426963" lon="121.12188955541669"><ele>20.0</ele><time>2026-03-30T07:41:52.001Z</time></trkpt><trkpt lat="14.639487632009885" lon="121.12195810299716"><ele>20.0</ele><time>2026-03-30T07:41:55.001Z</time></trkpt><trkpt lat="14.639546606448778" lon="121.121996011283"><ele>20.0</ele><time>2026-03-30T07:41:59.001Z</time></trkpt><trkpt lat="14.639608126888685" lon="121.12202431252062"><ele>20.0</ele><time>2026-03-30T07:42:04.035Z</time></trkpt><trkpt lat="14.639665284303522" lon="121.1218773842882"><ele>20.0</ele><time>2026-03-30T07:44:06.013Z</time></trkpt><trkpt lat="14.63943742507782" lon="121.12177399706029"><ele>20.0</ele><time>2026-03-30T07:46:07.001Z</time></trkpt><trkpt lat="14.639380888726787" lon="121.12185164882703"><ele>20.0</ele><time>2026-03-30T08:21:28.001Z</time></trkpt><trkpt lat="14.639394162824665" lon="121.12193138390839"><ele>20.0</ele><time>2026-03-30T08:21:53.025Z</time></trkpt><trkpt lat="14.639511307578955" lon="121.12199150832272"><ele>20.0</ele><time>2026-03-30T08:21:55.025Z</time></trkpt><trkpt lat="14.639587836322752" lon="121.12197633613023"><ele>20.0</ele><time>2026-03-30T08:23:01.008Z</time></trkpt><trkpt lat="14.63952916945881" lon="121.12206760404948"><ele>20.0</ele><time>2026-03-30T08:23:31.01Z</time></trkpt><trkpt lat="14.639470422709769" lon="121.1221314512405"><ele>20.0</ele><time>2026-03-30T08:23:36.011Z</time></trkpt><trkpt lat="14.639428006083197" lon="121.12197300900688"><ele>20.0</ele><time>2026-03-30T08:23:37.009Z</time></trkpt><trkpt lat="14.6393170551668" lon="121.12197261473385"><ele>20.0</ele><time>2026-03-30T08:23:53.011Z</time></trkpt><trkpt lat="14.63937047178028" lon="121.1217745812791"><ele>20.0</ele><time>2026-03-30T08:25:06.002Z</time></trkpt><trkpt lat="14.639394487966507" lon="121.1218499865237"><ele>20.0</ele><time>2026-03-30T08:25:09.002Z</time></trkpt><trkpt lat="14.63943435666148" lon="121.1219013323423"><ele>20.0</ele><time>2026-03-30T08:25:17.001Z</time></trkpt><trkpt lat="14.639511530645565" lon="121.1218872328615"><ele>20.0</ele><time>2026-03-30T08:26:39.001Z</time></trkpt><trkpt lat="14.639562236863616" lon="121.12184336825673"><ele>20.0</ele><time>2026-03-30T08:26:46.001Z</time></trkpt><trkpt lat="14.63964440764761" lon="121.12185820404137"><ele>20.0</ele><time>2026-03-30T08:26:58.001Z</time></trkpt><trkpt lat="14.639725025828778" lon="121.12186501987395"><ele>20.0</ele><time>2026-03-30T08:27:00.001Z</time></trkpt><trkpt lat="14.639816707151512" lon="121.12187285723215"><ele>20.0</ele><time>2026-03-30T08:27:02.001Z</time></trkpt><trkpt lat="14.639901608095814" lon="121.12188128397305"><ele>20.0</ele><time>2026-03-30T08:27:04.001Z</time></trkpt><trkpt lat="14.64000983314995" lon="121.12189385839616"><ele>20.0</ele><time>2026-03-30T08:27:06.001Z</time></trkpt><trkpt lat="14.64008926409609" lon="121.12190198364165"><ele>20.0</ele><time>2026-03-30T08:27:08.001Z</time></trkpt><trkpt lat="14.640176269716855" lon="121.12191026338633"><ele>20.0</ele><time>2026-03-30T08:27:11.001Z</time></trkpt><trkpt lat="14.64024701728704" lon="121.12191992792742"><ele>20.0</ele><time>2026-03-30T08:27:13.001Z</time></trkpt><trkpt lat="14.640328350870426" lon="121.12192139021852"><ele>20.0</ele><time>2026-03-30T08:27:15.001Z</time></trkpt><trkpt lat="14.640425425434678" lon="121.12192499261353"><ele>20.0</ele><time>2026-03-30T08:27:17.001Z</time></trkpt><trkpt lat="14.640548749214695" lon="121.12192838690558"><ele>20.166666666666668</ele><time>2026-03-30T08:27:19.001Z</time></trkpt><trkpt lat="14.640611838694568" lon="121.12193350503232"><ele>20.333333333333336</ele><time>2026-03-30T08:27:20.001Z</time></trkpt><trkpt lat="14.640681948935446" lon="121.12193810622351"><ele>20.5</ele><time>2026-03-30T08:27:21.001Z</time></trkpt><trkpt lat="14.640760872515035" lon="121.12194373321495"><ele>20.666666666666668</ele><time>2026-03-30T08:27:22.001Z</time></trkpt><trkpt lat="14.640831338909791" lon="121.12195472205204"><ele>20.833333333333332</ele><time>2026-03-30T08:27:23.001Z</time></trkpt><trkpt lat="14.640947179611715" lon="121.12197959643238"><ele>21.0</ele><time>2026-03-30T08:27:25.001Z</time></trkpt><trkpt lat="14.641061418604298" lon="121.12199606196525"><ele>21.166666666666668</ele><time>2026-03-30T08:27:27Z</time></trkpt><trkpt lat="14.641191467441764" lon="121.12201863646854"><ele>21.333333333333332</ele><time>2026-03-30T08:27:29Z</time></trkpt><trkpt lat="14.641268453599873" lon="121.1220271912484"><ele>21.5</ele><time>2026-03-30T08:27:30Z</time></trkpt><trkpt lat="14.641344380366926" lon="121.1220355183035"><ele>21.666666666666664</ele><time>2026-03-30T08:27:31Z</time></trkpt><trkpt lat="14.64142274420116" lon="121.12204447094574"><ele>21.833333333333332</ele><time>2026-03-30T08:27:32Z</time></trkpt><trkpt lat="14.641501228493004" lon="121.12205190183779"><ele>22.0</ele><time>2026-03-30T08:27:33Z</time></trkpt><trkpt lat="14.641575382212343" lon="121.12205688044536"><ele>22.0</ele><time>2026-03-30T08:27:34Z</time></trkpt><trkpt lat="14.64164808720769" lon="121.12206307068476"><ele>22.0</ele><time>2026-03-30T08:27:35Z</time></trkpt><trkpt lat="14.64172192441827" lon="121.12206726668671"><ele>22.0</ele><time>2026-03-30T08:27:36Z</time></trkpt><trkpt lat="14.641793481125285" lon="121.12207045808978"><ele>22.0</ele><time>2026-03-30T08:27:37Z</time></trkpt><trkpt lat="14.64186407688531" lon="121.12206734060771"><ele>22.0</ele><time>2026-03-30T08:27:38.001Z</time></trkpt><trkpt lat="14.641964261607322" lon="121.12206589323056"><ele>22.0</ele><time>2026-03-30T08:27:40.001Z</time></trkpt><trkpt lat="14.642046274264233" lon="121.12206596117029"><ele>22.666666666666664</ele><time>2026-03-30T08:27:43.001Z</time></trkpt><trkpt lat="14.642115007743245" lon="121.12208881282503"><ele>23.333333333333332</ele><time>2026-03-30T08:27:46.001Z</time></trkpt><trkpt lat="14.64220945017702" lon="121.1220393806802"><ele>24.0</ele><time>2026-03-30T08:27:48.001Z</time></trkpt><trkpt lat="14.642270841123233" lon="121.12202121913052"><ele>24.666666666666664</ele><time>2026-03-30T08:27:49.001Z</time></trkpt><trkpt lat="14.642348872881623" lon="121.12200988813301"><ele>25.333333333333332</ele><time>2026-03-30T08:27:50.001Z</time></trkpt><trkpt lat="14.642422033853133" lon="121.12200160164522"><ele>26.0</ele><time>2026-03-30T08:27:51.001Z</time></trkpt><trkpt lat="14.64251534652495" lon="121.1219801267622"><ele>26.0</ele><time>2026-03-30T08:27:52.001Z</time></trkpt><trkpt lat="14.642610865655357" lon="121.1219626873812"><ele>26.0</ele><time>2026-03-30T08:27:53.001Z</time></trkpt><trkpt lat="14.642705140086269" lon="121.12193482476265"><ele>26.0</ele><time>2026-03-30T08:27:54.001Z</time></trkpt><trkpt lat="14.642803781218138" lon="121.12191217534719"><ele>26.0</ele><time>2026-03-30T08:27:55.001Z</time></trkpt><trkpt lat="14.642898488418925" lon="121.1218889997444"><ele>26.0</ele><time>2026-03-30T08:27:56.001Z</time></trkpt><trkpt lat="14.642984317125093" lon="121.12185471569373"><ele>26.8</ele><time>2026-03-30T08:27:57.001Z</time></trkpt><trkpt lat="14.643072312131055" lon="121.12182465606094"><ele>27.6</ele><time>2026-03-30T08:27:58.001Z</time></trkpt><trkpt lat="14.643154303307464" lon="121.12177751122249"><ele>28.4</ele><time>2026-03-30T08:27:59.001Z</time></trkpt><trkpt lat="14.643229475072033" lon="121.12173328903665"><ele>29.2</ele><time>2026-03-30T08:28:00.001Z</time></trkpt><trkpt lat="14.643305680907975" lon="121.12168142810044"><ele>30.0</ele><time>2026-03-30T08:28:01.001Z</time></trkpt><trkpt lat="14.643389005573027" lon="121.12163667566111"><ele>30.0</ele><time>2026-03-30T08:28:02.001Z</time></trkpt><trkpt lat="14.643474939529684" lon="121.1215908012906"><ele>30.0</ele><time>2026-03-30T08:28:03.001Z</time></trkpt><trkpt lat="14.643562965775244" lon="121.12154350654569"><ele>30.0</ele><time>2026-03-30T08:28:04.001Z</time></trkpt><trkpt lat="14.643648410586184" lon="121.12148893638721"><ele>30.0</ele><time>2026-03-30T08:28:05.001Z</time></trkpt><trkpt lat="14.643726504719261" lon="121.1214245729648"><ele>30.0</ele><time>2026-03-30T08:28:06.001Z</time></trkpt><trkpt lat="14.643800919768474" lon="121.12135468999196"><ele>30.2</ele><time>2026-03-30T08:28:07.001Z</time></trkpt><trkpt lat="14.6438787315583" lon="121.12127867262365"><ele>30.4</ele><time>2026-03-30T08:28:08.001Z</time></trkpt><trkpt lat="14.643959500799651" lon="121.12120802411276"><ele>30.6</ele><time>2026-03-30T08:28:09.001Z</time></trkpt><trkpt lat="14.644049872918835" lon="121.12113856707646"><ele>30.8</ele><time>2026-03-30T08:28:10.001Z</time></trkpt><trkpt lat="14.644128053229943" lon="121.12105936838512"><ele>31.0</ele><time>2026-03-30T08:28:11.001Z</time></trkpt><trkpt lat="14.644195241408104" lon="121.12098324144605"><ele>31.000000000000004</ele><time>2026-03-30T08:28:12.001Z</time></trkpt><trkpt lat="14.644252923591273" lon="121.12092446340112"><ele>31.0</ele><time>2026-03-30T08:28:13.001Z</time></trkpt><trkpt lat="14.644303241108679" lon="121.12087024369332"><ele>31.0</ele><time>2026-03-30T08:28:14.001Z</time></trkpt><trkpt lat="14.644392455884706" lon="121.12077285540343"><ele>31.0</ele><time>2026-03-30T08:28:16.001Z</time></trkpt><trkpt lat="14.64444025867591" lon="121.12071544534592"><ele>31.000000000000004</ele><time>2026-03-30T08:28:17.001Z</time></trkpt><trkpt lat="14.644492726234747" lon="121.12065980702154"><ele>31.0</ele><time>2026-03-30T08:28:18.001Z</time></trkpt><trkpt lat="14.644540593399956" lon="121.12061520024483"><ele>32.6</ele><time>2026-03-30T08:28:19.001Z</time></trkpt><trkpt lat="14.644638954991057" lon="121.12050045509349"><ele>34.2</ele><time>2026-03-30T08:28:21.001Z</time></trkpt><trkpt lat="14.64469425555091" lon="121.1204421853934"><ele>35.8</ele><time>2026-03-30T08:28:22.001Z</time></trkpt><trkpt lat="14.644763593905086" lon="121.12036979526886"><ele>37.4</ele><time>2026-03-30T08:28:23.001Z</time></trkpt><trkpt lat="14.644830336110969" lon="121.12029963748006"><ele>39.0</ele><time>2026-03-30T08:28:24.001Z</time></trkpt><trkpt lat="14.644900418330035" lon="121.1202305071446"><ele>39.0</ele><time>2026-03-30T08:28:25.001Z</time></trkpt><trkpt lat="14.644954700872884" lon="121.12017968562886"><ele>39.0</ele><time>2026-03-30T08:28:26.001Z</time></trkpt><trkpt lat="14.645033042029441" lon="121.12009486751488"><ele>39.0</ele><time>2026-03-30T08:28:28.001Z</time></trkpt><trkpt lat="14.645116647079798" lon="121.12001012748335"><ele>39.0</ele><time>2026-03-30T08:28:30.001Z</time></trkpt><trkpt lat="14.645166823031772" lon="121.11995895656509"><ele>39.0</ele><time>2026-03-30T08:28:31.001Z</time></trkpt><trkpt lat="14.645219850926665" lon="121.11990467497549"><ele>39.0</ele><time>2026-03-30T08:28:32.001Z</time></trkpt><trkpt lat="14.64528021308382" lon="121.11984439611214"><ele>39.166666666666664</ele><time>2026-03-30T08:28:33.001Z</time></trkpt><trkpt lat="14.645338365090808" lon="121.11978572854841"><ele>39.333333333333336</ele><time>2026-03-30T08:28:34.001Z</time></trkpt><trkpt lat="14.6453909594242" lon="121.11972751404714"><ele>39.5</ele><time>2026-03-30T08:28:35.001Z</time></trkpt><trkpt lat="14.645442250187793" lon="121.11967632860618"><ele>39.66666666666667</ele><time>2026-03-30T08:28:36.001Z</time></trkpt><trkpt lat="14.645508272029787" lon="121.1196040803066"><ele>39.833333333333336</ele><time>2026-03-30T08:28:38.001Z</time></trkpt><trkpt lat="14.645561966985802" lon="121.11955663866897"><ele>40.0</ele><time>2026-03-30T08:28:41.001Z</time></trkpt><trkpt lat="14.645578390120695" lon="121.11948708198537"><ele>40.0</ele><time>2026-03-30T08:28:44.001Z</time></trkpt><trkpt lat="14.645535556511616" lon="121.11942721618021"><ele>40.0</ele><time>2026-03-30T08:28:45.001Z</time></trkpt><trkpt lat="14.645467566020573" lon="121.11936707200174"><ele>40.0</ele><time>2026-03-30T08:28:46.001Z</time></trkpt><trkpt lat="14.645404115614905" lon="121.1192994447203"><ele>40.0</ele><time>2026-03-30T08:28:47.001Z</time></trkpt><trkpt lat="14.64533704543449" lon="121.11922688475526"><ele>40.0</ele><time>2026-03-30T08:28:48.001Z</time></trkpt><trkpt lat="14.645265380540916" lon="121.11914149167812"><ele>38.5</ele><time>2026-03-30T08:28:49.001Z</time></trkpt><trkpt lat="14.645193070182996" lon="121.11905253579738"><ele>37.0</ele><time>2026-03-30T08:28:50.001Z</time></trkpt><trkpt lat="14.645123329405362" lon="121.11895495262064"><ele>35.5</ele><time>2026-03-30T08:28:51.001Z</time></trkpt><trkpt lat="14.645054066725924" lon="121.11885641704293"><ele>34.0</ele><time>2026-03-30T08:28:52.001Z</time></trkpt><trkpt lat="14.6449821311485" lon="121.11874962466734"><ele>34.0</ele><time>2026-03-30T08:28:53.001Z</time></trkpt><trkpt lat="14.644921996172997" lon="121.1186433410871"><ele>34.0</ele><time>2026-03-30T08:28:54.001Z</time></trkpt><trkpt lat="14.644860814205707" lon="121.11853881058768"><ele>34.0</ele><time>2026-03-30T08:28:55.001Z</time></trkpt><trkpt lat="14.644798827010883" lon="121.11843897719126"><ele>34.0</ele><time>2026-03-30T08:28:56.001Z</time></trkpt><trkpt lat="14.644742947099362" lon="121.11833764180406"><ele>34.0</ele><time>2026-03-30T08:28:57.001Z</time></trkpt><trkpt lat="14.644690306115953" lon="121.11823508628312"><ele>34.0</ele><time>2026-03-30T08:28:58.001Z</time></trkpt><trkpt lat="14.6446459085752" lon="121.11812825011617"><ele>34.0</ele><time>2026-03-30T08:28:59.001Z</time></trkpt><trkpt lat="14.644599169512539" lon="121.11802278943404"><ele>34.0</ele><time>2026-03-30T08:29:00.001Z</time></trkpt><trkpt lat="14.644558139230073" lon="121.11791543606058"><ele>34.0</ele><time>2026-03-30T08:29:01.001Z</time></trkpt><trkpt lat="14.64452852736434" lon="121.11780206010944"><ele>33.5</ele><time>2026-03-30T08:29:02.001Z</time></trkpt><trkpt lat="14.644491623331655" lon="121.11769398185145"><ele>33.0</ele><time>2026-03-30T08:29:03.001Z</time></trkpt><trkpt lat="14.644442555598108" lon="121.11757818310788"><ele>32.5</ele><time>2026-03-30T08:29:04.001Z</time></trkpt><trkpt lat="14.644389464457282" lon="121.11746928782685"><ele>32.0</ele><time>2026-03-30T08:29:05.001Z</time></trkpt><trkpt lat="14.644352615834363" lon="121.11736632279441"><ele>31.0</ele><time>2026-03-30T08:29:06.001Z</time></trkpt><trkpt lat="14.644321304297625" lon="121.11726435667126"><ele>30.000000000000004</ele><time>2026-03-30T08:29:07.001Z</time></trkpt><trkpt lat="14.64429597599716" lon="121.11716874097044"><ele>29.000000000000004</ele><time>2026-03-30T08:29:08.001Z</time></trkpt><trkpt lat="14.644275184661263" lon="121.11707830092233"><ele>28.0</ele><time>2026-03-30T08:29:09.001Z</time></trkpt><trkpt lat="14.64425476936654" lon="121.11699160343333"><ele>27.0</ele><time>2026-03-30T08:29:10.001Z</time></trkpt><trkpt lat="14.644234609817019" lon="121.11691296336477"><ele>27.0</ele><time>2026-03-30T08:29:11.001Z</time></trkpt><trkpt lat="14.644219330863558" lon="121.11681443717545"><ele>27.000000000000004</ele><time>2026-03-30T08:29:12.001Z</time></trkpt><trkpt lat="14.644203488041004" lon="121.11672143991014"><ele>27.000000000000004</ele><time>2026-03-30T08:29:13.001Z</time></trkpt><trkpt lat="14.644186591582645" lon="121.11663430691453"><ele>27.0</ele><time>2026-03-30T08:29:14.001Z</time></trkpt><trkpt lat="14.64417019954969" lon="121.11654205906727"><ele>27.0</ele><time>2026-03-30T08:29:15.001Z</time></trkpt><trkpt lat="14.64416025375646" lon="121.11644268050144"><ele>26.200000000000003</ele><time>2026-03-30T08:29:16.001Z</time></trkpt><trkpt lat="14.644152584144898" lon="121.11634059206878"><ele>25.400000000000002</ele><time>2026-03-30T08:29:17.001Z</time></trkpt><trkpt lat="14.644146395044045" lon="121.11624005206943"><ele>24.6</ele><time>2026-03-30T08:29:18.001Z</time></trkpt><trkpt lat="14.644151173156605" lon="121.11613590487792"><ele>23.799999999999997</ele><time>2026-03-30T08:29:19.001Z</time></trkpt><trkpt lat="14.644154797768394" lon="121.11603953493399"><ele>23.0</ele><time>2026-03-30T08:29:20.001Z</time></trkpt><trkpt lat="14.644158172266144" lon="121.11593695892253"><ele>23.0</ele><time>2026-03-30T08:29:21Z</time></trkpt><trkpt lat="14.644162760144653" lon="121.1158372418221"><ele>23.0</ele><time>2026-03-30T08:29:22Z</time></trkpt><trkpt lat="14.644172541968539" lon="121.11575030084165"><ele>23.0</ele><time>2026-03-30T08:29:23Z</time></trkpt><trkpt lat="14.644180506370695" lon="121.11566699470136"><ele>23.0</ele><time>2026-03-30T08:29:24Z</time></trkpt><trkpt lat="14.64418927038031" lon="121.11558703752372"><ele>23.0</ele><time>2026-03-30T08:29:25Z</time></trkpt><trkpt lat="14.64419811758528" lon="121.11551883435001"><ele>23.0</ele><time>2026-03-30T08:29:26Z</time></trkpt><trkpt lat="14.644223507621948" lon="121.11539781205377"><ele>22.5</ele><time>2026-03-30T08:29:28Z</time></trkpt><trkpt lat="14.64423542158964" lon="121.11533308659945"><ele>22.0</ele><time>2026-03-30T08:29:29Z</time></trkpt><trkpt lat="14.644278035261907" lon="121.1152153044726"><ele>21.5</ele><time>2026-03-30T08:29:31Z</time></trkpt><trkpt lat="14.644293043602623" lon="121.1151480642413"><ele>21.0</ele><time>2026-03-30T08:29:32Z</time></trkpt><trkpt lat="14.644302409160119" lon="121.11507797370213"><ele>20.5</ele><time>2026-03-30T08:29:33Z</time></trkpt><trkpt lat="14.644317619517357" lon="121.11498840529144"><ele>20.0</ele><time>2026-03-30T08:29:34Z</time></trkpt><trkpt lat="14.644344003011476" lon="121.11491325346165"><ele>19.8</ele><time>2026-03-30T08:29:35Z</time></trkpt><trkpt lat="14.644374979060617" lon="121.11481710822159"><ele>19.6</ele><time>2026-03-30T08:29:36Z</time></trkpt><trkpt lat="14.644406031745921" lon="121.11471981230771"><ele>19.4</ele><time>2026-03-30T08:29:37Z</time></trkpt><trkpt lat="14.64444479130872" lon="121.1146233522618"><ele>19.2</ele><time>2026-03-30T08:29:38Z</time></trkpt><trkpt lat="14.644485832861296" lon="121.11452496660225"><ele>19.0</ele><time>2026-03-30T08:29:39Z</time></trkpt><trkpt lat="14.644531999991676" lon="121.11442642050812"><ele>19.2</ele><time>2026-03-30T08:29:40Z</time></trkpt><trkpt lat="14.644580966310489" lon="121.11432440929374"><ele>19.4</ele><time>2026-03-30T08:29:41Z</time></trkpt><trkpt lat="14.644629388058087" lon="121.1142244261648"><ele>19.6</ele><time>2026-03-30T08:29:42Z</time></trkpt><trkpt lat="14.644679256429528" lon="121.1141201420286"><ele>19.8</ele><time>2026-03-30T08:29:43Z</time></trkpt><trkpt lat="14.644738072620129" lon="121.11402251945819"><ele>20.0</ele><time>2026-03-30T08:29:44Z</time></trkpt><trkpt lat="14.644802790410523" lon="121.11392135526623"><ele>20.0</ele><time>2026-03-30T08:29:45Z</time></trkpt><trkpt lat="14.644868907554637" lon="121.1138208655713"><ele>20.0</ele><time>2026-03-30T08:29:46Z</time></trkpt><trkpt lat="14.644946051274038" lon="121.11371978218226"><ele>20.0</ele><time>2026-03-30T08:29:47Z</time></trkpt><trkpt lat="14.645028187218811" lon="121.11362001365023"><ele>20.0</ele><time>2026-03-30T08:29:48Z</time></trkpt><trkpt lat="14.645110752315015" lon="121.11352098303233"><ele>20.0</ele><time>2026-03-30T08:29:49Z</time></trkpt><trkpt lat="14.645202388284835" lon="121.11342414781984"><ele>20.0</ele><time>2026-03-30T08:29:50Z</time></trkpt><trkpt lat="14.645287966827622" lon="121.11334025764823"><ele>20.0</ele><time>2026-03-30T08:29:51Z</time></trkpt><trkpt lat="14.645356167627265" lon="121.11328533558505"><ele>20.0</ele><time>2026-03-30T08:29:52Z</time></trkpt><trkpt lat="14.645421810343834" lon="121.11323505905195"><ele>20.0</ele><time>2026-03-30T08:29:53Z</time></trkpt><trkpt lat="14.645487927821145" lon="121.11317243047131"><ele>20.166666666666668</ele><time>2026-03-30T08:29:54Z</time></trkpt><trkpt lat="14.645560894231108" lon="121.11310722294724"><ele>20.333333333333336</ele><time>2026-03-30T08:29:55Z</time></trkpt><trkpt lat="14.645641442784726" lon="121.11305547967707"><ele>20.5</ele><time>2026-03-30T08:29:56Z</time></trkpt><trkpt lat="14.645714650422107" lon="121.1130116483205"><ele>20.666666666666668</ele><time>2026-03-30T08:29:57Z</time></trkpt><trkpt lat="14.64579048959126" lon="121.11297668945343"><ele>20.833333333333332</ele><time>2026-03-30T08:29:58Z</time></trkpt><trkpt lat="14.645843886282922" lon="121.11293887359925"><ele>21.0</ele><time>2026-03-30T08:29:59Z</time></trkpt><trkpt lat="14.645903345549751" lon="121.11290338359943"><ele>21.0</ele><time>2026-03-30T08:30:00Z</time></trkpt><trkpt lat="14.645983362885453" lon="121.11285816842398"><ele>21.0</ele><time>2026-03-30T08:30:02Z</time></trkpt><trkpt lat="14.64604270201356" lon="121.11282071520536"><ele>21.0</ele><time>2026-03-30T08:30:09Z</time></trkpt><trkpt lat="14.646118541577696" lon="121.11278764691981"><ele>21.0</ele><time>2026-03-30T08:30:13Z</time></trkpt><trkpt lat="14.646221346983708" lon="121.11276280848611"><ele>21.0</ele><time>2026-03-30T08:30:15Z</time></trkpt><trkpt lat="14.64628572065532" lon="121.1127422912676"><ele>21.0</ele><time>2026-03-30T08:30:16Z</time></trkpt><trkpt lat="14.64635303675871" lon="121.11271956409456"><ele>20.833333333333332</ele><time>2026-03-30T08:30:17Z</time></trkpt><trkpt lat="14.64641604558111" lon="121.11269803816852"><ele>20.666666666666668</ele><time>2026-03-30T08:30:18Z</time></trkpt><trkpt lat="14.64649089950647" lon="121.1126637332824"><ele>20.5</ele><time>2026-03-30T08:30:20Z</time></trkpt><trkpt lat="14.646550556220058" lon="121.11264085173713"><ele>20.333333333333336</ele><time>2026-03-30T08:30:22Z</time></trkpt><trkpt lat="14.646621365349903" lon="121.11261983224648"><ele>20.166666666666668</ele><time>2026-03-30T08:30:25Z</time></trkpt><trkpt lat="14.646738162830426" lon="121.11261063293713"><ele>20.0</ele><time>2026-03-30T08:30:27Z</time></trkpt><trkpt lat="14.646814405129726" lon="121.11260760164619"><ele>20.0</ele><time>2026-03-30T08:30:28Z</time></trkpt><trkpt lat="14.646899678081368" lon="121.11260588129328"><ele>20.0</ele><time>2026-03-30T08:30:29Z</time></trkpt><trkpt lat="14.646989480770175" lon="121.11260439646644"><ele>20.0</ele><time>2026-03-30T08:30:30Z</time></trkpt><trkpt lat="14.647086960952693" lon="121.11260439711207"><ele>20.0</ele><time>2026-03-30T08:30:31Z</time></trkpt><trkpt lat="14.647188295277594" lon="121.11259986419024"><ele>20.0</ele><time>2026-03-30T08:30:32Z</time></trkpt><trkpt lat="14.647293601905353" lon="121.11259013967873"><ele>20.0</ele><time>2026-03-30T08:30:33Z</time></trkpt><trkpt lat="14.647398608562723" lon="121.11258182068107"><ele>20.0</ele><time>2026-03-30T08:30:34Z</time></trkpt><trkpt lat="14.647505283128234" lon="121.11256087127317"><ele>20.0</ele><time>2026-03-30T08:30:35Z</time></trkpt><trkpt lat="14.647608146095589" lon="121.11253914263723"><ele>20.0</ele><time>2026-03-30T08:30:36Z</time></trkpt><trkpt lat="14.647704181930498" lon="121.112516294748"><ele>20.0</ele><time>2026-03-30T08:30:37Z</time></trkpt><trkpt lat="14.64779207470051" lon="121.11249377945002"><ele>20.166666666666668</ele><time>2026-03-30T08:30:38Z</time></trkpt><trkpt lat="14.647872443863504" lon="121.112474924146"><ele>20.333333333333336</ele><time>2026-03-30T08:30:39Z</time></trkpt><trkpt lat="14.647946012497805" lon="121.1124563893051"><ele>20.5</ele><time>2026-03-30T08:30:40Z</time></trkpt><trkpt lat="14.648019880261232" lon="121.11243842633775"><ele>20.666666666666668</ele><time>2026-03-30T08:30:41Z</time></trkpt><trkpt lat="14.64808824729874" lon="121.11242116403706"><ele>20.833333333333332</ele><time>2026-03-30T08:30:42Z</time></trkpt><trkpt lat="14.64820105815127" lon="121.11238296568082"><ele>21.0</ele><time>2026-03-30T08:30:44.001Z</time></trkpt><trkpt lat="14.648301535991898" lon="121.11234080212628"><ele>20.833333333333332</ele><time>2026-03-30T08:30:46.001Z</time></trkpt><trkpt lat="14.648383749715045" lon="121.11230888029023"><ele>20.666666666666668</ele><time>2026-03-30T08:30:48.001Z</time></trkpt><trkpt lat="14.648453101906728" lon="121.11228322833858"><ele>20.5</ele><time>2026-03-30T08:30:50.001Z</time></trkpt><trkpt lat="14.648532091672449" lon="121.11225218907975"><ele>20.333333333333336</ele><time>2026-03-30T08:30:52.001Z</time></trkpt><trkpt lat="14.648618848326722" lon="121.11223396776346"><ele>20.166666666666668</ele><time>2026-03-30T08:30:55.001Z</time></trkpt><trkpt lat="14.648684455855294" lon="121.11221994692117"><ele>20.0</ele><time>2026-03-30T08:30:57.001Z</time></trkpt><trkpt lat="14.648778432769353" lon="121.11218979503619"><ele>20.0</ele><time>2026-03-30T08:30:59.001Z</time></trkpt><trkpt lat="14.648842170838481" lon="121.11216816908413"><ele>20.0</ele><time>2026-03-30T08:31:00.001Z</time></trkpt><trkpt lat="14.648916674135908" lon="121.11213772755825"><ele>20.0</ele><time>2026-03-30T08:31:01.001Z</time></trkpt><trkpt lat="14.649006252464778" lon="121.11210637851848"><ele>20.0</ele><time>2026-03-30T08:31:02.001Z</time></trkpt><trkpt lat="14.649101978322802" lon="121.1120756137516"><ele>20.0</ele><time>2026-03-30T08:31:03.001Z</time></trkpt><trkpt lat="14.649197920532078" lon="121.11204815549394"><ele>20.0</ele><time>2026-03-30T08:31:04.001Z</time></trkpt><trkpt lat="14.6492900881811" lon="121.11201914273438"><ele>20.0</ele><time>2026-03-30T08:31:05.001Z</time></trkpt><trkpt lat="14.649385305451613" lon="121.11199163077438"><ele>20.0</ele><time>2026-03-30T08:31:06.001Z</time></trkpt><trkpt lat="14.649481129440375" lon="121.11196317348498"><ele>20.0</ele><time>2026-03-30T08:31:07.001Z</time></trkpt><trkpt lat="14.649569211532086" lon="121.11193659888153"><ele>20.0</ele><time>2026-03-30T08:31:08.001Z</time></trkpt><trkpt lat="14.649650991555188" lon="121.11191258154531"><ele>20.0</ele><time>2026-03-30T08:31:09.001Z</time></trkpt><trkpt lat="14.649720641618615" lon="121.11189488899733"><ele>20.0</ele><time>2026-03-30T08:31:10.001Z</time></trkpt><trkpt lat="14.649839387103947" lon="121.1118647914201"><ele>20.333333333333336</ele><time>2026-03-30T08:31:12.001Z</time></trkpt><trkpt lat="14.649911276607904" lon="121.1118553452571"><ele>20.666666666666668</ele><time>2026-03-30T08:31:13.001Z</time></trkpt><trkpt lat="14.649989968978971" lon="121.11185000395146"><ele>21.0</ele><time>2026-03-30T08:31:14.001Z</time></trkpt><trkpt lat="14.65006920176009" lon="121.11184598460613"><ele>21.333333333333332</ele><time>2026-03-30T08:31:15.001Z</time></trkpt><trkpt lat="14.650137242697323" lon="121.11183958547184"><ele>21.666666666666664</ele><time>2026-03-30T08:31:16.001Z</time></trkpt><trkpt lat="14.650240729013946" lon="121.11182550731868"><ele>22.0</ele><time>2026-03-30T08:31:18.001Z</time></trkpt><trkpt lat="14.65032439303227" lon="121.1118166816719"><ele>22.0</ele><time>2026-03-30T08:31:20.001Z</time></trkpt><trkpt lat="14.65040451186166" lon="121.11181708396688"><ele>22.0</ele><time>2026-03-30T08:31:22.001Z</time></trkpt><trkpt lat="14.650473086660762" lon="121.11181984930893"><ele>22.0</ele><time>2026-03-30T08:31:24.001Z</time></trkpt><trkpt lat="14.65054162371137" lon="121.11183237776419"><ele>22.0</ele><time>2026-03-30T08:31:27Z</time></trkpt><trkpt lat="14.65060662188135" lon="121.11183630317868"><ele>22.0</ele><time>2026-03-30T08:31:54Z</time></trkpt><trkpt lat="14.650709908329922" lon="121.11183338091313"><ele>22.0</ele><time>2026-03-30T08:31:57Z</time></trkpt><trkpt lat="14.650812089291213" lon="121.11177373861071"><ele>22.0</ele><time>2026-03-30T08:31:59Z</time></trkpt><trkpt lat="14.65086647614208" lon="121.111644935187"><ele>22.0</ele><time>2026-03-30T08:32:01Z</time></trkpt><trkpt lat="14.650876287018198" lon="121.11156166232526"><ele>22.0</ele><time>2026-03-30T08:32:02Z</time></trkpt><trkpt lat="14.650891498004434" lon="121.1114721423697"><ele>22.0</ele><time>2026-03-30T08:32:03Z</time></trkpt><trkpt lat="14.650912076955821" lon="121.11138686922861"><ele>22.0</ele><time>2026-03-30T08:32:04Z</time></trkpt><trkpt lat="14.650926967639007" lon="121.11129957495929"><ele>22.0</ele><time>2026-03-30T08:32:05Z</time></trkpt><trkpt lat="14.650938374643845" lon="121.11121147200737"><ele>22.0</ele><time>2026-03-30T08:32:06Z</time></trkpt><trkpt lat="14.650951278346803" lon="121.11111938060242"><ele>22.0</ele><time>2026-03-30T08:32:07Z</time></trkpt><trkpt lat="14.65096119589278" lon="121.11103020019813"><ele>22.0</ele><time>2026-03-30T08:32:08Z</time></trkpt><trkpt lat="14.65096748557103" lon="121.1109393758633"><ele>22.0</ele><time>2026-03-30T08:32:09Z</time></trkpt><trkpt lat="14.650972008768868" lon="121.11085534906678"><ele>22.0</ele><time>2026-03-30T08:32:10Z</time></trkpt><trkpt lat="14.650984151610308" lon="121.11076765075322"><ele>21.200000000000003</ele><time>2026-03-30T08:32:11Z</time></trkpt><trkpt lat="14.650991353087933" lon="121.1106799374517"><ele>20.400000000000002</ele><time>2026-03-30T08:32:12Z</time></trkpt><trkpt lat="14.650998196405874" lon="121.11057932139485"><ele>19.6</ele><time>2026-03-30T08:32:13Z</time></trkpt><trkpt lat="14.651007102733896" lon="121.11048309540965"><ele>18.8</ele><time>2026-03-30T08:32:14Z</time></trkpt><trkpt lat="14.651012745980378" lon="121.11038987224747"><ele>18.0</ele><time>2026-03-30T08:32:15Z</time></trkpt><trkpt lat="14.651018543988199" lon="121.11030327240883"><ele>18.0</ele><time>2026-03-30T08:32:16Z</time></trkpt><trkpt lat="14.651027793384557" lon="121.11021732848948"><ele>18.0</ele><time>2026-03-30T08:32:17Z</time></trkpt><trkpt lat="14.651044305478917" lon="121.11014241040465"><ele>18.0</ele><time>2026-03-30T08:32:18Z</time></trkpt><trkpt lat="14.651062383488116" lon="121.11006726436668"><ele>18.0</ele><time>2026-03-30T08:32:19Z</time></trkpt><trkpt lat="14.651070819011117" lon="121.10999940218093"><ele>18.0</ele><time>2026-03-30T08:32:20Z</time></trkpt><trkpt lat="14.65107725938138" lon="121.10987865356472"><ele>18.0</ele><time>2026-03-30T08:32:22Z</time></trkpt><trkpt lat="14.651075723667262" lon="121.1098133478541"><ele>17.833333333333332</ele><time>2026-03-30T08:32:23Z</time></trkpt><trkpt lat="14.651072469133927" lon="121.10973943119241"><ele>17.666666666666668</ele><time>2026-03-30T08:32:24Z</time></trkpt><trkpt lat="14.651073943381844" lon="121.10966118538485"><ele>17.5</ele><time>2026-03-30T08:32:25Z</time></trkpt><trkpt lat="14.65108169524462" lon="121.10957946160038"><ele>17.333333333333336</ele><time>2026-03-30T08:32:26Z</time></trkpt><trkpt lat="14.651092509471857" lon="121.10949479730435"><ele>17.166666666666668</ele><time>2026-03-30T08:32:27.001Z</time></trkpt><trkpt lat="14.651100891105465" lon="121.10940033702856"><ele>17.0</ele><time>2026-03-30T08:32:28.001Z</time></trkpt><trkpt lat="14.651109941266498" lon="121.10930678757195"><ele>17.0</ele><time>2026-03-30T08:32:29.001Z</time></trkpt><trkpt lat="14.651116261738" lon="121.10921025930887"><ele>17.0</ele><time>2026-03-30T08:32:30.001Z</time></trkpt><trkpt lat="14.651114658440537" lon="121.1091154671705"><ele>17.0</ele><time>2026-03-30T08:32:31.001Z</time></trkpt><trkpt lat="14.651103631007697" lon="121.1090181697312"><ele>17.0</ele><time>2026-03-30T08:32:32.001Z</time></trkpt><trkpt lat="14.65108132696747" lon="121.10891496682456"><ele>17.0</ele><time>2026-03-30T08:32:33.001Z</time></trkpt><trkpt lat="14.651055648222444" lon="121.10881003496786"><ele>17.0</ele><time>2026-03-30T08:32:34.001Z</time></trkpt><trkpt lat="14.651026646590704" lon="121.10870416223925"><ele>17.0</ele><time>2026-03-30T08:32:35.001Z</time></trkpt><trkpt lat="14.650997489534985" lon="121.10859211992098"><ele>17.0</ele><time>2026-03-30T08:32:36.001Z</time></trkpt><trkpt lat="14.650967795788944" lon="121.10848404018327"><ele>17.0</ele><time>2026-03-30T08:32:37.001Z</time></trkpt><trkpt lat="14.650943694841535" lon="121.10839579248818"><ele>17.0</ele><time>2026-03-30T08:32:38.001Z</time></trkpt><trkpt lat="14.650916423504208" lon="121.10830556994912"><ele>17.333333333333336</ele><time>2026-03-30T08:32:40.001Z</time></trkpt><trkpt lat="14.65088174295681" lon="121.10818035298135"><ele>17.666666666666668</ele><time>2026-03-30T08:32:42.001Z</time></trkpt><trkpt lat="14.65086270393235" lon="121.10810405164463"><ele>18.0</ele><time>2026-03-30T08:32:43.001Z</time></trkpt><trkpt lat="14.65084473878218" lon="121.10801942603474"><ele>18.333333333333332</ele><time>2026-03-30T08:32:44.001Z</time></trkpt><trkpt lat="14.65082945741935" lon="121.10794780418905"><ele>18.666666666666664</ele><time>2026-03-30T08:32:45.001Z</time></trkpt><trkpt lat="14.650812776606177" lon="121.10788458214148"><ele>19.0</ele><time>2026-03-30T08:32:46.001Z</time></trkpt><trkpt lat="14.65078769981252" lon="121.10778878723634"><ele>19.0</ele><time>2026-03-30T08:32:48.001Z</time></trkpt><trkpt lat="14.650744460351692" lon="121.1077287177076"><ele>19.0</ele><time>2026-03-30T08:32:51.001Z</time></trkpt><trkpt lat="14.650625571544806" lon="121.10776824771911"><ele>19.0</ele><time>2026-03-30T08:32:53.001Z</time></trkpt><trkpt lat="14.650506556396245" lon="121.10782205656"><ele>19.0</ele><time>2026-03-30T08:32:55.001Z</time></trkpt><trkpt lat="14.650433104418134" lon="121.1078376322284"><ele>19.0</ele><time>2026-03-30T08:32:56.001Z</time></trkpt><trkpt lat="14.650358714245911" lon="121.10785325367141"><ele>18.833333333333332</ele><time>2026-03-30T08:32:57.001Z</time></trkpt><trkpt lat="14.65029047043526" lon="121.10786534171615"><ele>18.666666666666664</ele><time>2026-03-30T08:32:58.001Z</time></trkpt><trkpt lat="14.65022571481236" lon="121.10788094075865"><ele>18.5</ele><time>2026-03-30T08:32:59.001Z</time></trkpt><trkpt lat="14.650114553947263" lon="121.10789159293114"><ele>18.333333333333332</ele><time>2026-03-30T08:33:01.001Z</time></trkpt><trkpt lat="14.650005642184498" lon="121.10792095467396"><ele>18.166666666666668</ele><time>2026-03-30T08:33:03.001Z</time></trkpt><trkpt lat="14.649932148866727" lon="121.10793978358453"><ele>18.0</ele><time>2026-03-30T08:33:05.001Z</time></trkpt><trkpt lat="14.6498556852729" lon="121.10795902413675"><ele>18.0</ele><time>2026-03-30T08:33:08.001Z</time></trkpt><trkpt lat="14.649796704713854" lon="121.10800604144032"><ele>18.0</ele><time>2026-03-30T08:33:11.001Z</time></trkpt><trkpt lat="14.649725365457043" lon="121.10801376082138"><ele>18.0</ele><time>2026-03-30T08:33:15.001Z</time></trkpt><trkpt lat="14.649734341704301" lon="121.10793735467048"><ele>18.0</ele><time>2026-03-30T09:49:42Z</time></trkpt><trkpt lat="14.64964597731135" lon="121.10761724669277"><ele>18.0</ele><time>2026-03-30T09:51:11.016Z</time></trkpt><trkpt lat="14.649653501301733" lon="121.10790837865345"><ele>18.0</ele><time>2026-03-30T09:51:13.001Z</time></trkpt><trkpt lat="14.649675527459307" lon="121.10799684827941"><ele>18.0</ele><time>2026-03-30T09:51:15.001Z</time></trkpt><trkpt lat="14.649762863769944" lon="121.10795159418721"><ele>18.0</ele><time>2026-03-30T09:51:43Z</time></trkpt><trkpt lat="14.649827958935816" lon="121.10795355238733"><ele>18.0</ele><time>2026-03-30T09:59:05Z</time></trkpt><trkpt lat="14.64992401959325" lon="121.10791387515732"><ele>18.0</ele><time>2026-03-30T09:59:07Z</time></trkpt><trkpt lat="14.650016801303362" lon="121.10790818701196"><ele>18.0</ele><time>2026-03-30T09:59:09Z</time></trkpt><trkpt lat="14.650101676712199" lon="121.10789591227949"><ele>18.0</ele><time>2026-03-30T09:59:11Z</time></trkpt><trkpt lat="14.650187500146062" lon="121.10787017317057"><ele>18.0</ele><time>2026-03-30T09:59:13Z</time></trkpt><trkpt lat="14.650264588261178" lon="121.10785401791053"><ele>18.166666666666668</ele><time>2026-03-30T09:59:15Z</time></trkpt><trkpt lat="14.650359423707686" lon="121.10784090248458"><ele>18.333333333333332</ele><time>2026-03-30T09:59:17Z</time></trkpt><trkpt lat="14.650455089510379" lon="121.10782268663468"><ele>18.5</ele><time>2026-03-30T09:59:19Z</time></trkpt><trkpt lat="14.650554633436654" lon="121.10778827891114"><ele>18.666666666666664</ele><time>2026-03-30T09:59:21Z</time></trkpt><trkpt lat="14.650637687410727" lon="121.10776772578265"><ele>18.833333333333332</ele><time>2026-03-30T09:59:23Z</time></trkpt><trkpt lat="14.650702806425471" lon="121.10777137316465"><ele>19.0</ele><time>2026-03-30T09:59:25Z</time></trkpt><trkpt lat="14.650760134211346" lon="121.1078432354231"><ele>19.0</ele><time>2026-03-30T09:59:27Z</time></trkpt><trkpt lat="14.650794319041225" lon="121.10796457939398"><ele>19.0</ele><time>2026-03-30T09:59:29Z</time></trkpt><trkpt lat="14.650816258723149" lon="121.10802699368996"><ele>19.0</ele><time>2026-03-30T09:59:30Z</time></trkpt><trkpt lat="14.65083748967219" lon="121.10809234333351"><ele>19.0</ele><time>2026-03-30T09:59:31Z</time></trkpt><trkpt lat="14.650856763311037" lon="121.1081597062947"><ele>19.0</ele><time>2026-03-30T09:59:32Z</time></trkpt><trkpt lat="14.650873648836125" lon="121.10822779278499"><ele>19.0</ele><time>2026-03-30T09:59:33Z</time></trkpt><trkpt lat="14.650904696449981" lon="121.10835019572328"><ele>18.599999999999998</ele><time>2026-03-30T09:59:35Z</time></trkpt><trkpt lat="14.65093463241782" lon="121.10846546369228"><ele>18.2</ele><time>2026-03-30T09:59:37Z</time></trkpt><trkpt lat="14.650960372154668" lon="121.10856342953683"><ele>17.799999999999997</ele><time>2026-03-30T09:59:39Z</time></trkpt><trkpt lat="14.650989818722374" lon="121.10865921683578"><ele>17.4</ele><time>2026-03-30T09:59:41Z</time></trkpt><trkpt lat="14.650992906056274" lon="121.10874191345873"><ele>17.0</ele><time>2026-03-30T09:59:42.999Z</time></trkpt><trkpt lat="14.651010200238156" lon="121.10881506001435"><ele>17.0</ele><time>2026-03-30T09:59:44.999Z</time></trkpt><trkpt lat="14.651029799672335" lon="121.10889795675288"><ele>17.0</ele><time>2026-03-30T09:59:46.999Z</time></trkpt><trkpt lat="14.651042772787216" lon="121.1089899225622"><ele>17.0</ele><time>2026-03-30T09:59:48.999Z</time></trkpt><trkpt lat="14.651057096935203" lon="121.10910049492544"><ele>17.0</ele><time>2026-03-30T09:59:50.999Z</time></trkpt><trkpt lat="14.651079091889049" lon="121.10921573169955"><ele>17.0</ele><time>2026-03-30T09:59:52.999Z</time></trkpt><trkpt lat="14.651067573853052" lon="121.10933480256877"><ele>17.0</ele><time>2026-03-30T09:59:54.999Z</time></trkpt><trkpt lat="14.65106334608378" lon="121.10943615624507"><ele>17.0</ele><time>2026-03-30T09:59:56.999Z</time></trkpt><trkpt lat="14.651059318195426" lon="121.10952740770834"><ele>17.0</ele><time>2026-03-30T09:59:58.999Z</time></trkpt><trkpt lat="14.65105072270709" lon="121.10961992311438"><ele>17.0</ele><time>2026-03-30T10:00:00.999Z</time></trkpt><trkpt lat="14.651044261837379" lon="121.10972272155719"><ele>17.0</ele><time>2026-03-30T10:00:02.999Z</time></trkpt><trkpt lat="14.651204512977385" lon="121.10984420427896"><ele>17.666666666666668</ele><time>2026-03-30T10:00:04.999Z</time></trkpt><trkpt lat="14.65122567940378" lon="121.1099118465091"><ele>18.333333333333336</ele><time>2026-03-30T10:00:05.999Z</time></trkpt><trkpt lat="14.65122633177333" lon="121.10998381025354"><ele>19.0</ele><time>2026-03-30T10:00:06.999Z</time></trkpt><trkpt lat="14.65123288170949" lon="121.11006316014544"><ele>19.666666666666668</ele><time>2026-03-30T10:00:07.999Z</time></trkpt><trkpt lat="14.651241383547374" lon="121.11013728764746"><ele>20.333333333333332</ele><time>2026-03-30T10:00:08.999Z</time></trkpt><trkpt lat="14.651257633694037" lon="121.11026515161781"><ele>21.0</ele><time>2026-03-30T10:00:10.999Z</time></trkpt><trkpt lat="14.65126439564311" lon="121.11036483072978"><ele>21.0</ele><time>2026-03-30T10:00:13Z</time></trkpt><trkpt lat="14.65127752578788" lon="121.11046593438384"><ele>21.0</ele><time>2026-03-30T10:00:15Z</time></trkpt><trkpt lat="14.651247394058698" lon="121.11053606763755"><ele>21.0</ele><time>2026-03-30T10:00:17Z</time></trkpt><trkpt lat="14.65124762801313" lon="121.11060441039862"><ele>21.0</ele><time>2026-03-30T10:00:22Z</time></trkpt><trkpt lat="14.651250429305195" lon="121.11051526729833"><ele>21.0</ele><time>2026-03-30T10:00:27Z</time></trkpt><trkpt lat="14.651260575806562" lon="121.11044573393042"><ele>21.0</ele><time>2026-03-30T10:00:29Z</time></trkpt><trkpt lat="14.651445132826442" lon="121.11045516263047"><ele>21.0</ele><time>2026-03-30T10:00:32Z</time></trkpt><trkpt lat="14.651555260340102" lon="121.11050825244128"><ele>21.0</ele><time>2026-03-30T10:00:34Z</time></trkpt><trkpt lat="14.651616018719993" lon="121.11053061299363"><ele>21.0</ele><time>2026-03-30T10:00:35Z</time></trkpt><trkpt lat="14.651677274622994" lon="121.11056409725207"><ele>21.0</ele><time>2026-03-30T10:00:36Z</time></trkpt><trkpt lat="14.651733799572984" lon="121.11059701912238"><ele>21.0</ele><time>2026-03-30T10:00:37Z</time></trkpt><trkpt lat="14.651795360684948" lon="121.11063583980211"><ele>21.0</ele><time>2026-03-30T10:00:38Z</time></trkpt><trkpt lat="14.651853554511007" lon="121.11067604357507"><ele>21.0</ele><time>2026-03-30T10:00:39Z</time></trkpt><trkpt lat="14.65191316944237" lon="121.11072204733098"><ele>21.0</ele><time>2026-03-30T10:00:40Z</time></trkpt><trkpt lat="14.651963813067358" lon="121.11077521149987"><ele>21.0</ele><time>2026-03-30T10:00:41Z</time></trkpt><trkpt lat="14.652014526118705" lon="121.11083539660208"><ele>21.0</ele><time>2026-03-30T10:00:42Z</time></trkpt><trkpt lat="14.65205739422593" lon="121.11089975914376"><ele>21.0</ele><time>2026-03-30T10:00:43Z</time></trkpt><trkpt lat="14.652084379966928" lon="121.11096935574821"><ele>21.0</ele><time>2026-03-30T10:00:44Z</time></trkpt><trkpt lat="14.65209921735532" lon="121.11104071890064"><ele>21.0</ele><time>2026-03-30T10:00:45Z</time></trkpt><trkpt lat="14.652116512980886" lon="121.11110972089216"><ele>21.0</ele><time>2026-03-30T10:00:46Z</time></trkpt><trkpt lat="14.65210389677193" lon="121.1112045865987"><ele>21.0</ele><time>2026-03-30T10:00:48Z</time></trkpt><trkpt lat="14.652083724721333" lon="121.1112677694622"><ele>21.0</ele><time>2026-03-30T10:00:49Z</time></trkpt><trkpt lat="14.652014940683744" lon="121.11137861205269"><ele>21.0</ele><time>2026-03-30T10:00:51Z</time></trkpt><trkpt lat="14.651966632693865" lon="121.11143017820356"><ele>21.0</ele><time>2026-03-30T10:00:52Z</time></trkpt><trkpt lat="14.651918140393303" lon="121.11147899045294"><ele>21.0</ele><time>2026-03-30T10:00:53Z</time></trkpt><trkpt lat="14.65187152630618" lon="121.11153145310958"><ele>21.0</ele><time>2026-03-30T10:00:54Z</time></trkpt><trkpt lat="14.651811297294671" lon="121.11159152063742"><ele>21.0</ele><time>2026-03-30T10:00:55Z</time></trkpt><trkpt lat="14.651745064753602" lon="121.11166070058462"><ele>21.0</ele><time>2026-03-30T10:00:56Z</time></trkpt><trkpt lat="14.651694832123741" lon="121.11172877572962"><ele>21.0</ele><time>2026-03-30T10:00:57Z</time></trkpt><trkpt lat="14.651641631111993" lon="121.11179622837716"><ele>21.0</ele><time>2026-03-30T10:00:58Z</time></trkpt><trkpt lat="14.651585657791264" lon="121.11185785308885"><ele>21.0</ele><time>2026-03-30T10:00:59Z</time></trkpt><trkpt lat="14.651530438310674" lon="121.11192282153321"><ele>21.0</ele><time>2026-03-30T10:01:00Z</time></trkpt><trkpt lat="14.651481643870087" lon="121.1119764824671"><ele>21.0</ele><time>2026-03-30T10:01:01Z</time></trkpt><trkpt lat="14.651438525665766" lon="121.11202993345914"><ele>21.0</ele><time>2026-03-30T10:01:02Z</time></trkpt><trkpt lat="14.651367945347767" lon="121.11211185117915"><ele>21.0</ele><time>2026-03-30T10:01:04Z</time></trkpt><trkpt lat="14.651326007156449" lon="121.11216599025128"><ele>21.0</ele><time>2026-03-30T10:01:06Z</time></trkpt><trkpt lat="14.651297533260152" lon="121.11222632173964"><ele>21.0</ele><time>2026-03-30T10:01:12Z</time></trkpt><trkpt lat="14.651323790304597" lon="121.11231271062749"><ele>21.0</ele><time>2026-03-30T10:01:14Z</time></trkpt><trkpt lat="14.65136895156808" lon="121.11236009794693"><ele>21.0</ele><time>2026-03-30T10:01:15Z</time></trkpt><trkpt lat="14.651423507455988" lon="121.112454150509"><ele>21.0</ele><time>2026-03-30T10:01:17Z</time></trkpt><trkpt lat="14.651471658092564" lon="121.11258557717652"><ele>21.0</ele><time>2026-03-30T10:01:19Z</time></trkpt><trkpt lat="14.651486278385821" lon="121.11266228125069"><ele>21.0</ele><time>2026-03-30T10:01:20Z</time></trkpt><trkpt lat="14.651495717764298" lon="121.11274497251738"><ele>20.833333333333332</ele><time>2026-03-30T10:01:21Z</time></trkpt><trkpt lat="14.6515023828655" lon="121.11282982656478"><ele>20.666666666666668</ele><time>2026-03-30T10:01:22Z</time></trkpt><trkpt lat="14.651508552786677" lon="121.11291043202037"><ele>20.5</ele><time>2026-03-30T10:01:23Z</time></trkpt><trkpt lat="14.65151008883778" lon="121.11298168523327"><ele>20.333333333333336</ele><time>2026-03-30T10:01:24Z</time></trkpt><trkpt lat="14.651512071183136" lon="121.11309500087043"><ele>20.166666666666668</ele><time>2026-03-30T10:01:26Z</time></trkpt><trkpt lat="14.651518417254321" lon="121.11320161022189"><ele>20.0</ele><time>2026-03-30T10:01:28Z</time></trkpt><trkpt lat="14.651529971852481" lon="121.11328440552589"><ele>20.0</ele><time>2026-03-30T10:01:30Z</time></trkpt><trkpt lat="14.651563278582312" lon="121.11339582326332"><ele>20.0</ele><time>2026-03-30T10:01:32Z</time></trkpt><trkpt lat="14.651598912543513" lon="121.11346009099923"><ele>20.0</ele><time>2026-03-30T10:01:33Z</time></trkpt><trkpt lat="14.651644485742807" lon="121.11351908976158"><ele>20.0</ele><time>2026-03-30T10:01:34Z</time></trkpt><trkpt lat="14.651702605649003" lon="121.11357104047474"><ele>20.0</ele><time>2026-03-30T10:01:35Z</time></trkpt><trkpt lat="14.65176126357254" lon="121.11361573052235"><ele>20.0</ele><time>2026-03-30T10:01:36Z</time></trkpt><trkpt lat="14.65183029313312" lon="121.11365539865223"><ele>20.0</ele><time>2026-03-30T10:01:37Z</time></trkpt><trkpt lat="14.651882057025032" lon="121.11369835701579"><ele>20.0</ele><time>2026-03-30T10:01:38Z</time></trkpt><trkpt lat="14.651942278145912" lon="121.11373095376725"><ele>20.0</ele><time>2026-03-30T10:01:39Z</time></trkpt><trkpt lat="14.6520709784355" lon="121.11377865471103"><ele>20.0</ele><time>2026-03-30T10:01:41Z</time></trkpt><trkpt lat="14.652140404918736" lon="121.11379780908902"><ele>20.0</ele><time>2026-03-30T10:01:42Z</time></trkpt><trkpt lat="14.652210356794773" lon="121.11381674893879"><ele>20.0</ele><time>2026-03-30T10:01:43Z</time></trkpt><trkpt lat="14.652284733885063" lon="121.11383498019053"><ele>20.0</ele><time>2026-03-30T10:01:44Z</time></trkpt><trkpt lat="14.652362577854769" lon="121.11385404028198"><ele>20.0</ele><time>2026-03-30T10:01:45Z</time></trkpt><trkpt lat="14.652437737669436" lon="121.11387244322044"><ele>20.0</ele><time>2026-03-30T10:01:46Z</time></trkpt><trkpt lat="14.652518469841285" lon="121.11388313647348"><ele>20.0</ele><time>2026-03-30T10:01:47Z</time></trkpt><trkpt lat="14.652600483640564" lon="121.11389470745966"><ele>20.0</ele><time>2026-03-30T10:01:47.999Z</time></trkpt><trkpt lat="14.652683160615236" lon="121.1139026457423"><ele>20.0</ele><time>2026-03-30T10:01:48.999Z</time></trkpt><trkpt lat="14.652763977258413" lon="121.11389846288718"><ele>20.166666666666668</ele><time>2026-03-30T10:01:49.999Z</time></trkpt><trkpt lat="14.652844699467783" lon="121.11390163327442"><ele>20.333333333333336</ele><time>2026-03-30T10:01:50.999Z</time></trkpt><trkpt lat="14.652934163981998" lon="121.11390701950718"><ele>20.5</ele><time>2026-03-30T10:01:51.999Z</time></trkpt><trkpt lat="14.65302088503491" lon="121.11390559222576"><ele>20.666666666666668</ele><time>2026-03-30T10:01:52.999Z</time></trkpt><trkpt lat="14.653119855361268" lon="121.11390816447901"><ele>20.833333333333332</ele><time>2026-03-30T10:01:53.999Z</time></trkpt><trkpt lat="14.653204549136555" lon="121.11390746933087"><ele>21.0</ele><time>2026-03-30T10:01:54.999Z</time></trkpt><trkpt lat="14.653299505781186" lon="121.11391935945605"><ele>21.0</ele><time>2026-03-30T10:01:55.999Z</time></trkpt><trkpt lat="14.653393945428101" lon="121.11391206664835"><ele>21.0</ele><time>2026-03-30T10:01:56.999Z</time></trkpt><trkpt lat="14.6534922671544" lon="121.11390447405932"><ele>21.0</ele><time>2026-03-30T10:01:57.999Z</time></trkpt><trkpt lat="14.653590863211742" lon="121.11389686028478"><ele>21.0</ele><time>2026-03-30T10:01:58.999Z</time></trkpt><trkpt lat="14.653692167389083" lon="121.11388903738671"><ele>21.0</ele><time>2026-03-30T10:01:59.999Z</time></trkpt><trkpt lat="14.653792424195402" lon="121.11388129536594"><ele>21.4</ele><time>2026-03-30T10:02:00.999Z</time></trkpt><trkpt lat="14.653895423161858" lon="121.11387334159203"><ele>21.8</ele><time>2026-03-30T10:02:01.999Z</time></trkpt><trkpt lat="14.653994138404135" lon="121.11386843039806"><ele>22.2</ele><time>2026-03-30T10:02:02.999Z</time></trkpt><trkpt lat="14.654092672553181" lon="121.11386877928507"><ele>22.599999999999998</ele><time>2026-03-30T10:02:03.999Z</time></trkpt><trkpt lat="14.654196038440833" lon="121.11387264768383"><ele>23.0</ele><time>2026-03-30T10:02:04.999Z</time></trkpt><trkpt lat="14.654288425593743" lon="121.11387810179025"><ele>23.0</ele><time>2026-03-30T10:02:05.999Z</time></trkpt><trkpt lat="14.654374719941336" lon="121.11388419315495"><ele>23.0</ele><time>2026-03-30T10:02:06.999Z</time></trkpt><trkpt lat="14.654457077092925" lon="121.11389207133037"><ele>23.0</ele><time>2026-03-30T10:02:07.999Z</time></trkpt><trkpt lat="14.654541301008702" lon="121.11390094394109"><ele>23.0</ele><time>2026-03-30T10:02:08.999Z</time></trkpt><trkpt lat="14.654628067016715" lon="121.11391951208343"><ele>23.0</ele><time>2026-03-30T10:02:09.999Z</time></trkpt><trkpt lat="14.654716401268066" lon="121.11394618260721"><ele>23.0</ele><time>2026-03-30T10:02:10.999Z</time></trkpt><trkpt lat="14.65480813231789" lon="121.11397177047911"><ele>23.0</ele><time>2026-03-30T10:02:11.999Z</time></trkpt><trkpt lat="14.654904503938345" lon="121.1139986528002"><ele>23.0</ele><time>2026-03-30T10:02:12.999Z</time></trkpt><trkpt lat="14.655001913103563" lon="121.11402582452769"><ele>23.0</ele><time>2026-03-30T10:02:13.999Z</time></trkpt><trkpt lat="14.65510208752062" lon="121.11405376761385"><ele>23.0</ele><time>2026-03-30T10:02:14.999Z</time></trkpt><trkpt lat="14.655202982781312" lon="121.11408191152053"><ele>23.0</ele><time>2026-03-30T10:02:15.999Z</time></trkpt><trkpt lat="14.655300710427284" lon="121.11412048190513"><ele>23.0</ele><time>2026-03-30T10:02:16.999Z</time></trkpt><trkpt lat="14.655404819381863" lon="121.11416008253357"><ele>23.0</ele><time>2026-03-30T10:02:17.999Z</time></trkpt><trkpt lat="14.655502484349919" lon="121.11420181804921"><ele>23.0</ele><time>2026-03-30T10:02:18.999Z</time></trkpt><trkpt lat="14.655596942333247" lon="121.11424102390612"><ele>23.0</ele><time>2026-03-30T10:02:19.999Z</time></trkpt><trkpt lat="14.655685925000142" lon="121.1142779572121"><ele>23.0</ele><time>2026-03-30T10:02:20.999Z</time></trkpt><trkpt lat="14.655775750695904" lon="121.11430659946306"><ele>23.0</ele><time>2026-03-30T10:02:21.999Z</time></trkpt><trkpt lat="14.65585861370961" lon="121.11435401606329"><ele>23.0</ele><time>2026-03-30T10:02:22.999Z</time></trkpt><trkpt lat="14.655944010968655" lon="121.11440334380623"><ele>23.0</ele><time>2026-03-30T10:02:23.999Z</time></trkpt><trkpt lat="14.656014770886758" lon="121.11446712687513"><ele>23.0</ele><time>2026-03-30T10:02:24.999Z</time></trkpt><trkpt lat="14.656088408725141" lon="121.11451789221427"><ele>23.0</ele><time>2026-03-30T10:02:25.999Z</time></trkpt><trkpt lat="14.656150796946127" lon="121.11456090215972"><ele>22.799999999999997</ele><time>2026-03-30T10:02:26.999Z</time></trkpt><trkpt lat="14.656211527519218" lon="121.11460276932732"><ele>22.6</ele><time>2026-03-30T10:02:27.999Z</time></trkpt><trkpt lat="14.656272917163836" lon="121.11462507987237"><ele>22.4</ele><time>2026-03-30T10:02:28.999Z</time></trkpt><trkpt lat="14.65637096261951" lon="121.11470549459648"><ele>22.200000000000003</ele><time>2026-03-30T10:02:30.999Z</time></trkpt><trkpt lat="14.656486612742341" lon="121.11479296926683"><ele>22.0</ele><time>2026-03-30T10:02:32.999Z</time></trkpt><trkpt lat="14.656538211857674" lon="121.11483948165633"><ele>22.400000000000002</ele><time>2026-03-30T10:02:33.999Z</time></trkpt><trkpt lat="14.656619280870427" lon="121.11492578231407"><ele>22.8</ele><time>2026-03-30T10:02:35.999Z</time></trkpt><trkpt lat="14.656712511515211" lon="121.11501877613355"><ele>23.2</ele><time>2026-03-30T10:02:38Z</time></trkpt><trkpt lat="14.656758589255933" lon="121.11506760680534"><ele>23.6</ele><time>2026-03-30T10:02:39Z</time></trkpt><trkpt lat="14.656803368404136" lon="121.11512118788656"><ele>24.0</ele><time>2026-03-30T10:02:40Z</time></trkpt><trkpt lat="14.656850103018746" lon="121.11519172390652"><ele>24.0</ele><time>2026-03-30T10:02:41Z</time></trkpt><trkpt lat="14.656896195061881" lon="121.11525375013184"><ele>24.0</ele><time>2026-03-30T10:02:42Z</time></trkpt><trkpt lat="14.656938815340741" lon="121.11532469796927"><ele>24.0</ele><time>2026-03-30T10:02:43Z</time></trkpt><trkpt lat="14.65697963675342" lon="121.11539693933038"><ele>24.0</ele><time>2026-03-30T10:02:44Z</time></trkpt><trkpt lat="14.657017151209747" lon="121.11548277434623"><ele>24.0</ele><time>2026-03-30T10:02:45Z</time></trkpt><trkpt lat="14.65704662429412" lon="121.11556943339936"><ele>24.0</ele><time>2026-03-30T10:02:46Z</time></trkpt><trkpt lat="14.657076460957036" lon="121.11566343788299"><ele>24.2</ele><time>2026-03-30T10:02:47Z</time></trkpt><trkpt lat="14.657096455799739" lon="121.1157551381748"><ele>24.4</ele><time>2026-03-30T10:02:48Z</time></trkpt><trkpt lat="14.657118516418869" lon="121.11586037132558"><ele>24.6</ele><time>2026-03-30T10:02:49Z</time></trkpt><trkpt lat="14.657126820588926" lon="121.11596830655064"><ele>24.8</ele><time>2026-03-30T10:02:50Z</time></trkpt><trkpt lat="14.65713159046954" lon="121.11607789904735"><ele>25.0</ele><time>2026-03-30T10:02:51Z</time></trkpt><trkpt lat="14.65713399680954" lon="121.11619608009183"><ele>25.0</ele><time>2026-03-30T10:02:52Z</time></trkpt><trkpt lat="14.657138182620768" lon="121.11632085677924"><ele>25.0</ele><time>2026-03-30T10:02:53Z</time></trkpt><trkpt lat="14.65713612533045" lon="121.11643985749214"><ele>25.0</ele><time>2026-03-30T10:02:54Z</time></trkpt><trkpt lat="14.657138827700098" lon="121.11656637351018"><ele>25.0</ele><time>2026-03-30T10:02:55Z</time></trkpt><trkpt lat="14.657145380638994" lon="121.11669470134501"><ele>25.5</ele><time>2026-03-30T10:02:56Z</time></trkpt><trkpt lat="14.657148523782519" lon="121.1168194065229"><ele>26.0</ele><time>2026-03-30T10:02:57Z</time></trkpt><trkpt lat="14.657152653346772" lon="121.11694772325657"><ele>26.5</ele><time>2026-03-30T10:02:58Z</time></trkpt><trkpt lat="14.657158536435425" lon="121.11707680053904"><ele>27.0</ele><time>2026-03-30T10:02:59Z</time></trkpt><trkpt lat="14.657163002984602" lon="121.11720527317236"><ele>27.0</ele><time>2026-03-30T10:03:00Z</time></trkpt><trkpt lat="14.657168401137783" lon="121.1173325542234"><ele>27.0</ele><time>2026-03-30T10:03:01Z</time></trkpt><trkpt lat="14.657179839214944" lon="121.11746829024018"><ele>27.0</ele><time>2026-03-30T10:03:02Z</time></trkpt><trkpt lat="14.657177011059392" lon="121.11759174081875"><ele>27.0</ele><time>2026-03-30T10:03:03Z</time></trkpt><trkpt lat="14.657181156534284" lon="121.11769789337619"><ele>27.166666666666668</ele><time>2026-03-30T10:03:04Z</time></trkpt><trkpt lat="14.65718673903795" lon="121.11779929376941"><ele>27.333333333333336</ele><time>2026-03-30T10:03:05Z</time></trkpt><trkpt lat="14.657187581266273" lon="121.11789413637999"><ele>27.5</ele><time>2026-03-30T10:03:06Z</time></trkpt><trkpt lat="14.657189124895023" lon="121.11797692128052"><ele>27.666666666666668</ele><time>2026-03-30T10:03:07Z</time></trkpt><trkpt lat="14.657190754687125" lon="121.11805102249177"><ele>27.833333333333336</ele><time>2026-03-30T10:03:08Z</time></trkpt><trkpt lat="14.65719354824844" lon="121.11814749840964"><ele>28.0</ele><time>2026-03-30T10:03:10Z</time></trkpt><trkpt lat="14.657201651059793" lon="121.11821578406163"><ele>28.0</ele><time>2026-03-30T10:03:13Z</time></trkpt><trkpt lat="14.657251294129408" lon="121.11828310301901"><ele>27.999999999999996</ele><time>2026-03-30T10:03:17Z</time></trkpt><trkpt lat="14.657365293942709" lon="121.11830707040295"><ele>27.999999999999996</ele><time>2026-03-30T10:03:19Z</time></trkpt><trkpt lat="14.657490632107375" lon="121.1183199780618"><ele>28.0</ele><time>2026-03-30T10:03:21Z</time></trkpt><trkpt lat="14.65757410536437" lon="121.11833168044613"><ele>28.0</ele><time>2026-03-30T10:03:22Z</time></trkpt><trkpt lat="14.657657618168303" lon="121.11834417455628"><ele>28.000000000000004</ele><time>2026-03-30T10:03:23Z</time></trkpt><trkpt lat="14.657768530215522" lon="121.11834484290364"><ele>28.0</ele><time>2026-03-30T10:03:25Z</time></trkpt><trkpt lat="14.657833139611103" lon="121.1183507703301"><ele>28.0</ele><time>2026-03-30T10:03:26Z</time></trkpt><trkpt lat="14.657896825302418" lon="121.11836014391677"><ele>28.0</ele><time>2026-03-30T10:03:27Z</time></trkpt><trkpt lat="14.65796415786819" lon="121.11836705245216"><ele>28.000000000000004</ele><time>2026-03-30T10:03:28Z</time></trkpt><trkpt lat="14.658085752672303" lon="121.11839068484194"><ele>28.0</ele><time>2026-03-30T10:03:30Z</time></trkpt><trkpt lat="14.658185085646263" lon="121.1184090667103"><ele>28.833333333333336</ele><time>2026-03-30T10:03:32Z</time></trkpt><trkpt lat="14.658271554235329" lon="121.11843002940003"><ele>29.666666666666668</ele><time>2026-03-30T10:03:34Z</time></trkpt><trkpt lat="14.658383043356384" lon="121.11844555063679"><ele>30.5</ele><time>2026-03-30T10:03:36Z</time></trkpt><trkpt lat="14.658448464471103" lon="121.11845457291479"><ele>31.333333333333336</ele><time>2026-03-30T10:03:37Z</time></trkpt><trkpt lat="14.658515785425136" lon="121.11846989248909"><ele>32.166666666666664</ele><time>2026-03-30T10:03:38Z</time></trkpt><trkpt lat="14.658582153815354" lon="121.1184808784132"><ele>33.0</ele><time>2026-03-30T10:03:39Z</time></trkpt><trkpt lat="14.658652916475532" lon="121.11848790652459"><ele>33.6</ele><time>2026-03-30T10:03:40Z</time></trkpt><trkpt lat="14.658717298094702" lon="121.11849197942593"><ele>34.199999999999996</ele><time>2026-03-30T10:03:41Z</time></trkpt><trkpt lat="14.658826714578193" lon="121.11851399948493"><ele>34.8</ele><time>2026-03-30T10:03:43Z</time></trkpt><trkpt lat="14.658948173630641" lon="121.11852687594435"><ele>35.4</ele><time>2026-03-30T10:03:45Z</time></trkpt><trkpt lat="14.65905771575256" lon="121.1185441770359"><ele>36.0</ele><time>2026-03-30T10:03:47Z</time></trkpt><trkpt lat="14.659125926080712" lon="121.11854512586763"><ele>36.0</ele><time>2026-03-30T10:03:49Z</time></trkpt><trkpt lat="14.659212693550133" lon="121.11855603343558"><ele>36.0</ele><time>2026-03-30T10:03:51Z</time></trkpt><trkpt lat="14.659324871386492" lon="121.11857418526068"><ele>36.0</ele><time>2026-03-30T10:03:53Z</time></trkpt><trkpt lat="14.659394687997052" lon="121.11858449156477"><ele>36.0</ele><time>2026-03-30T10:03:53.997Z</time></trkpt><trkpt lat="14.659465004122954" lon="121.11859858616751"><ele>36.0</ele><time>2026-03-30T10:03:54.997Z</time></trkpt><trkpt lat="14.659539628999287" lon="121.11861220448128"><ele>36.0</ele><time>2026-03-30T10:03:55.997Z</time></trkpt><trkpt lat="14.659610551219119" lon="121.11862100449017"><ele>36.833333333333336</ele><time>2026-03-30T10:03:56.997Z</time></trkpt><trkpt lat="14.65968497689416" lon="121.11863398212054"><ele>37.666666666666664</ele><time>2026-03-30T10:03:57.998Z</time></trkpt><trkpt lat="14.659759193888654" lon="121.11864801685215"><ele>38.5</ele><time>2026-03-30T10:03:58.998Z</time></trkpt><trkpt lat="14.659833456297633" lon="121.11866035354012"><ele>39.33333333333333</ele><time>2026-03-30T10:03:59.998Z</time></trkpt><trkpt lat="14.659902189718027" lon="121.11867306580004"><ele>40.166666666666664</ele><time>2026-03-30T10:04:00.998Z</time></trkpt><trkpt lat="14.660015714066828" lon="121.11868612633242"><ele>41.0</ele><time>2026-03-30T10:04:02.998Z</time></trkpt><trkpt lat="14.660104826592894" lon="121.11870458163527"><ele>41.0</ele><time>2026-03-30T10:04:04.998Z</time></trkpt><trkpt lat="14.660159817834332" lon="121.11877112403415"><ele>41.0</ele><time>2026-03-30T10:04:06.998Z</time></trkpt><trkpt lat="14.660181880558278" lon="121.11889356791244"><ele>41.0</ele><time>2026-03-30T10:04:08.998Z</time></trkpt><trkpt lat="14.660193809154666" lon="121.11901928856004"><ele>41.0</ele><time>2026-03-30T10:04:10.998Z</time></trkpt><trkpt lat="14.66020024520147" lon="121.1191493545136"><ele>41.199999999999996</ele><time>2026-03-30T10:04:12.998Z</time></trkpt><trkpt lat="14.66020560806081" lon="121.11927760389563"><ele>41.4</ele><time>2026-03-30T10:04:14.998Z</time></trkpt><trkpt lat="14.660213434802372" lon="121.11934481129872"><ele>41.6</ele><time>2026-03-30T10:04:15.998Z</time></trkpt><trkpt lat="14.660216530656006" lon="121.11941760763924"><ele>41.8</ele><time>2026-03-30T10:04:16.998Z</time></trkpt><trkpt lat="14.660215244239273" lon="121.11949168414573"><ele>42.0</ele><time>2026-03-30T10:04:17.998Z</time></trkpt><trkpt lat="14.660204095500944" lon="121.11961597830722"><ele>42.0</ele><time>2026-03-30T10:04:19.999Z</time></trkpt><trkpt lat="14.660190536564524" lon="121.11973038408655"><ele>42.0</ele><time>2026-03-30T10:04:21.999Z</time></trkpt><trkpt lat="14.660172463483637" lon="121.11985429542064"><ele>42.0</ele><time>2026-03-30T10:04:23.999Z</time></trkpt><trkpt lat="14.660132771081907" lon="121.11996397842938"><ele>42.0</ele><time>2026-03-30T10:04:25.999Z</time></trkpt><trkpt lat="14.66010719584789" lon="121.1200497549593"><ele>42.0</ele><time>2026-03-30T10:04:27.999Z</time></trkpt><trkpt lat="14.660076460343223" lon="121.12011860739251"><ele>41.285714285714285</ele><time>2026-03-30T10:04:30.999Z</time></trkpt><trkpt lat="14.660007144462616" lon="121.12012717845458"><ele>40.57142857142857</ele><time>2026-03-30T10:04:35.999Z</time></trkpt><trkpt lat="14.659943305201754" lon="121.12010422440974"><ele>39.85714285714286</ele><time>2026-03-30T10:04:37.999Z</time></trkpt><trkpt lat="14.659872705999367" lon="121.12008718351484"><ele>39.14285714285714</ele><time>2026-03-30T10:04:40.999Z</time></trkpt><trkpt lat="14.65980100199469" lon="121.12008627642201"><ele>38.42857142857143</ele><time>2026-03-30T10:04:42.999Z</time></trkpt><trkpt lat="14.659735752401675" lon="121.1200665365513"><ele>37.714285714285715</ele><time>2026-03-30T10:04:44.999Z</time></trkpt><trkpt lat="14.6596583045586" lon="121.12004970413307"><ele>37.0</ele><time>2026-03-30T10:04:47.999Z</time></trkpt><trkpt lat="14.659590610723939" lon="121.12004454284903"><ele>37.0</ele><time>2026-03-30T10:04:51.999Z</time></trkpt><trkpt lat="14.659660457490308" lon="121.12004428244465"><ele>37.0</ele><time>2026-03-30T10:13:25.001Z</time></trkpt><trkpt lat="14.659750985693186" lon="121.12006902180443"><ele>37.0</ele><time>2026-03-30T10:13:28.001Z</time></trkpt><trkpt lat="14.65982829290129" lon="121.12008256896725"><ele>37.0</ele><time>2026-03-30T10:13:31.001Z</time></trkpt><trkpt lat="14.65989267112426" lon="121.12008805970476"><ele>37.0</ele><time>2026-03-30T10:13:33.001Z</time></trkpt><trkpt lat="14.65996999445318" lon="121.12010220743991"><ele>37.0</ele><time>2026-03-30T10:13:36.001Z</time></trkpt><trkpt lat="14.660036639119582" lon="121.12011948610468"><ele>37.0</ele><time>2026-03-30T10:13:39.001Z</time></trkpt><trkpt lat="14.660115138610184" lon="121.12009682776522"><ele>37.0</ele><time>2026-03-30T10:13:45.001Z</time></trkpt><trkpt lat="14.66014190975052" lon="121.11997700179165"><ele>37.0</ele><time>2026-03-30T10:13:47.001Z</time></trkpt><trkpt lat="14.660166782230181" lon="121.1198545707968"><ele>37.0</ele><time>2026-03-30T10:13:49.001Z</time></trkpt><trkpt lat="14.660186751850363" lon="121.11979108260965"><ele>37.0</ele><time>2026-03-30T10:13:50.001Z</time></trkpt><trkpt lat="14.660197982723279" lon="121.11972398090415"><ele>37.833333333333336</ele><time>2026-03-30T10:13:51.001Z</time></trkpt><trkpt lat="14.660209493630022" lon="121.11964576568705"><ele>38.66666666666667</ele><time>2026-03-30T10:13:52.001Z</time></trkpt><trkpt lat="14.660218578521022" lon="121.11956838997986"><ele>39.5</ele><time>2026-03-30T10:13:53.001Z</time></trkpt><trkpt lat="14.660218539648632" lon="121.11949224973512"><ele>40.333333333333336</ele><time>2026-03-30T10:13:54.001Z</time></trkpt><trkpt lat="14.66021441154017" lon="121.11936109619096"><ele>41.166666666666664</ele><time>2026-03-30T10:13:56.001Z</time></trkpt><trkpt lat="14.66020833115745" lon="121.11928862840212"><ele>42.0</ele><time>2026-03-30T10:13:57.001Z</time></trkpt><trkpt lat="14.66020187846825" lon="121.11921304058947"><ele>42.0</ele><time>2026-03-30T10:13:58.001Z</time></trkpt><trkpt lat="14.660197178683228" lon="121.11914539010826"><ele>42.0</ele><time>2026-03-30T10:13:59.001Z</time></trkpt><trkpt lat="14.660182181680444" lon="121.1189748695556"><ele>42.0</ele><time>2026-03-30T10:14:01.001Z</time></trkpt><trkpt lat="14.660171397592395" lon="121.1188576735494"><ele>42.0</ele><time>2026-03-30T10:14:03.001Z</time></trkpt><trkpt lat="14.660167440793327" lon="121.11877398449307"><ele>42.0</ele><time>2026-03-30T10:14:05.001Z</time></trkpt><trkpt lat="14.660142958413033" lon="121.11870603388425"><ele>41.833333333333336</ele><time>2026-03-30T10:14:09.001Z</time></trkpt><trkpt lat="14.6600756962855" lon="121.11869772739767"><ele>41.666666666666664</ele><time>2026-03-30T10:14:13.001Z</time></trkpt><trkpt lat="14.659974474181432" lon="121.1186769529682"><ele>41.5</ele><time>2026-03-30T10:14:15.001Z</time></trkpt><trkpt lat="14.659911898126706" lon="121.11866517429408"><ele>41.33333333333333</ele><time>2026-03-30T10:14:16.001Z</time></trkpt><trkpt lat="14.659845553013644" lon="121.11865266332978"><ele>41.166666666666664</ele><time>2026-03-30T10:14:17.001Z</time></trkpt><trkpt lat="14.659770879446452" lon="121.11863869870189"><ele>41.0</ele><time>2026-03-30T10:14:18.001Z</time></trkpt><trkpt lat="14.659694235138375" lon="121.11862367084231"><ele>41.0</ele><time>2026-03-30T10:14:19.001Z</time></trkpt><trkpt lat="14.659626525903477" lon="121.11861772079331"><ele>41.0</ele><time>2026-03-30T10:14:20.001Z</time></trkpt><trkpt lat="14.65950979776562" lon="121.1186036299849"><ele>41.0</ele><time>2026-03-30T10:14:22Z</time></trkpt><trkpt lat="14.659383296964721" lon="121.11858709381077"><ele>41.0</ele><time>2026-03-30T10:14:24Z</time></trkpt><trkpt lat="14.659277259573559" lon="121.11856222661159"><ele>41.0</ele><time>2026-03-30T10:14:26Z</time></trkpt><trkpt lat="14.659187550966431" lon="121.1185497744648"><ele>40.0</ele><time>2026-03-30T10:14:28Z</time></trkpt><trkpt lat="14.65905908993558" lon="121.11853474694301"><ele>39.0</ele><time>2026-03-30T10:14:30Z</time></trkpt><trkpt lat="14.658981683255154" lon="121.11852229037989"><ele>38.0</ele><time>2026-03-30T10:14:31Z</time></trkpt><trkpt lat="14.6589020733228" lon="121.11851117851343"><ele>37.0</ele><time>2026-03-30T10:14:32Z</time></trkpt><trkpt lat="14.658817307211025" lon="121.11849632316026"><ele>36.0</ele><time>2026-03-30T10:14:33Z</time></trkpt><trkpt lat="14.658726376389712" lon="121.11848295198297"><ele>36.0</ele><time>2026-03-30T10:14:34Z</time></trkpt><trkpt lat="14.658636798830704" lon="121.11847095027684"><ele>36.0</ele><time>2026-03-30T10:14:35Z</time></trkpt><trkpt lat="14.658551669758683" lon="121.11846061737599"><ele>36.0</ele><time>2026-03-30T10:14:36Z</time></trkpt><trkpt lat="14.658466965927015" lon="121.11844977245356"><ele>36.0</ele><time>2026-03-30T10:14:37Z</time></trkpt><trkpt lat="14.658382248937196" lon="121.11843780355991"><ele>36.0</ele><time>2026-03-30T10:14:38Z</time></trkpt><trkpt lat="14.65830176427601" lon="121.11842405155977"><ele>36.0</ele><time>2026-03-30T10:14:39Z</time></trkpt><trkpt lat="14.658233640280175" lon="121.11841392818133"><ele>35.5</ele><time>2026-03-30T10:14:40Z</time></trkpt><trkpt lat="14.658158131195757" lon="121.11840322305282"><ele>35.0</ele><time>2026-03-30T10:14:41Z</time></trkpt><trkpt lat="14.658083193577337" lon="121.11839279353437"><ele>34.5</ele><time>2026-03-30T10:14:42Z</time></trkpt><trkpt lat="14.658008061208056" lon="121.11838220353917"><ele>34.0</ele><time>2026-03-30T10:14:43Z</time></trkpt><trkpt lat="14.657931474849786" lon="121.11837337096914"><ele>33.5</ele><time>2026-03-30T10:14:44Z</time></trkpt><trkpt lat="14.657850415765424" lon="121.11836305430333"><ele>33.0</ele><time>2026-03-30T10:14:45Z</time></trkpt><trkpt lat="14.657767019834859" lon="121.11835057453206"><ele>32.285714285714285</ele><time>2026-03-30T10:14:46Z</time></trkpt><trkpt lat="14.657698374024507" lon="121.11833880200739"><ele>31.571428571428573</ele><time>2026-03-30T10:14:47Z</time></trkpt><trkpt lat="14.657629436757906" lon="121.118326160828"><ele>30.857142857142858</ele><time>2026-03-30T10:14:48Z</time></trkpt><trkpt lat="14.657550696943499" lon="121.118320793123"><ele>30.142857142857142</ele><time>2026-03-30T10:14:50Z</time></trkpt><trkpt lat="14.657487576805805" lon="121.11831649721424"><ele>29.42857142857143</ele><time>2026-03-30T10:14:52Z</time></trkpt><trkpt lat="14.6574055837466" lon="121.11830062179806"><ele>28.714285714285715</ele><time>2026-03-30T10:14:54Z</time></trkpt><trkpt lat="14.657335437941386" lon="121.11828940894982"><ele>28.0</ele><time>2026-03-30T10:14:56Z</time></trkpt><trkpt lat="14.657251890968041" lon="121.11827635501459"><ele>28.0</ele><time>2026-03-30T10:14:59Z</time></trkpt><trkpt lat="14.657184822139762" lon="121.11829803524876"><ele>27.999999999999996</ele><time>2026-03-30T10:15:02Z</time></trkpt><trkpt lat="14.657150506326374" lon="121.11838288857476"><ele>27.999999999999996</ele><time>2026-03-30T10:15:04Z</time></trkpt><trkpt lat="14.657163597557108" lon="121.11852647240008"><ele>28.0</ele><time>2026-03-30T10:15:06Z</time></trkpt><trkpt lat="14.657155009857043" lon="121.11861867804956"><ele>28.0</ele><time>2026-03-30T10:15:07Z</time></trkpt><trkpt lat="14.657144791692618" lon="121.11871060057906"><ele>28.0</ele><time>2026-03-30T10:15:08Z</time></trkpt><trkpt lat="14.657142642629582" lon="121.11880739370523"><ele>27.999999999999996</ele><time>2026-03-30T10:15:09Z</time></trkpt><trkpt lat="14.657139908811521" lon="121.11890808972467"><ele>27.999999999999996</ele><time>2026-03-30T10:15:10Z</time></trkpt><trkpt lat="14.657136344269007" lon="121.1190119536853"><ele>28.0</ele><time>2026-03-30T10:15:11Z</time></trkpt><trkpt lat="14.657132899332996" lon="121.1191162926216"><ele>28.0</ele><time>2026-03-30T10:15:12Z</time></trkpt><trkpt lat="14.657141357617151" lon="121.11921469967719"><ele>28.799999999999997</ele><time>2026-03-30T10:15:13Z</time></trkpt><trkpt lat="14.657162115943349" lon="121.1193076768843"><ele>29.599999999999998</ele><time>2026-03-30T10:15:14Z</time></trkpt><trkpt lat="14.657185130142912" lon="121.1194037893832"><ele>30.400000000000002</ele><time>2026-03-30T10:15:15Z</time></trkpt><trkpt lat="14.657203888799218" lon="121.11949920396302"><ele>31.200000000000003</ele><time>2026-03-30T10:15:16Z</time></trkpt><trkpt lat="14.657216722897662" lon="121.11959942786329"><ele>32.0</ele><time>2026-03-30T10:15:17Z</time></trkpt><trkpt lat="14.657227338935488" lon="121.11970105757729"><ele>32.0</ele><time>2026-03-30T10:15:18Z</time></trkpt><trkpt lat="14.657233289568055" lon="121.11980451466978"><ele>32.0</ele><time>2026-03-30T10:15:19Z</time></trkpt><trkpt lat="14.657238885317934" lon="121.11990555159329"><ele>32.0</ele><time>2026-03-30T10:15:20Z</time></trkpt><trkpt lat="14.657238482191506" lon="121.12000803524417"><ele>32.0</ele><time>2026-03-30T10:15:21Z</time></trkpt><trkpt lat="14.657230215413195" lon="121.12011292779043"><ele>32.0</ele><time>2026-03-30T10:15:22Z</time></trkpt><trkpt lat="14.657209983083819" lon="121.120212536829"><ele>32.0</ele><time>2026-03-30T10:15:23Z</time></trkpt><trkpt lat="14.657191575299779" lon="121.12031596144585"><ele>32.0</ele><time>2026-03-30T10:15:24Z</time></trkpt><trkpt lat="14.657163039051682" lon="121.12041959055612"><ele>32.0</ele><time>2026-03-30T10:15:25Z</time></trkpt><trkpt lat="14.657127908658868" lon="121.12051414400848"><ele>32.0</ele><time>2026-03-30T10:15:26Z</time></trkpt><trkpt lat="14.657089611348812" lon="121.12061361200684"><ele>32.0</ele><time>2026-03-30T10:15:27Z</time></trkpt><trkpt lat="14.657053135960085" lon="121.12071534368988"><ele>32.6</ele><time>2026-03-30T10:15:28Z</time></trkpt><trkpt lat="14.657009830163489" lon="121.1208131163724"><ele>33.2</ele><time>2026-03-30T10:15:29Z</time></trkpt><trkpt lat="14.656962250643868" lon="121.1209135974427"><ele>33.8</ele><time>2026-03-30T10:15:30Z</time></trkpt><trkpt lat="14.656915367867525" lon="121.12101373845888"><ele>34.4</ele><time>2026-03-30T10:15:31Z</time></trkpt><trkpt lat="14.65685846646722" lon="121.12111231520703"><ele>35.0</ele><time>2026-03-30T10:15:32Z</time></trkpt><trkpt lat="14.656799455153239" lon="121.12120010859351"><ele>35.8</ele><time>2026-03-30T10:15:33Z</time></trkpt><trkpt lat="14.656732186587618" lon="121.12129095892098"><ele>36.6</ele><time>2026-03-30T10:15:34Z</time></trkpt><trkpt lat="14.656667737047314" lon="121.12137425177336"><ele>37.4</ele><time>2026-03-30T10:15:35Z</time></trkpt><trkpt lat="14.656601742894376" lon="121.12145687949156"><ele>38.2</ele><time>2026-03-30T10:15:36Z</time></trkpt><trkpt lat="14.656535398034926" lon="121.121529962263"><ele>39.0</ele><time>2026-03-30T10:15:37Z</time></trkpt><trkpt lat="14.656463136206606" lon="121.12160100016388"><ele>39.666666666666664</ele><time>2026-03-30T10:15:38Z</time></trkpt><trkpt lat="14.656394103497945" lon="121.12166276850067"><ele>40.333333333333336</ele><time>2026-03-30T10:15:39Z</time></trkpt><trkpt lat="14.656329684382863" lon="121.12171678651589"><ele>41.0</ele><time>2026-03-30T10:15:40Z</time></trkpt><trkpt lat="14.656267151430434" lon="121.12177411217498"><ele>41.66666666666667</ele><time>2026-03-30T10:15:41Z</time></trkpt><trkpt lat="14.656204376113264" lon="121.12182585828931"><ele>42.333333333333336</ele><time>2026-03-30T10:15:42Z</time></trkpt><trkpt lat="14.656133261730128" lon="121.12187381089537"><ele>43.0</ele><time>2026-03-30T10:15:43Z</time></trkpt><trkpt lat="14.65606953547632" lon="121.12191797667559"><ele>43.57142857142858</ele><time>2026-03-30T10:15:44Z</time></trkpt><trkpt lat="14.656002531855897" lon="121.12195664161588"><ele>44.142857142857146</ele><time>2026-03-30T10:15:45Z</time></trkpt><trkpt lat="14.655937163725367" lon="121.12198599723433"><ele>44.714285714285715</ele><time>2026-03-30T10:15:46Z</time></trkpt><trkpt lat="14.655879315441291" lon="121.12201974825017"><ele>45.28571428571429</ele><time>2026-03-30T10:15:47Z</time></trkpt><trkpt lat="14.655827173404624" lon="121.12205889375684"><ele>45.857142857142854</ele><time>2026-03-30T10:15:48Z</time></trkpt><trkpt lat="14.655772100039183" lon="121.12209671879339"><ele>46.42857142857143</ele><time>2026-03-30T10:15:49.001Z</time></trkpt><trkpt lat="14.655695478418064" lon="121.1221518218548"><ele>47.0</ele><time>2026-03-30T10:15:51.001Z</time></trkpt><trkpt lat="14.65562571947831" lon="121.12220375126181"><ele>47.0</ele><time>2026-03-30T10:15:53.001Z</time></trkpt><trkpt lat="14.655527541101005" lon="121.1222618044016"><ele>47.0</ele><time>2026-03-30T10:15:55.001Z</time></trkpt><trkpt lat="14.655470065613201" lon="121.1222954651438"><ele>47.0</ele><time>2026-03-30T10:15:56.001Z</time></trkpt><trkpt lat="14.655408708804334" lon="121.12233928056709"><ele>47.0</ele><time>2026-03-30T10:15:57.001Z</time></trkpt><trkpt lat="14.65534009720134" lon="121.12238190008328"><ele>47.0</ele><time>2026-03-30T10:15:58.001Z</time></trkpt><trkpt lat="14.655272035930457" lon="121.12242678938424"><ele>47.0</ele><time>2026-03-30T10:15:59.001Z</time></trkpt><trkpt lat="14.655194698861399" lon="121.12246844715239"><ele>48.2</ele><time>2026-03-30T10:16:00.001Z</time></trkpt><trkpt lat="14.655113676112231" lon="121.12251332293532"><ele>49.400000000000006</ele><time>2026-03-30T10:16:01.001Z</time></trkpt><trkpt lat="14.655033408781101" lon="121.12255743500378"><ele>50.599999999999994</ele><time>2026-03-30T10:16:02.001Z</time></trkpt><trkpt lat="14.65494886388273" lon="121.12259648939073"><ele>51.8</ele><time>2026-03-30T10:16:03.001Z</time></trkpt><trkpt lat="14.654860805643738" lon="121.1226381636891"><ele>53.0</ele><time>2026-03-30T10:16:04.001Z</time></trkpt><trkpt lat="14.654776859350482" lon="121.12267693593928"><ele>53.00000000000001</ele><time>2026-03-30T10:16:05.001Z</time></trkpt><trkpt lat="14.654693528269869" lon="121.12270781562115"><ele>53.0</ele><time>2026-03-30T10:16:06.001Z</time></trkpt><trkpt lat="14.65461379827305" lon="121.12273890331512"><ele>53.0</ele><time>2026-03-30T10:16:07.001Z</time></trkpt><trkpt lat="14.654535312272289" lon="121.12276770176433"><ele>53.0</ele><time>2026-03-30T10:16:08.001Z</time></trkpt><trkpt lat="14.654461244713167" lon="121.12279512337955"><ele>53.00000000000001</ele><time>2026-03-30T10:16:09.001Z</time></trkpt><trkpt lat="14.65438284345337" lon="121.1228180737653"><ele>53.0</ele><time>2026-03-30T10:16:10.001Z</time></trkpt><trkpt lat="14.654301708078602" lon="121.12284296239226"><ele>52.4</ele><time>2026-03-30T10:16:11.001Z</time></trkpt><trkpt lat="14.654216469666446" lon="121.1228655079037"><ele>51.8</ele><time>2026-03-30T10:16:12.001Z</time></trkpt><trkpt lat="14.654126029165248" lon="121.12288803743489"><ele>51.2</ele><time>2026-03-30T10:16:13.001Z</time></trkpt><trkpt lat="14.654032193882303" lon="121.12290571470896"><ele>50.6</ele><time>2026-03-30T10:16:14.001Z</time></trkpt><trkpt lat="14.653943146773146" lon="121.12292430067805"><ele>50.0</ele><time>2026-03-30T10:16:15.001Z</time></trkpt><trkpt lat="14.653850491851639" lon="121.12294116866332"><ele>50.0</ele><time>2026-03-30T10:16:16.001Z</time></trkpt><trkpt lat="14.653749914807447" lon="121.1229593479771"><ele>50.0</ele><time>2026-03-30T10:16:17.001Z</time></trkpt><trkpt lat="14.653661462176814" lon="121.12297404470807"><ele>50.0</ele><time>2026-03-30T10:16:18.001Z</time></trkpt><trkpt lat="14.653569064228844" lon="121.12299067712647"><ele>50.0</ele><time>2026-03-30T10:16:19.001Z</time></trkpt><trkpt lat="14.6534789793798" lon="121.1229950243999"><ele>50.0</ele><time>2026-03-30T10:16:20.001Z</time></trkpt><trkpt lat="14.653388557020676" lon="121.1229967564078"><ele>49.2</ele><time>2026-03-30T10:16:21.001Z</time></trkpt><trkpt lat="14.65328859646518" lon="121.12299997027675"><ele>48.4</ele><time>2026-03-30T10:16:22.001Z</time></trkpt><trkpt lat="14.653180623267591" lon="121.12300875003332"><ele>47.599999999999994</ele><time>2026-03-30T10:16:23.001Z</time></trkpt><trkpt lat="14.65307344605205" lon="121.12301045241206"><ele>46.8</ele><time>2026-03-30T10:16:24.001Z</time></trkpt><trkpt lat="14.652963700648428" lon="121.12300916185279"><ele>46.0</ele><time>2026-03-30T10:16:25.001Z</time></trkpt><trkpt lat="14.652857576127124" lon="121.12300247679498"><ele>45.0</ele><time>2026-03-30T10:16:26.001Z</time></trkpt><trkpt lat="14.65275659061749" lon="121.12299562101262"><ele>44.0</ele><time>2026-03-30T10:16:27.001Z</time></trkpt><trkpt lat="14.65265969691379" lon="121.12298535121813"><ele>43.0</ele><time>2026-03-30T10:16:28Z</time></trkpt><trkpt lat="14.652559555241032" lon="121.12297409762711"><ele>42.0</ele><time>2026-03-30T10:16:29Z</time></trkpt><trkpt lat="14.65246146286529" lon="121.1229615106864"><ele>41.0</ele><time>2026-03-30T10:16:30Z</time></trkpt><trkpt lat="14.652368233638668" lon="121.1229470957763"><ele>41.0</ele><time>2026-03-30T10:16:31Z</time></trkpt><trkpt lat="14.652282359742484" lon="121.12293199299549"><ele>41.0</ele><time>2026-03-30T10:16:32Z</time></trkpt><trkpt lat="14.652204136662403" lon="121.12292124764814"><ele>41.0</ele><time>2026-03-30T10:16:33Z</time></trkpt><trkpt lat="14.652139011226467" lon="121.12290552352243"><ele>41.0</ele><time>2026-03-30T10:16:34Z</time></trkpt><trkpt lat="14.652052406178464" lon="121.1228916545928"><ele>41.0</ele><time>2026-03-30T10:16:36Z</time></trkpt><trkpt lat="14.651971038178214" lon="121.12288167750964"><ele>41.0</ele><time>2026-03-30T10:16:42Z</time></trkpt><trkpt lat="14.65189295707521" lon="121.12286369994838"><ele>40.4</ele><time>2026-03-30T10:16:46Z</time></trkpt><trkpt lat="14.651787393210636" lon="121.12283355597327"><ele>39.8</ele><time>2026-03-30T10:16:48Z</time></trkpt><trkpt lat="14.651721004772101" lon="121.122804104011"><ele>39.199999999999996</ele><time>2026-03-30T10:16:49Z</time></trkpt><trkpt lat="14.651624098369412" lon="121.12275945606481"><ele>38.599999999999994</ele><time>2026-03-30T10:16:51Z</time></trkpt><trkpt lat="14.651550135570028" lon="121.12273671159632"><ele>38.0</ele><time>2026-03-30T10:16:53Z</time></trkpt><trkpt lat="14.651432270762333" lon="121.12270951250083"><ele>38.0</ele><time>2026-03-30T10:16:55Z</time></trkpt><trkpt lat="14.651350323341145" lon="121.1226831392889"><ele>38.0</ele><time>2026-03-30T10:16:56Z</time></trkpt><trkpt lat="14.651262732485863" lon="121.1226335792662"><ele>38.0</ele><time>2026-03-30T10:16:57Z</time></trkpt><trkpt lat="14.651161910041742" lon="121.12258506699581"><ele>38.0</ele><time>2026-03-30T10:16:58Z</time></trkpt><trkpt lat="14.651052899778268" lon="121.12253655491295"><ele>38.0</ele><time>2026-03-30T10:16:59Z</time></trkpt><trkpt lat="14.650941681127577" lon="121.12248655665593"><ele>37.25</ele><time>2026-03-30T10:17:00Z</time></trkpt><trkpt lat="14.650830634613106" lon="121.12243292491466"><ele>36.5</ele><time>2026-03-30T10:17:01Z</time></trkpt><trkpt lat="14.650720672559824" lon="121.12237686449954"><ele>35.75</ele><time>2026-03-30T10:17:02Z</time></trkpt><trkpt lat="14.650604849280162" lon="121.12231119023704"><ele>35.0</ele><time>2026-03-30T10:17:03Z</time></trkpt><trkpt lat="14.650486764606073" lon="121.12223695924041"><ele>35.0</ele><time>2026-03-30T10:17:04Z</time></trkpt><trkpt lat="14.65044634414554" lon="121.12217589982299"><ele>35.0</ele><time>2026-03-30T10:17:05Z</time></trkpt><trkpt lat="14.650355724322278" lon="121.1220968879846"><ele>35.0</ele><time>2026-03-30T10:17:06Z</time></trkpt><trkpt lat="14.650260438053534" lon="121.12201070591982"><ele>35.0</ele><time>2026-03-30T10:17:07Z</time></trkpt><trkpt lat="14.650168781984963" lon="121.12192755924211"><ele>35.0</ele><time>2026-03-30T10:17:08Z</time></trkpt><trkpt lat="14.65007817762975" lon="121.12184254261442"><ele>34.4</ele><time>2026-03-30T10:17:09Z</time></trkpt><trkpt lat="14.649995633136463" lon="121.12176556900864"><ele>33.8</ele><time>2026-03-30T10:17:10Z</time></trkpt><trkpt lat="14.64992162763994" lon="121.12169438553018"><ele>33.2</ele><time>2026-03-30T10:17:11Z</time></trkpt><trkpt lat="14.649842831732348" lon="121.121620552732"><ele>32.6</ele><time>2026-03-30T10:17:12Z</time></trkpt><trkpt lat="14.649762030943288" lon="121.12154946841959"><ele>32.0</ele><time>2026-03-30T10:17:13Z</time></trkpt><trkpt lat="14.64967392999671" lon="121.12148578866379"><ele>32.0</ele><time>2026-03-30T10:17:14Z</time></trkpt><trkpt lat="14.649579317745822" lon="121.12142438801361"><ele>32.0</ele><time>2026-03-30T10:17:15Z</time></trkpt><trkpt lat="14.649474157504066" lon="121.12137311049636"><ele>32.0</ele><time>2026-03-30T10:17:16Z</time></trkpt><trkpt lat="14.649357336498461" lon="121.12131832426707"><ele>32.0</ele><time>2026-03-30T10:17:17Z</time></trkpt><trkpt lat="14.649232701274823" lon="121.12127011257839"><ele>30.5</ele><time>2026-03-30T10:17:18Z</time></trkpt><trkpt lat="14.649105890780147" lon="121.12122416946657"><ele>29.0</ele><time>2026-03-30T10:17:19Z</time></trkpt><trkpt lat="14.648985204066598" lon="121.1211875130046"><ele>27.5</ele><time>2026-03-30T10:17:20Z</time></trkpt><trkpt lat="14.648871552078102" lon="121.1211428203201"><ele>26.0</ele><time>2026-03-30T10:17:21Z</time></trkpt><trkpt lat="14.648775915300492" lon="121.12109723558031"><ele>26.0</ele><time>2026-03-30T10:17:22Z</time></trkpt><trkpt lat="14.64868034153606" lon="121.12105706096403"><ele>26.0</ele><time>2026-03-30T10:17:23Z</time></trkpt><trkpt lat="14.648589756256715" lon="121.12102257788538"><ele>26.0</ele><time>2026-03-30T10:17:24Z</time></trkpt><trkpt lat="14.648507322906871" lon="121.12099268584842"><ele>26.0</ele><time>2026-03-30T10:17:25Z</time></trkpt><trkpt lat="14.648423916875187" lon="121.1209622314662"><ele>26.0</ele><time>2026-03-30T10:17:26Z</time></trkpt><trkpt lat="14.648340506871874" lon="121.12092760207116"><ele>26.166666666666664</ele><time>2026-03-30T10:17:27Z</time></trkpt><trkpt lat="14.648266035900804" lon="121.12089345644438"><ele>26.333333333333332</ele><time>2026-03-30T10:17:28Z</time></trkpt><trkpt lat="14.648197860572505" lon="121.1208615911483"><ele>26.5</ele><time>2026-03-30T10:17:29Z</time></trkpt><trkpt lat="14.648131465710092" lon="121.1208358261438"><ele>26.666666666666664</ele><time>2026-03-30T10:17:30Z</time></trkpt><trkpt lat="14.648058087563234" lon="121.12081091478706"><ele>26.833333333333332</ele><time>2026-03-30T10:17:31Z</time></trkpt><trkpt lat="14.647954139125728" lon="121.12076980178006"><ele>27.0</ele><time>2026-03-30T10:17:33Z</time></trkpt><trkpt lat="14.647888917822266" lon="121.12074373376996"><ele>27.200000000000003</ele><time>2026-03-30T10:17:34Z</time></trkpt><trkpt lat="14.64781621339534" lon="121.12071855298086"><ele>27.400000000000002</ele><time>2026-03-30T10:17:35Z</time></trkpt><trkpt lat="14.647719923061498" lon="121.12068942895476"><ele>27.599999999999998</ele><time>2026-03-30T10:17:36Z</time></trkpt><trkpt lat="14.647626658498849" lon="121.12065883950571"><ele>27.799999999999997</ele><time>2026-03-30T10:17:37Z</time></trkpt><trkpt lat="14.64753663143526" lon="121.12062466813329"><ele>28.0</ele><time>2026-03-30T10:17:38Z</time></trkpt><trkpt lat="14.647451982556362" lon="121.12058753666456"><ele>29.0</ele><time>2026-03-30T10:17:39Z</time></trkpt><trkpt lat="14.647360518441623" lon="121.12055942402226"><ele>29.999999999999996</ele><time>2026-03-30T10:17:40Z</time></trkpt><trkpt lat="14.647271662166816" lon="121.12052134695352"><ele>30.999999999999996</ele><time>2026-03-30T10:17:41Z</time></trkpt><trkpt lat="14.647170591642798" lon="121.12048762358425"><ele>32.0</ele><time>2026-03-30T10:17:42Z</time></trkpt><trkpt lat="14.647076472215963" lon="121.12045277582978"><ele>33.0</ele><time>2026-03-30T10:17:43Z</time></trkpt><trkpt lat="14.64696360890699" lon="121.12042094494018"><ele>34.0</ele><time>2026-03-30T10:17:44Z</time></trkpt><trkpt lat="14.646852506410706" lon="121.12038345039342"><ele>35.0</ele><time>2026-03-30T10:17:45Z</time></trkpt><trkpt lat="14.646746775426642" lon="121.12034363384198"><ele>36.0</ele><time>2026-03-30T10:17:46Z</time></trkpt><trkpt lat="14.646653844234793" lon="121.12031199956114"><ele>37.0</ele><time>2026-03-30T10:17:47Z</time></trkpt><trkpt lat="14.646576942174088" lon="121.12028167053485"><ele>38.0</ele><time>2026-03-30T10:17:48Z</time></trkpt><trkpt lat="14.646487248672788" lon="121.12023808980273"><ele>38.0</ele><time>2026-03-30T10:17:50Z</time></trkpt><trkpt lat="14.646400991634493" lon="121.12020316993896"><ele>38.0</ele><time>2026-03-30T10:17:53Z</time></trkpt><trkpt lat="14.64633573211778" lon="121.12017013123048"><ele>38.0</ele><time>2026-03-30T10:17:55Z</time></trkpt><trkpt lat="14.646222064591957" lon="121.12010311013286"><ele>38.0</ele><time>2026-03-30T10:17:57Z</time></trkpt><trkpt lat="14.646155394985902" lon="121.12005963155275"><ele>38.0</ele><time>2026-03-30T10:17:58Z</time></trkpt><trkpt lat="14.646084531062323" lon="121.12000842204203"><ele>38.33333333333333</ele><time>2026-03-30T10:17:59Z</time></trkpt><trkpt lat="14.64601364077165" lon="121.11995285864238"><ele>38.666666666666664</ele><time>2026-03-30T10:18:00Z</time></trkpt><trkpt lat="14.645946319960633" lon="121.11989808010716"><ele>39.0</ele><time>2026-03-30T10:18:01Z</time></trkpt><trkpt lat="14.645888439200101" lon="121.11983870496343"><ele>39.333333333333336</ele><time>2026-03-30T10:18:02Z</time></trkpt><trkpt lat="14.645821914737384" lon="121.11977807307674"><ele>39.66666666666667</ele><time>2026-03-30T10:18:03Z</time></trkpt><trkpt lat="14.645752888964752" lon="121.11971754633423"><ele>40.0</ele><time>2026-03-30T10:18:04Z</time></trkpt><trkpt lat="14.645697678048343" lon="121.11966761773654"><ele>40.0</ele><time>2026-03-30T10:18:05Z</time></trkpt><trkpt lat="14.645647607044783" lon="121.11962059699115"><ele>40.0</ele><time>2026-03-30T10:18:06Z</time></trkpt><trkpt lat="14.64557948108404" lon="121.11955223357526"><ele>40.0</ele><time>2026-03-30T10:18:08Z</time></trkpt><trkpt lat="14.645520280142385" lon="121.11951587510286"><ele>40.0</ele><time>2026-03-30T10:18:12Z</time></trkpt><trkpt lat="14.645428563278918" lon="121.11958610441813"><ele>40.0</ele><time>2026-03-30T10:18:15Z</time></trkpt><trkpt lat="14.645385325508647" lon="121.11964878400875"><ele>40.0</ele><time>2026-03-30T10:18:16Z</time></trkpt><trkpt lat="14.645332546678581" lon="121.1197063553559"><ele>39.833333333333336</ele><time>2026-03-30T10:18:17Z</time></trkpt><trkpt lat="14.645276578590044" lon="121.11976396368092"><ele>39.66666666666667</ele><time>2026-03-30T10:18:18Z</time></trkpt><trkpt lat="14.645220984219835" lon="121.11982610158536"><ele>39.5</ele><time>2026-03-30T10:18:19Z</time></trkpt><trkpt lat="14.645177510872305" lon="121.11989046807999"><ele>39.333333333333336</ele><time>2026-03-30T10:18:20Z</time></trkpt><trkpt lat="14.64513328814651" lon="121.11994140522685"><ele>39.166666666666664</ele><time>2026-03-30T10:18:21Z</time></trkpt><trkpt lat="14.645051415136884" lon="121.12002461008167"><ele>39.0</ele><time>2026-03-30T10:18:23Z</time></trkpt><trkpt lat="14.644976412749257" lon="121.12011510837301"><ele>39.0</ele><time>2026-03-30T10:18:25Z</time></trkpt><trkpt lat="14.64490320587495" lon="121.1201945394653"><ele>39.0</ele><time>2026-03-30T10:18:27Z</time></trkpt><trkpt lat="14.644821860072696" lon="121.12028337192754"><ele>39.0</ele><time>2026-03-30T10:18:29.001Z</time></trkpt><trkpt lat="14.644744025440056" lon="121.12033728471049"><ele>39.0</ele><time>2026-03-30T10:18:31.001Z</time></trkpt><trkpt lat="14.644656109823627" lon="121.12040740120614"><ele>39.0</ele><time>2026-03-30T10:18:33.001Z</time></trkpt><trkpt lat="14.644582450551463" lon="121.12048750071655"><ele>39.0</ele><time>2026-03-30T10:18:35Z</time></trkpt><trkpt lat="14.644525108036175" lon="121.1205580103416"><ele>39.0</ele><time>2026-03-30T10:18:37Z</time></trkpt><trkpt lat="14.644468025399792" lon="121.1206297876715"><ele>39.0</ele><time>2026-03-30T10:18:39Z</time></trkpt><trkpt lat="14.644391954056728" lon="121.12071755337696"><ele>39.0</ele><time>2026-03-30T10:18:41Z</time></trkpt><trkpt lat="14.644347947507779" lon="121.12077211328327"><ele>39.0</ele><time>2026-03-30T10:18:42Z</time></trkpt><trkpt lat="14.64427294066705" lon="121.12085364161051"><ele>37.4</ele><time>2026-03-30T10:18:44Z</time></trkpt><trkpt lat="14.644199628103587" lon="121.12093265993748"><ele>35.8</ele><time>2026-03-30T10:18:46Z</time></trkpt><trkpt lat="14.644117140605058" lon="121.12101598260413"><ele>34.2</ele><time>2026-03-30T10:18:48Z</time></trkpt><trkpt lat="14.644037919788039" lon="121.12109710669823"><ele>32.6</ele><time>2026-03-30T10:18:50Z</time></trkpt><trkpt lat="14.643958666483043" lon="121.12116615550096"><ele>31.0</ele><time>2026-03-30T10:18:52Z</time></trkpt><trkpt lat="14.643875305925656" lon="121.12123519548551"><ele>31.0</ele><time>2026-03-30T10:18:54Z</time></trkpt><trkpt lat="14.643803954755604" lon="121.1213011197425"><ele>31.0</ele><time>2026-03-30T10:18:56Z</time></trkpt><trkpt lat="14.643725767590265" lon="121.12136214042809"><ele>31.0</ele><time>2026-03-30T10:18:58Z</time></trkpt><trkpt lat="14.643633437940919" lon="121.12142899175832"><ele>31.0</ele><time>2026-03-30T10:19:00Z</time></trkpt><trkpt lat="14.643559681054214" lon="121.1214864729018"><ele>31.0</ele><time>2026-03-30T10:19:02Z</time></trkpt><trkpt lat="14.643504690380947" lon="121.12153165844339"><ele>30.833333333333336</ele><time>2026-03-30T10:19:04Z</time></trkpt><trkpt lat="14.643451181175644" lon="121.1215691756231"><ele>30.666666666666668</ele><time>2026-03-30T10:19:06Z</time></trkpt><trkpt lat="14.643376313771597" lon="121.12160398217249"><ele>30.5</ele><time>2026-03-30T10:19:09Z</time></trkpt><trkpt lat="14.643306849789399" lon="121.12164871550203"><ele>30.333333333333336</ele><time>2026-03-30T10:19:11Z</time></trkpt><trkpt lat="14.643224183947796" lon="121.12169424191363"><ele>30.166666666666668</ele><time>2026-03-30T10:19:13Z</time></trkpt><trkpt lat="14.643125109481558" lon="121.12174687475567"><ele>30.0</ele><time>2026-03-30T10:19:15Z</time></trkpt><trkpt lat="14.64302125960889" lon="121.12179755397311"><ele>30.0</ele><time>2026-03-30T10:19:17Z</time></trkpt><trkpt lat="14.642960422409049" lon="121.12182344124103"><ele>30.0</ele><time>2026-03-30T10:19:18Z</time></trkpt><trkpt lat="14.642885585586551" lon="121.12185133826358"><ele>30.0</ele><time>2026-03-30T10:19:19Z</time></trkpt><trkpt lat="14.642801795797194" lon="121.12187915612292"><ele>30.0</ele><time>2026-03-30T10:19:20Z</time></trkpt><trkpt lat="14.642707609036274" lon="121.12190164417841"><ele>30.0</ele><time>2026-03-30T10:19:21Z</time></trkpt><trkpt lat="14.642606992137082" lon="121.12192938213346"><ele>30.0</ele><time>2026-03-30T10:19:22Z</time></trkpt><trkpt lat="14.642513428436507" lon="121.12195425910612"><ele>29.2</ele><time>2026-03-30T10:19:23Z</time></trkpt><trkpt lat="14.642419972497303" lon="121.12197569947463"><ele>28.4</ele><time>2026-03-30T10:19:24Z</time></trkpt><trkpt lat="14.642323573019093" lon="121.12199805658422"><ele>27.6</ele><time>2026-03-30T10:19:25Z</time></trkpt><trkpt lat="14.642230522669367" lon="121.12201530074967"><ele>26.8</ele><time>2026-03-30T10:19:26Z</time></trkpt><trkpt lat="14.642148671658" lon="121.12202289613695"><ele>26.0</ele><time>2026-03-30T10:19:27Z</time></trkpt><trkpt lat="14.642063234702189" lon="121.12202814496307"><ele>25.999999999999996</ele><time>2026-03-30T10:19:28Z</time></trkpt><trkpt lat="14.641984557710748" lon="121.12202514464582"><ele>26.0</ele><time>2026-03-30T10:19:29Z</time></trkpt><trkpt lat="14.641891997328807" lon="121.12202938141314"><ele>26.0</ele><time>2026-03-30T10:19:30Z</time></trkpt><trkpt lat="14.64181282551625" lon="121.12202743587947"><ele>26.0</ele><time>2026-03-30T10:19:31Z</time></trkpt><trkpt lat="14.64173518200849" lon="121.12202833954218"><ele>25.999999999999996</ele><time>2026-03-30T10:19:32Z</time></trkpt><trkpt lat="14.641662074322435" lon="121.12202671061675"><ele>26.0</ele><time>2026-03-30T10:19:33Z</time></trkpt><trkpt lat="14.641578331616603" lon="121.1220264875831"><ele>25.333333333333332</ele><time>2026-03-30T10:19:34Z</time></trkpt><trkpt lat="14.641499154290951" lon="121.12202164186469"><ele>24.666666666666664</ele><time>2026-03-30T10:19:35Z</time></trkpt><trkpt lat="14.64141108008886" lon="121.12201362285754"><ele>24.0</ele><time>2026-03-30T10:19:36Z</time></trkpt><trkpt lat="14.641333258709297" lon="121.12200835049497"><ele>23.333333333333332</ele><time>2026-03-30T10:19:37Z</time></trkpt><trkpt lat="14.641255974852681" lon="121.12200396345187"><ele>22.666666666666664</ele><time>2026-03-30T10:19:38Z</time></trkpt><trkpt lat="14.641178746658822" lon="121.12199392810567"><ele>22.0</ele><time>2026-03-30T10:19:39Z</time></trkpt><trkpt lat="14.641105748541573" lon="121.1219849104324"><ele>21.833333333333332</ele><time>2026-03-30T10:19:40Z</time></trkpt><trkpt lat="14.641030343833549" lon="121.12197827995897"><ele>21.666666666666664</ele><time>2026-03-30T10:19:41Z</time></trkpt><trkpt lat="14.640956481423862" lon="121.12197346440756"><ele>21.5</ele><time>2026-03-30T10:19:42Z</time></trkpt><trkpt lat="14.64087019124171" lon="121.12196264900834"><ele>21.333333333333332</ele><time>2026-03-30T10:19:43Z</time></trkpt><trkpt lat="14.640791214249994" lon="121.12195331815066"><ele>21.166666666666668</ele><time>2026-03-30T10:19:44Z</time></trkpt><trkpt lat="14.640703073791718" lon="121.12194458629384"><ele>21.0</ele><time>2026-03-30T10:19:45Z</time></trkpt><trkpt lat="14.640625445206114" lon="121.12193549978785"><ele>21.0</ele><time>2026-03-30T10:19:46Z</time></trkpt><trkpt lat="14.640539091222168" lon="121.12192322373178"><ele>21.0</ele><time>2026-03-30T10:19:47Z</time></trkpt><trkpt lat="14.64045597873361" lon="121.12191273990038"><ele>21.0</ele><time>2026-03-30T10:19:48Z</time></trkpt><trkpt lat="14.640377401499892" lon="121.12190162340717"><ele>21.0</ele><time>2026-03-30T10:19:49Z</time></trkpt><trkpt lat="14.640306170149817" lon="121.12189410558392"><ele>21.0</ele><time>2026-03-30T10:19:50Z</time></trkpt><trkpt lat="14.640215248241214" lon="121.12188521401514"><ele>21.0</ele><time>2026-03-30T10:19:52Z</time></trkpt><trkpt lat="14.640128451178114" lon="121.12186821037945"><ele>20.833333333333332</ele><time>2026-03-30T10:19:54Z</time></trkpt><trkpt lat="14.640065197092127" lon="121.12185083135692"><ele>20.666666666666668</ele><time>2026-03-30T10:19:55Z</time></trkpt><trkpt lat="14.639992485566427" lon="121.12183856695253"><ele>20.5</ele><time>2026-03-30T10:19:56Z</time></trkpt><trkpt lat="14.639907967307828" lon="121.1218300593299"><ele>20.333333333333336</ele><time>2026-03-30T10:19:57Z</time></trkpt><trkpt lat="14.639837461470199" lon="121.12182408108703"><ele>20.166666666666668</ele><time>2026-03-30T10:19:58Z</time></trkpt><trkpt lat="14.639767422332072" lon="121.12181330869379"><ele>20.0</ele><time>2026-03-30T10:19:59Z</time></trkpt><trkpt lat="14.639645570076818" lon="121.12180164437744"><ele>20.0</ele><time>2026-03-30T10:20:01Z</time></trkpt><trkpt lat="14.63954851172099" lon="121.12180350415532"><ele>20.0</ele><time>2026-03-30T10:20:03Z</time></trkpt><trkpt lat="14.639472393994819" lon="121.12179687023823"><ele>20.0</ele><time>2026-03-30T10:20:05Z</time></trkpt><trkpt lat="14.639373444731548" lon="121.12178043802858"><ele>20.0</ele><time>2026-03-30T10:20:07Z</time></trkpt><trkpt lat="14.639273978308516" lon="121.1217668817302"><ele>20.0</ele><time>2026-03-30T10:20:09Z</time></trkpt><trkpt lat="14.639168623068421" lon="121.12175179676561"><ele>20.2</ele><time>2026-03-30T10:20:11Z</time></trkpt><trkpt lat="14.63906813526311" lon="121.12174158497152"><ele>20.4</ele><time>2026-03-30T10:20:13Z</time></trkpt><trkpt lat="14.638958237076626" lon="121.12172793160089"><ele>20.6</ele><time>2026-03-30T10:20:15Z</time></trkpt><trkpt lat="14.63884253364801" lon="121.12171611434324"><ele>20.8</ele><time>2026-03-30T10:20:17Z</time></trkpt><trkpt lat="14.638735166095586" lon="121.12171637323327"><ele>21.0</ele><time>2026-03-30T10:20:19Z</time></trkpt><trkpt lat="14.638632279140186" lon="121.1217129976652"><ele>21.0</ele><time>2026-03-30T10:20:21Z</time></trkpt><trkpt lat="14.638550907596969" lon="121.12170641097174"><ele>21.0</ele><time>2026-03-30T10:20:23Z</time></trkpt><trkpt lat="14.63846639673598" lon="121.12169900725864"><ele>21.0</ele><time>2026-03-30T10:20:25Z</time></trkpt><trkpt lat="14.638378445624069" lon="121.12168675219047"><ele>21.0</ele><time>2026-03-30T10:20:27Z</time></trkpt><trkpt lat="14.638289871011635" lon="121.1216726192878"><ele>21.0</ele><time>2026-03-30T10:20:29Z</time></trkpt><trkpt lat="14.638209536413282" lon="121.12165967030492"><ele>21.0</ele><time>2026-03-30T10:20:31Z</time></trkpt><trkpt lat="14.638116439589242" lon="121.1216422211402"><ele>21.0</ele><time>2026-03-30T10:20:34Z</time></trkpt><trkpt lat="14.638049567428483" lon="121.12162857938353"><ele>21.0</ele><time>2026-03-30T10:20:37Z</time></trkpt><trkpt lat="14.637984060093483" lon="121.12162154459092"><ele>21.0</ele><time>2026-03-30T10:20:44Z</time></trkpt><trkpt lat="14.63790882352581" lon="121.12161205799774"><ele>21.0</ele><time>2026-03-30T10:20:46Z</time></trkpt><trkpt lat="14.637813412068342" lon="121.12160363716187"><ele>21.0</ele><time>2026-03-30T10:20:48Z</time></trkpt><trkpt lat="14.63770143112175" lon="121.12159376287916"><ele>21.0</ele><time>2026-03-30T10:20:50Z</time></trkpt><trkpt lat="14.637599507013833" lon="121.1215798901073"><ele>20.5</ele><time>2026-03-30T10:20:52Z</time></trkpt><trkpt lat="14.6374747076699" lon="121.12156695058681"><ele>20.0</ele><time>2026-03-30T10:20:54Z</time></trkpt><trkpt lat="14.637394304950682" lon="121.12155295180509"><ele>19.5</ele><time>2026-03-30T10:20:55Z</time></trkpt><trkpt lat="14.637314775440968" lon="121.12154570634893"><ele>19.0</ele><time>2026-03-30T10:20:56Z</time></trkpt><trkpt lat="14.637240583112932" lon="121.1215397108294"><ele>18.5</ele><time>2026-03-30T10:20:57Z</time></trkpt><trkpt lat="14.637170948622721" lon="121.12153495066495"><ele>18.0</ele><time>2026-03-30T10:20:58Z</time></trkpt><trkpt lat="14.637052216025715" lon="121.12152382513753"><ele>18.0</ele><time>2026-03-30T10:21:00Z</time></trkpt><trkpt lat="14.636958148084085" lon="121.12151775814388"><ele>18.0</ele><time>2026-03-30T10:21:02Z</time></trkpt><trkpt lat="14.636867516405653" lon="121.12151113907372"><ele>18.0</ele><time>2026-03-30T10:21:05Z</time></trkpt><trkpt lat="14.636769979469463" lon="121.12149716551104"><ele>18.0</ele><time>2026-03-30T10:21:07Z</time></trkpt><trkpt lat="14.636694149763496" lon="121.12147448224033"><ele>18.0</ele><time>2026-03-30T10:21:10Z</time></trkpt><trkpt lat="14.636610076645853" lon="121.12147058305769"><ele>18.0</ele><time>2026-03-30T10:21:13Z</time></trkpt><trkpt lat="14.636511141736143" lon="121.12146473030872"><ele>18.0</ele><time>2026-03-30T10:21:15Z</time></trkpt><trkpt lat="14.636445369003606" lon="121.12145467044054"><ele>18.0</ele><time>2026-03-30T10:21:16Z</time></trkpt><trkpt lat="14.636381509772853" lon="121.12145114624957"><ele>18.0</ele><time>2026-03-30T10:21:17Z</time></trkpt><trkpt lat="14.636281642692218" lon="121.1214496642436"><ele>18.0</ele><time>2026-03-30T10:21:19Z</time></trkpt><trkpt lat="14.636187868401178" lon="121.12145001584838"><ele>18.0</ele><time>2026-03-30T10:21:21Z</time></trkpt><trkpt lat="14.636124115328272" lon="121.12144594554378"><ele>18.0</ele><time>2026-03-30T10:21:27Z</time></trkpt><trkpt lat="14.636030038310412" lon="121.12143637486702"><ele>18.0</ele><time>2026-03-30T10:21:29Z</time></trkpt><trkpt lat="14.635910225603165" lon="121.12140545357413"><ele>18.0</ele><time>2026-03-30T10:21:31Z</time></trkpt><trkpt lat="14.635830121299653" lon="121.12140004540078"><ele>18.0</ele><time>2026-03-30T10:21:32Z</time></trkpt><trkpt lat="14.635736989699703" lon="121.12139353592049"><ele>18.0</ele><time>2026-03-30T10:21:33Z</time></trkpt><trkpt lat="14.635639891031408" lon="121.12139903236952"><ele>18.0</ele><time>2026-03-30T10:21:34Z</time></trkpt><trkpt lat="14.635566015138592" lon="121.12140639443805"><ele>18.0</ele><time>2026-03-30T10:21:35Z</time></trkpt><trkpt lat="14.63545788685248" lon="121.12141305076165"><ele>18.0</ele><time>2026-03-30T10:21:37Z</time></trkpt><trkpt lat="14.635340544839577" lon="121.12141491525452"><ele>18.0</ele><time>2026-03-30T10:21:39Z</time></trkpt><trkpt lat="14.635226857465382" lon="121.1214260411067"><ele>18.0</ele><time>2026-03-30T10:21:41Z</time></trkpt><trkpt lat="14.635097321030074" lon="121.12143482751681"><ele>18.333333333333332</ele><time>2026-03-30T10:21:43Z</time></trkpt><trkpt lat="14.63501362332206" lon="121.12144237770929"><ele>18.666666666666668</ele><time>2026-03-30T10:21:44Z</time></trkpt><trkpt lat="14.634936748522426" lon="121.12145340112613"><ele>19.0</ele><time>2026-03-30T10:21:45Z</time></trkpt><trkpt lat="14.634860508913347" lon="121.12145896518437"><ele>19.333333333333336</ele><time>2026-03-30T10:21:46Z</time></trkpt><trkpt lat="14.63477477424683" lon="121.121472129287"><ele>19.666666666666668</ele><time>2026-03-30T10:21:47Z</time></trkpt><trkpt lat="14.634693980234765" lon="121.12147998578982"><ele>20.0</ele><time>2026-03-30T10:21:48Z</time></trkpt><trkpt lat="14.634627676741445" lon="121.1214825746694"><ele>20.0</ele><time>2026-03-30T10:21:49Z</time></trkpt><trkpt lat="14.634547460214948" lon="121.1214924861263"><ele>20.0</ele><time>2026-03-30T10:21:50Z</time></trkpt><trkpt lat="14.634480622168589" lon="121.12149841586884"><ele>20.0</ele><time>2026-03-30T10:21:51Z</time></trkpt><trkpt lat="14.634357265745665" lon="121.12150928249777"><ele>20.0</ele><time>2026-03-30T10:21:53Z</time></trkpt><trkpt lat="14.634290058637156" lon="121.12151633068135"><ele>20.0</ele><time>2026-03-30T10:21:54Z</time></trkpt><trkpt lat="14.634164021748129" lon="121.12152595897497"><ele>19.5</ele><time>2026-03-30T10:21:56Z</time></trkpt><trkpt lat="14.63407273130936" lon="121.121528569733"><ele>19.0</ele><time>2026-03-30T10:21:58Z</time></trkpt><trkpt lat="14.633999014406635" lon="121.12154814757703"><ele>18.5</ele><time>2026-03-30T10:22:00Z</time></trkpt><trkpt lat="14.633930476623878" lon="121.12154978374515"><ele>18.0</ele><time>2026-03-30T10:22:02Z</time></trkpt><trkpt lat="14.633844590796048" lon="121.12155540965588"><ele>17.5</ele><time>2026-03-30T10:22:04Z</time></trkpt><trkpt lat="14.633774062591248" lon="121.12155843855383"><ele>17.0</ele><time>2026-03-30T10:22:06Z</time></trkpt><trkpt lat="14.633704324688486" lon="121.12156617377626"><ele>17.0</ele><time>2026-03-30T10:22:09Z</time></trkpt><trkpt lat="14.633632325491035" lon="121.12157868498825"><ele>17.0</ele><time>2026-03-30T10:22:12Z</time></trkpt><trkpt lat="14.633566946656472" lon="121.12158185695037"><ele>17.0</ele><time>2026-03-30T10:22:14Z</time></trkpt><trkpt lat="14.633476481149447" lon="121.12158707109798"><ele>17.0</ele><time>2026-03-30T10:22:16Z</time></trkpt><trkpt lat="14.63338326099172" lon="121.12159469043014"><ele>17.0</ele><time>2026-03-30T10:22:18Z</time></trkpt><trkpt lat="14.633278499728128" lon="121.12160180760132"><ele>17.0</ele><time>2026-03-30T10:22:20Z</time></trkpt><trkpt lat="14.63315598813596" lon="121.12160939532602"><ele>16.999999999999996</ele><time>2026-03-30T10:22:22Z</time></trkpt><trkpt lat="14.633039207473688" lon="121.12162063703191"><ele>17.0</ele><time>2026-03-30T10:22:24Z</time></trkpt><trkpt lat="14.632975018820042" lon="121.12162599274671"><ele>17.0</ele><time>2026-03-30T10:22:25Z</time></trkpt><trkpt lat="14.632910544692367" lon="121.12163256875306"><ele>17.0</ele><time>2026-03-30T10:22:26Z</time></trkpt><trkpt lat="14.632845109465705" lon="121.12164130123908"><ele>17.0</ele><time>2026-03-30T10:22:27Z</time></trkpt><trkpt lat="14.632778655985696" lon="121.12164296269914"><ele>16.999999999999996</ele><time>2026-03-30T10:22:28Z</time></trkpt><trkpt lat="14.632710263731676" lon="121.12165098527534"><ele>17.0</ele><time>2026-03-30T10:22:29Z</time></trkpt><trkpt lat="14.632640116511684" lon="121.12165510932842"><ele>16.833333333333336</ele><time>2026-03-30T10:22:30Z</time></trkpt><trkpt lat="14.632576011183607" lon="121.12165784215173"><ele>16.666666666666668</ele><time>2026-03-30T10:22:31Z</time></trkpt><trkpt lat="14.63246312181685" lon="121.12166995207058"><ele>16.5</ele><time>2026-03-30T10:22:33Z</time></trkpt><trkpt lat="14.632381065925673" lon="121.12167603571929"><ele>16.333333333333332</ele><time>2026-03-30T10:22:35Z</time></trkpt><trkpt lat="14.632282214052948" lon="121.12168666476836"><ele>16.166666666666664</ele><time>2026-03-30T10:22:37Z</time></trkpt><trkpt lat="14.6322190511197" lon="121.12169215775879"><ele>16.0</ele><time>2026-03-30T10:22:38Z</time></trkpt><trkpt lat="14.63213860955962" lon="121.12169723140799"><ele>15.999999999999998</ele><time>2026-03-30T10:22:39Z</time></trkpt><trkpt lat="14.632065043438184" lon="121.12170437438374"><ele>16.0</ele><time>2026-03-30T10:22:40Z</time></trkpt><trkpt lat="14.631972546977137" lon="121.12171471158884"><ele>16.0</ele><time>2026-03-30T10:22:41Z</time></trkpt><trkpt lat="14.631890056373733" lon="121.12172207811575"><ele>16.0</ele><time>2026-03-30T10:22:42Z</time></trkpt><trkpt lat="14.63182431034112" lon="121.12172405745613"><ele>15.999999999999998</ele><time>2026-03-30T10:22:43Z</time></trkpt><trkpt lat="14.631752892491502" lon="121.12173335470062"><ele>16.0</ele><time>2026-03-30T10:22:44Z</time></trkpt><trkpt lat="14.631679796148733" lon="121.12174428805403"><ele>16.2</ele><time>2026-03-30T10:22:45Z</time></trkpt><trkpt lat="14.631549644139882" lon="121.12174518042399"><ele>16.400000000000002</ele><time>2026-03-30T10:22:47Z</time></trkpt><trkpt lat="14.631484869712255" lon="121.12174985364626"><ele>16.6</ele><time>2026-03-30T10:22:48Z</time></trkpt><trkpt lat="14.63137257258536" lon="121.12175464249974"><ele>16.8</ele><time>2026-03-30T10:22:50Z</time></trkpt><trkpt lat="14.63129486691771" lon="121.12177248941182"><ele>17.0</ele><time>2026-03-30T10:22:52Z</time></trkpt><trkpt lat="14.631196504892024" lon="121.12178454726039"><ele>17.166666666666668</ele><time>2026-03-30T10:22:55Z</time></trkpt><trkpt lat="14.63111432099652" lon="121.1217819303912"><ele>17.333333333333336</ele><time>2026-03-30T10:22:59Z</time></trkpt><trkpt lat="14.63104886101465" lon="121.12178404775308"><ele>17.5</ele><time>2026-03-30T10:23:00Z</time></trkpt><trkpt lat="14.630977687342327" lon="121.12179305647483"><ele>17.666666666666668</ele><time>2026-03-30T10:23:01Z</time></trkpt><trkpt lat="14.630900269809157" lon="121.12179895968823"><ele>17.833333333333332</ele><time>2026-03-30T10:23:02Z</time></trkpt><trkpt lat="14.630824807878955" lon="121.121809119961"><ele>18.0</ele><time>2026-03-30T10:23:03Z</time></trkpt><trkpt lat="14.630743482398007" lon="121.12181658129106"><ele>18.0</ele><time>2026-03-30T10:23:04Z</time></trkpt><trkpt lat="14.630656640522123" lon="121.12182510599594"><ele>18.0</ele><time>2026-03-30T10:23:05Z</time></trkpt><trkpt lat="14.630575057671058" lon="121.1218314444157"><ele>18.0</ele><time>2026-03-30T10:23:06Z</time></trkpt><trkpt lat="14.63049929371553" lon="121.12183782484074"><ele>18.0</ele><time>2026-03-30T10:23:07Z</time></trkpt><trkpt lat="14.630430162622517" lon="121.12184299047718"><ele>18.0</ele><time>2026-03-30T10:23:08Z</time></trkpt><trkpt lat="14.630314170190394" lon="121.12185236952462"><ele>18.0</ele><time>2026-03-30T10:23:10Z</time></trkpt><trkpt lat="14.630196966182917" lon="121.12186664404777"><ele>18.166666666666668</ele><time>2026-03-30T10:23:12Z</time></trkpt><trkpt lat="14.63013337342353" lon="121.12187429682626"><ele>18.333333333333332</ele><time>2026-03-30T10:23:13Z</time></trkpt><trkpt lat="14.630031665243873" lon="121.1218839847148"><ele>18.5</ele><time>2026-03-30T10:23:15Z</time></trkpt><trkpt lat="14.629957453838918" lon="121.12188893135186"><ele>18.666666666666664</ele><time>2026-03-30T10:23:17Z</time></trkpt><trkpt lat="14.62986496868492" lon="121.12189995647925"><ele>18.833333333333332</ele><time>2026-03-30T10:23:19Z</time></trkpt><trkpt lat="14.629760269738314" lon="121.12190737303442"><ele>19.0</ele><time>2026-03-30T10:23:21Z</time></trkpt><trkpt lat="14.629648489362568" lon="121.12191803273956"><ele>19.0</ele><time>2026-03-30T10:23:23Z</time></trkpt><trkpt lat="14.62958208267891" lon="121.12192864598069"><ele>19.0</ele><time>2026-03-30T10:23:24Z</time></trkpt><trkpt lat="14.629513842346281" lon="121.12193385946415"><ele>19.0</ele><time>2026-03-30T10:23:25Z</time></trkpt><trkpt lat="14.629398442322591" lon="121.12193833955737"><ele>19.0</ele><time>2026-03-30T10:23:27Z</time></trkpt><trkpt lat="14.629318102515498" lon="121.12194021949881"><ele>19.0</ele><time>2026-03-30T10:23:29Z</time></trkpt><trkpt lat="14.629250657965336" lon="121.12195125426807"><ele>19.0</ele><time>2026-03-30T10:23:34Z</time></trkpt><trkpt lat="14.62918180566462" lon="121.12198261375117"><ele>19.6</ele><time>2026-03-30T10:23:38Z</time></trkpt><trkpt lat="14.6291498461959" lon="121.1221107602416"><ele>20.2</ele><time>2026-03-30T10:23:40Z</time></trkpt><trkpt lat="14.6291334306932" lon="121.12218577913178"><ele>20.8</ele><time>2026-03-30T10:23:41Z</time></trkpt><trkpt lat="14.629115914201353" lon="121.12226728498946"><ele>21.400000000000002</ele><time>2026-03-30T10:23:42Z</time></trkpt><trkpt lat="14.629096803278156" lon="121.12235323429844"><ele>22.0</ele><time>2026-03-30T10:23:43Z</time></trkpt><trkpt lat="14.62907700821047" lon="121.12244080248189"><ele>22.0</ele><time>2026-03-30T10:23:44Z</time></trkpt><trkpt lat="14.629056012958964" lon="121.12252697776294"><ele>22.0</ele><time>2026-03-30T10:23:45Z</time></trkpt><trkpt lat="14.629042166639037" lon="121.12261165727564"><ele>22.0</ele><time>2026-03-30T10:23:46Z</time></trkpt><trkpt lat="14.62902617748469" lon="121.12269658462134"><ele>22.0</ele><time>2026-03-30T10:23:47Z</time></trkpt><trkpt lat="14.629002821094183" lon="121.12278867291715"><ele>22.0</ele><time>2026-03-30T10:23:48Z</time></trkpt><trkpt lat="14.628985692625157" lon="121.12287723793393"><ele>22.0</ele><time>2026-03-30T10:23:49Z</time></trkpt><trkpt lat="14.628965555100944" lon="121.12295880839366"><ele>22.0</ele><time>2026-03-30T10:23:50Z</time></trkpt><trkpt lat="14.628952470888986" lon="121.12304129987594"><ele>22.0</ele><time>2026-03-30T10:23:51Z</time></trkpt><trkpt lat="14.62893795083854" lon="121.12312236872516"><ele>22.0</ele><time>2026-03-30T10:23:52Z</time></trkpt><trkpt lat="14.628921262854414" lon="121.12320255388472"><ele>22.0</ele><time>2026-03-30T10:23:53Z</time></trkpt><trkpt lat="14.628902765837747" lon="121.12328485917938"><ele>22.0</ele><time>2026-03-30T10:23:54Z</time></trkpt><trkpt lat="14.628884067597866" lon="121.12336114632491"><ele>22.0</ele><time>2026-03-30T10:23:55Z</time></trkpt><trkpt lat="14.628858839442618" lon="121.12344063659623"><ele>21.857142857142858</ele><time>2026-03-30T10:23:56Z</time></trkpt><trkpt lat="14.628829563363146" lon="121.12351271037966"><ele>21.714285714285715</ele><time>2026-03-30T10:23:57Z</time></trkpt><trkpt lat="14.628795681852127" lon="121.12358124717704"><ele>21.57142857142857</ele><time>2026-03-30T10:23:58Z</time></trkpt><trkpt lat="14.628757246727865" lon="121.12364152490896"><ele>21.42857142857143</ele><time>2026-03-30T10:23:59Z</time></trkpt><trkpt lat="14.628710411365542" lon="121.12370261789735"><ele>21.285714285714285</ele><time>2026-03-30T10:24:00Z</time></trkpt><trkpt lat="14.6286568104315" lon="121.12375755660358"><ele>21.142857142857142</ele><time>2026-03-30T10:24:01Z</time></trkpt><trkpt lat="14.628599362973402" lon="121.12380529706071"><ele>21.0</ele><time>2026-03-30T10:24:02Z</time></trkpt><trkpt lat="14.62853721029783" lon="121.12384741524818"><ele>21.5</ele><time>2026-03-30T10:24:03Z</time></trkpt><trkpt lat="14.62848059912315" lon="121.12388066193182"><ele>22.0</ele><time>2026-03-30T10:24:04Z</time></trkpt><trkpt lat="14.628368673447376" lon="121.12393246196343"><ele>22.5</ele><time>2026-03-30T10:24:06Z</time></trkpt><trkpt lat="14.628306000907696" lon="121.12395256539781"><ele>23.0</ele><time>2026-03-30T10:24:07Z</time></trkpt><trkpt lat="14.628240142774896" lon="121.12397735251187"><ele>23.5</ele><time>2026-03-30T10:24:08Z</time></trkpt><trkpt lat="14.628172125230224" lon="121.12399857681451"><ele>24.0</ele><time>2026-03-30T10:24:09Z</time></trkpt><trkpt lat="14.62810952532897" lon="121.12401315089478"><ele>24.0</ele><time>2026-03-30T10:24:10Z</time></trkpt><trkpt lat="14.628047245548675" lon="121.12402427364836"><ele>24.0</ele><time>2026-03-30T10:24:11Z</time></trkpt><trkpt lat="14.627942210006134" lon="121.12404220711454"><ele>24.0</ele><time>2026-03-30T10:24:13Z</time></trkpt><trkpt lat="14.6278449315906" lon="121.12404974707965"><ele>24.0</ele><time>2026-03-30T10:24:15Z</time></trkpt><trkpt lat="14.62773679808175" lon="121.12406987868839"><ele>24.0</ele><time>2026-03-30T10:24:17Z</time></trkpt><trkpt lat="14.62762722471176" lon="121.12409086372406"><ele>23.833333333333332</ele><time>2026-03-30T10:24:19Z</time></trkpt><trkpt lat="14.627542481570122" lon="121.124102226305"><ele>23.666666666666668</ele><time>2026-03-30T10:24:21Z</time></trkpt><trkpt lat="14.627445702232293" lon="121.12411576858231"><ele>23.5</ele><time>2026-03-30T10:24:24Z</time></trkpt><trkpt lat="14.627362444807364" lon="121.12413243466862"><ele>23.333333333333336</ele><time>2026-03-30T10:24:26Z</time></trkpt><trkpt lat="14.62728837982053" lon="121.12414933027902"><ele>23.166666666666668</ele><time>2026-03-30T10:24:28Z</time></trkpt><trkpt lat="14.627211642137924" lon="121.12416258874043"><ele>23.0</ele><time>2026-03-30T10:24:30Z</time></trkpt><trkpt lat="14.627122074122697" lon="121.12417397935253"><ele>23.0</ele><time>2026-03-30T10:24:32Z</time></trkpt><trkpt lat="14.627028989361404" lon="121.1241878094978"><ele>23.0</ele><time>2026-03-30T10:24:34Z</time></trkpt><trkpt lat="14.626922295336545" lon="121.12420357184956"><ele>23.0</ele><time>2026-03-30T10:24:36Z</time></trkpt><trkpt lat="14.626822163593413" lon="121.12421663908201"><ele>23.0</ele><time>2026-03-30T10:24:38Z</time></trkpt><trkpt lat="14.626704705698401" lon="121.12423417870234"><ele>23.0</ele><time>2026-03-30T10:24:40Z</time></trkpt><trkpt lat="14.626614047861615" lon="121.12424667335569"><ele>23.166666666666668</ele><time>2026-03-30T10:24:42Z</time></trkpt><trkpt lat="14.626530002680534" lon="121.12425853688589"><ele>23.333333333333336</ele><time>2026-03-30T10:24:46Z</time></trkpt><trkpt lat="14.626466148010921" lon="121.12426905126529"><ele>23.5</ele><time>2026-03-30T10:24:48Z</time></trkpt><trkpt lat="14.626365143747213" lon="121.12428282355441"><ele>23.666666666666668</ele><time>2026-03-30T10:24:51Z</time></trkpt><trkpt lat="14.626254470668156" lon="121.1242986702225"><ele>23.833333333333332</ele><time>2026-03-30T10:24:53Z</time></trkpt><trkpt lat="14.62618621416593" lon="121.1243056463858"><ele>24.0</ele><time>2026-03-30T10:24:54Z</time></trkpt><trkpt lat="14.62611315531116" lon="121.12431626745011"><ele>24.5</ele><time>2026-03-30T10:24:55Z</time></trkpt><trkpt lat="14.626035025879876" lon="121.12433000093299"><ele>25.0</ele><time>2026-03-30T10:24:56Z</time></trkpt><trkpt lat="14.625951363998976" lon="121.12434352060622"><ele>25.5</ele><time>2026-03-30T10:24:57Z</time></trkpt><trkpt lat="14.625876275712578" lon="121.12435499138904"><ele>26.0</ele><time>2026-03-30T10:24:58Z</time></trkpt><trkpt lat="14.6258115083322" lon="121.12436539043205"><ele>26.5</ele><time>2026-03-30T10:24:59Z</time></trkpt><trkpt lat="14.625709004940644" lon="121.12437860129003"><ele>27.0</ele><time>2026-03-30T10:25:01Z</time></trkpt><trkpt lat="14.625639442945715" lon="121.12438413803277"><ele>27.0</ele><time>2026-03-30T10:25:03Z</time></trkpt><trkpt lat="14.62557649334468" lon="121.12437296881585"><ele>27.0</ele><time>2026-03-30T10:25:05Z</time></trkpt><trkpt lat="14.625529006047191" lon="121.1242937187115"><ele>27.0</ele><time>2026-03-30T10:25:07Z</time></trkpt><trkpt lat="14.625514701793398" lon="121.12422530683874"><ele>27.0</ele><time>2026-03-30T10:25:08Z</time></trkpt><trkpt lat="14.625487129810457" lon="121.12415092640545"><ele>27.0</ele><time>2026-03-30T10:25:09Z</time></trkpt><trkpt lat="14.625458304919702" lon="121.12406670020178"><ele>27.0</ele><time>2026-03-30T10:25:10Z</time></trkpt><trkpt lat="14.625424679791259" lon="121.12397740680342"><ele>26.25</ele><time>2026-03-30T10:25:11Z</time></trkpt><trkpt lat="14.625393549190681" lon="121.12387365964747"><ele>25.5</ele><time>2026-03-30T10:25:12Z</time></trkpt><trkpt lat="14.625359583354182" lon="121.12376119511211"><ele>24.75</ele><time>2026-03-30T10:25:13Z</time></trkpt><trkpt lat="14.625325838154028" lon="121.12364271222187"><ele>24.0</ele><time>2026-03-30T10:25:14Z</time></trkpt><trkpt lat="14.625294050692544" lon="121.12351812501532"><ele>23.25</ele><time>2026-03-30T10:25:15Z</time></trkpt><trkpt lat="14.625265696477967" lon="121.12338666353195"><ele>22.5</ele><time>2026-03-30T10:25:16Z</time></trkpt><trkpt lat="14.625234747961006" lon="121.1232526789261"><ele>21.75</ele><time>2026-03-30T10:25:17Z</time></trkpt><trkpt lat="14.625203562372967" lon="121.12311439629387"><ele>21.0</ele><time>2026-03-30T10:25:18Z</time></trkpt><trkpt lat="14.625174928173665" lon="121.12297737447003"><ele>20.75</ele><time>2026-03-30T10:25:19Z</time></trkpt><trkpt lat="14.62514841484541" lon="121.12284400959913"><ele>20.5</ele><time>2026-03-30T10:25:20Z</time></trkpt><trkpt lat="14.62512137736657" lon="121.12272062954678"><ele>20.25</ele><time>2026-03-30T10:25:21Z</time></trkpt><trkpt lat="14.62509422349346" lon="121.1225995240823"><ele>20.0</ele><time>2026-03-30T10:25:22Z</time></trkpt><trkpt lat="14.62506993909656" lon="121.12248671532528"><ele>19.8</ele><time>2026-03-30T10:25:23Z</time></trkpt><trkpt lat="14.625050836934298" lon="121.12238096890381"><ele>19.6</ele><time>2026-03-30T10:25:24Z</time></trkpt><trkpt lat="14.625035056000765" lon="121.12227615231222"><ele>19.4</ele><time>2026-03-30T10:25:25Z</time></trkpt><trkpt lat="14.625016129980137" lon="121.1221695270773"><ele>19.2</ele><time>2026-03-30T10:25:26Z</time></trkpt><trkpt lat="14.62498841922155" lon="121.12206850425356"><ele>19.0</ele><time>2026-03-30T10:25:27Z</time></trkpt><trkpt lat="14.624957636877388" lon="121.12196103490732"><ele>19.0</ele><time>2026-03-30T10:25:28Z</time></trkpt><trkpt lat="14.62492131453363" lon="121.12184725220537"><ele>19.0</ele><time>2026-03-30T10:25:29Z</time></trkpt><trkpt lat="14.624886363779101" lon="121.12172386988046"><ele>19.0</ele><time>2026-03-30T10:25:30Z</time></trkpt><trkpt lat="14.624856046240065" lon="121.12159680532893"><ele>19.0</ele><time>2026-03-30T10:25:31Z</time></trkpt><trkpt lat="14.624833135568727" lon="121.12147090636537"><ele>18.2</ele><time>2026-03-30T10:25:32Z</time></trkpt><trkpt lat="14.624813157993092" lon="121.12135576441221"><ele>17.4</ele><time>2026-03-30T10:25:33Z</time></trkpt><trkpt lat="14.624786173640691" lon="121.12124661434633"><ele>16.6</ele><time>2026-03-30T10:25:34Z</time></trkpt><trkpt lat="14.624775151465142" lon="121.12115198373192"><ele>15.8</ele><time>2026-03-30T10:25:35Z</time></trkpt><trkpt lat="14.62475197905429" lon="121.12106686674643"><ele>15.0</ele><time>2026-03-30T10:25:36Z</time></trkpt><trkpt lat="14.624718034890167" lon="121.12092628545274"><ele>15.0</ele><time>2026-03-30T10:25:38Z</time></trkpt><trkpt lat="14.624709021196514" lon="121.12086152952463"><ele>15.0</ele><time>2026-03-30T10:25:39Z</time></trkpt><trkpt lat="14.624694104993646" lon="121.12073252324352"><ele>15.0</ele><time>2026-03-30T10:25:41Z</time></trkpt><trkpt lat="14.62468034477597" lon="121.12065351770192"><ele>15.0</ele><time>2026-03-30T10:25:42Z</time></trkpt><trkpt lat="14.624667446574279" lon="121.12058185186878"><ele>15.0</ele><time>2026-03-30T10:25:43Z</time></trkpt><trkpt lat="14.624649336912086" lon="121.12048420308778"><ele>15.0</ele><time>2026-03-30T10:25:44Z</time></trkpt><trkpt lat="14.624628684278772" lon="121.1203926512625"><ele>14.25</ele><time>2026-03-30T10:25:45Z</time></trkpt><trkpt lat="14.62460522888335" lon="121.1202887834432"><ele>13.5</ele><time>2026-03-30T10:25:46Z</time></trkpt><trkpt lat="14.624572134360923" lon="121.12016849561749"><ele>12.75</ele><time>2026-03-30T10:25:47Z</time></trkpt><trkpt lat="14.624544257130948" lon="121.12004209782532"><ele>12.0</ele><time>2026-03-30T10:25:48Z</time></trkpt><trkpt lat="14.624513926453893" lon="121.11990991502081"><ele>11.75</ele><time>2026-03-30T10:25:49Z</time></trkpt><trkpt lat="14.624480232333573" lon="121.11977023631448"><ele>11.5</ele><time>2026-03-30T10:25:50Z</time></trkpt><trkpt lat="14.624448270688644" lon="121.11963427231454"><ele>11.25</ele><time>2026-03-30T10:25:51Z</time></trkpt><trkpt lat="14.624417237603078" lon="121.11949095365026"><ele>11.0</ele><time>2026-03-30T10:25:52Z</time></trkpt><trkpt lat="14.624384924016178" lon="121.11934471013633"><ele>11.0</ele><time>2026-03-30T10:25:53Z</time></trkpt><trkpt lat="14.62434951294358" lon="121.11919857664284"><ele>11.0</ele><time>2026-03-30T10:25:54Z</time></trkpt><trkpt lat="14.624313513419251" lon="121.11904835161144"><ele>11.0</ele><time>2026-03-30T10:25:55Z</time></trkpt><trkpt lat="14.624282056883121" lon="121.11889453972563"><ele>11.0</ele><time>2026-03-30T10:25:56Z</time></trkpt><trkpt lat="14.624250097487797" lon="121.11873558222278"><ele>11.333333333333332</ele><time>2026-03-30T10:25:57Z</time></trkpt><trkpt lat="14.62421660858469" lon="121.11857432532786"><ele>11.666666666666666</ele><time>2026-03-30T10:25:58Z</time></trkpt><trkpt lat="14.624181504248398" lon="121.11840897576701"><ele>12.0</ele><time>2026-03-30T10:25:59Z</time></trkpt><trkpt lat="14.6241498145509" lon="121.11823796798579"><ele>12.666666666666668</ele><time>2026-03-30T10:26:00Z</time></trkpt><trkpt lat="14.624122574209691" lon="121.11806950281569"><ele>13.333333333333334</ele><time>2026-03-30T10:26:01Z</time></trkpt><trkpt lat="14.624097439391948" lon="121.11790151890072"><ele>14.0</ele><time>2026-03-30T10:26:02Z</time></trkpt><trkpt lat="14.62406793540296" lon="121.1177412907029"><ele>14.0</ele><time>2026-03-30T10:26:03Z</time></trkpt><trkpt lat="14.624034030303994" lon="121.11759299452059"><ele>14.0</ele><time>2026-03-30T10:26:04Z</time></trkpt><trkpt lat="14.624002187870586" lon="121.11745349584305"><ele>14.0</ele><time>2026-03-30T10:26:05Z</time></trkpt><trkpt lat="14.62397179470766" lon="121.1173266481312"><ele>14.0</ele><time>2026-03-30T10:26:06Z</time></trkpt><trkpt lat="14.623946422623098" lon="121.11721843732815"><ele>13.75</ele><time>2026-03-30T10:26:07Z</time></trkpt><trkpt lat="14.623930070099139" lon="121.11711023693572"><ele>13.5</ele><time>2026-03-30T10:26:08Z</time></trkpt><trkpt lat="14.623913217097156" lon="121.11699327642373"><ele>13.25</ele><time>2026-03-30T10:26:09Z</time></trkpt><trkpt lat="14.623892340400978" lon="121.11686352661384"><ele>13.0</ele><time>2026-03-30T10:26:10Z</time></trkpt><trkpt lat="14.623864667292299" lon="121.11672447396867"><ele>13.0</ele><time>2026-03-30T10:26:11Z</time></trkpt><trkpt lat="14.623837712999027" lon="121.11658759717554"><ele>13.0</ele><time>2026-03-30T10:26:12Z</time></trkpt><trkpt lat="14.62380700940343" lon="121.11645846586507"><ele>13.0</ele><time>2026-03-30T10:26:13Z</time></trkpt><trkpt lat="14.623784102578885" lon="121.11633853668509"><ele>13.0</ele><time>2026-03-30T10:26:14Z</time></trkpt><trkpt lat="14.623764986685899" lon="121.11622406734327"><ele>13.0</ele><time>2026-03-30T10:26:15Z</time></trkpt><trkpt lat="14.623748885079818" lon="121.11611089744781"><ele>13.0</ele><time>2026-03-30T10:26:16Z</time></trkpt><trkpt lat="14.623729890999924" lon="121.11599605451102"><ele>13.0</ele><time>2026-03-30T10:26:17Z</time></trkpt><trkpt lat="14.62371147098468" lon="121.11588905014666"><ele>13.0</ele><time>2026-03-30T10:26:18Z</time></trkpt><trkpt lat="14.62368795578799" lon="121.11577928169157"><ele>13.0</ele><time>2026-03-30T10:26:19Z</time></trkpt><trkpt lat="14.623660069733074" lon="121.11566339882441"><ele>13.5</ele><time>2026-03-30T10:26:20Z</time></trkpt><trkpt lat="14.623633554072569" lon="121.11554562531826"><ele>14.0</ele><time>2026-03-30T10:26:21Z</time></trkpt><trkpt lat="14.623605187454777" lon="121.11542253989242"><ele>14.5</ele><time>2026-03-30T10:26:22Z</time></trkpt><trkpt lat="14.62356782584007" lon="121.11528963525981"><ele>15.0</ele><time>2026-03-30T10:26:23Z</time></trkpt><trkpt lat="14.62352701539022" lon="121.11515417585923"><ele>15.0</ele><time>2026-03-30T10:26:24Z</time></trkpt><trkpt lat="14.623492343322502" lon="121.11501201986994"><ele>15.0</ele><time>2026-03-30T10:26:25Z</time></trkpt><trkpt lat="14.623461111567455" lon="121.11486409444636"><ele>15.0</ele><time>2026-03-30T10:26:26Z</time></trkpt><trkpt lat="14.623428270032065" lon="121.11470880192408"><ele>15.0</ele><time>2026-03-30T10:26:27Z</time></trkpt><trkpt lat="14.623392732089336" lon="121.11455041233133"><ele>14.333333333333332</ele><time>2026-03-30T10:26:28Z</time></trkpt><trkpt lat="14.62335490268466" lon="121.11438733892092"><ele>13.666666666666666</ele><time>2026-03-30T10:26:29Z</time></trkpt><trkpt lat="14.623317229465567" lon="121.11421643990735"><ele>13.0</ele><time>2026-03-30T10:26:30Z</time></trkpt><trkpt lat="14.623281225858806" lon="121.11404291560949"><ele>13.0</ele><time>2026-03-30T10:26:31Z</time></trkpt><trkpt lat="14.623245050453267" lon="121.11386428175874"><ele>13.0</ele><time>2026-03-30T10:26:32Z</time></trkpt><trkpt lat="14.623206368609004" lon="121.11368622151384"><ele>13.0</ele><time>2026-03-30T10:26:33Z</time></trkpt><trkpt lat="14.623171277283808" lon="121.11350698793412"><ele>13.0</ele><time>2026-03-30T10:26:34Z</time></trkpt><trkpt lat="14.623135177464727" lon="121.11332961320153"><ele>13.0</ele><time>2026-03-30T10:26:35Z</time></trkpt><trkpt lat="14.623101034494528" lon="121.11316319083286"><ele>13.0</ele><time>2026-03-30T10:26:36Z</time></trkpt><trkpt lat="14.623070489746274" lon="121.11300530853228"><ele>13.0</ele><time>2026-03-30T10:26:37Z</time></trkpt><trkpt lat="14.623040816401405" lon="121.11284928427372"><ele>13.0</ele><time>2026-03-30T10:26:38Z</time></trkpt><trkpt lat="14.623009758435058" lon="121.1127056074675"><ele>13.0</ele><time>2026-03-30T10:26:39Z</time></trkpt><trkpt lat="14.622978578532074" lon="121.11255663704101"><ele>13.0</ele><time>2026-03-30T10:26:40Z</time></trkpt><trkpt lat="14.622949788931205" lon="121.11241198666032"><ele>12.75</ele><time>2026-03-30T10:26:41Z</time></trkpt><trkpt lat="14.622921266788923" lon="121.11227129679052"><ele>12.5</ele><time>2026-03-30T10:26:42Z</time></trkpt><trkpt lat="14.622891861745751" lon="121.11213113819113"><ele>12.25</ele><time>2026-03-30T10:26:43Z</time></trkpt><trkpt lat="14.622863899639546" lon="121.11199386730675"><ele>12.0</ele><time>2026-03-30T10:26:44Z</time></trkpt><trkpt lat="14.622838732178634" lon="121.11185712752997"><ele>12.25</ele><time>2026-03-30T10:26:45Z</time></trkpt><trkpt lat="14.622814217989802" lon="121.11172104852713"><ele>12.5</ele><time>2026-03-30T10:26:46Z</time></trkpt><trkpt lat="14.622784136566011" lon="121.1115837081688"><ele>12.75</ele><time>2026-03-30T10:26:47Z</time></trkpt><trkpt lat="14.622754783076388" lon="121.11144438498545"><ele>13.0</ele><time>2026-03-30T10:26:48Z</time></trkpt><trkpt lat="14.622730400323988" lon="121.1113020261586"><ele>13.5</ele><time>2026-03-30T10:26:49Z</time></trkpt><trkpt lat="14.622705007249776" lon="121.11115499751241"><ele>14.0</ele><time>2026-03-30T10:26:50Z</time></trkpt><trkpt lat="14.622681005188912" lon="121.11101003592327"><ele>14.5</ele><time>2026-03-30T10:26:51Z</time></trkpt><trkpt lat="14.622654606940195" lon="121.11086239149893"><ele>15.0</ele><time>2026-03-30T10:26:52Z</time></trkpt><trkpt lat="14.62262534214571" lon="121.11071116754516"><ele>15.0</ele><time>2026-03-30T10:26:53Z</time></trkpt><trkpt lat="14.622596790870185" lon="121.11056582725158"><ele>15.0</ele><time>2026-03-30T10:26:54Z</time></trkpt><trkpt lat="14.622568023107613" lon="121.11041047739158"><ele>15.0</ele><time>2026-03-30T10:26:55Z</time></trkpt><trkpt lat="14.622539583859602" lon="121.1102539714786"><ele>15.0</ele><time>2026-03-30T10:26:56Z</time></trkpt><trkpt lat="14.622511123788206" lon="121.11009566764447"><ele>15.0</ele><time>2026-03-30T10:26:57Z</time></trkpt><trkpt lat="14.622483533253675" lon="121.10993527652742"><ele>15.0</ele><time>2026-03-30T10:26:58Z</time></trkpt><trkpt lat="14.622452821346098" lon="121.10977474622244"><ele>14.666666666666668</ele><time>2026-03-30T10:26:59Z</time></trkpt><trkpt lat="14.62241860997299" lon="121.10961218197632"><ele>14.333333333333334</ele><time>2026-03-30T10:27:00Z</time></trkpt><trkpt lat="14.622383018642571" lon="121.10945062263819"><ele>14.0</ele><time>2026-03-30T10:27:01Z</time></trkpt><trkpt lat="14.622345923299093" lon="121.10928872955391"><ele>14.0</ele><time>2026-03-30T10:27:02Z</time></trkpt><trkpt lat="14.622308593817849" lon="121.10912647680134"><ele>14.0</ele><time>2026-03-30T10:27:03Z</time></trkpt><trkpt lat="14.622270544964982" lon="121.10896420191749"><ele>14.0</ele><time>2026-03-30T10:27:04Z</time></trkpt><trkpt lat="14.622235271952881" lon="121.10880200995061"><ele>13.5</ele><time>2026-03-30T10:27:05Z</time></trkpt><trkpt lat="14.622201837082338" lon="121.10864286608427"><ele>13.0</ele><time>2026-03-30T10:27:06Z</time></trkpt><trkpt lat="14.6221705911818" lon="121.10849312206739"><ele>12.5</ele><time>2026-03-30T10:27:07Z</time></trkpt><trkpt lat="14.622135657594416" lon="121.10835099274308"><ele>12.0</ele><time>2026-03-30T10:27:08Z</time></trkpt><trkpt lat="14.622108640498787" lon="121.10821121331189"><ele>12.0</ele><time>2026-03-30T10:27:09Z</time></trkpt><trkpt lat="14.622080576174088" lon="121.10807651283218"><ele>12.0</ele><time>2026-03-30T10:27:10Z</time></trkpt><trkpt lat="14.622051791434245" lon="121.1079385857273"><ele>12.0</ele><time>2026-03-30T10:27:11Z</time></trkpt><trkpt lat="14.622018396130569" lon="121.1077961353932"><ele>12.0</ele><time>2026-03-30T10:27:12Z</time></trkpt><trkpt lat="14.621985463505267" lon="121.10765440924416"><ele>12.5</ele><time>2026-03-30T10:27:13Z</time></trkpt><trkpt lat="14.621950123760298" lon="121.10751522477847"><ele>13.0</ele><time>2026-03-30T10:27:14Z</time></trkpt><trkpt lat="14.621913522650688" lon="121.1073724348672"><ele>13.5</ele><time>2026-03-30T10:27:15Z</time></trkpt><trkpt lat="14.621878087997782" lon="121.1072312981231"><ele>14.0</ele><time>2026-03-30T10:27:16Z</time></trkpt><trkpt lat="14.62184173776526" lon="121.10708631925611"><ele>14.0</ele><time>2026-03-30T10:27:17Z</time></trkpt><trkpt lat="14.621808231737166" lon="121.10694043897821"><ele>14.0</ele><time>2026-03-30T10:27:18Z</time></trkpt><trkpt lat="14.621776601860004" lon="121.10679179572932"><ele>14.0</ele><time>2026-03-30T10:27:19Z</time></trkpt><trkpt lat="14.621745332456184" lon="121.10663894288633"><ele>14.0</ele><time>2026-03-30T10:27:20Z</time></trkpt><trkpt lat="14.621710276635008" lon="121.1064820284111"><ele>14.0</ele><time>2026-03-30T10:27:21Z</time></trkpt><trkpt lat="14.621673204473316" lon="121.10632310310896"><ele>14.0</ele><time>2026-03-30T10:27:22Z</time></trkpt><trkpt lat="14.621637651199997" lon="121.10616241648853"><ele>14.0</ele><time>2026-03-30T10:27:23Z</time></trkpt><trkpt lat="14.621606424053413" lon="121.10600343959604"><ele>14.0</ele><time>2026-03-30T10:27:24Z</time></trkpt><trkpt lat="14.6215756756694" lon="121.10585321941151"><ele>14.0</ele><time>2026-03-30T10:27:25Z</time></trkpt><trkpt lat="14.621548541922508" lon="121.10571467803176"><ele>14.0</ele><time>2026-03-30T10:27:26Z</time></trkpt><trkpt lat="14.621523751584037" lon="121.10558608007246"><ele>14.0</ele><time>2026-03-30T10:27:27Z</time></trkpt><trkpt lat="14.621501963447699" lon="121.10546370800277"><ele>14.2</ele><time>2026-03-30T10:27:28Z</time></trkpt><trkpt lat="14.621483366539225" lon="121.10535284332617"><ele>14.399999999999999</ele><time>2026-03-30T10:27:29Z</time></trkpt><trkpt lat="14.621465193701923" lon="121.1052466867113"><ele>14.6</ele><time>2026-03-30T10:27:30Z</time></trkpt><trkpt lat="14.62144814138014" lon="121.10515208999024"><ele>14.8</ele><time>2026-03-30T10:27:31Z</time></trkpt><trkpt lat="14.621432802847611" lon="121.10507380142053"><ele>15.0</ele><time>2026-03-30T10:27:32Z</time></trkpt><trkpt lat="14.62141679837634" lon="121.10495701736104"><ele>14.4</ele><time>2026-03-30T10:27:34Z</time></trkpt><trkpt lat="14.621402699555516" lon="121.10483469274573"><ele>13.8</ele><time>2026-03-30T10:27:36Z</time></trkpt><trkpt lat="14.621381137726809" lon="121.10469644270181"><ele>13.2</ele><time>2026-03-30T10:27:38Z</time></trkpt><trkpt lat="14.621365877049067" lon="121.10461597101747"><ele>12.6</ele><time>2026-03-30T10:27:39Z</time></trkpt><trkpt lat="14.62134861591919" lon="121.10452711550397"><ele>12.0</ele><time>2026-03-30T10:27:40Z</time></trkpt><trkpt lat="14.621329012215917" lon="121.10443154271157"><ele>12.0</ele><time>2026-03-30T10:27:41Z</time></trkpt><trkpt lat="14.621311329213684" lon="121.10433206589809"><ele>12.0</ele><time>2026-03-30T10:27:42Z</time></trkpt><trkpt lat="14.621293073097869" lon="121.10423189180545"><ele>12.0</ele><time>2026-03-30T10:27:43Z</time></trkpt><trkpt lat="14.621268154681744" lon="121.10412940942099"><ele>12.0</ele><time>2026-03-30T10:27:44Z</time></trkpt><trkpt lat="14.621241258132745" lon="121.10402802713675"><ele>12.0</ele><time>2026-03-30T10:27:45Z</time></trkpt><trkpt lat="14.621217392392875" lon="121.10393097368605"><ele>12.399999999999999</ele><time>2026-03-30T10:27:46Z</time></trkpt><trkpt lat="14.621204201968158" lon="121.10383186297555"><ele>12.799999999999999</ele><time>2026-03-30T10:27:47Z</time></trkpt><trkpt lat="14.621198117117302" lon="121.10373676565398"><ele>13.2</ele><time>2026-03-30T10:27:48Z</time></trkpt><trkpt lat="14.621149379419142" lon="121.10364595204727"><ele>13.6</ele><time>2026-03-30T10:27:49Z</time></trkpt><trkpt lat="14.621139199041565" lon="121.10354707317512"><ele>14.0</ele><time>2026-03-30T10:27:50Z</time></trkpt><trkpt lat="14.621120600056233" lon="121.10344818866072"><ele>14.0</ele><time>2026-03-30T10:27:51Z</time></trkpt><trkpt lat="14.62109980625916" lon="121.10335232293502"><ele>13.999999999999998</ele><time>2026-03-30T10:27:52Z</time></trkpt><trkpt lat="14.621081482395091" lon="121.10324772411728"><ele>13.999999999999998</ele><time>2026-03-30T10:27:53Z</time></trkpt><trkpt lat="14.621063431015102" lon="121.10313837875631"><ele>14.0</ele><time>2026-03-30T10:27:54Z</time></trkpt><trkpt lat="14.621039483336496" lon="121.10302449632158"><ele>14.0</ele><time>2026-03-30T10:27:55Z</time></trkpt><trkpt lat="14.621011774016031" lon="121.10292304141922"><ele>14.0</ele><time>2026-03-30T10:27:56Z</time></trkpt><trkpt lat="14.62098475555608" lon="121.10283082819208"><ele>13.999999999999998</ele><time>2026-03-30T10:27:57Z</time></trkpt><trkpt lat="14.620956395598872" lon="121.10273713656775"><ele>13.999999999999998</ele><time>2026-03-30T10:27:58Z</time></trkpt><trkpt lat="14.620928190844106" lon="121.10263684153492"><ele>14.0</ele><time>2026-03-30T10:27:59Z</time></trkpt><trkpt lat="14.620903076037118" lon="121.10252766957726"><ele>14.0</ele><time>2026-03-30T10:28:00Z</time></trkpt><trkpt lat="14.620877725298897" lon="121.10241761485999"><ele>14.0</ele><time>2026-03-30T10:28:01Z</time></trkpt><trkpt lat="14.620851606641349" lon="121.10229847862999"><ele>14.0</ele><time>2026-03-30T10:28:02Z</time></trkpt><trkpt lat="14.62082638414326" lon="121.10218438878758"><ele>14.0</ele><time>2026-03-30T10:28:03Z</time></trkpt><trkpt lat="14.620801307273364" lon="121.10206707035962"><ele>14.0</ele><time>2026-03-30T10:28:04Z</time></trkpt><trkpt lat="14.620774873107626" lon="121.10194669803573"><ele>14.0</ele><time>2026-03-30T10:28:05Z</time></trkpt><trkpt lat="14.620747054326158" lon="121.10182216066936"><ele>14.0</ele><time>2026-03-30T10:28:06Z</time></trkpt><trkpt lat="14.620723366025853" lon="121.10169092224184"><ele>14.0</ele><time>2026-03-30T10:28:07Z</time></trkpt><trkpt lat="14.620702514054392" lon="121.10156354882041"><ele>14.0</ele><time>2026-03-30T10:28:08Z</time></trkpt><trkpt lat="14.620678120511297" lon="121.10143563429665"><ele>14.0</ele><time>2026-03-30T10:28:09Z</time></trkpt><trkpt lat="14.620648622601653" lon="121.10131062542314"><ele>14.0</ele><time>2026-03-30T10:28:10Z</time></trkpt><trkpt lat="14.620623043293852" lon="121.10118643089733"><ele>14.0</ele><time>2026-03-30T10:28:11Z</time></trkpt><trkpt lat="14.62059646597341" lon="121.10107456115726"><ele>14.0</ele><time>2026-03-30T10:28:12Z</time></trkpt><trkpt lat="14.620571238409855" lon="121.10096387566237"><ele>14.0</ele><time>2026-03-30T10:28:13Z</time></trkpt><trkpt lat="14.62054202984068" lon="121.10084807013023"><ele>13.999999999999998</ele><time>2026-03-30T10:28:14Z</time></trkpt><trkpt lat="14.620502207327625" lon="121.10072814939292"><ele>13.999999999999998</ele><time>2026-03-30T10:28:15Z</time></trkpt><trkpt lat="14.62048140755482" lon="121.10062524004631"><ele>14.0</ele><time>2026-03-30T10:28:16Z</time></trkpt><trkpt lat="14.620454248424664" lon="121.10051997553064"><ele>14.0</ele><time>2026-03-30T10:28:17Z</time></trkpt><trkpt lat="14.620440020888983" lon="121.1004213385868"><ele>14.0</ele><time>2026-03-30T10:28:18Z</time></trkpt><trkpt lat="14.620437988831462" lon="121.10033059492194"><ele>13.999999999999998</ele><time>2026-03-30T10:28:19Z</time></trkpt><trkpt lat="14.620430628396258" lon="121.1002248936855"><ele>13.999999999999998</ele><time>2026-03-30T10:28:20Z</time></trkpt><trkpt lat="14.620418977559613" lon="121.10012774217077"><ele>14.0</ele><time>2026-03-30T10:28:21Z</time></trkpt><trkpt lat="14.620393858021151" lon="121.10001892629612"><ele>14.0</ele><time>2026-03-30T10:28:22Z</time></trkpt><trkpt lat="14.620376328725598" lon="121.09990698955232"><ele>14.0</ele><time>2026-03-30T10:28:23Z</time></trkpt><trkpt lat="14.620341811486037" lon="121.09980672412459"><ele>13.999999999999998</ele><time>2026-03-30T10:28:24Z</time></trkpt><trkpt lat="14.620313684693516" lon="121.09970686822413"><ele>13.999999999999998</ele><time>2026-03-30T10:28:25Z</time></trkpt><trkpt lat="14.620289510734626" lon="121.0996023790523"><ele>14.0</ele><time>2026-03-30T10:28:26Z</time></trkpt><trkpt lat="14.62026918338305" lon="121.09947853389951"><ele>14.0</ele><time>2026-03-30T10:28:27Z</time></trkpt><trkpt lat="14.62024333385407" lon="121.09935629692806"><ele>14.0</ele><time>2026-03-30T10:28:28Z</time></trkpt><trkpt lat="14.62021710228502" lon="121.09922695576566"><ele>14.0</ele><time>2026-03-30T10:28:29Z</time></trkpt><trkpt lat="14.62019075651613" lon="121.09909985494295"><ele>14.0</ele><time>2026-03-30T10:28:30Z</time></trkpt><trkpt lat="14.620168260915454" lon="121.09898484102276"><ele>14.0</ele><time>2026-03-30T10:28:31Z</time></trkpt><trkpt lat="14.620145811052993" lon="121.09887806645827"><ele>13.75</ele><time>2026-03-30T10:28:32Z</time></trkpt><trkpt lat="14.620116080138287" lon="121.09876032596522"><ele>13.5</ele><time>2026-03-30T10:28:33Z</time></trkpt><trkpt lat="14.620091935431317" lon="121.0986462963944"><ele>13.25</ele><time>2026-03-30T10:28:34Z</time></trkpt><trkpt lat="14.620063986188898" lon="121.09852460229354"><ele>13.0</ele><time>2026-03-30T10:28:35Z</time></trkpt><trkpt lat="14.620038350056586" lon="121.09839964627724"><ele>13.0</ele><time>2026-03-30T10:28:36Z</time></trkpt><trkpt lat="14.620009090703359" lon="121.09827387952804"><ele>13.0</ele><time>2026-03-30T10:28:37Z</time></trkpt><trkpt lat="14.619987335472825" lon="121.09815753076502"><ele>13.0</ele><time>2026-03-30T10:28:38Z</time></trkpt><trkpt lat="14.619966177496963" lon="121.0980492298341"><ele>13.0</ele><time>2026-03-30T10:28:39Z</time></trkpt><trkpt lat="14.619948176567005" lon="121.09794827942994"><ele>13.0</ele><time>2026-03-30T10:28:40Z</time></trkpt><trkpt lat="14.619927366470872" lon="121.09785488743672"><ele>13.166666666666666</ele><time>2026-03-30T10:28:41Z</time></trkpt><trkpt lat="14.61990896051777" lon="121.09776669620427"><ele>13.333333333333332</ele><time>2026-03-30T10:28:42Z</time></trkpt><trkpt lat="14.619895021450525" lon="121.09768429894294"><ele>13.5</ele><time>2026-03-30T10:28:43Z</time></trkpt><trkpt lat="14.619881496570102" lon="121.09761052535707"><ele>13.666666666666668</ele><time>2026-03-30T10:28:44Z</time></trkpt><trkpt lat="14.619868579769754" lon="121.09754415563191"><ele>13.833333333333334</ele><time>2026-03-30T10:28:45Z</time></trkpt><trkpt lat="14.619859913525712" lon="121.09747323851664"><ele>14.0</ele><time>2026-03-30T10:28:46Z</time></trkpt><trkpt lat="14.619847351472773" lon="121.09739500883276"><ele>14.000000000000002</ele><time>2026-03-30T10:28:47Z</time></trkpt><trkpt lat="14.619835838287567" lon="121.09730893534051"><ele>14.0</ele><time>2026-03-30T10:28:48Z</time></trkpt><trkpt lat="14.619818800386337" lon="121.09721806191618"><ele>14.0</ele><time>2026-03-30T10:28:49Z</time></trkpt><trkpt lat="14.619804728749758" lon="121.09713271909017"><ele>14.0</ele><time>2026-03-30T10:28:50Z</time></trkpt><trkpt lat="14.619785098781154" lon="121.09704712393378"><ele>14.000000000000002</ele><time>2026-03-30T10:28:51Z</time></trkpt><trkpt lat="14.619768403651497" lon="121.0969602026774"><ele>14.0</ele><time>2026-03-30T10:28:52Z</time></trkpt><trkpt lat="14.619747761011444" lon="121.09687394831364"><ele>14.0</ele><time>2026-03-30T10:28:53Z</time></trkpt><trkpt lat="14.61972377227161" lon="121.09677625094719"><ele>13.999999999999998</ele><time>2026-03-30T10:28:54Z</time></trkpt><trkpt lat="14.619700635473022" lon="121.09668254749306"><ele>13.999999999999998</ele><time>2026-03-30T10:28:55Z</time></trkpt><trkpt lat="14.619678811326363" lon="121.09658851510297"><ele>14.0</ele><time>2026-03-30T10:28:56Z</time></trkpt><trkpt lat="14.619660398085026" lon="121.09648557267701"><ele>14.0</ele><time>2026-03-30T10:28:57Z</time></trkpt><trkpt lat="14.619647516091126" lon="121.09640229182337"><ele>14.0</ele><time>2026-03-30T10:28:58Z</time></trkpt><trkpt lat="14.619620090075344" lon="121.09631140269208"><ele>13.999999999999998</ele><time>2026-03-30T10:28:59Z</time></trkpt><trkpt lat="14.619592268652033" lon="121.09621556559185"><ele>13.999999999999998</ele><time>2026-03-30T10:29:00Z</time></trkpt><trkpt lat="14.619558989981051" lon="121.09612199949468"><ele>14.0</ele><time>2026-03-30T10:29:01Z</time></trkpt><trkpt lat="14.61952450907965" lon="121.09602146027348"><ele>14.0</ele><time>2026-03-30T10:29:02Z</time></trkpt><trkpt lat="14.619488792546825" lon="121.09591399974853"><ele>14.0</ele><time>2026-03-30T10:29:03Z</time></trkpt><trkpt lat="14.619455302283013" lon="121.09580316460047"><ele>14.0</ele><time>2026-03-30T10:29:04Z</time></trkpt><trkpt lat="14.619429089892867" lon="121.0956807423687"><ele>14.0</ele><time>2026-03-30T10:29:05Z</time></trkpt><trkpt lat="14.61939565424874" lon="121.09555754062085"><ele>14.0</ele><time>2026-03-30T10:29:06Z</time></trkpt><trkpt lat="14.61936487492972" lon="121.09542069511735"><ele>14.0</ele><time>2026-03-30T10:29:07Z</time></trkpt><trkpt lat="14.619337000394143" lon="121.09527784106537"><ele>14.0</ele><time>2026-03-30T10:29:08Z</time></trkpt><trkpt lat="14.619303591305291" lon="121.09512715900362"><ele>14.0</ele><time>2026-03-30T10:29:09Z</time></trkpt><trkpt lat="14.619269614708768" lon="121.0949735439799"><ele>14.0</ele><time>2026-03-30T10:29:10Z</time></trkpt><trkpt lat="14.619235945630807" lon="121.09481410368468"><ele>12.333333333333334</ele><time>2026-03-30T10:29:11Z</time></trkpt><trkpt lat="14.619204055883012" lon="121.09464808020655"><ele>10.666666666666668</ele><time>2026-03-30T10:29:12Z</time></trkpt><trkpt lat="14.619167353152989" lon="121.09448225595881"><ele>9.0</ele><time>2026-03-30T10:29:13Z</time></trkpt><trkpt lat="14.619133583363785" lon="121.09431406374154"><ele>9.0</ele><time>2026-03-30T10:29:14Z</time></trkpt><trkpt lat="14.619099273145727" lon="121.09414393453808"><ele>9.0</ele><time>2026-03-30T10:29:15Z</time></trkpt><trkpt lat="14.619065913065072" lon="121.09397700860337"><ele>9.0</ele><time>2026-03-30T10:29:16Z</time></trkpt><trkpt lat="14.619030328218578" lon="121.09380189198869"><ele>10.333333333333332</ele><time>2026-03-30T10:29:17Z</time></trkpt><trkpt lat="14.618998430151494" lon="121.09362997199871"><ele>11.666666666666666</ele><time>2026-03-30T10:29:18Z</time></trkpt><trkpt lat="14.618956875651811" lon="121.09345597436923"><ele>13.0</ele><time>2026-03-30T10:29:19Z</time></trkpt><trkpt lat="14.618917134626859" lon="121.09328630277477"><ele>13.0</ele><time>2026-03-30T10:29:20Z</time></trkpt><trkpt lat="14.618880427795654" lon="121.09312655752156"><ele>13.0</ele><time>2026-03-30T10:29:21Z</time></trkpt><trkpt lat="14.61884868139104" lon="121.09297275369171"><ele>13.0</ele><time>2026-03-30T10:29:22Z</time></trkpt><trkpt lat="14.618818983907623" lon="121.09282674052723"><ele>13.0</ele><time>2026-03-30T10:29:23Z</time></trkpt><trkpt lat="14.618793470676016" lon="121.09269368851545"><ele>13.0</ele><time>2026-03-30T10:29:24Z</time></trkpt><trkpt lat="14.618765857663234" lon="121.09256178381449"><ele>13.0</ele><time>2026-03-30T10:29:25Z</time></trkpt><trkpt lat="14.61873941385845" lon="121.09242985881392"><ele>13.0</ele><time>2026-03-30T10:29:26Z</time></trkpt><trkpt lat="14.618710058908771" lon="121.09230419228433"><ele>13.4</ele><time>2026-03-30T10:29:27Z</time></trkpt><trkpt lat="14.61867857557633" lon="121.09220399540088"><ele>13.8</ele><time>2026-03-30T10:29:28Z</time></trkpt><trkpt lat="14.618645977381602" lon="121.09211317507005"><ele>14.2</ele><time>2026-03-30T10:29:29Z</time></trkpt><trkpt lat="14.618641410218641" lon="121.09197603482598"><ele>14.6</ele><time>2026-03-30T10:29:30Z</time></trkpt><trkpt lat="14.618625302677508" lon="121.09187517006539"><ele>15.0</ele><time>2026-03-30T10:29:31Z</time></trkpt><trkpt lat="14.61861695911173" lon="121.09179049501344"><ele>15.0</ele><time>2026-03-30T10:29:32Z</time></trkpt><trkpt lat="14.618614353036364" lon="121.09171416893273"><ele>15.0</ele><time>2026-03-30T10:29:33Z</time></trkpt><trkpt lat="14.618611290901866" lon="121.09162625579532"><ele>15.0</ele><time>2026-03-30T10:29:34Z</time></trkpt><trkpt lat="14.618609410470398" lon="121.09153472942265"><ele>15.0</ele><time>2026-03-30T10:29:35Z</time></trkpt><trkpt lat="14.618611539173845" lon="121.09143783176067"><ele>15.0</ele><time>2026-03-30T10:29:36Z</time></trkpt><trkpt lat="14.618613083862874" lon="121.0913383151819"><ele>15.0</ele><time>2026-03-30T10:29:37Z</time></trkpt><trkpt lat="14.618617053554809" lon="121.0912314014317"><ele>15.0</ele><time>2026-03-30T10:29:38Z</time></trkpt><trkpt lat="14.618624903423731" lon="121.0911171957199"><ele>15.0</ele><time>2026-03-30T10:29:39Z</time></trkpt><trkpt lat="14.618636790978922" lon="121.09099786798426"><ele>15.0</ele><time>2026-03-30T10:29:40Z</time></trkpt><trkpt lat="14.618650484965007" lon="121.09088293225393"><ele>15.0</ele><time>2026-03-30T10:29:41Z</time></trkpt><trkpt lat="14.618670275138992" lon="121.09077073424321"><ele>15.0</ele><time>2026-03-30T10:29:42Z</time></trkpt><trkpt lat="14.618688983888905" lon="121.09066381704608"><ele>14.6</ele><time>2026-03-30T10:29:43Z</time></trkpt><trkpt lat="14.618709465643104" lon="121.09056063731359"><ele>14.2</ele><time>2026-03-30T10:29:44Z</time></trkpt><trkpt lat="14.618734172327107" lon="121.09045732620204"><ele>13.8</ele><time>2026-03-30T10:29:45Z</time></trkpt><trkpt lat="14.618763268399112" lon="121.09034861424773"><ele>13.4</ele><time>2026-03-30T10:29:46Z</time></trkpt><trkpt lat="14.618797804859199" lon="121.09023981993091"><ele>13.0</ele><time>2026-03-30T10:29:47Z</time></trkpt><trkpt lat="14.618838308390254" lon="121.09012903766435"><ele>13.0</ele><time>2026-03-30T10:29:48Z</time></trkpt><trkpt lat="14.618885905076743" lon="121.09001264810712"><ele>13.0</ele><time>2026-03-30T10:29:49Z</time></trkpt><trkpt lat="14.618939469916738" lon="121.08990093492162"><ele>13.0</ele><time>2026-03-30T10:29:50Z</time></trkpt><trkpt lat="14.618991385467963" lon="121.08979763197529"><ele>13.0</ele><time>2026-03-30T10:29:51Z</time></trkpt><trkpt lat="14.619043677445047" lon="121.08970226165538"><ele>13.2</ele><time>2026-03-30T10:29:52Z</time></trkpt><trkpt lat="14.619093915841558" lon="121.08961559370023"><ele>13.4</ele><time>2026-03-30T10:29:53Z</time></trkpt><trkpt lat="14.619152566052499" lon="121.08952611494749"><ele>13.599999999999998</ele><time>2026-03-30T10:29:54Z</time></trkpt><trkpt lat="14.619217155129146" lon="121.08943936577218"><ele>13.799999999999999</ele><time>2026-03-30T10:29:55Z</time></trkpt><trkpt lat="14.619285192962758" lon="121.08935241155184"><ele>14.0</ele><time>2026-03-30T10:29:56Z</time></trkpt><trkpt lat="14.619352848262643" lon="121.08926739439934"><ele>14.0</ele><time>2026-03-30T10:29:57Z</time></trkpt><trkpt lat="14.619419491880024" lon="121.0891774123325"><ele>14.0</ele><time>2026-03-30T10:29:58Z</time></trkpt><trkpt lat="14.619495835537297" lon="121.08908874019309"><ele>14.0</ele><time>2026-03-30T10:29:59Z</time></trkpt><trkpt lat="14.619590960442642" lon="121.08899376694426"><ele>14.0</ele><time>2026-03-30T10:30:00Z</time></trkpt><trkpt lat="14.619690963168356" lon="121.08890011410736"><ele>13.5</ele><time>2026-03-30T10:30:01Z</time></trkpt><trkpt lat="14.619800610507403" lon="121.08880126126182"><ele>13.0</ele><time>2026-03-30T10:30:02Z</time></trkpt><trkpt lat="14.619909729708173" lon="121.08870245793359"><ele>12.5</ele><time>2026-03-30T10:30:03Z</time></trkpt><trkpt lat="14.620017621292138" lon="121.08860009163807"><ele>12.0</ele><time>2026-03-30T10:30:04Z</time></trkpt><trkpt lat="14.62012305452465" lon="121.08850171495122"><ele>12.0</ele><time>2026-03-30T10:30:05Z</time></trkpt><trkpt lat="14.620220660505328" lon="121.08841115930707"><ele>12.0</ele><time>2026-03-30T10:30:06Z</time></trkpt><trkpt lat="14.620316566027366" lon="121.08832156214818"><ele>12.0</ele><time>2026-03-30T10:30:07Z</time></trkpt><trkpt lat="14.620410694434831" lon="121.08822916800119"><ele>12.0</ele><time>2026-03-30T10:30:08Z</time></trkpt><trkpt lat="14.620502869781083" lon="121.08813083240292"><ele>12.0</ele><time>2026-03-30T10:30:09Z</time></trkpt><trkpt lat="14.620595515826782" lon="121.08803432577191"><ele>12.0</ele><time>2026-03-30T10:30:10Z</time></trkpt><trkpt lat="14.620683064596946" lon="121.08794326829184"><ele>12.0</ele><time>2026-03-30T10:30:11Z</time></trkpt><trkpt lat="14.620771513275658" lon="121.08784479421087"><ele>12.0</ele><time>2026-03-30T10:30:12Z</time></trkpt><trkpt lat="14.620860984642576" lon="121.08775032098666"><ele>12.0</ele><time>2026-03-30T10:30:13Z</time></trkpt><trkpt lat="14.620957552204109" lon="121.08765197576288"><ele>12.0</ele><time>2026-03-30T10:30:14Z</time></trkpt><trkpt lat="14.621063538045691" lon="121.08755340797384"><ele>12.0</ele><time>2026-03-30T10:30:15Z</time></trkpt><trkpt lat="14.621173819438345" lon="121.08744950696371"><ele>12.0</ele><time>2026-03-30T10:30:16Z</time></trkpt><trkpt lat="14.621290582579439" lon="121.08734225459497"><ele>13.0</ele><time>2026-03-30T10:30:17Z</time></trkpt><trkpt lat="14.621412128282" lon="121.08722854568924"><ele>14.0</ele><time>2026-03-30T10:30:18Z</time></trkpt><trkpt lat="14.621530123580847" lon="121.08711486721545"><ele>15.0</ele><time>2026-03-30T10:30:19Z</time></trkpt><trkpt lat="14.621654556220257" lon="121.08699668944227"><ele>15.0</ele><time>2026-03-30T10:30:20Z</time></trkpt><trkpt lat="14.621781013675065" lon="121.08687352498882"><ele>15.0</ele><time>2026-03-30T10:30:21Z</time></trkpt><trkpt lat="14.621905997947733" lon="121.0867491262947"><ele>15.0</ele><time>2026-03-30T10:30:22Z</time></trkpt><trkpt lat="14.622036858453923" lon="121.08662088718826"><ele>14.333333333333332</ele><time>2026-03-30T10:30:23Z</time></trkpt><trkpt lat="14.622170564855153" lon="121.08648846364102"><ele>13.666666666666666</ele><time>2026-03-30T10:30:24Z</time></trkpt><trkpt lat="14.622304262215412" lon="121.08635298056033"><ele>13.0</ele><time>2026-03-30T10:30:25Z</time></trkpt><trkpt lat="14.622439314942875" lon="121.08621795406316"><ele>13.0</ele><time>2026-03-30T10:30:26Z</time></trkpt><trkpt lat="14.622576713440887" lon="121.08607813634688"><ele>13.0</ele><time>2026-03-30T10:30:27Z</time></trkpt><trkpt lat="14.622715006152584" lon="121.08593886045341"><ele>13.0</ele><time>2026-03-30T10:30:28Z</time></trkpt><trkpt lat="14.622852927243462" lon="121.08579871472071"><ele>13.333333333333332</ele><time>2026-03-30T10:30:29Z</time></trkpt><trkpt lat="14.622993725843344" lon="121.08565912763514"><ele>13.666666666666668</ele><time>2026-03-30T10:30:30Z</time></trkpt><trkpt lat="14.62312799692066" lon="121.08552170107562"><ele>14.0</ele><time>2026-03-30T10:30:31Z</time></trkpt><trkpt lat="14.623276445605637" lon="121.08538490226171"><ele>14.0</ele><time>2026-03-30T10:30:32Z</time></trkpt><trkpt lat="14.623403407408201" lon="121.08524684537154"><ele>14.0</ele><time>2026-03-30T10:30:33Z</time></trkpt><trkpt lat="14.623544342105763" lon="121.08511431811114"><ele>14.0</ele><time>2026-03-30T10:30:34Z</time></trkpt><trkpt lat="14.62368400745752" lon="121.08498300093542"><ele>14.0</ele><time>2026-03-30T10:30:35Z</time></trkpt><trkpt lat="14.623826230905106" lon="121.08484634564175"><ele>14.0</ele><time>2026-03-30T10:30:36Z</time></trkpt><trkpt lat="14.623961497440096" lon="121.08470980904465"><ele>14.0</ele><time>2026-03-30T10:30:37Z</time></trkpt><trkpt lat="14.624095869219238" lon="121.08457749403702"><ele>14.0</ele><time>2026-03-30T10:30:38Z</time></trkpt><trkpt lat="14.624233756886172" lon="121.08444055610461"><ele>14.0</ele><time>2026-03-30T10:30:39Z</time></trkpt><trkpt lat="14.624368886133011" lon="121.08430259730412"><ele>14.0</ele><time>2026-03-30T10:30:40Z</time></trkpt><trkpt lat="14.6244992815086" lon="121.08416747285837"><ele>12.0</ele><time>2026-03-30T10:30:41Z</time></trkpt><trkpt lat="14.624634912662687" lon="121.08403310265822"><ele>10.0</ele><time>2026-03-30T10:30:42Z</time></trkpt><trkpt lat="14.624768398507655" lon="121.08389696733305"><ele>8.0</ele><time>2026-03-30T10:30:43Z</time></trkpt><trkpt lat="14.624901676401649" lon="121.08376165706088"><ele>8.0</ele><time>2026-03-30T10:30:44Z</time></trkpt><trkpt lat="14.625035659689528" lon="121.08363118013146"><ele>8.0</ele><time>2026-03-30T10:30:45Z</time></trkpt><trkpt lat="14.625173572723961" lon="121.08350183294657"><ele>8.0</ele><time>2026-03-30T10:30:46Z</time></trkpt><trkpt lat="14.625311062655555" lon="121.08337400698076"><ele>6.666666666666666</ele><time>2026-03-30T10:30:47Z</time></trkpt><trkpt lat="14.625443891214019" lon="121.08324694616192"><ele>5.333333333333333</ele><time>2026-03-30T10:30:48Z</time></trkpt><trkpt lat="14.625571528415916" lon="121.08311844263109"><ele>4.0</ele><time>2026-03-30T10:30:49Z</time></trkpt><trkpt lat="14.625703417385695" lon="121.08299467722577"><ele>4.0</ele><time>2026-03-30T10:30:50Z</time></trkpt><trkpt lat="14.625830964814792" lon="121.08286792999749"><ele>4.0</ele><time>2026-03-30T10:30:51Z</time></trkpt><trkpt lat="14.62595203330066" lon="121.08274806289452"><ele>4.0</ele><time>2026-03-30T10:30:52Z</time></trkpt><trkpt lat="14.626065512454549" lon="121.08264050756229"><ele>4.5</ele><time>2026-03-30T10:30:53Z</time></trkpt><trkpt lat="14.6261743106018" lon="121.08253304271749"><ele>5.0</ele><time>2026-03-30T10:30:54Z</time></trkpt><trkpt lat="14.626274630991384" lon="121.08243203606965"><ele>5.5</ele><time>2026-03-30T10:30:55Z</time></trkpt><trkpt lat="14.626368447771528" lon="121.0823388006842"><ele>6.0</ele><time>2026-03-30T10:30:56Z</time></trkpt><trkpt lat="14.626459894819337" lon="121.0822501132132"><ele>6.5</ele><time>2026-03-30T10:30:57Z</time></trkpt><trkpt lat="14.62655092716478" lon="121.08216853893916"><ele>7.0</ele><time>2026-03-30T10:30:58Z</time></trkpt><trkpt lat="14.626630287078124" lon="121.08208799725148"><ele>7.5</ele><time>2026-03-30T10:30:59Z</time></trkpt><trkpt lat="14.626711023064237" lon="121.0820052950947"><ele>8.0</ele><time>2026-03-30T10:31:00Z</time></trkpt><trkpt lat="14.626794454261477" lon="121.08192872707384"><ele>8.0</ele><time>2026-03-30T10:31:01Z</time></trkpt><trkpt lat="14.626867451062623" lon="121.08185636844941"><ele>8.0</ele><time>2026-03-30T10:31:02Z</time></trkpt><trkpt lat="14.626941118602556" lon="121.08178701557469"><ele>8.0</ele><time>2026-03-30T10:31:03Z</time></trkpt><trkpt lat="14.627017315222263" lon="121.08171268547432"><ele>8.0</ele><time>2026-03-30T10:31:04Z</time></trkpt><trkpt lat="14.627095643940004" lon="121.08163607528982"><ele>8.0</ele><time>2026-03-30T10:31:05Z</time></trkpt><trkpt lat="14.627180340467184" lon="121.0815627817426"><ele>8.8</ele><time>2026-03-30T10:31:06Z</time></trkpt><trkpt lat="14.627261828214406" lon="121.08148037418684"><ele>9.600000000000001</ele><time>2026-03-30T10:31:07Z</time></trkpt><trkpt lat="14.62733382516022" lon="121.08138754225646"><ele>10.399999999999999</ele><time>2026-03-30T10:31:08Z</time></trkpt><trkpt lat="14.627407200890909" lon="121.08129350128162"><ele>11.2</ele><time>2026-03-30T10:31:09Z</time></trkpt><trkpt lat="14.627493453617674" lon="121.08124043145399"><ele>12.0</ele><time>2026-03-30T10:31:10Z</time></trkpt><trkpt lat="14.627567865365197" lon="121.08118326178761"><ele>12.0</ele><time>2026-03-30T10:31:11Z</time></trkpt><trkpt lat="14.62764654345359" lon="121.08112415880868"><ele>12.0</ele><time>2026-03-30T10:31:12Z</time></trkpt><trkpt lat="14.62771418156339" lon="121.08105502672257"><ele>12.0</ele><time>2026-03-30T10:31:13Z</time></trkpt><trkpt lat="14.627788054004931" lon="121.08099350062575"><ele>12.0</ele><time>2026-03-30T10:31:14Z</time></trkpt><trkpt lat="14.627869888002818" lon="121.08093655725577"><ele>12.0</ele><time>2026-03-30T10:31:15Z</time></trkpt><trkpt lat="14.627943824573277" lon="121.08088490117893"><ele>12.333333333333334</ele><time>2026-03-30T10:31:16Z</time></trkpt><trkpt lat="14.628007457387243" lon="121.08083315159682"><ele>12.666666666666668</ele><time>2026-03-30T10:31:17Z</time></trkpt><trkpt lat="14.628073809673024" lon="121.08078153768237"><ele>13.0</ele><time>2026-03-30T10:31:18Z</time></trkpt><trkpt lat="14.628142597448107" lon="121.08072620874924"><ele>13.333333333333334</ele><time>2026-03-30T10:31:19Z</time></trkpt><trkpt lat="14.628205031469271" lon="121.0806783163278"><ele>13.666666666666668</ele><time>2026-03-30T10:31:20Z</time></trkpt><trkpt lat="14.628274812881157" lon="121.08062794329393"><ele>14.0</ele><time>2026-03-30T10:31:21Z</time></trkpt><trkpt lat="14.62834050760239" lon="121.08057577687309"><ele>14.0</ele><time>2026-03-30T10:31:22Z</time></trkpt><trkpt lat="14.628412050710152" lon="121.0805230481335"><ele>13.999999999999998</ele><time>2026-03-30T10:31:23Z</time></trkpt><trkpt lat="14.62848108166935" lon="121.08046996906738"><ele>13.999999999999998</ele><time>2026-03-30T10:31:24Z</time></trkpt><trkpt lat="14.628557995846162" lon="121.08040653240565"><ele>14.0</ele><time>2026-03-30T10:31:25Z</time></trkpt><trkpt lat="14.628646643284698" lon="121.08033945436867"><ele>14.0</ele><time>2026-03-30T10:31:26Z</time></trkpt><trkpt lat="14.62874292297299" lon="121.08027309924972"><ele>14.0</ele><time>2026-03-30T10:31:27Z</time></trkpt><trkpt lat="14.628838945063762" lon="121.08020446709915"><ele>14.0</ele><time>2026-03-30T10:31:28Z</time></trkpt><trkpt lat="14.628930750256727" lon="121.08013684503679"><ele>14.0</ele><time>2026-03-30T10:31:29Z</time></trkpt><trkpt lat="14.629023026749016" lon="121.08006986086106"><ele>14.0</ele><time>2026-03-30T10:31:30Z</time></trkpt><trkpt lat="14.62911691813867" lon="121.08000681657566"><ele>14.0</ele><time>2026-03-30T10:31:31Z</time></trkpt><trkpt lat="14.629216794266206" lon="121.07994157569433"><ele>14.0</ele><time>2026-03-30T10:31:32Z</time></trkpt><trkpt lat="14.629328589869635" lon="121.07987740074294"><ele>14.0</ele><time>2026-03-30T10:31:33Z</time></trkpt><trkpt lat="14.629445552122865" lon="121.07980603475903"><ele>14.0</ele><time>2026-03-30T10:31:34Z</time></trkpt><trkpt lat="14.62956326479677" lon="121.07972591865209"><ele>16.5</ele><time>2026-03-30T10:31:35Z</time></trkpt><trkpt lat="14.629680944746699" lon="121.07963944734797"><ele>19.0</ele><time>2026-03-30T10:31:36Z</time></trkpt><trkpt lat="14.629805508731463" lon="121.07955767039371"><ele>21.5</ele><time>2026-03-30T10:31:37Z</time></trkpt><trkpt lat="14.62993302636667" lon="121.07947231191054"><ele>24.0</ele><time>2026-03-30T10:31:38Z</time></trkpt><trkpt lat="14.63004564900423" lon="121.0793937993521"><ele>24.0</ele><time>2026-03-30T10:31:39Z</time></trkpt><trkpt lat="14.630150894251816" lon="121.07931789181099"><ele>24.0</ele><time>2026-03-30T10:31:40Z</time></trkpt><trkpt lat="14.630261844247766" lon="121.07924306169063"><ele>24.0</ele><time>2026-03-30T10:31:41Z</time></trkpt><trkpt lat="14.630361648892567" lon="121.07917288408612"><ele>24.0</ele><time>2026-03-30T10:31:42Z</time></trkpt><trkpt lat="14.630458237639838" lon="121.07910338311277"><ele>25.75</ele><time>2026-03-30T10:31:43Z</time></trkpt><trkpt lat="14.630564656807422" lon="121.07902894459303"><ele>27.5</ele><time>2026-03-30T10:31:44Z</time></trkpt><trkpt lat="14.63067481024027" lon="121.07895569725297"><ele>29.25</ele><time>2026-03-30T10:31:45Z</time></trkpt><trkpt lat="14.630791961028825" lon="121.07887585470357"><ele>31.0</ele><time>2026-03-30T10:31:46Z</time></trkpt><trkpt lat="14.630914009013356" lon="121.078799330274"><ele>31.0</ele><time>2026-03-30T10:31:47Z</time></trkpt><trkpt lat="14.631028274438197" lon="121.07872350731508"><ele>31.0</ele><time>2026-03-30T10:31:48Z</time></trkpt><trkpt lat="14.631128555761103" lon="121.07865068791436"><ele>31.0</ele><time>2026-03-30T10:31:49Z</time></trkpt><trkpt lat="14.631225501702483" lon="121.078579011273"><ele>31.0</ele><time>2026-03-30T10:31:50Z</time></trkpt><trkpt lat="14.631319276036624" lon="121.07850689731389"><ele>31.0</ele><time>2026-03-30T10:31:51Z</time></trkpt><trkpt lat="14.631417924220637" lon="121.0784312777753"><ele>31.0</ele><time>2026-03-30T10:31:52Z</time></trkpt><trkpt lat="14.631511256707688" lon="121.07836569768294"><ele>31.0</ele><time>2026-03-30T10:31:53Z</time></trkpt><trkpt lat="14.631598917072857" lon="121.07830654645575"><ele>31.0</ele><time>2026-03-30T10:31:54Z</time></trkpt><trkpt lat="14.631682539136921" lon="121.07824401175507"><ele>31.0</ele><time>2026-03-30T10:31:55Z</time></trkpt><trkpt lat="14.631749645717628" lon="121.07819005846825"><ele>32.0</ele><time>2026-03-30T10:31:56Z</time></trkpt><trkpt lat="14.631811270357485" lon="121.07813450135198"><ele>33.0</ele><time>2026-03-30T10:31:57Z</time></trkpt><trkpt lat="14.63187280386553" lon="121.0780886045952"><ele>34.0</ele><time>2026-03-30T10:31:58Z</time></trkpt><trkpt lat="14.63192628842823" lon="121.07804881006734"><ele>35.0</ele><time>2026-03-30T10:31:59Z</time></trkpt><trkpt lat="14.632005067239835" lon="121.0779724353354"><ele>36.0</ele><time>2026-03-30T10:32:01Z</time></trkpt><trkpt lat="14.632088193297797" lon="121.07790599148618"><ele>37.0</ele><time>2026-03-30T10:32:03Z</time></trkpt><trkpt lat="14.632134954818344" lon="121.0778247682442"><ele>37.0</ele><time>2026-03-30T10:32:04Z</time></trkpt><trkpt lat="14.632183537238008" lon="121.07776063397225"><ele>37.0</ele><time>2026-03-30T10:32:05Z</time></trkpt><trkpt lat="14.63223173089051" lon="121.07770377369967"><ele>37.0</ele><time>2026-03-30T10:32:06Z</time></trkpt><trkpt lat="14.632274491586742" lon="121.07764009096809"><ele>37.0</ele><time>2026-03-30T10:32:07Z</time></trkpt><trkpt lat="14.632328607218657" lon="121.07756919742614"><ele>37.0</ele><time>2026-03-30T10:32:08Z</time></trkpt><trkpt lat="14.632380683749378" lon="121.07749547512708"><ele>37.0</ele><time>2026-03-30T10:32:09Z</time></trkpt><trkpt lat="14.632438218157054" lon="121.07739816458154"><ele>39.25</ele><time>2026-03-30T10:32:10Z</time></trkpt><trkpt lat="14.632507120633068" lon="121.07727682522864"><ele>41.5</ele><time>2026-03-30T10:32:11Z</time></trkpt><trkpt lat="14.632570852313485" lon="121.07714759920319"><ele>43.75</ele><time>2026-03-30T10:32:12Z</time></trkpt><trkpt lat="14.632580370568888" lon="121.07708077796707"><ele>46.0</ele><time>2026-03-30T10:32:13Z</time></trkpt><trkpt lat="14.63260965238409" lon="121.07697244983052"><ele>46.0</ele><time>2026-03-30T10:32:14Z</time></trkpt><trkpt lat="14.632649355620059" lon="121.07683617098334"><ele>46.0</ele><time>2026-03-30T10:32:15Z</time></trkpt><trkpt lat="14.632680642972588" lon="121.07671019705334"><ele>46.0</ele><time>2026-03-30T10:32:16Z</time></trkpt><trkpt lat="14.632697132008142" lon="121.07658921369564"><ele>46.0</ele><time>2026-03-30T10:32:17Z</time></trkpt><trkpt lat="14.632711940177062" lon="121.07647486497943"><ele>46.4</ele><time>2026-03-30T10:32:18Z</time></trkpt><trkpt lat="14.632717272200294" lon="121.07635983699488"><ele>46.8</ele><time>2026-03-30T10:32:19Z</time></trkpt><trkpt lat="14.632712236504553" lon="121.07625035955985"><ele>47.199999999999996</ele><time>2026-03-30T10:32:20Z</time></trkpt><trkpt lat="14.632689886945517" lon="121.07614654846394"><ele>47.599999999999994</ele><time>2026-03-30T10:32:21Z</time></trkpt><trkpt lat="14.632661345020967" lon="121.07602975884245"><ele>48.0</ele><time>2026-03-30T10:32:22Z</time></trkpt><trkpt lat="14.632638242581486" lon="121.07592848403802"><ele>48.0</ele><time>2026-03-30T10:32:23Z</time></trkpt><trkpt lat="14.632602977279742" lon="121.07582749131161"><ele>48.0</ele><time>2026-03-30T10:32:24Z</time></trkpt><trkpt lat="14.632561090468585" lon="121.07572880106935"><ele>48.0</ele><time>2026-03-30T10:32:25Z</time></trkpt><trkpt lat="14.6325181927844" lon="121.07563546498876"><ele>48.0</ele><time>2026-03-30T10:32:26Z</time></trkpt><trkpt lat="14.632478137516843" lon="121.07555659132579"><ele>48.0</ele><time>2026-03-30T10:32:27Z</time></trkpt><trkpt lat="14.632437377890694" lon="121.07548083945063"><ele>48.666666666666664</ele><time>2026-03-30T10:32:28Z</time></trkpt><trkpt lat="14.632400527301261" lon="121.07541163415041"><ele>49.33333333333333</ele><time>2026-03-30T10:32:29Z</time></trkpt><trkpt lat="14.632362934742364" lon="121.07534488839832"><ele>50.0</ele><time>2026-03-30T10:32:30Z</time></trkpt><trkpt lat="14.632326287584267" lon="121.07528608403057"><ele>50.666666666666664</ele><time>2026-03-30T10:32:31Z</time></trkpt><trkpt lat="14.632268156888818" lon="121.0751903155484"><ele>51.33333333333333</ele><time>2026-03-30T10:32:33Z</time></trkpt><trkpt lat="14.63223025516657" lon="121.07509925965282"><ele>52.0</ele><time>2026-03-30T10:32:35Z</time></trkpt><trkpt lat="14.632190321451297" lon="121.07502576338905"><ele>52.0</ele><time>2026-03-30T10:32:37Z</time></trkpt><trkpt lat="14.632149701117102" lon="121.07494831763961"><ele>52.0</ele><time>2026-03-30T10:32:39Z</time></trkpt><trkpt lat="14.632095502317775" lon="121.07483682325275"><ele>52.0</ele><time>2026-03-30T10:32:41Z</time></trkpt><trkpt lat="14.632031309920258" lon="121.07475873756843"><ele>52.0</ele><time>2026-03-30T10:32:43Z</time></trkpt><trkpt lat="14.631987903358796" lon="121.07465849840416"><ele>52.0</ele><time>2026-03-30T10:32:45Z</time></trkpt><trkpt lat="14.631933557758481" lon="121.07457347715619"><ele>51.666666666666664</ele><time>2026-03-30T10:32:47Z</time></trkpt><trkpt lat="14.631871144969349" lon="121.07447072542047"><ele>51.33333333333333</ele><time>2026-03-30T10:32:49Z</time></trkpt><trkpt lat="14.631839726874954" lon="121.0744123596379"><ele>51.0</ele><time>2026-03-30T10:32:50Z</time></trkpt><trkpt lat="14.631807786480804" lon="121.07435052597982"><ele>50.66666666666667</ele><time>2026-03-30T10:32:51Z</time></trkpt><trkpt lat="14.631771481317276" lon="121.07429624178837"><ele>50.333333333333336</ele><time>2026-03-30T10:32:52Z</time></trkpt><trkpt lat="14.631730561204206" lon="121.07424312780851"><ele>50.0</ele><time>2026-03-30T10:32:53Z</time></trkpt><trkpt lat="14.631658014649275" lon="121.07422268449018"><ele>50.00000000000001</ele><time>2026-03-30T10:32:54Z</time></trkpt><trkpt lat="14.631618337491037" lon="121.07415657505514"><ele>50.0</ele><time>2026-03-30T10:32:55Z</time></trkpt><trkpt lat="14.631563204180749" lon="121.07410672877113"><ele>50.0</ele><time>2026-03-30T10:32:56Z</time></trkpt><trkpt lat="14.631516390003933" lon="121.07406043517975"><ele>50.0</ele><time>2026-03-30T10:32:57Z</time></trkpt><trkpt lat="14.63140947047952" lon="121.07401829624746"><ele>50.00000000000001</ele><time>2026-03-30T10:32:59Z</time></trkpt><trkpt lat="14.63134054888249" lon="121.07401508171766"><ele>50.0</ele><time>2026-03-30T10:33:00Z</time></trkpt><trkpt lat="14.631266167459668" lon="121.0740204541203"><ele>49.833333333333336</ele><time>2026-03-30T10:33:01Z</time></trkpt><trkpt lat="14.631199354117797" lon="121.07402486819612"><ele>49.66666666666667</ele><time>2026-03-30T10:33:02Z</time></trkpt><trkpt lat="14.631119532411464" lon="121.07402737828993"><ele>49.5</ele><time>2026-03-30T10:33:03Z</time></trkpt><trkpt lat="14.631030765678457" lon="121.0740263775157"><ele>49.33333333333333</ele><time>2026-03-30T10:33:04Z</time></trkpt><trkpt lat="14.630936142697752" lon="121.07403457519572"><ele>49.166666666666664</ele><time>2026-03-30T10:33:05Z</time></trkpt><trkpt lat="14.630829749625011" lon="121.07402860962043"><ele>49.0</ele><time>2026-03-30T10:33:06Z</time></trkpt><trkpt lat="14.630730391345129" lon="121.074015203272"><ele>49.800000000000004</ele><time>2026-03-30T10:33:07Z</time></trkpt><trkpt lat="14.630631141433536" lon="121.07400191078419"><ele>50.6</ele><time>2026-03-30T10:33:08Z</time></trkpt><trkpt lat="14.630533476406532" lon="121.07399492749714"><ele>51.4</ele><time>2026-03-30T10:33:09Z</time></trkpt><trkpt lat="14.630435043655577" lon="121.07399046837072"><ele>52.2</ele><time>2026-03-30T10:33:10Z</time></trkpt><trkpt lat="14.630331216104105" lon="121.07398737888133"><ele>53.0</ele><time>2026-03-30T10:33:11Z</time></trkpt><trkpt lat="14.630238988772648" lon="121.07398259208725"><ele>55.0</ele><time>2026-03-30T10:33:12Z</time></trkpt><trkpt lat="14.630147516907194" lon="121.0739824869608"><ele>57.0</ele><time>2026-03-30T10:33:13Z</time></trkpt><trkpt lat="14.630041907976553" lon="121.07398997108764"><ele>59.0</ele><time>2026-03-30T10:33:14Z</time></trkpt><trkpt lat="14.629941089540536" lon="121.07399455386476"><ele>61.0</ele><time>2026-03-30T10:33:15Z</time></trkpt><trkpt lat="14.629835004470158" lon="121.07399650537585"><ele>63.0</ele><time>2026-03-30T10:33:16Z</time></trkpt><trkpt lat="14.62972914910428" lon="121.07399747729978"><ele>63.0</ele><time>2026-03-30T10:33:17Z</time></trkpt><trkpt lat="14.629623631954388" lon="121.07399757851145"><ele>63.0</ele><time>2026-03-30T10:33:18Z</time></trkpt><trkpt lat="14.629514573233251" lon="121.07400366689039"><ele>63.0</ele><time>2026-03-30T10:33:19Z</time></trkpt><trkpt lat="14.629399906153536" lon="121.0740060345242"><ele>63.0</ele><time>2026-03-30T10:33:20Z</time></trkpt><trkpt lat="14.629286204194115" lon="121.0740073042319"><ele>63.0</ele><time>2026-03-30T10:33:21Z</time></trkpt><trkpt lat="14.629173509074292" lon="121.07400834460839"><ele>63.2</ele><time>2026-03-30T10:33:22Z</time></trkpt><trkpt lat="14.629068115023575" lon="121.07400863867758"><ele>63.4</ele><time>2026-03-30T10:33:23Z</time></trkpt><trkpt lat="14.62896282012711" lon="121.07400826248558"><ele>63.60000000000001</ele><time>2026-03-30T10:33:24Z</time></trkpt><trkpt lat="14.628863973977994" lon="121.0740143840195"><ele>63.800000000000004</ele><time>2026-03-30T10:33:25Z</time></trkpt><trkpt lat="14.628754349181985" lon="121.07401915097593"><ele>64.0</ele><time>2026-03-30T10:33:26Z</time></trkpt><trkpt lat="14.628645856777926" lon="121.0740226557359"><ele>62.6</ele><time>2026-03-30T10:33:27Z</time></trkpt><trkpt lat="14.628528615851852" lon="121.07402800739906"><ele>61.2</ele><time>2026-03-30T10:33:28Z</time></trkpt><trkpt lat="14.628426987281262" lon="121.07402830217369"><ele>59.800000000000004</ele><time>2026-03-30T10:33:29Z</time></trkpt><trkpt lat="14.628315874090795" lon="121.07403144387138"><ele>58.400000000000006</ele><time>2026-03-30T10:33:30Z</time></trkpt><trkpt lat="14.628209278071262" lon="121.07403636392974"><ele>57.0</ele><time>2026-03-30T10:33:31Z</time></trkpt><trkpt lat="14.628109950177617" lon="121.07403517688559"><ele>57.0</ele><time>2026-03-30T10:33:32Z</time></trkpt><trkpt lat="14.627998358172428" lon="121.07403909621192"><ele>57.0</ele><time>2026-03-30T10:33:33Z</time></trkpt><trkpt lat="14.627902602591066" lon="121.0740430421688"><ele>57.0</ele><time>2026-03-30T10:33:34Z</time></trkpt><trkpt lat="14.627816971467352" lon="121.07404776569811"><ele>57.0</ele><time>2026-03-30T10:33:35Z</time></trkpt><trkpt lat="14.627737458317448" lon="121.07404697232663"><ele>57.0</ele><time>2026-03-30T10:33:36Z</time></trkpt><trkpt lat="14.627654505790016" lon="121.0740540424192"><ele>56.2</ele><time>2026-03-30T10:33:37Z</time></trkpt><trkpt lat="14.627563823475127" lon="121.07405944928665"><ele>55.400000000000006</ele><time>2026-03-30T10:33:38Z</time></trkpt><trkpt lat="14.627471831495912" lon="121.07407047523384"><ele>54.599999999999994</ele><time>2026-03-30T10:33:39Z</time></trkpt><trkpt lat="14.627375184326953" lon="121.07408337133876"><ele>53.8</ele><time>2026-03-30T10:33:40Z</time></trkpt><trkpt lat="14.627279914659043" lon="121.07408543190746"><ele>53.0</ele><time>2026-03-30T10:33:41Z</time></trkpt><trkpt lat="14.627180900239955" lon="121.07409617746046"><ele>53.0</ele><time>2026-03-30T10:33:42Z</time></trkpt><trkpt lat="14.627081211683777" lon="121.07410490431963"><ele>53.0</ele><time>2026-03-30T10:33:43Z</time></trkpt><trkpt lat="14.626978960136748" lon="121.07411961147069"><ele>53.0</ele><time>2026-03-30T10:33:44Z</time></trkpt><trkpt lat="14.626876194607918" lon="121.07413458470052"><ele>53.0</ele><time>2026-03-30T10:33:45Z</time></trkpt><trkpt lat="14.626775141241362" lon="121.07415994887593"><ele>53.0</ele><time>2026-03-30T10:33:46Z</time></trkpt><trkpt lat="14.626666125100881" lon="121.07418818442291"><ele>53.0</ele><time>2026-03-30T10:33:47Z</time></trkpt><trkpt lat="14.626553817656793" lon="121.07421731421721"><ele>53.0</ele><time>2026-03-30T10:33:48Z</time></trkpt><trkpt lat="14.626452379958655" lon="121.07421060745898"><ele>53.0</ele><time>2026-03-30T10:33:49Z</time></trkpt><trkpt lat="14.626360675621926" lon="121.07421014051813"><ele>53.0</ele><time>2026-03-30T10:33:50Z</time></trkpt><trkpt lat="14.626248618244134" lon="121.07424866107188"><ele>53.0</ele><time>2026-03-30T10:33:51Z</time></trkpt><trkpt lat="14.626140192090498" lon="121.07428940471432"><ele>54.2</ele><time>2026-03-30T10:33:52Z</time></trkpt><trkpt lat="14.626062162851042" lon="121.07426355932687"><ele>55.4</ele><time>2026-03-30T10:33:53Z</time></trkpt><trkpt lat="14.625959534292804" lon="121.07428180295338"><ele>56.60000000000001</ele><time>2026-03-30T10:33:54Z</time></trkpt><trkpt lat="14.625849017581402" lon="121.07429368225615"><ele>57.800000000000004</ele><time>2026-03-30T10:33:55Z</time></trkpt><trkpt lat="14.625733548219582" lon="121.07430723276073"><ele>59.0</ele><time>2026-03-30T10:33:56Z</time></trkpt><trkpt lat="14.625614116891477" lon="121.07431743649354"><ele>59.0</ele><time>2026-03-30T10:33:57Z</time></trkpt><trkpt lat="14.625492946509361" lon="121.07433014860129"><ele>59.0</ele><time>2026-03-30T10:33:58Z</time></trkpt><trkpt lat="14.625366262877554" lon="121.07433874268726"><ele>59.0</ele><time>2026-03-30T10:33:59Z</time></trkpt><trkpt lat="14.625243300057795" lon="121.07433996576941"><ele>59.0</ele><time>2026-03-30T10:34:00Z</time></trkpt><trkpt lat="14.625116543761324" lon="121.07434063487241"><ele>59.5</ele><time>2026-03-30T10:34:01Z</time></trkpt><trkpt lat="14.62498324104642" lon="121.07433669038227"><ele>60.0</ele><time>2026-03-30T10:34:02Z</time></trkpt><trkpt lat="14.624848212702938" lon="121.07433131046555"><ele>60.5</ele><time>2026-03-30T10:34:03Z</time></trkpt><trkpt lat="14.624710461740348" lon="121.07432666897056"><ele>61.0</ele><time>2026-03-30T10:34:04Z</time></trkpt><trkpt lat="14.62456477484705" lon="121.07431713783285"><ele>59.33333333333333</ele><time>2026-03-30T10:34:05Z</time></trkpt><trkpt lat="14.624417516798395" lon="121.07430138250166"><ele>57.66666666666667</ele><time>2026-03-30T10:34:06Z</time></trkpt><trkpt lat="14.624266481073441" lon="121.07428431780997"><ele>56.0</ele><time>2026-03-30T10:34:07Z</time></trkpt><trkpt lat="14.624114216840404" lon="121.07426293885729"><ele>56.0</ele><time>2026-03-30T10:34:08Z</time></trkpt><trkpt lat="14.623958177091511" lon="121.07423318725208"><ele>56.0</ele><time>2026-03-30T10:34:09Z</time></trkpt><trkpt lat="14.623804872075114" lon="121.07420232195363"><ele>56.0</ele><time>2026-03-30T10:34:10Z</time></trkpt><trkpt lat="14.623666381459758" lon="121.07417067594832"><ele>56.75</ele><time>2026-03-30T10:34:11Z</time></trkpt><trkpt lat="14.623541700185424" lon="121.07413486835337"><ele>57.5</ele><time>2026-03-30T10:34:12Z</time></trkpt><trkpt lat="14.623415275150725" lon="121.07409232087944"><ele>58.25</ele><time>2026-03-30T10:34:13Z</time></trkpt><trkpt lat="14.623291055800076" lon="121.0740425637607"><ele>59.0</ele><time>2026-03-30T10:34:14Z</time></trkpt><trkpt lat="14.623170982053324" lon="121.07399387304416"><ele>59.5</ele><time>2026-03-30T10:34:15Z</time></trkpt><trkpt lat="14.623046603454908" lon="121.07392878124642"><ele>60.0</ele><time>2026-03-30T10:34:16Z</time></trkpt><trkpt lat="14.622914349647894" lon="121.07387188755426"><ele>60.5</ele><time>2026-03-30T10:34:17Z</time></trkpt><trkpt lat="14.622786012925493" lon="121.07380736263373"><ele>61.0</ele><time>2026-03-30T10:34:18Z</time></trkpt><trkpt lat="14.622659819717875" lon="121.07374428190167"><ele>61.25</ele><time>2026-03-30T10:34:19Z</time></trkpt><trkpt lat="14.6225254587032" lon="121.07368582115568"><ele>61.5</ele><time>2026-03-30T10:34:20Z</time></trkpt><trkpt lat="14.62239357895172" lon="121.07362748873894"><ele>61.75</ele><time>2026-03-30T10:34:21Z</time></trkpt><trkpt lat="14.622262449721298" lon="121.07356504073206"><ele>62.0</ele><time>2026-03-30T10:34:22Z</time></trkpt><trkpt lat="14.622129758677033" lon="121.07350381532484"><ele>62.0</ele><time>2026-03-30T10:34:23Z</time></trkpt><trkpt lat="14.621994047645464" lon="121.07343936041032"><ele>62.0</ele><time>2026-03-30T10:34:24Z</time></trkpt><trkpt lat="14.621859287881684" lon="121.07337664995634"><ele>62.0</ele><time>2026-03-30T10:34:25Z</time></trkpt><trkpt lat="14.621722693709804" lon="121.07331088914819"><ele>62.0</ele><time>2026-03-30T10:34:26Z</time></trkpt><trkpt lat="14.621585394477052" lon="121.07324861179312"><ele>62.333333333333336</ele><time>2026-03-30T10:34:27Z</time></trkpt><trkpt lat="14.621445145692418" lon="121.07318690261121"><ele>62.66666666666667</ele><time>2026-03-30T10:34:28Z</time></trkpt><trkpt lat="14.62131073251288" lon="121.07312438391479"><ele>63.0</ele><time>2026-03-30T10:34:29Z</time></trkpt><trkpt lat="14.621169290428167" lon="121.07307021795688"><ele>62.5</ele><time>2026-03-30T10:34:30Z</time></trkpt><trkpt lat="14.621037986567275" lon="121.0730083912219"><ele>62.0</ele><time>2026-03-30T10:34:31Z</time></trkpt><trkpt lat="14.6209094925324" lon="121.07293915877334"><ele>61.5</ele><time>2026-03-30T10:34:32Z</time></trkpt><trkpt lat="14.620785945637296" lon="121.07287872958236"><ele>61.0</ele><time>2026-03-30T10:34:33Z</time></trkpt><trkpt lat="14.620653387655107" lon="121.07282556452414"><ele>61.0</ele><time>2026-03-30T10:34:34Z</time></trkpt><trkpt lat="14.620530999664656" lon="121.07276619710785"><ele>61.0</ele><time>2026-03-30T10:34:35Z</time></trkpt><trkpt lat="14.62041017954596" lon="121.07270660081397"><ele>61.0</ele><time>2026-03-30T10:34:36Z</time></trkpt><trkpt lat="14.620292322998486" lon="121.07265345552648"><ele>61.0</ele><time>2026-03-30T10:34:37Z</time></trkpt><trkpt lat="14.620187230894999" lon="121.07259920571879"><ele>61.199999999999996</ele><time>2026-03-30T10:34:38Z</time></trkpt><trkpt lat="14.620087469413512" lon="121.07254495011635"><ele>61.39999999999999</ele><time>2026-03-30T10:34:39Z</time></trkpt><trkpt lat="14.619985316275466" lon="121.07249787618872"><ele>61.6</ele><time>2026-03-30T10:34:40Z</time></trkpt><trkpt lat="14.619895429204425" lon="121.07246585992937"><ele>61.8</ele><time>2026-03-30T10:34:41Z</time></trkpt><trkpt lat="14.619799531052232" lon="121.07241539041081"><ele>62.0</ele><time>2026-03-30T10:34:42Z</time></trkpt><trkpt lat="14.619706985757736" lon="121.07237427979746"><ele>61.2</ele><time>2026-03-30T10:34:43Z</time></trkpt><trkpt lat="14.619611027290922" lon="121.07233069750794"><ele>60.400000000000006</ele><time>2026-03-30T10:34:44Z</time></trkpt><trkpt lat="14.619503564778109" lon="121.07228729967551"><ele>59.599999999999994</ele><time>2026-03-30T10:34:45Z</time></trkpt><trkpt lat="14.619405868661143" lon="121.0722339272542"><ele>58.8</ele><time>2026-03-30T10:34:46Z</time></trkpt><trkpt lat="14.61931000128539" lon="121.07219398434147"><ele>58.0</ele><time>2026-03-30T10:34:47Z</time></trkpt><trkpt lat="14.619213259291211" lon="121.0721544287993"><ele>57.4</ele><time>2026-03-30T10:34:48Z</time></trkpt><trkpt lat="14.619134346838758" lon="121.07211692416533"><ele>56.8</ele><time>2026-03-30T10:34:49Z</time></trkpt><trkpt lat="14.619048681549232" lon="121.07207944318478"><ele>56.2</ele><time>2026-03-30T10:34:50Z</time></trkpt><trkpt lat="14.618970657827212" lon="121.07203888274569"><ele>55.6</ele><time>2026-03-30T10:34:51Z</time></trkpt><trkpt lat="14.618863168240043" lon="121.07198754199212"><ele>55.0</ele><time>2026-03-30T10:34:52Z</time></trkpt><trkpt lat="14.618740743173198" lon="121.07192009824365"><ele>55.0</ele><time>2026-03-30T10:34:53Z</time></trkpt><trkpt lat="14.618671488304638" lon="121.07189914365256"><ele>55.0</ele><time>2026-03-30T10:34:54Z</time></trkpt><trkpt lat="14.618577379720834" lon="121.0718492067582"><ele>55.0</ele><time>2026-03-30T10:34:55Z</time></trkpt><trkpt lat="14.618476022972565" lon="121.07179986006436"><ele>55.0</ele><time>2026-03-30T10:34:56Z</time></trkpt><trkpt lat="14.618374687098838" lon="121.07175088031097"><ele>55.0</ele><time>2026-03-30T10:34:57Z</time></trkpt><trkpt lat="14.618270119491958" lon="121.07169993768719"><ele>54.8</ele><time>2026-03-30T10:34:58Z</time></trkpt><trkpt lat="14.618169159237716" lon="121.07164586253644"><ele>54.6</ele><time>2026-03-30T10:34:59Z</time></trkpt><trkpt lat="14.618076270326743" lon="121.07159671627814"><ele>54.400000000000006</ele><time>2026-03-30T10:35:00Z</time></trkpt><trkpt lat="14.617985284031663" lon="121.07155202735916"><ele>54.2</ele><time>2026-03-30T10:35:01Z</time></trkpt><trkpt lat="14.617901037610345" lon="121.07150905974757"><ele>54.0</ele><time>2026-03-30T10:35:02Z</time></trkpt><trkpt lat="14.617812273971778" lon="121.07146534101513"><ele>54.0</ele><time>2026-03-30T10:35:03Z</time></trkpt><trkpt lat="14.617721405527181" lon="121.07142208330288"><ele>54.00000000000001</ele><time>2026-03-30T10:35:04Z</time></trkpt><trkpt lat="14.617633087929132" lon="121.07137933767793"><ele>54.00000000000001</ele><time>2026-03-30T10:35:05Z</time></trkpt><trkpt lat="14.617549212992428" lon="121.07133911598797"><ele>54.0</ele><time>2026-03-30T10:35:06Z</time></trkpt><trkpt lat="14.617465518250256" lon="121.07130229337939"><ele>54.0</ele><time>2026-03-30T10:35:07Z</time></trkpt><trkpt lat="14.617390237313574" lon="121.07127316089846"><ele>54.0</ele><time>2026-03-30T10:35:08Z</time></trkpt><trkpt lat="14.617277065297289" lon="121.07122583714482"><ele>54.0</ele><time>2026-03-30T10:35:10Z</time></trkpt><trkpt lat="14.61721110183435" lon="121.0711950355822"><ele>54.0</ele><time>2026-03-30T10:35:11Z</time></trkpt><trkpt lat="14.617139912900738" lon="121.07116216502986"><ele>54.0</ele><time>2026-03-30T10:35:12Z</time></trkpt><trkpt lat="14.617063983714155" lon="121.07112854555949"><ele>54.0</ele><time>2026-03-30T10:35:13Z</time></trkpt><trkpt lat="14.616982676171016" lon="121.07108624873925"><ele>54.0</ele><time>2026-03-30T10:35:14Z</time></trkpt><trkpt lat="14.61689567990928" lon="121.07104703136545"><ele>54.0</ele><time>2026-03-30T10:35:15Z</time></trkpt><trkpt lat="14.616809290686954" lon="121.07100402707891"><ele>54.00000000000001</ele><time>2026-03-30T10:35:16Z</time></trkpt><trkpt lat="14.616709084872989" lon="121.0709578626305"><ele>54.00000000000001</ele><time>2026-03-30T10:35:17Z</time></trkpt><trkpt lat="14.616613739049841" lon="121.070914829418"><ele>54.0</ele><time>2026-03-30T10:35:18Z</time></trkpt><trkpt lat="14.61652716136498" lon="121.07087109215144"><ele>54.0</ele><time>2026-03-30T10:35:19Z</time></trkpt><trkpt lat="14.616425226884113" lon="121.070823737543"><ele>54.0</ele><time>2026-03-30T10:35:20Z</time></trkpt><trkpt lat="14.616332698658033" lon="121.07077497247658"><ele>54.00000000000001</ele><time>2026-03-30T10:35:21Z</time></trkpt><trkpt lat="14.616227699522595" lon="121.07072450844746"><ele>54.00000000000001</ele><time>2026-03-30T10:35:22Z</time></trkpt><trkpt lat="14.616126944523417" lon="121.07067414800413"><ele>54.0</ele><time>2026-03-30T10:35:23Z</time></trkpt><trkpt lat="14.616024260694292" lon="121.07062518669863"><ele>54.0</ele><time>2026-03-30T10:35:24Z</time></trkpt><trkpt lat="14.61592868660254" lon="121.07058287694807"><ele>53.666666666666664</ele><time>2026-03-30T10:35:25Z</time></trkpt><trkpt lat="14.615834067717406" lon="121.07055109062905"><ele>53.33333333333333</ele><time>2026-03-30T10:35:26Z</time></trkpt><trkpt lat="14.615746412456811" lon="121.07052448660322"><ele>53.0</ele><time>2026-03-30T10:35:27Z</time></trkpt><trkpt lat="14.615659259834878" lon="121.07050058934173"><ele>52.666666666666664</ele><time>2026-03-30T10:35:28Z</time></trkpt><trkpt lat="14.615577492378678" lon="121.07048727305934"><ele>52.33333333333333</ele><time>2026-03-30T10:35:29Z</time></trkpt><trkpt lat="14.615492010905323" lon="121.0704806458736"><ele>52.0</ele><time>2026-03-30T10:35:30Z</time></trkpt><trkpt lat="14.615409575182236" lon="121.07047568629355"><ele>51.99999999999999</ele><time>2026-03-30T10:35:31Z</time></trkpt><trkpt lat="14.615336928589267" lon="121.07047399996127"><ele>52.0</ele><time>2026-03-30T10:35:32Z</time></trkpt><trkpt lat="14.615263980808034" lon="121.07046995217048"><ele>52.0</ele><time>2026-03-30T10:35:33Z</time></trkpt><trkpt lat="14.615201241971423" lon="121.07046398135404"><ele>52.0</ele><time>2026-03-30T10:35:34Z</time></trkpt><trkpt lat="14.61508697073404" lon="121.07046927615838"><ele>51.99999999999999</ele><time>2026-03-30T10:35:36Z</time></trkpt><trkpt lat="14.614978667997361" lon="121.07048586134542"><ele>52.0</ele><time>2026-03-30T10:35:38Z</time></trkpt><trkpt lat="14.614873036742495" lon="121.07047691127225"><ele>52.0</ele><time>2026-03-30T10:35:40Z</time></trkpt><trkpt lat="14.61476501563213" lon="121.07044074735212"><ele>52.0</ele><time>2026-03-30T10:35:42Z</time></trkpt><trkpt lat="14.614681443343445" lon="121.07037181105191"><ele>52.0</ele><time>2026-03-30T10:35:44Z</time></trkpt><trkpt lat="14.614610687281607" lon="121.07028039183048"><ele>52.0</ele><time>2026-03-30T10:35:46Z</time></trkpt><trkpt lat="14.614537660588185" lon="121.07017079987564"><ele>51.99999999999999</ele><time>2026-03-30T10:35:48Z</time></trkpt><trkpt lat="14.614491937928339" lon="121.07005534586465"><ele>52.0</ele><time>2026-03-30T10:35:50Z</time></trkpt><trkpt lat="14.614471874651496" lon="121.06998442269487"><ele>52.0</ele><time>2026-03-30T10:35:51Z</time></trkpt><trkpt lat="14.614455885886322" lon="121.0699137590072"><ele>52.0</ele><time>2026-03-30T10:35:52Z</time></trkpt><trkpt lat="14.614436747334027" lon="121.06984915972276"><ele>51.99999999999999</ele><time>2026-03-30T10:35:53Z</time></trkpt><trkpt lat="14.614419851203653" lon="121.06978436657604"><ele>52.0</ele><time>2026-03-30T10:35:54Z</time></trkpt><trkpt lat="14.614403142281821" lon="121.06972062297045"><ele>52.166666666666664</ele><time>2026-03-30T10:35:55Z</time></trkpt><trkpt lat="14.614385394657663" lon="121.06965343514184"><ele>52.33333333333333</ele><time>2026-03-30T10:35:56Z</time></trkpt><trkpt lat="14.614369453076836" lon="121.06958970835711"><ele>52.5</ele><time>2026-03-30T10:35:57Z</time></trkpt><trkpt lat="14.614345194630866" lon="121.0694767864499"><ele>52.66666666666667</ele><time>2026-03-30T10:35:59Z</time></trkpt><trkpt lat="14.614315833944044" lon="121.06938210027813"><ele>52.833333333333336</ele><time>2026-03-30T10:36:01Z</time></trkpt><trkpt lat="14.614309405125555" lon="121.06929918265524"><ele>53.0</ele><time>2026-03-30T10:36:03Z</time></trkpt><trkpt lat="14.614282245980316" lon="121.06922238222118"><ele>53.00000000000001</ele><time>2026-03-30T10:36:06Z</time></trkpt><trkpt lat="14.614264835824867" lon="121.0691534763308"><ele>53.0</ele><time>2026-03-30T10:36:10Z</time></trkpt><trkpt lat="14.614249694362071" lon="121.06907951233644"><ele>53.0</ele><time>2026-03-30T10:36:13Z</time></trkpt><trkpt lat="14.614237240698127" lon="121.06900006538174"><ele>53.0</ele><time>2026-03-30T10:36:15Z</time></trkpt><trkpt lat="14.614213255644671" lon="121.06890082171638"><ele>53.00000000000001</ele><time>2026-03-30T10:36:17Z</time></trkpt><trkpt lat="14.614183809414305" lon="121.0688083229792"><ele>53.0</ele><time>2026-03-30T10:36:19Z</time></trkpt><trkpt lat="14.61416171331875" lon="121.06870502298268"><ele>53.0</ele><time>2026-03-30T10:36:21Z</time></trkpt><trkpt lat="14.614135323499614" lon="121.06859180532146"><ele>53.0</ele><time>2026-03-30T10:36:23Z</time></trkpt><trkpt lat="14.614117029698106" lon="121.0685290830319"><ele>53.0</ele><time>2026-03-30T10:36:24Z</time></trkpt><trkpt lat="14.614090508825889" lon="121.06841493441662"><ele>53.0</ele><time>2026-03-30T10:36:26Z</time></trkpt><trkpt lat="14.6140751479661" lon="121.06833292164741"><ele>53.0</ele><time>2026-03-30T10:36:28Z</time></trkpt><trkpt lat="14.61404126669145" lon="121.06824544786882"><ele>53.0</ele><time>2026-03-30T10:36:29Z</time></trkpt><trkpt lat="14.614005885697258" lon="121.06811665333018"><ele>53.0</ele><time>2026-03-30T10:36:31Z</time></trkpt><trkpt lat="14.6139825811002" lon="121.06803600645627"><ele>53.0</ele><time>2026-03-30T10:36:32Z</time></trkpt><trkpt lat="14.613958390898484" lon="121.06795247969515"><ele>53.0</ele><time>2026-03-30T10:36:33Z</time></trkpt><trkpt lat="14.6139324159839" lon="121.06786922435302"><ele>53.0</ele><time>2026-03-30T10:36:34Z</time></trkpt><trkpt lat="14.613911063186269" lon="121.06779453172247"><ele>53.00000000000001</ele><time>2026-03-30T10:36:35Z</time></trkpt><trkpt lat="14.613891735914422" lon="121.06772866475254"><ele>53.0</ele><time>2026-03-30T10:36:36Z</time></trkpt><trkpt lat="14.613875964930749" lon="121.06766308155703"><ele>53.0</ele><time>2026-03-30T10:36:37Z</time></trkpt><trkpt lat="14.613855680479823" lon="121.06756588498477"><ele>53.0</ele><time>2026-03-30T10:36:39Z</time></trkpt><trkpt lat="14.613836220676792" lon="121.0674910459779"><ele>53.00000000000001</ele><time>2026-03-30T10:36:42Z</time></trkpt><trkpt lat="14.613810267902286" lon="121.06741401954548"><ele>53.0</ele><time>2026-03-30T10:36:49Z</time></trkpt><trkpt lat="14.613774705086735" lon="121.06731351377182"><ele>53.4</ele><time>2026-03-30T10:36:51Z</time></trkpt><trkpt lat="14.613749362462238" lon="121.06724218947168"><ele>53.8</ele><time>2026-03-30T10:36:52Z</time></trkpt><trkpt lat="14.61372052864242" lon="121.06716477472021"><ele>54.2</ele><time>2026-03-30T10:36:53Z</time></trkpt><trkpt lat="14.613700144824204" lon="121.06707091677353"><ele>54.6</ele><time>2026-03-30T10:36:54Z</time></trkpt><trkpt lat="14.613671726520208" lon="121.06696955821256"><ele>55.0</ele><time>2026-03-30T10:36:55Z</time></trkpt><trkpt lat="14.613645394355464" lon="121.0668549765841"><ele>55.0</ele><time>2026-03-30T10:36:56Z</time></trkpt><trkpt lat="14.613618476751181" lon="121.066760776383"><ele>55.0</ele><time>2026-03-30T10:36:57Z</time></trkpt><trkpt lat="14.613587885016997" lon="121.06664588623404"><ele>55.0</ele><time>2026-03-30T10:36:58Z</time></trkpt><trkpt lat="14.613567921637214" lon="121.06654970146258"><ele>55.0</ele><time>2026-03-30T10:36:59Z</time></trkpt><trkpt lat="14.613541955641713" lon="121.06644477335392"><ele>55.0</ele><time>2026-03-30T10:37:00Z</time></trkpt><trkpt lat="14.613519937382108" lon="121.06634941704155"><ele>54.6</ele><time>2026-03-30T10:37:01Z</time></trkpt><trkpt lat="14.613494058344795" lon="121.0662530269654"><ele>54.2</ele><time>2026-03-30T10:37:02Z</time></trkpt><trkpt lat="14.613472632817299" lon="121.06615520929115"><ele>53.8</ele><time>2026-03-30T10:37:03Z</time></trkpt><trkpt lat="14.613455257982396" lon="121.06605562663889"><ele>53.4</ele><time>2026-03-30T10:37:04Z</time></trkpt><trkpt lat="14.613428371989103" lon="121.0659542425044"><ele>53.0</ele><time>2026-03-30T10:37:05Z</time></trkpt><trkpt lat="14.613400184732253" lon="121.06585468109155"><ele>53.8</ele><time>2026-03-30T10:37:06Z</time></trkpt><trkpt lat="14.613375289501816" lon="121.06575457117839"><ele>54.599999999999994</ele><time>2026-03-30T10:37:07Z</time></trkpt><trkpt lat="14.613352923326987" lon="121.065655085596"><ele>55.400000000000006</ele><time>2026-03-30T10:37:08Z</time></trkpt><trkpt lat="14.613332009543495" lon="121.06555457148632"><ele>56.2</ele><time>2026-03-30T10:37:09Z</time></trkpt><trkpt lat="14.613309411733487" lon="121.06545519835564"><ele>57.0</ele><time>2026-03-30T10:37:10Z</time></trkpt><trkpt lat="14.613285827878153" lon="121.06535904570765"><ele>57.0</ele><time>2026-03-30T10:37:11Z</time></trkpt><trkpt lat="14.613263210692581" lon="121.06526051825801"><ele>57.0</ele><time>2026-03-30T10:37:12Z</time></trkpt><trkpt lat="14.613241547585076" lon="121.06516636427571"><ele>57.0</ele><time>2026-03-30T10:37:13Z</time></trkpt><trkpt lat="14.613218365102632" lon="121.06506976618046"><ele>57.0</ele><time>2026-03-30T10:37:14Z</time></trkpt><trkpt lat="14.61319399933895" lon="121.06497268806228"><ele>57.0</ele><time>2026-03-30T10:37:15Z</time></trkpt><trkpt lat="14.613172124192898" lon="121.06487720225844"><ele>57.6</ele><time>2026-03-30T10:37:16Z</time></trkpt><trkpt lat="14.613146833812978" lon="121.06478056552544"><ele>58.2</ele><time>2026-03-30T10:37:17Z</time></trkpt><trkpt lat="14.61312339208326" lon="121.06469864739647"><ele>58.8</ele><time>2026-03-30T10:37:18Z</time></trkpt><trkpt lat="14.613103906473057" lon="121.06460167321424"><ele>59.4</ele><time>2026-03-30T10:37:20Z</time></trkpt><trkpt lat="14.613101558398588" lon="121.06453164082366"><ele>60.0</ele><time>2026-03-30T10:38:25Z</time></trkpt><trkpt lat="14.613077201030192" lon="121.06441644634836"><ele>60.0</ele><time>2026-03-30T10:38:27Z</time></trkpt><trkpt lat="14.613062707921376" lon="121.0643321108898"><ele>60.0</ele><time>2026-03-30T10:38:28Z</time></trkpt><trkpt lat="14.613045179541096" lon="121.06424382598235"><ele>60.0</ele><time>2026-03-30T10:38:29Z</time></trkpt><trkpt lat="14.613016493369734" lon="121.06413834107602"><ele>60.0</ele><time>2026-03-30T10:38:30Z</time></trkpt><trkpt lat="14.612987181192764" lon="121.06402467841973"><ele>60.0</ele><time>2026-03-30T10:38:31Z</time></trkpt><trkpt lat="14.612959428000984" lon="121.06391244592173"><ele>59.75</ele><time>2026-03-30T10:38:32Z</time></trkpt><trkpt lat="14.612926999548653" lon="121.06379333969974"><ele>59.5</ele><time>2026-03-30T10:38:33Z</time></trkpt><trkpt lat="14.612897343737263" lon="121.06367503544143"><ele>59.25</ele><time>2026-03-30T10:38:34Z</time></trkpt><trkpt lat="14.612867687985528" lon="121.06355849917587"><ele>59.0</ele><time>2026-03-30T10:38:35Z</time></trkpt><trkpt lat="14.612837167226594" lon="121.06343812135911"><ele>59.0</ele><time>2026-03-30T10:38:36Z</time></trkpt><trkpt lat="14.612805680598717" lon="121.06330806362688"><ele>59.0</ele><time>2026-03-30T10:38:37Z</time></trkpt><trkpt lat="14.612775636781915" lon="121.06317896022477"><ele>59.0</ele><time>2026-03-30T10:38:38Z</time></trkpt><trkpt lat="14.612744877588119" lon="121.06304899611725"><ele>59.0</ele><time>2026-03-30T10:38:39Z</time></trkpt><trkpt lat="14.612716296577265" lon="121.06292545614504"><ele>59.0</ele><time>2026-03-30T10:38:40Z</time></trkpt><trkpt lat="14.612688035668986" lon="121.06280442497396"><ele>59.0</ele><time>2026-03-30T10:38:41Z</time></trkpt><trkpt lat="14.612658899947256" lon="121.06268267026215"><ele>59.0</ele><time>2026-03-30T10:38:42Z</time></trkpt><trkpt lat="14.61263135746359" lon="121.06255345520563"><ele>59.0</ele><time>2026-03-30T10:38:43Z</time></trkpt><trkpt lat="14.612601667150086" lon="121.06242551397968"><ele>58.75</ele><time>2026-03-30T10:38:44Z</time></trkpt><trkpt lat="14.612570963219778" lon="121.06229486703612"><ele>58.5</ele><time>2026-03-30T10:38:45Z</time></trkpt><trkpt lat="14.612537266679155" lon="121.06216578899604"><ele>58.25</ele><time>2026-03-30T10:38:46Z</time></trkpt><trkpt lat="14.6125117732854" lon="121.06204846545421"><ele>58.0</ele><time>2026-03-30T10:38:47Z</time></trkpt><trkpt lat="14.61248411688608" lon="121.06193738419722"><ele>58.0</ele><time>2026-03-30T10:38:48Z</time></trkpt><trkpt lat="14.612455438454765" lon="121.0618332800874"><ele>58.0</ele><time>2026-03-30T10:38:49Z</time></trkpt><trkpt lat="14.61242379754002" lon="121.06172493731043"><ele>58.0</ele><time>2026-03-30T10:38:50Z</time></trkpt><trkpt lat="14.612400828078682" lon="121.06162030582281"><ele>58.0</ele><time>2026-03-30T10:38:51Z</time></trkpt><trkpt lat="14.612375846575784" lon="121.06151247510566"><ele>58.0</ele><time>2026-03-30T10:38:52Z</time></trkpt><trkpt lat="14.612354506527488" lon="121.0614147874318"><ele>57.599999999999994</ele><time>2026-03-30T10:38:53Z</time></trkpt><trkpt lat="14.612329659133282" lon="121.06133065332075"><ele>57.199999999999996</ele><time>2026-03-30T10:38:54Z</time></trkpt><trkpt lat="14.612314900734534" lon="121.06126717464261"><ele>56.8</ele><time>2026-03-30T10:38:55Z</time></trkpt><trkpt lat="14.612285580408686" lon="121.06118627432011"><ele>56.4</ele><time>2026-03-30T10:38:58Z</time></trkpt><trkpt lat="14.612262958821061" lon="121.06108761599049"><ele>56.0</ele><time>2026-03-30T10:39:20Z</time></trkpt><trkpt lat="14.612230971959631" lon="121.06096279928106"><ele>56.0</ele><time>2026-03-30T10:39:22Z</time></trkpt><trkpt lat="14.612208031235767" lon="121.06088363720345"><ele>55.99999999999999</ele><time>2026-03-30T10:39:23Z</time></trkpt><trkpt lat="14.61218288842704" lon="121.06079126774856"><ele>55.99999999999999</ele><time>2026-03-30T10:39:24Z</time></trkpt><trkpt lat="14.61215687399072" lon="121.06068768189891"><ele>56.0</ele><time>2026-03-30T10:39:25Z</time></trkpt><trkpt lat="14.612153119294106" lon="121.06059986395148"><ele>56.0</ele><time>2026-03-30T10:39:26Z</time></trkpt><trkpt lat="14.612129098138896" lon="121.06047863012016"><ele>55.599999999999994</ele><time>2026-03-30T10:39:27Z</time></trkpt><trkpt lat="14.612110192397749" lon="121.06037469755265"><ele>55.199999999999996</ele><time>2026-03-30T10:39:28Z</time></trkpt><trkpt lat="14.612098603583172" lon="121.0602941567355"><ele>54.800000000000004</ele><time>2026-03-30T10:39:29Z</time></trkpt><trkpt lat="14.612075390934532" lon="121.06018533509794"><ele>54.400000000000006</ele><time>2026-03-30T10:39:30Z</time></trkpt><trkpt lat="14.612043243614055" lon="121.06009086568554"><ele>54.0</ele><time>2026-03-30T10:39:31Z</time></trkpt><trkpt lat="14.612022632881162" lon="121.05999584606482"><ele>53.75</ele><time>2026-03-30T10:39:32Z</time></trkpt><trkpt lat="14.612001290957332" lon="121.05986653209574"><ele>53.5</ele><time>2026-03-30T10:39:33Z</time></trkpt><trkpt lat="14.611978947337994" lon="121.0597294616457"><ele>53.25</ele><time>2026-03-30T10:39:33.999Z</time></trkpt><trkpt lat="14.611949954069036" lon="121.0596396925042"><ele>53.0</ele><time>2026-03-30T10:39:34.999Z</time></trkpt><trkpt lat="14.611924569961888" lon="121.05952142334671"><ele>53.0</ele><time>2026-03-30T10:39:35.999Z</time></trkpt><trkpt lat="14.611897249072738" lon="121.05940370463153"><ele>53.0</ele><time>2026-03-30T10:39:36.999Z</time></trkpt><trkpt lat="14.611870602950638" lon="121.0592806764167"><ele>53.0</ele><time>2026-03-30T10:39:37.999Z</time></trkpt><trkpt lat="14.611841122431391" lon="121.05915638063311"><ele>53.0</ele><time>2026-03-30T10:39:38.999Z</time></trkpt><trkpt lat="14.611814771519716" lon="121.05903440030713"><ele>51.5</ele><time>2026-03-30T10:39:39.999Z</time></trkpt><trkpt lat="14.61178641301986" lon="121.05891180830533"><ele>50.0</ele><time>2026-03-30T10:39:40.999Z</time></trkpt><trkpt lat="14.611759703820184" lon="121.05878825896988"><ele>48.5</ele><time>2026-03-30T10:39:41.999Z</time></trkpt><trkpt lat="14.611731223048688" lon="121.05866630448762"><ele>47.0</ele><time>2026-03-30T10:39:42.999Z</time></trkpt><trkpt lat="14.611705903141226" lon="121.05854972762047"><ele>47.0</ele><time>2026-03-30T10:39:43.999Z</time></trkpt><trkpt lat="14.61167684162725" lon="121.05843557086258"><ele>47.0</ele><time>2026-03-30T10:39:44.999Z</time></trkpt><trkpt lat="14.6116480420341" lon="121.05831361674062"><ele>47.0</ele><time>2026-03-30T10:39:45.999Z</time></trkpt><trkpt lat="14.611615895506516" lon="121.05817996022488"><ele>47.0</ele><time>2026-03-30T10:39:46.999Z</time></trkpt><trkpt lat="14.611578854769611" lon="121.05803839082184"><ele>46.5</ele><time>2026-03-30T10:39:47.999Z</time></trkpt><trkpt lat="14.611537357812118" lon="121.05788953590817"><ele>46.0</ele><time>2026-03-30T10:39:48.999Z</time></trkpt><trkpt lat="14.611506415556162" lon="121.05775706910248"><ele>45.5</ele><time>2026-03-30T10:39:49.999Z</time></trkpt><trkpt lat="14.611469617896645" lon="121.05763427834458"><ele>45.0</ele><time>2026-03-30T10:39:50.999Z</time></trkpt><trkpt lat="14.611436540715722" lon="121.05749799694729"><ele>45.0</ele><time>2026-03-30T10:39:51.999Z</time></trkpt><trkpt lat="14.611405941158988" lon="121.05736284970209"><ele>45.0</ele><time>2026-03-30T10:39:52.999Z</time></trkpt><trkpt lat="14.611375710483642" lon="121.05724142416776"><ele>45.0</ele><time>2026-03-30T10:39:53.999Z</time></trkpt><trkpt lat="14.611349516865785" lon="121.0571405261323"><ele>45.0</ele><time>2026-03-30T10:39:54.999Z</time></trkpt><trkpt lat="14.611324344147505" lon="121.05703506793826"><ele>45.0</ele><time>2026-03-30T10:39:55.999Z</time></trkpt><trkpt lat="14.611296657951463" lon="121.05693336766154"><ele>45.0</ele><time>2026-03-30T10:39:56.999Z</time></trkpt><trkpt lat="14.611275567846642" lon="121.05682970778052"><ele>45.0</ele><time>2026-03-30T10:39:57.999Z</time></trkpt><trkpt lat="14.611257455149913" lon="121.05673296663728"><ele>45.0</ele><time>2026-03-30T10:39:58.999Z</time></trkpt><trkpt lat="14.611235415854631" lon="121.05665059804596"><ele>45.0</ele><time>2026-03-30T10:39:59.999Z</time></trkpt><trkpt lat="14.611216584605456" lon="121.0565655073304"><ele>44.8</ele><time>2026-03-30T10:40:00.999Z</time></trkpt><trkpt lat="14.611198569222665" lon="121.0564891435899"><ele>44.6</ele><time>2026-03-30T10:40:01.999Z</time></trkpt><trkpt lat="14.611175478517547" lon="121.0563911214178"><ele>44.400000000000006</ele><time>2026-03-30T10:40:03.999Z</time></trkpt><trkpt lat="14.611169822463221" lon="121.0562959437387"><ele>44.2</ele><time>2026-03-30T10:40:07.999Z</time></trkpt><trkpt lat="14.611132313315167" lon="121.05616599961002"><ele>44.0</ele><time>2026-03-30T10:40:09.999Z</time></trkpt><trkpt lat="14.611107720219533" lon="121.056073362946"><ele>44.5</ele><time>2026-03-30T10:40:11.999Z</time></trkpt><trkpt lat="14.611087751142206" lon="121.05599908367078"><ele>45.0</ele><time>2026-03-30T10:40:13.999Z</time></trkpt><trkpt lat="14.611080244370616" lon="121.05593093123676"><ele>45.5</ele><time>2026-03-30T10:40:16.999Z</time></trkpt><trkpt lat="14.611059063415622" lon="121.05584766862887"><ele>46.0</ele><time>2026-03-30T10:40:36.999Z</time></trkpt><trkpt lat="14.611037164644092" lon="121.05576197416966"><ele>46.5</ele><time>2026-03-30T10:40:39.999Z</time></trkpt><trkpt lat="14.611019121737353" lon="121.05567975982107"><ele>47.0</ele><time>2026-03-30T10:40:41.999Z</time></trkpt><trkpt lat="14.611002229737412" lon="121.05558351481358"><ele>47.0</ele><time>2026-03-30T10:40:43.999Z</time></trkpt><trkpt lat="14.61098570784626" lon="121.0554849705805"><ele>47.0</ele><time>2026-03-30T10:40:45.999Z</time></trkpt><trkpt lat="14.610970929613583" lon="121.05542155387595"><ele>47.0</ele><time>2026-03-30T10:40:47.999Z</time></trkpt><trkpt lat="14.610946464614608" lon="121.05531052551791"><ele>47.0</ele><time>2026-03-30T10:40:49.999Z</time></trkpt><trkpt lat="14.61091571929098" lon="121.05521256431683"><ele>47.0</ele><time>2026-03-30T10:40:51.999Z</time></trkpt><trkpt lat="14.61088209104963" lon="121.05513399392285"><ele>47.0</ele><time>2026-03-30T10:40:54Z</time></trkpt><trkpt lat="14.61086121386837" lon="121.05507203664295"><ele>47.0</ele><time>2026-03-30T10:40:56Z</time></trkpt><trkpt lat="14.610813654035665" lon="121.05500330865911"><ele>47.0</ele><time>2026-03-30T10:40:58Z</time></trkpt><trkpt lat="14.610772288268947" lon="121.05495352934815"><ele>47.0</ele><time>2026-03-30T10:41:00Z</time></trkpt><trkpt lat="14.61072046645448" lon="121.05490646466312"><ele>47.0</ele><time>2026-03-30T10:41:03Z</time></trkpt><trkpt lat="14.610618723186612" lon="121.05494295316944"><ele>47.0</ele><time>2026-03-30T10:41:05Z</time></trkpt><trkpt lat="14.610537902946989" lon="121.0549866234825"><ele>47.0</ele><time>2026-03-30T10:41:06Z</time></trkpt><trkpt lat="14.61044487486714" lon="121.05502884243401"><ele>47.0</ele><time>2026-03-30T10:41:07Z</time></trkpt><trkpt lat="14.610348509382026" lon="121.05506146916917"><ele>47.0</ele><time>2026-03-30T10:41:08Z</time></trkpt><trkpt lat="14.61026292213043" lon="121.05509294220356"><ele>47.0</ele><time>2026-03-30T10:41:09Z</time></trkpt><trkpt lat="14.610157864544759" lon="121.05514051139528"><ele>47.0</ele><time>2026-03-30T10:41:10Z</time></trkpt><trkpt lat="14.610065106390373" lon="121.05518045709385"><ele>46.0</ele><time>2026-03-30T10:41:11Z</time></trkpt><trkpt lat="14.609979448157597" lon="121.05521824281122"><ele>45.0</ele><time>2026-03-30T10:41:12Z</time></trkpt><trkpt lat="14.609887000850069" lon="121.0552549966588"><ele>44.0</ele><time>2026-03-30T10:41:13Z</time></trkpt><trkpt lat="14.609801557553467" lon="121.0552896812095"><ele>43.0</ele><time>2026-03-30T10:41:14Z</time></trkpt><trkpt lat="14.609725182602004" lon="121.05531879005945"><ele>42.0</ele><time>2026-03-30T10:41:15Z</time></trkpt><trkpt lat="14.609660271891684" lon="121.05534720722916"><ele>41.0</ele><time>2026-03-30T10:41:16Z</time></trkpt><trkpt lat="14.609550936946697" lon="121.05539489369659"><ele>41.0</ele><time>2026-03-30T10:41:18Z</time></trkpt><trkpt lat="14.609448662780116" lon="121.0554390529425"><ele>41.0</ele><time>2026-03-30T10:41:20Z</time></trkpt><trkpt lat="14.609385237517035" lon="121.05546880445621"><ele>41.0</ele><time>2026-03-30T10:41:21Z</time></trkpt><trkpt lat="14.609320277614081" lon="121.05550178872298"><ele>41.0</ele><time>2026-03-30T10:41:22Z</time></trkpt><trkpt lat="14.609258386649756" lon="121.05552968429245"><ele>41.0</ele><time>2026-03-30T10:41:23Z</time></trkpt><trkpt lat="14.609197027582724" lon="121.05555745449479"><ele>41.0</ele><time>2026-03-30T10:41:24Z</time></trkpt><trkpt lat="14.609126460252725" lon="121.05559149621467"><ele>41.0</ele><time>2026-03-30T10:41:25Z</time></trkpt><trkpt lat="14.609054364078085" lon="121.05563043145234"><ele>41.0</ele><time>2026-03-30T10:41:26Z</time></trkpt><trkpt lat="14.60897642149801" lon="121.05566795179355"><ele>41.0</ele><time>2026-03-30T10:41:27Z</time></trkpt><trkpt lat="14.60889204481574" lon="121.05571569508764"><ele>41.0</ele><time>2026-03-30T10:41:28Z</time></trkpt><trkpt lat="14.608804387998315" lon="121.05576145682903"><ele>41.0</ele><time>2026-03-30T10:41:29Z</time></trkpt><trkpt lat="14.608710275846205" lon="121.05581579882889"><ele>41.8</ele><time>2026-03-30T10:41:30Z</time></trkpt><trkpt lat="14.608617176277148" lon="121.05585990153412"><ele>42.599999999999994</ele><time>2026-03-30T10:41:31Z</time></trkpt><trkpt lat="14.60851423652588" lon="121.0559095809464"><ele>43.4</ele><time>2026-03-30T10:41:32Z</time></trkpt><trkpt lat="14.608415030008855" lon="121.05595584645721"><ele>44.2</ele><time>2026-03-30T10:41:33Z</time></trkpt><trkpt lat="14.608314642016088" lon="121.05600731897876"><ele>45.0</ele><time>2026-03-30T10:41:34Z</time></trkpt><trkpt lat="14.608208559303119" lon="121.05604583502188"><ele>45.0</ele><time>2026-03-30T10:41:35Z</time></trkpt><trkpt lat="14.60810268990032" lon="121.05607455966404"><ele>45.0</ele><time>2026-03-30T10:41:36Z</time></trkpt><trkpt lat="14.6079947922751" lon="121.0561262743022"><ele>45.0</ele><time>2026-03-30T10:41:37Z</time></trkpt><trkpt lat="14.607885796577728" lon="121.05620831282404"><ele>45.0</ele><time>2026-03-30T10:41:38Z</time></trkpt><trkpt lat="14.607774071771859" lon="121.05626975228635"><ele>44.75</ele><time>2026-03-30T10:41:39Z</time></trkpt><trkpt lat="14.607664359532192" lon="121.05632136914247"><ele>44.5</ele><time>2026-03-30T10:41:39.999Z</time></trkpt><trkpt lat="14.607554824673166" lon="121.05636479727374"><ele>44.25</ele><time>2026-03-30T10:41:40.999Z</time></trkpt><trkpt lat="14.607442472357206" lon="121.0564077255735"><ele>44.0</ele><time>2026-03-30T10:41:41.999Z</time></trkpt><trkpt lat="14.607341466544264" lon="121.0564557274912"><ele>44.0</ele><time>2026-03-30T10:41:42.999Z</time></trkpt><trkpt lat="14.607236662641657" lon="121.05651122630071"><ele>44.0</ele><time>2026-03-30T10:41:43.999Z</time></trkpt><trkpt lat="14.60713413866048" lon="121.05655306568956"><ele>44.0</ele><time>2026-03-30T10:41:44.999Z</time></trkpt><trkpt lat="14.607021954574828" lon="121.05660074798513"><ele>44.0</ele><time>2026-03-30T10:41:45.999Z</time></trkpt><trkpt lat="14.60691926045578" lon="121.05665205594607"><ele>45.6</ele><time>2026-03-30T10:41:46.999Z</time></trkpt><trkpt lat="14.606824207692062" lon="121.05669761190556"><ele>47.2</ele><time>2026-03-30T10:41:47.999Z</time></trkpt><trkpt lat="14.606730290180629" lon="121.0567461254788"><ele>48.800000000000004</ele><time>2026-03-30T10:41:48.999Z</time></trkpt><trkpt lat="14.606630537436045" lon="121.05679322118539"><ele>50.400000000000006</ele><time>2026-03-30T10:41:49.999Z</time></trkpt><trkpt lat="14.6065351391964" lon="121.05683798386036"><ele>52.0</ele><time>2026-03-30T10:41:50.999Z</time></trkpt><trkpt lat="14.606439581630427" lon="121.05688523956294"><ele>52.0</ele><time>2026-03-30T10:41:51.999Z</time></trkpt><trkpt lat="14.60634178884991" lon="121.05693375677272"><ele>52.0</ele><time>2026-03-30T10:41:52.999Z</time></trkpt><trkpt lat="14.606244198799779" lon="121.05697623079382"><ele>52.0</ele><time>2026-03-30T10:41:53.999Z</time></trkpt><trkpt lat="14.606143704691117" lon="121.05702723063871"><ele>52.0</ele><time>2026-03-30T10:41:54.999Z</time></trkpt><trkpt lat="14.606046623922776" lon="121.05707387408675"><ele>52.0</ele><time>2026-03-30T10:41:55.999Z</time></trkpt><trkpt lat="14.605948844694975" lon="121.05711914170955"><ele>53.5</ele><time>2026-03-30T10:41:56.999Z</time></trkpt><trkpt lat="14.60584307199602" lon="121.0571737316421"><ele>55.0</ele><time>2026-03-30T10:41:57.999Z</time></trkpt><trkpt lat="14.60573569522561" lon="121.05722040770078"><ele>56.5</ele><time>2026-03-30T10:41:58.999Z</time></trkpt><trkpt lat="14.605621228507621" lon="121.05727432348115"><ele>58.0</ele><time>2026-03-30T10:41:59.999Z</time></trkpt><trkpt lat="14.605507231623255" lon="121.0573272090533"><ele>58.0</ele><time>2026-03-30T10:42:00.999Z</time></trkpt><trkpt lat="14.605384191564537" lon="121.05738463500315"><ele>58.0</ele><time>2026-03-30T10:42:01.999Z</time></trkpt><trkpt lat="14.60526489141667" lon="121.05743813958716"><ele>58.0</ele><time>2026-03-30T10:42:02.999Z</time></trkpt><trkpt lat="14.605138704179666" lon="121.0574892777235"><ele>58.0</ele><time>2026-03-30T10:42:03.999Z</time></trkpt><trkpt lat="14.605010076314267" lon="121.05754960443839"><ele>56.0</ele><time>2026-03-30T10:42:04.999Z</time></trkpt><trkpt lat="14.604879447115453" lon="121.0576087207982"><ele>54.0</ele><time>2026-03-30T10:42:05.999Z</time></trkpt><trkpt lat="14.604751870160703" lon="121.05767558271272"><ele>52.0</ele><time>2026-03-30T10:42:06.999Z</time></trkpt><trkpt lat="14.604634695446698" lon="121.05773059818833"><ele>50.0</ele><time>2026-03-30T10:42:07.999Z</time></trkpt><trkpt lat="14.604504305801171" lon="121.05779363463961"><ele>48.5</ele><time>2026-03-30T10:42:08.999Z</time></trkpt><trkpt lat="14.604371970795663" lon="121.05785452925946"><ele>47.0</ele><time>2026-03-30T10:42:09.999Z</time></trkpt><trkpt lat="14.60424460744201" lon="121.05791077546502"><ele>45.5</ele><time>2026-03-30T10:42:10.999Z</time></trkpt><trkpt lat="14.604116594189698" lon="121.05797271053815"><ele>44.0</ele><time>2026-03-30T10:42:11.999Z</time></trkpt><trkpt lat="14.603986461455406" lon="121.05802538900988"><ele>44.0</ele><time>2026-03-30T10:42:12.999Z</time></trkpt><trkpt lat="14.603850548339363" lon="121.05807745073399"><ele>44.0</ele><time>2026-03-30T10:42:13.999Z</time></trkpt><trkpt lat="14.603715880786055" lon="121.05813692746642"><ele>44.0</ele><time>2026-03-30T10:42:14.999Z</time></trkpt><trkpt lat="14.603574169160904" lon="121.05819613057368"><ele>44.0</ele><time>2026-03-30T10:42:15.999Z</time></trkpt><trkpt lat="14.603431838063948" lon="121.05826029723588"><ele>44.33333333333333</ele><time>2026-03-30T10:42:16.999Z</time></trkpt><trkpt lat="14.603288186077817" lon="121.05832399599763"><ele>44.666666666666664</ele><time>2026-03-30T10:42:17.999Z</time></trkpt><trkpt lat="14.603143274948039" lon="121.0583925308275"><ele>45.0</ele><time>2026-03-30T10:42:18.999Z</time></trkpt><trkpt lat="14.602997219706557" lon="121.05846337048087"><ele>45.0</ele><time>2026-03-30T10:42:19.999Z</time></trkpt><trkpt lat="14.60284775513794" lon="121.05853156627536"><ele>45.0</ele><time>2026-03-30T10:42:20.999Z</time></trkpt><trkpt lat="14.602696697932545" lon="121.05860232467465"><ele>45.0</ele><time>2026-03-30T10:42:21.999Z</time></trkpt><trkpt lat="14.602549394610849" lon="121.05867036363138"><ele>45.5</ele><time>2026-03-30T10:42:22.999Z</time></trkpt><trkpt lat="14.602411893807691" lon="121.05873229533911"><ele>46.0</ele><time>2026-03-30T10:42:23.999Z</time></trkpt><trkpt lat="14.602283544563264" lon="121.05879205179353"><ele>46.5</ele><time>2026-03-30T10:42:24.999Z</time></trkpt><trkpt lat="14.602155471120364" lon="121.05885392204252"><ele>47.0</ele><time>2026-03-30T10:42:25.999Z</time></trkpt><trkpt lat="14.60203995776059" lon="121.0588973312682"><ele>46.75</ele><time>2026-03-30T10:42:26.999Z</time></trkpt><trkpt lat="14.601921007040522" lon="121.058953296061"><ele>46.5</ele><time>2026-03-30T10:42:27.999Z</time></trkpt><trkpt lat="14.601807134463277" lon="121.05899902605267"><ele>46.25</ele><time>2026-03-30T10:42:28.999Z</time></trkpt><trkpt lat="14.601696352350224" lon="121.05904223678803"><ele>46.0</ele><time>2026-03-30T10:42:29.999Z</time></trkpt><trkpt lat="14.601592075906531" lon="121.05907809769427"><ele>46.0</ele><time>2026-03-30T10:42:30.999Z</time></trkpt><trkpt lat="14.601495998165355" lon="121.05911462076456"><ele>46.0</ele><time>2026-03-30T10:42:31.999Z</time></trkpt><trkpt lat="14.601407699234064" lon="121.05914448712879"><ele>46.0</ele><time>2026-03-30T10:42:32.999Z</time></trkpt><trkpt lat="14.601317337857324" lon="121.05917138829533"><ele>46.0</ele><time>2026-03-30T10:42:33.999Z</time></trkpt><trkpt lat="14.601226866781445" lon="121.05919858932954"><ele>46.0</ele><time>2026-03-30T10:42:34.999Z</time></trkpt><trkpt lat="14.601132382256537" lon="121.05922711045415"><ele>46.0</ele><time>2026-03-30T10:42:35.999Z</time></trkpt><trkpt lat="14.601028903313605" lon="121.05925636305261"><ele>46.0</ele><time>2026-03-30T10:42:36.999Z</time></trkpt><trkpt lat="14.600922121220773" lon="121.05928633753204"><ele>46.0</ele><time>2026-03-30T10:42:37.999Z</time></trkpt><trkpt lat="14.600811207685544" lon="121.05931339462715"><ele>46.0</ele><time>2026-03-30T10:42:38.999Z</time></trkpt><trkpt lat="14.600696659392513" lon="121.05934531649186"><ele>46.0</ele><time>2026-03-30T10:42:39.999Z</time></trkpt><trkpt lat="14.600579264235627" lon="121.05937694948142"><ele>46.0</ele><time>2026-03-30T10:42:40.999Z</time></trkpt><trkpt lat="14.600462689452954" lon="121.05940030198484"><ele>46.0</ele><time>2026-03-30T10:42:41.999Z</time></trkpt><trkpt lat="14.600342556877145" lon="121.05942570328847"><ele>46.0</ele><time>2026-03-30T10:42:42.999Z</time></trkpt><trkpt lat="14.600220836633099" lon="121.05944868587805"><ele>46.5</ele><time>2026-03-30T10:42:43.999Z</time></trkpt><trkpt lat="14.600093106041424" lon="121.05947072200006"><ele>47.0</ele><time>2026-03-30T10:42:44.999Z</time></trkpt><trkpt lat="14.5999637642921" lon="121.05949030560123"><ele>47.5</ele><time>2026-03-30T10:42:45.999Z</time></trkpt><trkpt lat="14.599836586740203" lon="121.0595107183725"><ele>48.0</ele><time>2026-03-30T10:42:47Z</time></trkpt><trkpt lat="14.599701170737314" lon="121.05953203702556"><ele>48.0</ele><time>2026-03-30T10:42:48Z</time></trkpt><trkpt lat="14.599568731093317" lon="121.05954580686276"><ele>48.0</ele><time>2026-03-30T10:42:49Z</time></trkpt><trkpt lat="14.599437359718126" lon="121.0595596546473"><ele>48.0</ele><time>2026-03-30T10:42:50Z</time></trkpt><trkpt lat="14.599304582122373" lon="121.05956891428303"><ele>48.0</ele><time>2026-03-30T10:42:51Z</time></trkpt><trkpt lat="14.599178855978936" lon="121.05957694117036"><ele>47.833333333333336</ele><time>2026-03-30T10:42:52Z</time></trkpt><trkpt lat="14.599064918907398" lon="121.05957808958917"><ele>47.666666666666664</ele><time>2026-03-30T10:42:53Z</time></trkpt><trkpt lat="14.59896378649428" lon="121.05957711961665"><ele>47.5</ele><time>2026-03-30T10:42:54Z</time></trkpt><trkpt lat="14.598873749812173" lon="121.05957355369485"><ele>47.33333333333333</ele><time>2026-03-30T10:42:55Z</time></trkpt><trkpt lat="14.598806839513376" lon="121.0595724049808"><ele>47.166666666666664</ele><time>2026-03-30T10:42:56Z</time></trkpt><trkpt lat="14.598743671587332" lon="121.05954653086499"><ele>47.0</ele><time>2026-03-30T10:42:59Z</time></trkpt><trkpt lat="14.598741364825191" lon="121.05947168547162"><ele>47.0</ele><time>2026-03-30T10:43:02Z</time></trkpt><trkpt lat="14.598826436297598" lon="121.0594493785918"><ele>47.0</ele><time>2026-03-30T10:43:04Z</time></trkpt><trkpt lat="14.59889490696832" lon="121.0594180851517"><ele>47.0</ele><time>2026-03-30T10:43:07Z</time></trkpt><trkpt lat="14.598846452830674" lon="121.05936965647045"><ele>47.0</ele><time>2026-03-30T10:43:22Z</time></trkpt><trkpt lat="14.598782851443836" lon="121.05935416534975"><ele>47.0</ele><time>2026-03-30T10:47:38Z</time></trkpt><trkpt lat="14.598705480558017" lon="121.05931125493947"><ele>47.0</ele><time>2026-03-30T10:47:41Z</time></trkpt><trkpt lat="14.59879446546142" lon="121.0593585081853"><ele>47.0</ele><time>2026-03-30T10:47:45Z</time></trkpt><trkpt lat="14.598712898179572" lon="121.05954161948024"><ele>47.0</ele><time>2026-03-30T10:47:55Z</time></trkpt><trkpt lat="14.598571172835186" lon="121.05958074886345"><ele>47.0</ele><time>2026-03-30T10:48:00Z</time></trkpt><trkpt lat="14.598477512364088" lon="121.05958296012888"><ele>47.0</ele><time>2026-03-30T10:48:01Z</time></trkpt><trkpt lat="14.598366907306328" lon="121.05958143586842"><ele>46.75</ele><time>2026-03-30T10:48:02Z</time></trkpt><trkpt lat="14.598247498762891" lon="121.05958170132841"><ele>46.5</ele><time>2026-03-30T10:48:03Z</time></trkpt><trkpt lat="14.598123425399786" lon="121.05957943905653"><ele>46.25</ele><time>2026-03-30T10:48:04Z</time></trkpt><trkpt lat="14.597997227748326" lon="121.05957650418515"><ele>46.0</ele><time>2026-03-30T10:48:05Z</time></trkpt><trkpt lat="14.59786797985986" lon="121.05957325984058"><ele>45.5</ele><time>2026-03-30T10:48:06Z</time></trkpt><trkpt lat="14.597735848596253" lon="121.05956705308635"><ele>45.0</ele><time>2026-03-30T10:48:07Z</time></trkpt><trkpt lat="14.597614786874502" lon="121.05956009628899"><ele>44.5</ele><time>2026-03-30T10:48:08Z</time></trkpt><trkpt lat="14.597499236100571" lon="121.05955521650522"><ele>44.0</ele><time>2026-03-30T10:48:09Z</time></trkpt><trkpt lat="14.597386484763026" lon="121.05954393551772"><ele>44.0</ele><time>2026-03-30T10:48:10Z</time></trkpt><trkpt lat="14.597284491989969" lon="121.05953596561687"><ele>44.0</ele><time>2026-03-30T10:48:11Z</time></trkpt><trkpt lat="14.597193775392569" lon="121.05952577507668"><ele>44.0</ele><time>2026-03-30T10:48:12Z</time></trkpt><trkpt lat="14.597112510362212" lon="121.05951340202434"><ele>44.0</ele><time>2026-03-30T10:48:13Z</time></trkpt><trkpt lat="14.597031434342616" lon="121.05949513521234"><ele>44.0</ele><time>2026-03-30T10:48:14Z</time></trkpt><trkpt lat="14.596893547023084" lon="121.0595129840732"><ele>44.2</ele><time>2026-03-30T10:48:15Z</time></trkpt><trkpt lat="14.596790713418656" lon="121.05950079415896"><ele>44.400000000000006</ele><time>2026-03-30T10:48:16Z</time></trkpt><trkpt lat="14.596686649650902" lon="121.0594832007725"><ele>44.6</ele><time>2026-03-30T10:48:17Z</time></trkpt><trkpt lat="14.596576021717993" lon="121.05945920724842"><ele>44.8</ele><time>2026-03-30T10:48:18Z</time></trkpt><trkpt lat="14.596460026652055" lon="121.05943257920498"><ele>45.0</ele><time>2026-03-30T10:48:19Z</time></trkpt><trkpt lat="14.596341655435944" lon="121.0593995651712"><ele>45.0</ele><time>2026-03-30T10:48:20Z</time></trkpt><trkpt lat="14.596218822356557" lon="121.05936803966365"><ele>45.0</ele><time>2026-03-30T10:48:21Z</time></trkpt><trkpt lat="14.596089040032219" lon="121.05933192408195"><ele>45.0</ele><time>2026-03-30T10:48:22Z</time></trkpt><trkpt lat="14.595961912349013" lon="121.05929711352587"><ele>45.0</ele><time>2026-03-30T10:48:23Z</time></trkpt><trkpt lat="14.595837825359338" lon="121.05926000347964"><ele>45.0</ele><time>2026-03-30T10:48:24Z</time></trkpt><trkpt lat="14.595722571526473" lon="121.0592270472592"><ele>45.0</ele><time>2026-03-30T10:48:25Z</time></trkpt><trkpt lat="14.595599062580966" lon="121.05918546827755"><ele>45.0</ele><time>2026-03-30T10:48:26Z</time></trkpt><trkpt lat="14.59548068333916" lon="121.05914308617486"><ele>45.0</ele><time>2026-03-30T10:48:27Z</time></trkpt><trkpt lat="14.595359743443387" lon="121.05910420840719"><ele>44.25</ele><time>2026-03-30T10:48:28Z</time></trkpt><trkpt lat="14.595238077210876" lon="121.05906608783842"><ele>43.5</ele><time>2026-03-30T10:48:29Z</time></trkpt><trkpt lat="14.5951127447821" lon="121.05901925384605"><ele>42.75</ele><time>2026-03-30T10:48:30Z</time></trkpt><trkpt lat="14.594992248044683" lon="121.05897778251632"><ele>42.0</ele><time>2026-03-30T10:48:31Z</time></trkpt><trkpt lat="14.594867196049314" lon="121.05893066929868"><ele>42.0</ele><time>2026-03-30T10:48:32Z</time></trkpt><trkpt lat="14.59474490005305" lon="121.05889010345504"><ele>42.0</ele><time>2026-03-30T10:48:33Z</time></trkpt><trkpt lat="14.594619992838139" lon="121.05884402661448"><ele>42.0</ele><time>2026-03-30T10:48:34Z</time></trkpt><trkpt lat="14.594514725536879" lon="121.05880842888732"><ele>42.0</ele><time>2026-03-30T10:48:35Z</time></trkpt><trkpt lat="14.594438571282145" lon="121.05877614236559"><ele>41.75</ele><time>2026-03-30T10:48:36Z</time></trkpt><trkpt lat="14.59430159353313" lon="121.05872693034051"><ele>41.5</ele><time>2026-03-30T10:48:37Z</time></trkpt><trkpt lat="14.594179299280157" lon="121.05868475846967"><ele>41.25</ele><time>2026-03-30T10:48:38Z</time></trkpt><trkpt lat="14.594064933418826" lon="121.05864688745217"><ele>41.0</ele><time>2026-03-30T10:48:39Z</time></trkpt><trkpt lat="14.593954480020473" lon="121.05861029718872"><ele>41.0</ele><time>2026-03-30T10:48:40Z</time></trkpt><trkpt lat="14.593850021288938" lon="121.05857424190977"><ele>41.0</ele><time>2026-03-30T10:48:41Z</time></trkpt><trkpt lat="14.593738457008714" lon="121.05853764733139"><ele>41.0</ele><time>2026-03-30T10:48:42Z</time></trkpt><trkpt lat="14.593623861137486" lon="121.0585001155666"><ele>41.0</ele><time>2026-03-30T10:48:43Z</time></trkpt><trkpt lat="14.593517527772981" lon="121.05846227437053"><ele>41.25</ele><time>2026-03-30T10:48:44Z</time></trkpt><trkpt lat="14.593412107311583" lon="121.05842819391017"><ele>41.5</ele><time>2026-03-30T10:48:45Z</time></trkpt><trkpt lat="14.593303129351778" lon="121.05839357246774"><ele>41.75</ele><time>2026-03-30T10:48:46Z</time></trkpt><trkpt lat="14.593190909273105" lon="121.05835918020493"><ele>42.0</ele><time>2026-03-30T10:48:47Z</time></trkpt><trkpt lat="14.593084469909476" lon="121.05832286442197"><ele>42.0</ele><time>2026-03-30T10:48:48Z</time></trkpt><trkpt lat="14.592981865874263" lon="121.05828943513946"><ele>42.0</ele><time>2026-03-30T10:48:49Z</time></trkpt><trkpt lat="14.592877163200887" lon="121.0582549417218"><ele>42.0</ele><time>2026-03-30T10:48:50Z</time></trkpt><trkpt lat="14.592770993204827" lon="121.05822071135636"><ele>42.0</ele><time>2026-03-30T10:48:51Z</time></trkpt><trkpt lat="14.592664251712804" lon="121.05819093647573"><ele>42.0</ele><time>2026-03-30T10:48:52Z</time></trkpt><trkpt lat="14.592562528139618" lon="121.05815382259092"><ele>41.6</ele><time>2026-03-30T10:48:53Z</time></trkpt><trkpt lat="14.592460902631979" lon="121.05812083655758"><ele>41.2</ele><time>2026-03-30T10:48:54Z</time></trkpt><trkpt lat="14.592360683433307" lon="121.05809360874862"><ele>40.8</ele><time>2026-03-30T10:48:55Z</time></trkpt><trkpt lat="14.592260512654438" lon="121.0580596702113"><ele>40.4</ele><time>2026-03-30T10:48:56Z</time></trkpt><trkpt lat="14.592152792302903" lon="121.05802567837762"><ele>40.0</ele><time>2026-03-30T10:48:57Z</time></trkpt><trkpt lat="14.592036991010948" lon="121.05799019566584"><ele>40.5</ele><time>2026-03-30T10:48:58Z</time></trkpt><trkpt lat="14.591919555861178" lon="121.05794277620537"><ele>41.0</ele><time>2026-03-30T10:48:59Z</time></trkpt><trkpt lat="14.591779184486398" lon="121.05789976288528"><ele>41.5</ele><time>2026-03-30T10:49:00Z</time></trkpt><trkpt lat="14.591635564952858" lon="121.05784972957896"><ele>42.0</ele><time>2026-03-30T10:49:01Z</time></trkpt><trkpt lat="14.591482323388822" lon="121.05781245848561"><ele>42.0</ele><time>2026-03-30T10:49:02Z</time></trkpt><trkpt lat="14.59132810035087" lon="121.05777270794009"><ele>42.0</ele><time>2026-03-30T10:49:03Z</time></trkpt><trkpt lat="14.591200404159789" lon="121.05773049643246"><ele>42.0</ele><time>2026-03-30T10:49:04Z</time></trkpt><trkpt lat="14.591062125170577" lon="121.05767758418546"><ele>42.0</ele><time>2026-03-30T10:49:05Z</time></trkpt><trkpt lat="14.590918971313556" lon="121.05764300686386"><ele>43.25</ele><time>2026-03-30T10:49:06Z</time></trkpt><trkpt lat="14.590787901788563" lon="121.05760290079536"><ele>44.5</ele><time>2026-03-30T10:49:07Z</time></trkpt><trkpt lat="14.590654012815964" lon="121.05756508309506"><ele>45.75</ele><time>2026-03-30T10:49:08Z</time></trkpt><trkpt lat="14.590524026058215" lon="121.05752824965094"><ele>47.0</ele><time>2026-03-30T10:49:09Z</time></trkpt><trkpt lat="14.590389566838974" lon="121.05749177355202"><ele>47.0</ele><time>2026-03-30T10:49:10Z</time></trkpt><trkpt lat="14.590260546683124" lon="121.05745316612837"><ele>47.0</ele><time>2026-03-30T10:49:11Z</time></trkpt><trkpt lat="14.59013889895502" lon="121.05740908886582"><ele>47.0</ele><time>2026-03-30T10:49:12Z</time></trkpt><trkpt lat="14.590010317216654" lon="121.05736807236276"><ele>47.0</ele><time>2026-03-30T10:49:13Z</time></trkpt><trkpt lat="14.589892987180512" lon="121.0573299885884"><ele>46.5</ele><time>2026-03-30T10:49:14Z</time></trkpt><trkpt lat="14.589753000507438" lon="121.0572871322237"><ele>46.0</ele><time>2026-03-30T10:49:15Z</time></trkpt><trkpt lat="14.58959497180204" lon="121.0572386560108"><ele>45.5</ele><time>2026-03-30T10:49:16Z</time></trkpt><trkpt lat="14.589503239416132" lon="121.05719600309779"><ele>45.0</ele><time>2026-03-30T10:49:17Z</time></trkpt><trkpt lat="14.589376270974583" lon="121.0571476767562"><ele>45.0</ele><time>2026-03-30T10:49:18Z</time></trkpt><trkpt lat="14.58925365196423" lon="121.05709804215029"><ele>45.0</ele><time>2026-03-30T10:49:19Z</time></trkpt><trkpt lat="14.589127967834868" lon="121.05704087661113"><ele>45.0</ele><time>2026-03-30T10:49:20Z</time></trkpt><trkpt lat="14.58900015221947" lon="121.05699098649497"><ele>45.0</ele><time>2026-03-30T10:49:21Z</time></trkpt><trkpt lat="14.588872495261082" lon="121.05694078320026"><ele>45.0</ele><time>2026-03-30T10:49:22Z</time></trkpt><trkpt lat="14.588731681695918" lon="121.05689324587655"><ele>45.0</ele><time>2026-03-30T10:49:23Z</time></trkpt><trkpt lat="14.588596004399548" lon="121.05684776029473"><ele>45.0</ele><time>2026-03-30T10:49:24Z</time></trkpt><trkpt lat="14.588455908563805" lon="121.05680136412413"><ele>45.0</ele><time>2026-03-30T10:49:25Z</time></trkpt><trkpt lat="14.588326337942034" lon="121.05675262134508"><ele>44.75</ele><time>2026-03-30T10:49:26Z</time></trkpt><trkpt lat="14.588198191202439" lon="121.05670160990326"><ele>44.5</ele><time>2026-03-30T10:49:27Z</time></trkpt><trkpt lat="14.588069830082995" lon="121.05665262260645"><ele>44.25</ele><time>2026-03-30T10:49:28Z</time></trkpt><trkpt lat="14.587933683596157" lon="121.05660253203948"><ele>44.0</ele><time>2026-03-30T10:49:29Z</time></trkpt><trkpt lat="14.58780413755758" lon="121.05654974224551"><ele>43.0</ele><time>2026-03-30T10:49:30Z</time></trkpt><trkpt lat="14.587665102554388" lon="121.05648993606911"><ele>42.0</ele><time>2026-03-30T10:49:31Z</time></trkpt><trkpt lat="14.587511222370718" lon="121.05643306370693"><ele>41.0</ele><time>2026-03-30T10:49:32Z</time></trkpt><trkpt lat="14.587369381392035" lon="121.05639932525997"><ele>41.0</ele><time>2026-03-30T10:49:33Z</time></trkpt><trkpt lat="14.58722499213534" lon="121.05635368471278"><ele>41.0</ele><time>2026-03-30T10:49:34Z</time></trkpt><trkpt lat="14.587076061706012" lon="121.05631444899632"><ele>41.0</ele><time>2026-03-30T10:49:35Z</time></trkpt><trkpt lat="14.586938519720414" lon="121.05627161404617"><ele>41.0</ele><time>2026-03-30T10:49:36Z</time></trkpt><trkpt lat="14.586792610868619" lon="121.0562308200359"><ele>40.33333333333333</ele><time>2026-03-30T10:49:37Z</time></trkpt><trkpt lat="14.586647012016202" lon="121.05618902994321"><ele>39.666666666666664</ele><time>2026-03-30T10:49:38Z</time></trkpt><trkpt lat="14.586502346925608" lon="121.05614286634861"><ele>39.0</ele><time>2026-03-30T10:49:39Z</time></trkpt><trkpt lat="14.586359894298106" lon="121.05610085536298"><ele>39.0</ele><time>2026-03-30T10:49:40Z</time></trkpt><trkpt lat="14.586209936663446" lon="121.05605647802187"><ele>39.0</ele><time>2026-03-30T10:49:41Z</time></trkpt><trkpt lat="14.586066461705663" lon="121.05600562275953"><ele>39.0</ele><time>2026-03-30T10:49:42Z</time></trkpt><trkpt lat="14.585942857957782" lon="121.05596200256049"><ele>39.0</ele><time>2026-03-30T10:49:43Z</time></trkpt><trkpt lat="14.585803876452836" lon="121.05592024082733"><ele>38.75</ele><time>2026-03-30T10:49:44Z</time></trkpt><trkpt lat="14.58567236113246" lon="121.05587785796934"><ele>38.5</ele><time>2026-03-30T10:49:45Z</time></trkpt><trkpt lat="14.585539394733262" lon="121.05583609797482"><ele>38.25</ele><time>2026-03-30T10:49:46Z</time></trkpt><trkpt lat="14.585402117540834" lon="121.05579905190991"><ele>38.0</ele><time>2026-03-30T10:49:47Z</time></trkpt><trkpt lat="14.585268766838677" lon="121.05575559523791"><ele>38.0</ele><time>2026-03-30T10:49:48Z</time></trkpt><trkpt lat="14.585131683676414" lon="121.05571139905932"><ele>38.0</ele><time>2026-03-30T10:49:49Z</time></trkpt><trkpt lat="14.584996707291669" lon="121.05566851215775"><ele>38.0</ele><time>2026-03-30T10:49:50Z</time></trkpt><trkpt lat="14.584862234820843" lon="121.05562481966493"><ele>38.0</ele><time>2026-03-30T10:49:51Z</time></trkpt><trkpt lat="14.58473599267432" lon="121.05558017778253"><ele>38.0</ele><time>2026-03-30T10:49:52Z</time></trkpt><trkpt lat="14.58461705803288" lon="121.05553982162841"><ele>38.0</ele><time>2026-03-30T10:49:53Z</time></trkpt><trkpt lat="14.58449937780338" lon="121.0555023753872"><ele>38.0</ele><time>2026-03-30T10:49:54Z</time></trkpt><trkpt lat="14.584384307141688" lon="121.05546584112876"><ele>38.0</ele><time>2026-03-30T10:49:55Z</time></trkpt><trkpt lat="14.584264223712548" lon="121.05542999637753"><ele>37.75</ele><time>2026-03-30T10:49:56Z</time></trkpt><trkpt lat="14.584143475251182" lon="121.05538530534027"><ele>37.5</ele><time>2026-03-30T10:49:57Z</time></trkpt><trkpt lat="14.584018794569841" lon="121.05534322011434"><ele>37.25</ele><time>2026-03-30T10:49:58Z</time></trkpt><trkpt lat="14.583892900088715" lon="121.05529415281784"><ele>37.0</ele><time>2026-03-30T10:49:59Z</time></trkpt><trkpt lat="14.58376918796067" lon="121.05523790492649"><ele>38.25</ele><time>2026-03-30T10:50:00Z</time></trkpt><trkpt lat="14.583645681369655" lon="121.05517999690926"><ele>39.5</ele><time>2026-03-30T10:50:01Z</time></trkpt><trkpt lat="14.583518035488636" lon="121.0551093730197"><ele>40.75</ele><time>2026-03-30T10:50:02Z</time></trkpt><trkpt lat="14.583395840623593" lon="121.05503953533099"><ele>42.0</ele><time>2026-03-30T10:50:03Z</time></trkpt><trkpt lat="14.58327375588488" lon="121.05496965682869"><ele>42.75</ele><time>2026-03-30T10:50:04Z</time></trkpt><trkpt lat="14.583149120646164" lon="121.05489496986517"><ele>43.5</ele><time>2026-03-30T10:50:05Z</time></trkpt><trkpt lat="14.583034036367511" lon="121.05482452026587"><ele>44.25</ele><time>2026-03-30T10:50:06Z</time></trkpt><trkpt lat="14.582911225036616" lon="121.05475039358583"><ele>45.0</ele><time>2026-03-30T10:50:07Z</time></trkpt><trkpt lat="14.58280396981866" lon="121.05467684266358"><ele>45.5</ele><time>2026-03-30T10:50:08Z</time></trkpt><trkpt lat="14.582697599000042" lon="121.05459392898412"><ele>46.0</ele><time>2026-03-30T10:50:09Z</time></trkpt><trkpt lat="14.582588493262461" lon="121.05450557732406"><ele>46.5</ele><time>2026-03-30T10:50:10Z</time></trkpt><trkpt lat="14.582471753247184" lon="121.05442573246548"><ele>47.0</ele><time>2026-03-30T10:50:11Z</time></trkpt><trkpt lat="14.582361704696758" lon="121.0543439142991"><ele>47.0</ele><time>2026-03-30T10:50:12Z</time></trkpt><trkpt lat="14.582249694747203" lon="121.05426162196788"><ele>47.0</ele><time>2026-03-30T10:50:13Z</time></trkpt><trkpt lat="14.582120603612259" lon="121.05418917959068"><ele>47.0</ele><time>2026-03-30T10:50:14Z</time></trkpt><trkpt lat="14.581979947543307" lon="121.05412025094883"><ele>47.0</ele><time>2026-03-30T10:50:15Z</time></trkpt><trkpt lat="14.581847565386951" lon="121.0540539068623"><ele>47.33333333333333</ele><time>2026-03-30T10:50:16Z</time></trkpt><trkpt lat="14.581712740353645" lon="121.05396166249419"><ele>47.666666666666664</ele><time>2026-03-30T10:50:17Z</time></trkpt><trkpt lat="14.581577803115465" lon="121.05387319775859"><ele>48.0</ele><time>2026-03-30T10:50:18Z</time></trkpt><trkpt lat="14.581454228380249" lon="121.05378620252137"><ele>48.0</ele><time>2026-03-30T10:50:19Z</time></trkpt><trkpt lat="14.581315540643326" lon="121.05369207565298"><ele>48.0</ele><time>2026-03-30T10:50:20Z</time></trkpt><trkpt lat="14.581186677808633" lon="121.05360174444314"><ele>48.0</ele><time>2026-03-30T10:50:21Z</time></trkpt><trkpt lat="14.581059161231083" lon="121.05350892291207"><ele>48.33333333333333</ele><time>2026-03-30T10:50:22Z</time></trkpt><trkpt lat="14.580921661006924" lon="121.05342160935447"><ele>48.666666666666664</ele><time>2026-03-30T10:50:23Z</time></trkpt><trkpt lat="14.580773662997297" lon="121.05333161317832"><ele>49.0</ele><time>2026-03-30T10:50:24Z</time></trkpt><trkpt lat="14.58064429970097" lon="121.05322126607913"><ele>47.0</ele><time>2026-03-30T10:50:25.08Z</time></trkpt><trkpt lat="14.580365268809256" lon="121.05301632229715"><ele>45.0</ele><time>2026-03-30T10:50:27Z</time></trkpt><trkpt lat="14.580270497057011" lon="121.05291065411728"><ele>45.0</ele><time>2026-03-30T10:50:28Z</time></trkpt><trkpt lat="14.580159622214103" lon="121.05285886780692"><ele>45.0</ele><time>2026-03-30T10:50:29Z</time></trkpt><trkpt lat="14.580058681594716" lon="121.05278038263798"><ele>45.0</ele><time>2026-03-30T10:50:30Z</time></trkpt><trkpt lat="14.579975600869515" lon="121.05273921735136"><ele>45.0</ele><time>2026-03-30T10:50:31Z</time></trkpt><trkpt lat="14.579882393808884" lon="121.05265765595063"><ele>45.0</ele><time>2026-03-30T10:50:32Z</time></trkpt><trkpt lat="14.5797993134295" lon="121.05257662402715"><ele>45.0</ele><time>2026-03-30T10:50:33Z</time></trkpt><trkpt lat="14.5796986105756" lon="121.0525002478211"><ele>45.0</ele><time>2026-03-30T10:50:34Z</time></trkpt><trkpt lat="14.579626048847926" lon="121.05242858883075"><ele>45.0</ele><time>2026-03-30T10:50:35Z</time></trkpt><trkpt lat="14.579530535388782" lon="121.05235376401427"><ele>44.75</ele><time>2026-03-30T10:50:36Z</time></trkpt><trkpt lat="14.579435767317921" lon="121.05228489894436"><ele>44.5</ele><time>2026-03-30T10:50:37Z</time></trkpt><trkpt lat="14.579329706953347" lon="121.05221302741774"><ele>44.25</ele><time>2026-03-30T10:50:38Z</time></trkpt><trkpt lat="14.579225309980837" lon="121.05214188162827"><ele>44.0</ele><time>2026-03-30T10:50:39Z</time></trkpt><trkpt lat="14.579123118325313" lon="121.0520699068073"><ele>44.0</ele><time>2026-03-30T10:50:40Z</time></trkpt><trkpt lat="14.579008768718664" lon="121.05199483774709"><ele>44.0</ele><time>2026-03-30T10:50:41Z</time></trkpt><trkpt lat="14.578904472287668" lon="121.05192413427318"><ele>44.0</ele><time>2026-03-30T10:50:42Z</time></trkpt><trkpt lat="14.578805611392742" lon="121.05185675361459"><ele>44.0</ele><time>2026-03-30T10:50:43Z</time></trkpt><trkpt lat="14.578712109723948" lon="121.05179354150174"><ele>43.400000000000006</ele><time>2026-03-30T10:50:44Z</time></trkpt><trkpt lat="14.578611903714659" lon="121.05172362801049"><ele>42.8</ele><time>2026-03-30T10:50:45Z</time></trkpt><trkpt lat="14.57851482746657" lon="121.05165455861616"><ele>42.2</ele><time>2026-03-30T10:50:46Z</time></trkpt><trkpt lat="14.578441181194313" lon="121.0515971764698"><ele>41.599999999999994</ele><time>2026-03-30T10:50:47Z</time></trkpt><trkpt lat="14.578366224494966" lon="121.05153773150829"><ele>41.0</ele><time>2026-03-30T10:50:48Z</time></trkpt><trkpt lat="14.578287150686405" lon="121.05147656828663"><ele>41.0</ele><time>2026-03-30T10:50:49Z</time></trkpt><trkpt lat="14.578208211347874" lon="121.05140873689169"><ele>41.0</ele><time>2026-03-30T10:50:50Z</time></trkpt><trkpt lat="14.578123737367212" lon="121.05134401259821"><ele>41.0</ele><time>2026-03-30T10:50:51Z</time></trkpt><trkpt lat="14.57803760537351" lon="121.05128309281707"><ele>41.0</ele><time>2026-03-30T10:50:52Z</time></trkpt><trkpt lat="14.577952245795814" lon="121.05121356316666"><ele>41.0</ele><time>2026-03-30T10:50:53Z</time></trkpt><trkpt lat="14.577884489327852" lon="121.05114809294997"><ele>41.33333333333333</ele><time>2026-03-30T10:50:54Z</time></trkpt><trkpt lat="14.577826645042157" lon="121.05110992082327"><ele>41.666666666666664</ele><time>2026-03-30T10:50:55Z</time></trkpt><trkpt lat="14.577767654031573" lon="121.0510637607092"><ele>42.0</ele><time>2026-03-30T10:50:56Z</time></trkpt><trkpt lat="14.577707548332627" lon="121.0510121852272"><ele>42.333333333333336</ele><time>2026-03-30T10:50:57Z</time></trkpt><trkpt lat="14.577644400350794" lon="121.05095958700834"><ele>42.66666666666667</ele><time>2026-03-30T10:50:58Z</time></trkpt><trkpt lat="14.577569959121737" lon="121.05090293942825"><ele>43.0</ele><time>2026-03-30T10:50:59Z</time></trkpt><trkpt lat="14.577496399905144" lon="121.05084574908203"><ele>43.4</ele><time>2026-03-30T10:51:00Z</time></trkpt><trkpt lat="14.577419038811021" lon="121.05078803144298"><ele>43.8</ele><time>2026-03-30T10:51:01Z</time></trkpt><trkpt lat="14.577344233103343" lon="121.05073050171661"><ele>44.2</ele><time>2026-03-30T10:51:02Z</time></trkpt><trkpt lat="14.577255890460846" lon="121.05066424417485"><ele>44.6</ele><time>2026-03-30T10:51:03Z</time></trkpt><trkpt lat="14.577182882262887" lon="121.05061107334349"><ele>45.0</ele><time>2026-03-30T10:51:04Z</time></trkpt><trkpt lat="14.577097922414755" lon="121.05054684480558"><ele>45.0</ele><time>2026-03-30T10:51:05Z</time></trkpt><trkpt lat="14.57701977171503" lon="121.05048826398586"><ele>45.0</ele><time>2026-03-30T10:51:06Z</time></trkpt><trkpt lat="14.576933076935124" lon="121.05042312308889"><ele>45.0</ele><time>2026-03-30T10:51:07Z</time></trkpt><trkpt lat="14.576851905166588" lon="121.05036105721413"><ele>45.0</ele><time>2026-03-30T10:51:08Z</time></trkpt><trkpt lat="14.576770106360694" lon="121.0503042369459"><ele>45.0</ele><time>2026-03-30T10:51:09Z</time></trkpt><trkpt lat="14.57669198703086" lon="121.05024123283258"><ele>45.2</ele><time>2026-03-30T10:51:10Z</time></trkpt><trkpt lat="14.576606811619333" lon="121.05017832053774"><ele>45.4</ele><time>2026-03-30T10:51:11Z</time></trkpt><trkpt lat="14.57652186557823" lon="121.05011230632284"><ele>45.599999999999994</ele><time>2026-03-30T10:51:12Z</time></trkpt><trkpt lat="14.57642900510314" lon="121.05004487256325"><ele>45.8</ele><time>2026-03-30T10:51:13Z</time></trkpt><trkpt lat="14.5763425642593" lon="121.04997983254796"><ele>46.0</ele><time>2026-03-30T10:51:14Z</time></trkpt><trkpt lat="14.576255471600128" lon="121.04991547228659"><ele>44.5</ele><time>2026-03-30T10:51:15Z</time></trkpt><trkpt lat="14.576165835628258" lon="121.04984979856152"><ele>43.0</ele><time>2026-03-30T10:51:16Z</time></trkpt><trkpt lat="14.576078875115225" lon="121.04978106661314"><ele>41.5</ele><time>2026-03-30T10:51:17Z</time></trkpt><trkpt lat="14.575975948204096" lon="121.04971065657548"><ele>40.0</ele><time>2026-03-30T10:51:18Z</time></trkpt><trkpt lat="14.575884911740266" lon="121.0496386640004"><ele>40.0</ele><time>2026-03-30T10:51:19Z</time></trkpt><trkpt lat="14.575784295134005" lon="121.04956449872645"><ele>40.0</ele><time>2026-03-30T10:51:20Z</time></trkpt><trkpt lat="14.575702574734846" lon="121.04949722345314"><ele>40.0</ele><time>2026-03-30T10:51:21Z</time></trkpt><trkpt lat="14.575602925589147" lon="121.04942645810583"><ele>40.0</ele><time>2026-03-30T10:51:22Z</time></trkpt><trkpt lat="14.575521757908128" lon="121.0493599413494"><ele>40.0</ele><time>2026-03-30T10:51:23Z</time></trkpt><trkpt lat="14.575423295762915" lon="121.04928948145574"><ele>40.0</ele><time>2026-03-30T10:51:24Z</time></trkpt><trkpt lat="14.575334878962291" lon="121.04922462414156"><ele>40.0</ele><time>2026-03-30T10:51:25Z</time></trkpt><trkpt lat="14.575240450592545" lon="121.04914554370053"><ele>40.0</ele><time>2026-03-30T10:51:26Z</time></trkpt><trkpt lat="14.575150969039923" lon="121.04908151884013"><ele>39.5</ele><time>2026-03-30T10:51:27Z</time></trkpt><trkpt lat="14.575058817765992" lon="121.04901621346828"><ele>39.0</ele><time>2026-03-30T10:51:28Z</time></trkpt><trkpt lat="14.574960287344863" lon="121.04893970921714"><ele>38.5</ele><time>2026-03-30T10:51:29Z</time></trkpt><trkpt lat="14.57486951322024" lon="121.04887218841478"><ele>38.0</ele><time>2026-03-30T10:51:30Z</time></trkpt><trkpt lat="14.574773305173476" lon="121.04880215512395"><ele>38.0</ele><time>2026-03-30T10:51:31Z</time></trkpt><trkpt lat="14.574684042845675" lon="121.04873466818745"><ele>38.0</ele><time>2026-03-30T10:51:32Z</time></trkpt><trkpt lat="14.574591472663165" lon="121.048664018941"><ele>38.0</ele><time>2026-03-30T10:51:33Z</time></trkpt><trkpt lat="14.57449730119769" lon="121.04859187922345"><ele>38.0</ele><time>2026-03-30T10:51:34Z</time></trkpt><trkpt lat="14.57440514869203" lon="121.04851997504244"><ele>38.199999999999996</ele><time>2026-03-30T10:51:35Z</time></trkpt><trkpt lat="14.57431489207154" lon="121.04846411231348"><ele>38.4</ele><time>2026-03-30T10:51:36Z</time></trkpt><trkpt lat="14.574227821178498" lon="121.04840033978559"><ele>38.599999999999994</ele><time>2026-03-30T10:51:37Z</time></trkpt><trkpt lat="14.57412773232906" lon="121.04832839324921"><ele>38.8</ele><time>2026-03-30T10:51:38Z</time></trkpt><trkpt lat="14.574032826528164" lon="121.04826669024663"><ele>39.0</ele><time>2026-03-30T10:51:39Z</time></trkpt><trkpt lat="14.573939963488712" lon="121.04820048566674"><ele>39.0</ele><time>2026-03-30T10:51:40Z</time></trkpt><trkpt lat="14.573870910527416" lon="121.04813250554913"><ele>39.0</ele><time>2026-03-30T10:51:41Z</time></trkpt><trkpt lat="14.573789678402127" lon="121.04807609251328"><ele>39.0</ele><time>2026-03-30T10:51:42Z</time></trkpt><trkpt lat="14.57370536051515" lon="121.0480111515261"><ele>39.0</ele><time>2026-03-30T10:51:43Z</time></trkpt><trkpt lat="14.573622905727072" lon="121.04794855697877"><ele>39.0</ele><time>2026-03-30T10:51:44Z</time></trkpt><trkpt lat="14.573543034111083" lon="121.04788743737777"><ele>38.6</ele><time>2026-03-30T10:51:45Z</time></trkpt><trkpt lat="14.573450489110925" lon="121.04782993565905"><ele>38.2</ele><time>2026-03-30T10:51:46Z</time></trkpt><trkpt lat="14.573357707652159" lon="121.04777530316933"><ele>37.800000000000004</ele><time>2026-03-30T10:51:47Z</time></trkpt><trkpt lat="14.573279190488574" lon="121.04772318360664"><ele>37.4</ele><time>2026-03-30T10:51:48Z</time></trkpt><trkpt lat="14.573199880373455" lon="121.04765390006322"><ele>37.0</ele><time>2026-03-30T10:51:49Z</time></trkpt><trkpt lat="14.573103132325638" lon="121.04760200944888"><ele>37.0</ele><time>2026-03-30T10:51:50Z</time></trkpt><trkpt lat="14.573017171950719" lon="121.04754175707691"><ele>37.0</ele><time>2026-03-30T10:51:51Z</time></trkpt><trkpt lat="14.57293758418871" lon="121.04749530452264"><ele>37.0</ele><time>2026-03-30T10:51:52Z</time></trkpt><trkpt lat="14.572844995269074" lon="121.04744448779014"><ele>37.0</ele><time>2026-03-30T10:51:53Z</time></trkpt><trkpt lat="14.572758698545822" lon="121.04739761185289"><ele>37.0</ele><time>2026-03-30T10:51:54Z</time></trkpt><trkpt lat="14.572668578066978" lon="121.0473432109264"><ele>36.0</ele><time>2026-03-30T10:51:55Z</time></trkpt><trkpt lat="14.572591615921246" lon="121.04730417101095"><ele>35.0</ele><time>2026-03-30T10:51:56Z</time></trkpt><trkpt lat="14.572518234746198" lon="121.04726699950916"><ele>34.0</ele><time>2026-03-30T10:51:57Z</time></trkpt><trkpt lat="14.572397391416779" lon="121.04719797463255"><ele>33.0</ele><time>2026-03-30T10:51:58Z</time></trkpt><trkpt lat="14.572303888924761" lon="121.04714897519463"><ele>32.0</ele><time>2026-03-30T10:51:59Z</time></trkpt><trkpt lat="14.572204334544182" lon="121.04710095542006"><ele>32.0</ele><time>2026-03-30T10:52:00Z</time></trkpt><trkpt lat="14.572104223195337" lon="121.0470530696931"><ele>32.0</ele><time>2026-03-30T10:52:01Z</time></trkpt><trkpt lat="14.5720051628089" lon="121.04700869438038"><ele>32.0</ele><time>2026-03-30T10:52:02Z</time></trkpt><trkpt lat="14.571902250894452" lon="121.04696209999679"><ele>32.0</ele><time>2026-03-30T10:52:03Z</time></trkpt><trkpt lat="14.571793453703409" lon="121.04690723676833"><ele>32.25</ele><time>2026-03-30T10:52:04Z</time></trkpt><trkpt lat="14.571676368599404" lon="121.04685161872652"><ele>32.5</ele><time>2026-03-30T10:52:05Z</time></trkpt><trkpt lat="14.571561049472388" lon="121.04679700626242"><ele>32.75</ele><time>2026-03-30T10:52:06Z</time></trkpt><trkpt lat="14.571440195926215" lon="121.04674591976745"><ele>33.0</ele><time>2026-03-30T10:52:07Z</time></trkpt><trkpt lat="14.571323807707216" lon="121.04670003169106"><ele>33.0</ele><time>2026-03-30T10:52:08Z</time></trkpt><trkpt lat="14.571206258251204" lon="121.04665579077484"><ele>33.0</ele><time>2026-03-30T10:52:09Z</time></trkpt><trkpt lat="14.571092157605179" lon="121.04661680315948"><ele>33.0</ele><time>2026-03-30T10:52:10Z</time></trkpt><trkpt lat="14.570978106430175" lon="121.0465806961298"><ele>33.0</ele><time>2026-03-30T10:52:11Z</time></trkpt><trkpt lat="14.570866269226542" lon="121.04654256513987"><ele>30.75</ele><time>2026-03-30T10:52:12Z</time></trkpt><trkpt lat="14.570752348655711" lon="121.04650715600538"><ele>28.5</ele><time>2026-03-30T10:52:13Z</time></trkpt><trkpt lat="14.570637271364598" lon="121.04647202390983"><ele>26.25</ele><time>2026-03-30T10:52:14Z</time></trkpt><trkpt lat="14.57052223516863" lon="121.04643642624866"><ele>24.0</ele><time>2026-03-30T10:52:15.001Z</time></trkpt><trkpt lat="14.570410375326691" lon="121.04640562085883"><ele>22.5</ele><time>2026-03-30T10:52:16.001Z</time></trkpt><trkpt lat="14.570301584006677" lon="121.04637285202271"><ele>21.0</ele><time>2026-03-30T10:52:17.001Z</time></trkpt><trkpt lat="14.570188358984966" lon="121.04634685640539"><ele>19.5</ele><time>2026-03-30T10:52:18.001Z</time></trkpt><trkpt lat="14.5700748678041" lon="121.04631938049208"><ele>18.0</ele><time>2026-03-30T10:52:19.001Z</time></trkpt><trkpt lat="14.569963062944806" lon="121.04628375778923"><ele>18.0</ele><time>2026-03-30T10:52:20.001Z</time></trkpt><trkpt lat="14.569856858966233" lon="121.04625425924871"><ele>18.0</ele><time>2026-03-30T10:52:21.001Z</time></trkpt><trkpt lat="14.569751617016902" lon="121.046226390099"><ele>18.0</ele><time>2026-03-30T10:52:22.001Z</time></trkpt><trkpt lat="14.569647313427415" lon="121.04620064463735"><ele>18.0</ele><time>2026-03-30T10:52:23.001Z</time></trkpt><trkpt lat="14.569544507153452" lon="121.04617015016409"><ele>18.0</ele><time>2026-03-30T10:52:24.001Z</time></trkpt><trkpt lat="14.569451620513368" lon="121.04613698986044"><ele>16.8</ele><time>2026-03-30T10:52:25.001Z</time></trkpt><trkpt lat="14.569352422333107" lon="121.04609859209637"><ele>15.600000000000001</ele><time>2026-03-30T10:52:26.001Z</time></trkpt><trkpt lat="14.569250032119092" lon="121.04606591181225"><ele>14.399999999999999</ele><time>2026-03-30T10:52:27.001Z</time></trkpt><trkpt lat="14.569150901684301" lon="121.04602864612924"><ele>13.2</ele><time>2026-03-30T10:52:28.001Z</time></trkpt><trkpt lat="14.569051835098257" lon="121.04599660875954"><ele>12.0</ele><time>2026-03-30T10:52:29.001Z</time></trkpt><trkpt lat="14.5689496753952" lon="121.04596544247356"><ele>12.0</ele><time>2026-03-30T10:52:30.001Z</time></trkpt><trkpt lat="14.56885580395668" lon="121.04593641750675"><ele>12.0</ele><time>2026-03-30T10:52:31.001Z</time></trkpt><trkpt lat="14.568755560771965" lon="121.04591103841894"><ele>12.0</ele><time>2026-03-30T10:52:32.001Z</time></trkpt><trkpt lat="14.568654120947375" lon="121.04587696674352"><ele>12.0</ele><time>2026-03-30T10:52:33.001Z</time></trkpt><trkpt lat="14.568550885572586" lon="121.04584634991922"><ele>12.0</ele><time>2026-03-30T10:52:34.001Z</time></trkpt><trkpt lat="14.568445022945609" lon="121.04581865046038"><ele>11.0</ele><time>2026-03-30T10:52:35.001Z</time></trkpt><trkpt lat="14.56833335212175" lon="121.04578898824869"><ele>10.0</ele><time>2026-03-30T10:52:36.001Z</time></trkpt><trkpt lat="14.568218720328801" lon="121.04575853189861"><ele>9.0</ele><time>2026-03-30T10:52:37.001Z</time></trkpt><trkpt lat="14.568106798402557" lon="121.04572618752609"><ele>8.0</ele><time>2026-03-30T10:52:38.001Z</time></trkpt><trkpt lat="14.567993101656764" lon="121.0456943783427"><ele>8.0</ele><time>2026-03-30T10:52:39.001Z</time></trkpt><trkpt lat="14.567880539705689" lon="121.04565926891627"><ele>8.0</ele><time>2026-03-30T10:52:40.001Z</time></trkpt><trkpt lat="14.567764986376925" lon="121.04562477487823"><ele>8.0</ele><time>2026-03-30T10:52:41.001Z</time></trkpt><trkpt lat="14.567650007479969" lon="121.04559280399225"><ele>8.0</ele><time>2026-03-30T10:52:42.001Z</time></trkpt><trkpt lat="14.567533126320937" lon="121.0455585112132"><ele>11.75</ele><time>2026-03-30T10:52:43.001Z</time></trkpt><trkpt lat="14.567416584812182" lon="121.04552616816147"><ele>15.5</ele><time>2026-03-30T10:52:44.001Z</time></trkpt><trkpt lat="14.567298484620375" lon="121.04549474508704"><ele>19.25</ele><time>2026-03-30T10:52:45.001Z</time></trkpt><trkpt lat="14.567179561944895" lon="121.04546039697784"><ele>23.0</ele><time>2026-03-30T10:52:46.001Z</time></trkpt><trkpt lat="14.567056851429104" lon="121.04542950766042"><ele>23.5</ele><time>2026-03-30T10:52:47.001Z</time></trkpt><trkpt lat="14.566934275380014" lon="121.04539578831604"><ele>24.0</ele><time>2026-03-30T10:52:48.001Z</time></trkpt><trkpt lat="14.566812536644969" lon="121.04536454028062"><ele>24.5</ele><time>2026-03-30T10:52:49.001Z</time></trkpt><trkpt lat="14.566690906755339" lon="121.04532976172385"><ele>25.0</ele><time>2026-03-30T10:52:50.001Z</time></trkpt><trkpt lat="14.566564466184944" lon="121.0452926623936"><ele>25.0</ele><time>2026-03-30T10:52:51.001Z</time></trkpt><trkpt lat="14.566431456646441" lon="121.04525417309127"><ele>25.0</ele><time>2026-03-30T10:52:52.001Z</time></trkpt><trkpt lat="14.566300554661684" lon="121.0452076687769"><ele>25.0</ele><time>2026-03-30T10:52:53.001Z</time></trkpt><trkpt lat="14.566159197000234" lon="121.04517829245914"><ele>25.0</ele><time>2026-03-30T10:52:54.001Z</time></trkpt><trkpt lat="14.566023984973162" lon="121.0451394015959"><ele>24.25</ele><time>2026-03-30T10:52:55.001Z</time></trkpt><trkpt lat="14.565884112705138" lon="121.04510139829485"><ele>23.5</ele><time>2026-03-30T10:52:56.001Z</time></trkpt><trkpt lat="14.565741748227214" lon="121.04506204054117"><ele>22.75</ele><time>2026-03-30T10:52:57.001Z</time></trkpt><trkpt lat="14.565599890888288" lon="121.04502203045853"><ele>22.0</ele><time>2026-03-30T10:52:58.001Z</time></trkpt><trkpt lat="14.565459318810836" lon="121.0449809326044"><ele>22.0</ele><time>2026-03-30T10:52:59.001Z</time></trkpt><trkpt lat="14.565319029332324" lon="121.0449399620532"><ele>22.0</ele><time>2026-03-30T10:53:00.001Z</time></trkpt><trkpt lat="14.565176465682619" lon="121.04490010776102"><ele>22.0</ele><time>2026-03-30T10:53:01.001Z</time></trkpt><trkpt lat="14.56502925233004" lon="121.0448558349776"><ele>22.0</ele><time>2026-03-30T10:53:02.001Z</time></trkpt><trkpt lat="14.564882884919047" lon="121.04480864289576"><ele>22.0</ele><time>2026-03-30T10:53:03.001Z</time></trkpt><trkpt lat="14.564740224546629" lon="121.04475574161984"><ele>22.0</ele><time>2026-03-30T10:53:04.001Z</time></trkpt><trkpt lat="14.564611621882513" lon="121.04470019972908"><ele>22.0</ele><time>2026-03-30T10:53:05.001Z</time></trkpt><trkpt lat="14.564480073921539" lon="121.04464817152163"><ele>22.0</ele><time>2026-03-30T10:53:06.001Z</time></trkpt><trkpt lat="14.564360849295287" lon="121.04459416072277"><ele>22.6</ele><time>2026-03-30T10:53:07.001Z</time></trkpt><trkpt lat="14.564263994389773" lon="121.04454028574764"><ele>23.200000000000003</ele><time>2026-03-30T10:53:08.001Z</time></trkpt><trkpt lat="14.564175901446056" lon="121.04449394692506"><ele>23.8</ele><time>2026-03-30T10:53:09.001Z</time></trkpt><trkpt lat="14.564117373905727" lon="121.04445277234292"><ele>24.4</ele><time>2026-03-30T10:53:10.001Z</time></trkpt><trkpt lat="14.56400012532725" lon="121.04437017814251"><ele>25.0</ele><time>2026-03-30T10:53:12.001Z</time></trkpt><trkpt lat="14.563926150396867" lon="121.04432708535276"><ele>25.000000000000004</ele><time>2026-03-30T10:53:14.001Z</time></trkpt><trkpt lat="14.563867393015178" lon="121.04430274283037"><ele>25.0</ele><time>2026-03-30T10:53:16.001Z</time></trkpt><trkpt lat="14.563800428763857" lon="121.0442650286859"><ele>25.0</ele><time>2026-03-30T10:53:18.001Z</time></trkpt><trkpt lat="14.563710116281491" lon="121.04421961168524"><ele>25.0</ele><time>2026-03-30T10:53:20.001Z</time></trkpt><trkpt lat="14.563637672553641" lon="121.04417082407537"><ele>25.000000000000004</ele><time>2026-03-30T10:53:22.001Z</time></trkpt><trkpt lat="14.563565967438977" lon="121.04413439073016"><ele>25.0</ele><time>2026-03-30T10:53:24.001Z</time></trkpt><trkpt lat="14.563501083499927" lon="121.0440965735054"><ele>24.666666666666668</ele><time>2026-03-30T10:53:26.001Z</time></trkpt><trkpt lat="14.563440817828619" lon="121.0440580445944"><ele>24.333333333333336</ele><time>2026-03-30T10:53:29.001Z</time></trkpt><trkpt lat="14.563383807024412" lon="121.04402190319712"><ele>24.0</ele><time>2026-03-30T10:53:32.001Z</time></trkpt><trkpt lat="14.563311209734097" lon="121.04398421334663"><ele>23.666666666666668</ele><time>2026-03-30T10:53:36.001Z</time></trkpt><trkpt lat="14.563224825882905" lon="121.0439265594696"><ele>23.333333333333336</ele><time>2026-03-30T10:53:39.001Z</time></trkpt><trkpt lat="14.563152815058121" lon="121.04388299732629"><ele>23.0</ele><time>2026-03-30T10:53:41.001Z</time></trkpt><trkpt lat="14.56307754491857" lon="121.04382710936535"><ele>23.0</ele><time>2026-03-30T10:53:43.001Z</time></trkpt><trkpt lat="14.562992243767335" lon="121.04376827635843"><ele>23.0</ele><time>2026-03-30T10:53:45.001Z</time></trkpt><trkpt lat="14.562939326162493" lon="121.04373207901371"><ele>23.0</ele><time>2026-03-30T10:53:46.001Z</time></trkpt><trkpt lat="14.562850824734687" lon="121.04366545074284"><ele>23.0</ele><time>2026-03-30T10:53:48.001Z</time></trkpt><trkpt lat="14.562767067068442" lon="121.04360968230738"><ele>23.0</ele><time>2026-03-30T10:53:50.001Z</time></trkpt><trkpt lat="14.562679831784362" lon="121.04354211686746"><ele>22.799999999999997</ele><time>2026-03-30T10:53:52.001Z</time></trkpt><trkpt lat="14.562602021255005" lon="121.04348306218863"><ele>22.6</ele><time>2026-03-30T10:53:54.001Z</time></trkpt><trkpt lat="14.562528267261552" lon="121.04341996954525"><ele>22.4</ele><time>2026-03-30T10:53:56.001Z</time></trkpt><trkpt lat="14.562447595881052" lon="121.04336365240349"><ele>22.200000000000003</ele><time>2026-03-30T10:53:58.001Z</time></trkpt><trkpt lat="14.562367907144425" lon="121.04329330818427"><ele>22.0</ele><time>2026-03-30T10:54:00.001Z</time></trkpt><trkpt lat="14.562293234550491" lon="121.04322959529068"><ele>22.142857142857142</ele><time>2026-03-30T10:54:02.001Z</time></trkpt><trkpt lat="14.562236945146523" lon="121.04317473459868"><ele>22.285714285714285</ele><time>2026-03-30T10:54:04.001Z</time></trkpt><trkpt lat="14.562184416314619" lon="121.04313113491276"><ele>22.42857142857143</ele><time>2026-03-30T10:54:06.001Z</time></trkpt><trkpt lat="14.562128737024077" lon="121.04308478020315"><ele>22.57142857142857</ele><time>2026-03-30T10:54:08.001Z</time></trkpt><trkpt lat="14.562069125638839" lon="121.04303395882941"><ele>22.71428571428571</ele><time>2026-03-30T10:54:12.001Z</time></trkpt><trkpt lat="14.562014465082495" lon="121.04298638510474"><ele>22.857142857142858</ele><time>2026-03-30T10:54:21.001Z</time></trkpt><trkpt lat="14.561961059252207" lon="121.04292924456267"><ele>23.0</ele><time>2026-03-30T10:54:31.001Z</time></trkpt><trkpt lat="14.561914581624313" lon="121.04287981277788"><ele>23.0</ele><time>2026-03-30T10:54:41.001Z</time></trkpt><trkpt lat="14.561866386957412" lon="121.0428292047735"><ele>23.0</ele><time>2026-03-30T10:54:51.001Z</time></trkpt><trkpt lat="14.561806412668162" lon="121.04276422493352"><ele>23.0</ele><time>2026-03-30T10:54:55.001Z</time></trkpt><trkpt lat="14.56175416644653" lon="121.04271736833593"><ele>23.0</ele><time>2026-03-30T10:54:59.001Z</time></trkpt><trkpt lat="14.56170943574841" lon="121.04266578226058"><ele>23.0</ele><time>2026-03-30T10:55:03.001Z</time></trkpt><trkpt lat="14.561651965896738" lon="121.04261782430898"><ele>23.0</ele><time>2026-03-30T10:55:08.001Z</time></trkpt><trkpt lat="14.561583183803737" lon="121.04256734690254"><ele>23.0</ele><time>2026-03-30T10:55:11.001Z</time></trkpt><trkpt lat="14.561529482525119" lon="121.04251513156352"><ele>23.0</ele><time>2026-03-30T10:55:16.001Z</time></trkpt><trkpt lat="14.561480167478678" lon="121.04246248542974"><ele>23.0</ele><time>2026-03-30T10:55:21.001Z</time></trkpt><trkpt lat="14.561427951999697" lon="121.04240472325111"><ele>23.0</ele><time>2026-03-30T10:55:25.001Z</time></trkpt><trkpt lat="14.561386627020015" lon="121.04235197693693"><ele>23.0</ele><time>2026-03-30T10:55:29.001Z</time></trkpt><trkpt lat="14.561340412462636" lon="121.04229674793488"><ele>23.0</ele><time>2026-03-30T10:55:33.001Z</time></trkpt><trkpt lat="14.561277871684867" lon="121.04223197864576"><ele>23.0</ele><time>2026-03-30T10:55:38.001Z</time></trkpt><trkpt lat="14.561234308125023" lon="121.04218328103367"><ele>20.833333333333336</ele><time>2026-03-30T10:55:42.001Z</time></trkpt><trkpt lat="14.561187640811465" lon="121.04213021172605"><ele>18.666666666666668</ele><time>2026-03-30T10:55:48.001Z</time></trkpt><trkpt lat="14.561142816504278" lon="121.04207567546574"><ele>16.5</ele><time>2026-03-30T10:55:52.001Z</time></trkpt><trkpt lat="14.56108557618283" lon="121.04201214936731"><ele>14.333333333333334</ele><time>2026-03-30T10:55:55.001Z</time></trkpt><trkpt lat="14.561031984628228" lon="121.0419427357396"><ele>12.166666666666668</ele><time>2026-03-30T10:55:58.001Z</time></trkpt><trkpt lat="14.560975090963845" lon="121.04186222350744"><ele>10.0</ele><time>2026-03-30T10:56:01.001Z</time></trkpt><trkpt lat="14.560919707483906" lon="121.04179450144605"><ele>10.0</ele><time>2026-03-30T10:56:04.001Z</time></trkpt><trkpt lat="14.560869747502442" lon="121.04173843623548"><ele>10.0</ele><time>2026-03-30T10:56:07.001Z</time></trkpt><trkpt lat="14.560813806287424" lon="121.0416686525696"><ele>10.0</ele><time>2026-03-30T10:56:11.001Z</time></trkpt><trkpt lat="14.560760715637128" lon="121.04159942074676"><ele>10.0</ele><time>2026-03-30T10:56:15.001Z</time></trkpt><trkpt lat="14.56071576646055" lon="121.04154628047831"><ele>10.0</ele><time>2026-03-30T10:56:18.001Z</time></trkpt><trkpt lat="14.560660668819034" lon="121.04147587211733"><ele>10.0</ele><time>2026-03-30T10:56:21.001Z</time></trkpt><trkpt lat="14.560609517720511" lon="121.04141541971366"><ele>10.5</ele><time>2026-03-30T10:56:23.999Z</time></trkpt><trkpt lat="14.560562582098159" lon="121.04136084911822"><ele>11.0</ele><time>2026-03-30T10:56:25.999Z</time></trkpt><trkpt lat="14.560513855913138" lon="121.04130240761641"><ele>11.5</ele><time>2026-03-30T10:56:27.999Z</time></trkpt><trkpt lat="14.560463329691178" lon="121.04123876750855"><ele>12.0</ele><time>2026-03-30T10:56:29.999Z</time></trkpt><trkpt lat="14.560407894623221" lon="121.04117066821868"><ele>12.499999999999998</ele><time>2026-03-30T10:56:31.999Z</time></trkpt><trkpt lat="14.560356220555999" lon="121.04111008502079"><ele>13.0</ele><time>2026-03-30T10:56:33.999Z</time></trkpt><trkpt lat="14.560306620980699" lon="121.04105274032972"><ele>13.428571428571427</ele><time>2026-03-30T10:56:35.999Z</time></trkpt><trkpt lat="14.560262608480073" lon="121.04100214648368"><ele>13.857142857142858</ele><time>2026-03-30T10:56:38.999Z</time></trkpt><trkpt lat="14.560211372608205" lon="121.04093995151491"><ele>14.285714285714285</ele><time>2026-03-30T10:56:44Z</time></trkpt><trkpt lat="14.560167134325699" lon="121.04088899761108"><ele>14.714285714285714</ele><time>2026-03-30T10:56:47Z</time></trkpt><trkpt lat="14.560116559389781" lon="121.04083245397452"><ele>15.142857142857142</ele><time>2026-03-30T10:56:51Z</time></trkpt><trkpt lat="14.560071250690017" lon="121.04078091888253"><ele>15.571428571428571</ele><time>2026-03-30T10:56:54Z</time></trkpt><trkpt lat="14.560019350015398" lon="121.04072317008267"><ele>16.0</ele><time>2026-03-30T10:56:57Z</time></trkpt><trkpt lat="14.559968912106006" lon="121.0406617167372"><ele>16.0</ele><time>2026-03-30T10:56:59Z</time></trkpt><trkpt lat="14.55992390893805" lon="121.040599783167"><ele>15.999999999999998</ele><time>2026-03-30T10:57:02Z</time></trkpt><trkpt lat="14.559876709196574" lon="121.04054627014199"><ele>16.0</ele><time>2026-03-30T10:57:07Z</time></trkpt><trkpt lat="14.559825761770039" lon="121.04049191023537"><ele>16.0</ele><time>2026-03-30T10:57:12Z</time></trkpt><trkpt lat="14.559776445463122" lon="121.04043838036274"><ele>15.999999999999998</ele><time>2026-03-30T10:57:17Z</time></trkpt><trkpt lat="14.559727475817668" lon="121.04038418587172"><ele>16.0</ele><time>2026-03-30T10:57:23Z</time></trkpt><trkpt lat="14.559686458432875" lon="121.04033457693443"><ele>16.0</ele><time>2026-03-30T10:57:26Z</time></trkpt><trkpt lat="14.55963621086131" lon="121.04027258483015"><ele>15.999999999999998</ele><time>2026-03-30T10:57:31Z</time></trkpt><trkpt lat="14.559594385902034" lon="121.0402221323883"><ele>16.0</ele><time>2026-03-30T10:57:35Z</time></trkpt><trkpt lat="14.559537935929917" lon="121.04015501493573"><ele>16.0</ele><time>2026-03-30T10:57:42Z</time></trkpt><trkpt lat="14.559479809295713" lon="121.04008703779722"><ele>16.0</ele><time>2026-03-30T10:57:45Z</time></trkpt><trkpt lat="14.55944106608193" lon="121.04003511138316"><ele>15.999999999999998</ele><time>2026-03-30T10:57:49Z</time></trkpt><trkpt lat="14.559389382892395" lon="121.03997146225255"><ele>16.0</ele><time>2026-03-30T10:57:54Z</time></trkpt><trkpt lat="14.559338700455598" lon="121.03991110231463"><ele>16.833333333333332</ele><time>2026-03-30T10:58:03Z</time></trkpt><trkpt lat="14.55929742771325" lon="121.03986067925858"><ele>17.666666666666664</ele><time>2026-03-30T10:58:07Z</time></trkpt><trkpt lat="14.559246776431284" lon="121.03980266744819"><ele>18.5</ele><time>2026-03-30T10:58:11Z</time></trkpt><trkpt lat="14.559206028164235" lon="121.03974782725993"><ele>19.333333333333332</ele><time>2026-03-30T10:58:15Z</time></trkpt><trkpt lat="14.559152191527431" lon="121.03968629992976"><ele>20.166666666666668</ele><time>2026-03-30T10:58:19Z</time></trkpt><trkpt lat="14.5590924814072" lon="121.03961719992054"><ele>21.0</ele><time>2026-03-30T10:58:24Z</time></trkpt><trkpt lat="14.559041751422589" lon="121.03955767594582"><ele>21.0</ele><time>2026-03-30T10:58:27Z</time></trkpt><trkpt lat="14.5589800945949" lon="121.03949549810093"><ele>21.0</ele><time>2026-03-30T10:58:36.999Z</time></trkpt><trkpt lat="14.558920813583454" lon="121.03943520078258"><ele>21.0</ele><time>2026-03-30T10:58:40.999Z</time></trkpt><trkpt lat="14.558866383250626" lon="121.03937600965477"><ele>21.0</ele><time>2026-03-30T10:58:44.999Z</time></trkpt><trkpt lat="14.55882029336661" lon="121.03932240999741"><ele>21.0</ele><time>2026-03-30T10:58:46.999Z</time></trkpt><trkpt lat="14.558784676564452" lon="121.03926867515429"><ele>21.0</ele><time>2026-03-30T10:58:48.999Z</time></trkpt><trkpt lat="14.558743122925572" lon="121.0392085810769"><ele>21.0</ele><time>2026-03-30T10:58:50.999Z</time></trkpt><trkpt lat="14.558697017933579" lon="121.0391563443887"><ele>21.0</ele><time>2026-03-30T10:58:54Z</time></trkpt><trkpt lat="14.558646172143584" lon="121.03909754396575"><ele>21.0</ele><time>2026-03-30T10:58:58Z</time></trkpt><trkpt lat="14.558602936176698" lon="121.03904826040825"><ele>21.0</ele><time>2026-03-30T10:59:02Z</time></trkpt><trkpt lat="14.558559104924354" lon="121.03899160012602"><ele>21.0</ele><time>2026-03-30T10:59:05Z</time></trkpt><trkpt lat="14.558515428518277" lon="121.03894299611211"><ele>21.0</ele><time>2026-03-30T10:59:08Z</time></trkpt><trkpt lat="14.558458539467079" lon="121.03887753950488"><ele>21.0</ele><time>2026-03-30T10:59:12Z</time></trkpt><trkpt lat="14.558413689857824" lon="121.03882358821454"><ele>21.0</ele><time>2026-03-30T10:59:15Z</time></trkpt><trkpt lat="14.558365340965194" lon="121.03877426191704"><ele>21.0</ele><time>2026-03-30T10:59:19Z</time></trkpt><trkpt lat="14.558298850528683" lon="121.03869906997316"><ele>21.0</ele><time>2026-03-30T10:59:22Z</time></trkpt><trkpt lat="14.558229855546674" lon="121.03861390814252"><ele>21.0</ele><time>2026-03-30T10:59:24Z</time></trkpt><trkpt lat="14.558164057896581" lon="121.0385409566474"><ele>21.0</ele><time>2026-03-30T10:59:26Z</time></trkpt><trkpt lat="14.558113244571985" lon="121.03847962912312"><ele>21.0</ele><time>2026-03-30T10:59:28Z</time></trkpt><trkpt lat="14.558064094575954" lon="121.03841390762803"><ele>21.0</ele><time>2026-03-30T10:59:30Z</time></trkpt><trkpt lat="14.558021169678963" lon="121.03836025804083"><ele>21.0</ele><time>2026-03-30T10:59:32Z</time></trkpt><trkpt lat="14.557979553720445" lon="121.03831065210645"><ele>21.0</ele><time>2026-03-30T10:59:35Z</time></trkpt><trkpt lat="14.557937576823372" lon="121.03825788992954"><ele>21.0</ele><time>2026-03-30T10:59:39Z</time></trkpt><trkpt lat="14.557893843207108" lon="121.03820219082661"><ele>21.0</ele><time>2026-03-30T10:59:43Z</time></trkpt><trkpt lat="14.557849032535026" lon="121.03814314047708"><ele>21.0</ele><time>2026-03-30T10:59:47Z</time></trkpt><trkpt lat="14.557804294198093" lon="121.03808912109413"><ele>21.0</ele><time>2026-03-30T10:59:54Z</time></trkpt><trkpt lat="14.557760741478447" lon="121.03803426030287"><ele>22.0</ele><time>2026-03-30T10:59:58Z</time></trkpt><trkpt lat="14.557716137167905" lon="121.0379786820627"><ele>23.0</ele><time>2026-03-30T11:00:02Z</time></trkpt><trkpt lat="14.55767359263949" lon="121.03792508290176"><ele>24.0</ele><time>2026-03-30T11:00:17Z</time></trkpt><trkpt lat="14.557622460733027" lon="121.03786140850845"><ele>25.0</ele><time>2026-03-30T11:00:19Z</time></trkpt><trkpt lat="14.557570621460288" lon="121.03779367444314"><ele>26.0</ele><time>2026-03-30T11:00:22Z</time></trkpt><trkpt lat="14.557524981482809" lon="121.03773898585989"><ele>27.0</ele><time>2026-03-30T11:00:25Z</time></trkpt><trkpt lat="14.55748088891477" lon="121.0376862812166"><ele>28.0</ele><time>2026-03-30T11:00:27Z</time></trkpt><trkpt lat="14.557437120511965" lon="121.03763573105718"><ele>28.000000000000004</ele><time>2026-03-30T11:00:29Z</time></trkpt><trkpt lat="14.557383523678327" lon="121.03757092054269"><ele>28.0</ele><time>2026-03-30T11:00:32Z</time></trkpt><trkpt lat="14.557330291626098" lon="121.03750628014383"><ele>28.0</ele><time>2026-03-30T11:00:35Z</time></trkpt><trkpt lat="14.557270317789216" lon="121.03743732465979"><ele>28.0</ele><time>2026-03-30T11:00:39Z</time></trkpt><trkpt lat="14.55721523583841" lon="121.03737363835201"><ele>28.000000000000004</ele><time>2026-03-30T11:00:41Z</time></trkpt><trkpt lat="14.557166653357088" lon="121.03731401941161"><ele>28.0</ele><time>2026-03-30T11:00:43Z</time></trkpt><trkpt lat="14.557123418602899" lon="121.03726606259985"><ele>27.833333333333336</ele><time>2026-03-30T11:00:45Z</time></trkpt><trkpt lat="14.557077584791752" lon="121.037205465598"><ele>27.666666666666668</ele><time>2026-03-30T11:00:48Z</time></trkpt><trkpt lat="14.55702498528147" lon="121.03714759930556"><ele>27.5</ele><time>2026-03-30T11:00:50Z</time></trkpt><trkpt lat="14.556966663540264" lon="121.03707159358277"><ele>27.333333333333336</ele><time>2026-03-30T11:00:53Z</time></trkpt><trkpt lat="14.556914439890052" lon="121.03701167115894"><ele>27.166666666666668</ele><time>2026-03-30T11:00:56Z</time></trkpt><trkpt lat="14.556854543065803" lon="121.0369421481569"><ele>27.0</ele><time>2026-03-30T11:00:59Z</time></trkpt><trkpt lat="14.556813295500032" lon="121.03689052299997"><ele>26.8</ele><time>2026-03-30T11:01:02Z</time></trkpt><trkpt lat="14.556763321785057" lon="121.03683018766381"><ele>26.6</ele><time>2026-03-30T11:01:09Z</time></trkpt><trkpt lat="14.556715602532098" lon="121.03678496414518"><ele>26.400000000000002</ele><time>2026-03-30T11:01:13Z</time></trkpt><trkpt lat="14.556644646859377" lon="121.03669564429657"><ele>26.200000000000003</ele><time>2026-03-30T11:01:16Z</time></trkpt><trkpt lat="14.55657028245755" lon="121.03660397065481"><ele>26.0</ele><time>2026-03-30T11:01:18Z</time></trkpt><trkpt lat="14.556507244836805" lon="121.03652885941851"><ele>25.999999999999996</ele><time>2026-03-30T11:01:20Z</time></trkpt><trkpt lat="14.556448289287683" lon="121.03646586693966"><ele>26.0</ele><time>2026-03-30T11:01:22Z</time></trkpt><trkpt lat="14.55638172559536" lon="121.03639078910248"><ele>26.0</ele><time>2026-03-30T11:01:24Z</time></trkpt><trkpt lat="14.556340175226605" lon="121.03634005852527"><ele>26.0</ele><time>2026-03-30T11:01:25Z</time></trkpt><trkpt lat="14.556270391835382" lon="121.03625537109382"><ele>25.999999999999996</ele><time>2026-03-30T11:01:27Z</time></trkpt><trkpt lat="14.556218258662549" lon="121.03619634809827"><ele>26.0</ele><time>2026-03-30T11:01:29Z</time></trkpt><trkpt lat="14.55617122573912" lon="121.0361403629552"><ele>25.666666666666664</ele><time>2026-03-30T11:01:31Z</time></trkpt><trkpt lat="14.556125852392176" lon="121.03608787213814"><ele>25.333333333333332</ele><time>2026-03-30T11:01:33Z</time></trkpt><trkpt lat="14.556072959168205" lon="121.03602717172794"><ele>25.0</ele><time>2026-03-30T11:01:35Z</time></trkpt><trkpt lat="14.556015059292406" lon="121.03595745680772"><ele>24.666666666666664</ele><time>2026-03-30T11:01:37Z</time></trkpt><trkpt lat="14.555961909143734" lon="121.03588467879409"><ele>24.333333333333332</ele><time>2026-03-30T11:01:39Z</time></trkpt><trkpt lat="14.55589939612807" lon="121.03580327085865"><ele>24.0</ele><time>2026-03-30T11:01:41Z</time></trkpt><trkpt lat="14.555855635306626" lon="121.03574905996884"><ele>23.6</ele><time>2026-03-30T11:01:43.001Z</time></trkpt><trkpt lat="14.555803573722088" lon="121.03567052884989"><ele>23.2</ele><time>2026-03-30T11:01:47.001Z</time></trkpt><trkpt lat="14.555757632755059" lon="121.0356210408301"><ele>22.8</ele><time>2026-03-30T11:01:49.001Z</time></trkpt><trkpt lat="14.555700845413044" lon="121.03555112584759"><ele>22.400000000000002</ele><time>2026-03-30T11:01:52.001Z</time></trkpt><trkpt lat="14.555648320808352" lon="121.03548050704036"><ele>22.0</ele><time>2026-03-30T11:01:54.001Z</time></trkpt><trkpt lat="14.555570080497523" lon="121.03538889857312"><ele>22.0</ele><time>2026-03-30T11:01:56.001Z</time></trkpt><trkpt lat="14.555524967943136" lon="121.03533333320959"><ele>22.0</ele><time>2026-03-30T11:01:57.001Z</time></trkpt><trkpt lat="14.55547966107933" lon="121.0352826227993"><ele>22.0</ele><time>2026-03-30T11:01:58.001Z</time></trkpt><trkpt lat="14.555429513566358" lon="121.03522761554407"><ele>22.0</ele><time>2026-03-30T11:01:59.001Z</time></trkpt><trkpt lat="14.555371122563765" lon="121.0351677168608"><ele>22.0</ele><time>2026-03-30T11:02:00.001Z</time></trkpt><trkpt lat="14.555320822134348" lon="121.03510677261018"><ele>22.0</ele><time>2026-03-30T11:02:01.001Z</time></trkpt><trkpt lat="14.555276199589425" lon="121.03504066664912"><ele>22.0</ele><time>2026-03-30T11:02:02.001Z</time></trkpt><trkpt lat="14.55523234495587" lon="121.03492355015105"><ele>21.8</ele><time>2026-03-30T11:02:04.001Z</time></trkpt><trkpt lat="14.555233875608616" lon="121.03480645390833"><ele>21.6</ele><time>2026-03-30T11:02:06.001Z</time></trkpt><trkpt lat="14.555271311859045" lon="121.03470980292482"><ele>21.400000000000002</ele><time>2026-03-30T11:02:08.001Z</time></trkpt><trkpt lat="14.555347670657262" lon="121.03465895635826"><ele>21.200000000000003</ele><time>2026-03-30T11:02:10.001Z</time></trkpt><trkpt lat="14.555449502098922" lon="121.03456798845419"><ele>21.0</ele><time>2026-03-30T11:02:12.001Z</time></trkpt><trkpt lat="14.555529444439287" lon="121.03451466962903"><ele>20.8</ele><time>2026-03-30T11:02:13.001Z</time></trkpt><trkpt lat="14.555597642418808" lon="121.03445154077637"><ele>20.6</ele><time>2026-03-30T11:02:14.001Z</time></trkpt><trkpt lat="14.555678940272314" lon="121.03439010036602"><ele>20.4</ele><time>2026-03-30T11:02:15.001Z</time></trkpt><trkpt lat="14.555772715530741" lon="121.03432053488652"><ele>20.2</ele><time>2026-03-30T11:02:16.001Z</time></trkpt><trkpt lat="14.555868549897808" lon="121.03424459890884"><ele>20.0</ele><time>2026-03-30T11:02:17.001Z</time></trkpt><trkpt lat="14.555952784055757" lon="121.03416812220914"><ele>20.5</ele><time>2026-03-30T11:02:18.001Z</time></trkpt><trkpt lat="14.556055513197036" lon="121.03408944928445"><ele>21.0</ele><time>2026-03-30T11:02:19.001Z</time></trkpt><trkpt lat="14.556154861904082" lon="121.03400798795504"><ele>21.5</ele><time>2026-03-30T11:02:20.001Z</time></trkpt><trkpt lat="14.556246729258854" lon="121.03393349196286"><ele>22.0</ele><time>2026-03-30T11:02:21.001Z</time></trkpt><trkpt lat="14.556345203028737" lon="121.03386409583518"><ele>22.0</ele><time>2026-03-30T11:02:22.001Z</time></trkpt><trkpt lat="14.556436194537852" lon="121.03379292522513"><ele>22.0</ele><time>2026-03-30T11:02:23.001Z</time></trkpt><trkpt lat="14.556526087998183" lon="121.03372736665003"><ele>22.0</ele><time>2026-03-30T11:02:24.001Z</time></trkpt><trkpt lat="14.556615874803871" lon="121.0336550182175"><ele>22.0</ele><time>2026-03-30T11:02:25.001Z</time></trkpt><trkpt lat="14.556701481175107" lon="121.03357435561136"><ele>22.0</ele><time>2026-03-30T11:02:26.001Z</time></trkpt><trkpt lat="14.556801350628039" lon="121.03349236050869"><ele>22.0</ele><time>2026-03-30T11:02:27.001Z</time></trkpt><trkpt lat="14.556896263428667" lon="121.0334170833475"><ele>22.0</ele><time>2026-03-30T11:02:28.001Z</time></trkpt><trkpt lat="14.556989433224373" lon="121.03334797875166"><ele>22.0</ele><time>2026-03-30T11:02:29.001Z</time></trkpt><trkpt lat="14.557095816906374" lon="121.03327180709047"><ele>21.400000000000002</ele><time>2026-03-30T11:02:30.001Z</time></trkpt><trkpt lat="14.557193799883507" lon="121.03315970650323"><ele>20.8</ele><time>2026-03-30T11:02:32.001Z</time></trkpt><trkpt lat="14.557263316543683" lon="121.0330941893689"><ele>20.2</ele><time>2026-03-30T11:02:33.001Z</time></trkpt><trkpt lat="14.557330642060682" lon="121.0330323689098"><ele>19.6</ele><time>2026-03-30T11:02:34.001Z</time></trkpt><trkpt lat="14.557394716627627" lon="121.03297295438647"><ele>19.0</ele><time>2026-03-30T11:02:35.001Z</time></trkpt><trkpt lat="14.557457666149965" lon="121.03291968799596"><ele>19.0</ele><time>2026-03-30T11:02:36.001Z</time></trkpt><trkpt lat="14.557516392735923" lon="121.03287462787793"><ele>19.0</ele><time>2026-03-30T11:02:37.001Z</time></trkpt><trkpt lat="14.557614625787012" lon="121.03282827785337"><ele>19.0</ele><time>2026-03-30T11:02:39.001Z</time></trkpt><trkpt lat="14.557692558034043" lon="121.03277808484096"><ele>19.0</ele><time>2026-03-30T11:02:41Z</time></trkpt><trkpt lat="14.557769564458685" lon="121.03270965569979"><ele>19.0</ele><time>2026-03-30T11:02:43Z</time></trkpt><trkpt lat="14.55782825343405" lon="121.0326771508422"><ele>19.0</ele><time>2026-03-30T11:02:45Z</time></trkpt><trkpt lat="14.557881223000495" lon="121.03263452949827"><ele>19.0</ele><time>2026-03-30T11:02:48Z</time></trkpt><trkpt lat="14.557932101564266" lon="121.03259074324534"><ele>19.0</ele><time>2026-03-30T11:02:50Z</time></trkpt><trkpt lat="14.55799856545517" lon="121.03252217112122"><ele>19.0</ele><time>2026-03-30T11:02:52Z</time></trkpt><trkpt lat="14.558080889412459" lon="121.03244610872557"><ele>19.0</ele><time>2026-03-30T11:02:54Z</time></trkpt><trkpt lat="14.558127511887722" lon="121.03239959829831"><ele>19.0</ele><time>2026-03-30T11:02:55Z</time></trkpt><trkpt lat="14.558206494801885" lon="121.03232971525681"><ele>19.0</ele><time>2026-03-30T11:02:57Z</time></trkpt><trkpt lat="14.558289425827345" lon="121.03227117973752"><ele>19.0</ele><time>2026-03-30T11:02:59Z</time></trkpt><trkpt lat="14.55836032560899" lon="121.03216362033064"><ele>19.0</ele><time>2026-03-30T11:03:01Z</time></trkpt><trkpt lat="14.558424148694971" lon="121.0321073915778"><ele>19.0</ele><time>2026-03-30T11:03:02Z</time></trkpt><trkpt lat="14.558489071716545" lon="121.03204722236373"><ele>19.0</ele><time>2026-03-30T11:03:03Z</time></trkpt><trkpt lat="14.558559132732444" lon="121.03196327128809"><ele>19.0</ele><time>2026-03-30T11:03:04Z</time></trkpt><trkpt lat="14.55864652019342" lon="121.03188873896559"><ele>18.8</ele><time>2026-03-30T11:03:05Z</time></trkpt><trkpt lat="14.558726144644227" lon="121.03181408709894"><ele>18.599999999999998</ele><time>2026-03-30T11:03:06Z</time></trkpt><trkpt lat="14.558800542429376" lon="121.03173775429556"><ele>18.4</ele><time>2026-03-30T11:03:07Z</time></trkpt><trkpt lat="14.558863941832664" lon="121.03167495377937"><ele>18.2</ele><time>2026-03-30T11:03:08Z</time></trkpt><trkpt lat="14.558917738471274" lon="121.0316256379508"><ele>18.0</ele><time>2026-03-30T11:03:09Z</time></trkpt><trkpt lat="14.55899024063145" lon="121.03154846062515"><ele>18.0</ele><time>2026-03-30T11:03:11Z</time></trkpt><trkpt lat="14.55906681640682" lon="121.03147101206801"><ele>18.0</ele><time>2026-03-30T11:03:13Z</time></trkpt><trkpt lat="14.559113524926008" lon="121.03141871742051"><ele>18.0</ele><time>2026-03-30T11:03:14Z</time></trkpt><trkpt lat="14.559164473504579" lon="121.03136101517234"><ele>18.0</ele><time>2026-03-30T11:03:15Z</time></trkpt><trkpt lat="14.559222524411457" lon="121.03129338509979"><ele>18.0</ele><time>2026-03-30T11:03:16.001Z</time></trkpt><trkpt lat="14.55929619498159" lon="121.03121826347738"><ele>18.0</ele><time>2026-03-30T11:03:17.001Z</time></trkpt><trkpt lat="14.559366089332984" lon="121.03113193726476"><ele>18.0</ele><time>2026-03-30T11:03:18.001Z</time></trkpt><trkpt lat="14.559441649170632" lon="121.03104338496073"><ele>18.0</ele><time>2026-03-30T11:03:19.001Z</time></trkpt><trkpt lat="14.55952007339036" lon="121.03095082877769"><ele>18.0</ele><time>2026-03-30T11:03:20.001Z</time></trkpt><trkpt lat="14.55960577612236" lon="121.03085131506525"><ele>18.0</ele><time>2026-03-30T11:03:21.001Z</time></trkpt><trkpt lat="14.559687038804485" lon="121.03075989566204"><ele>18.5</ele><time>2026-03-30T11:03:22.001Z</time></trkpt><trkpt lat="14.559771988646961" lon="121.03066182058733"><ele>19.0</ele><time>2026-03-30T11:03:23.001Z</time></trkpt><trkpt lat="14.559863049208502" lon="121.03054235392078"><ele>19.5</ele><time>2026-03-30T11:03:24.001Z</time></trkpt><trkpt lat="14.559956461775496" lon="121.03041653636105"><ele>20.0</ele><time>2026-03-30T11:03:25.001Z</time></trkpt><trkpt lat="14.560029540464889" lon="121.03034415554671"><ele>20.0</ele><time>2026-03-30T11:03:26.001Z</time></trkpt><trkpt lat="14.560117185948247" lon="121.03023206391961"><ele>20.0</ele><time>2026-03-30T11:03:27.001Z</time></trkpt><trkpt lat="14.56020013298545" lon="121.0301180452921"><ele>20.0</ele><time>2026-03-30T11:03:28.001Z</time></trkpt><trkpt lat="14.560288153464217" lon="121.02999353749425"><ele>20.0</ele><time>2026-03-30T11:03:29.001Z</time></trkpt><trkpt lat="14.560367275943834" lon="121.02987761173837"><ele>19.25</ele><time>2026-03-30T11:03:30.001Z</time></trkpt><trkpt lat="14.560444115011055" lon="121.0297567252616"><ele>18.5</ele><time>2026-03-30T11:03:31.001Z</time></trkpt><trkpt lat="14.560524810118528" lon="121.02964344046121"><ele>17.75</ele><time>2026-03-30T11:03:32.001Z</time></trkpt><trkpt lat="14.560599682055038" lon="121.0295259380712"><ele>17.0</ele><time>2026-03-30T11:03:33.001Z</time></trkpt><trkpt lat="14.560670341052587" lon="121.02941568900329"><ele>17.0</ele><time>2026-03-30T11:03:34.001Z</time></trkpt><trkpt lat="14.560736428324292" lon="121.02930943203464"><ele>17.0</ele><time>2026-03-30T11:03:35.001Z</time></trkpt><trkpt lat="14.560799114064384" lon="121.02920528042318"><ele>17.0</ele><time>2026-03-30T11:03:36.001Z</time></trkpt><trkpt lat="14.560857781028558" lon="121.02910853812737"><ele>17.0</ele><time>2026-03-30T11:03:37.001Z</time></trkpt><trkpt lat="14.560916004870018" lon="121.02901908167534"><ele>19.166666666666668</ele><time>2026-03-30T11:03:38.001Z</time></trkpt><trkpt lat="14.56097562211094" lon="121.028926150891"><ele>21.333333333333336</ele><time>2026-03-30T11:03:39.001Z</time></trkpt><trkpt lat="14.561023225610585" lon="121.02884643337823"><ele>23.5</ele><time>2026-03-30T11:03:40.001Z</time></trkpt><trkpt lat="14.561062551948531" lon="121.02877784781904"><ele>25.666666666666668</ele><time>2026-03-30T11:03:41.001Z</time></trkpt><trkpt lat="14.561097711186044" lon="121.02870415641652"><ele>27.833333333333332</ele><time>2026-03-30T11:03:42.001Z</time></trkpt><trkpt lat="14.561135249791672" lon="121.02864254282458"><ele>30.0</ele><time>2026-03-30T11:03:43.001Z</time></trkpt><trkpt lat="14.561183594955484" lon="121.02853338272497"><ele>29.6</ele><time>2026-03-30T11:03:45.001Z</time></trkpt><trkpt lat="14.56125084496589" lon="121.02842487341961"><ele>29.2</ele><time>2026-03-30T11:03:47.001Z</time></trkpt><trkpt lat="14.561294611576086" lon="121.02830542003417"><ele>28.799999999999997</ele><time>2026-03-30T11:03:49.001Z</time></trkpt><trkpt lat="14.561336691326737" lon="121.02821970393452"><ele>28.4</ele><time>2026-03-30T11:03:51.001Z</time></trkpt><trkpt lat="14.561336556013194" lon="121.02814013093959"><ele>28.0</ele><time>2026-03-30T11:03:56.001Z</time></trkpt><trkpt lat="14.561390796488045" lon="121.02807949599699"><ele>28.0</ele><time>2026-03-30T11:04:36.001Z</time></trkpt><trkpt lat="14.561454752316683" lon="121.02801275275122"><ele>27.999999999999996</ele><time>2026-03-30T11:05:17.001Z</time></trkpt><trkpt lat="14.561494187481992" lon="121.02791283310744"><ele>27.999999999999996</ele><time>2026-03-30T11:05:19.001Z</time></trkpt><trkpt lat="14.561524452858908" lon="121.02782170141433"><ele>28.0</ele><time>2026-03-30T11:05:21.001Z</time></trkpt><trkpt lat="14.56156254217478" lon="121.027715670777"><ele>28.0</ele><time>2026-03-30T11:05:23.001Z</time></trkpt><trkpt lat="14.561587079545008" lon="121.02764381147723"><ele>28.0</ele><time>2026-03-30T11:05:24.001Z</time></trkpt><trkpt lat="14.561606833118685" lon="121.02756875385276"><ele>27.999999999999996</ele><time>2026-03-30T11:05:25.001Z</time></trkpt><trkpt lat="14.56162892056359" lon="121.02747744863902"><ele>27.999999999999996</ele><time>2026-03-30T11:05:26.001Z</time></trkpt><trkpt lat="14.561659727803319" lon="121.02738332188673"><ele>28.0</ele><time>2026-03-30T11:05:27.001Z</time></trkpt><trkpt lat="14.561696305292722" lon="121.02728549314747"><ele>28.0</ele><time>2026-03-30T11:05:28.001Z</time></trkpt><trkpt lat="14.561726464865126" lon="121.02718499290532"><ele>30.4</ele><time>2026-03-30T11:05:29.001Z</time></trkpt><trkpt lat="14.561760486866996" lon="121.02707895053848"><ele>32.8</ele><time>2026-03-30T11:05:30.001Z</time></trkpt><trkpt lat="14.561790891176436" lon="121.02698353191009"><ele>35.2</ele><time>2026-03-30T11:05:31.001Z</time></trkpt><trkpt lat="14.561825366777281" lon="121.02689158505382"><ele>37.6</ele><time>2026-03-30T11:05:32.001Z</time></trkpt><trkpt lat="14.56185671802495" lon="121.02679027419697"><ele>40.0</ele><time>2026-03-30T11:05:33.001Z</time></trkpt><trkpt lat="14.561884487862969" lon="121.02669535875482"><ele>44.75</ele><time>2026-03-30T11:05:34.001Z</time></trkpt><trkpt lat="14.5619169745766" lon="121.02657655828696"><ele>49.5</ele><time>2026-03-30T11:05:35.001Z</time></trkpt><trkpt lat="14.561946030289533" lon="121.0264682780387"><ele>54.25</ele><time>2026-03-30T11:05:36.001Z</time></trkpt><trkpt lat="14.56197276650135" lon="121.02635475841473"><ele>59.0</ele><time>2026-03-30T11:05:37.001Z</time></trkpt><trkpt lat="14.56198519913614" lon="121.02622750996578"><ele>59.0</ele><time>2026-03-30T11:05:38.001Z</time></trkpt><trkpt lat="14.562012676401304" lon="121.02611967312832"><ele>59.00000000000001</ele><time>2026-03-30T11:05:39.001Z</time></trkpt><trkpt lat="14.562032765600371" lon="121.02600997206896"><ele>59.00000000000001</ele><time>2026-03-30T11:05:40.001Z</time></trkpt><trkpt lat="14.562051647652307" lon="121.02589610532183"><ele>59.0</ele><time>2026-03-30T11:05:41.001Z</time></trkpt><trkpt lat="14.562076903123279" lon="121.02578141728794"><ele>59.0</ele><time>2026-03-30T11:05:42.001Z</time></trkpt><trkpt lat="14.562098887739303" lon="121.02566413337237"><ele>50.25</ele><time>2026-03-30T11:05:43.001Z</time></trkpt><trkpt lat="14.562113793749235" lon="121.02554038839853"><ele>41.5</ele><time>2026-03-30T11:05:44.001Z</time></trkpt><trkpt lat="14.562131787149307" lon="121.02541671055232"><ele>32.75</ele><time>2026-03-30T11:05:45.001Z</time></trkpt><trkpt lat="14.562148598401354" lon="121.02529155587486"><ele>24.0</ele><time>2026-03-30T11:05:46.001Z</time></trkpt><trkpt lat="14.562167255330866" lon="121.02516123251814"><ele>24.0</ele><time>2026-03-30T11:05:47.001Z</time></trkpt><trkpt lat="14.562179570660192" lon="121.02503119612457"><ele>24.0</ele><time>2026-03-30T11:05:48.001Z</time></trkpt><trkpt lat="14.562192163197903" lon="121.02489663389296"><ele>24.0</ele><time>2026-03-30T11:05:49.001Z</time></trkpt><trkpt lat="14.562203362121442" lon="121.0247632039868"><ele>24.0</ele><time>2026-03-30T11:05:50.001Z</time></trkpt><trkpt lat="14.562217387785841" lon="121.02462833109881"><ele>23.0</ele><time>2026-03-30T11:05:51.001Z</time></trkpt><trkpt lat="14.56222392856694" lon="121.02449492877463"><ele>22.0</ele><time>2026-03-30T11:05:52.001Z</time></trkpt><trkpt lat="14.562230418614437" lon="121.02435619077107"><ele>21.0</ele><time>2026-03-30T11:05:53.001Z</time></trkpt><trkpt lat="14.562238491959583" lon="121.02421236995939"><ele>20.0</ele><time>2026-03-30T11:05:54.001Z</time></trkpt><trkpt lat="14.562252677526423" lon="121.0240735736957"><ele>20.0</ele><time>2026-03-30T11:05:55.001Z</time></trkpt><trkpt lat="14.562254207188813" lon="121.02393248436475"><ele>20.0</ele><time>2026-03-30T11:05:56.001Z</time></trkpt><trkpt lat="14.562254599193803" lon="121.02379149326266"><ele>20.0</ele><time>2026-03-30T11:05:57.001Z</time></trkpt><trkpt lat="14.562256875628535" lon="121.02365575547245"><ele>20.0</ele><time>2026-03-30T11:05:58.001Z</time></trkpt><trkpt lat="14.562256503349685" lon="121.02352641192499"><ele>20.0</ele><time>2026-03-30T11:05:59.001Z</time></trkpt><trkpt lat="14.562254782581759" lon="121.0234048679489"><ele>20.0</ele><time>2026-03-30T11:06:00.001Z</time></trkpt><trkpt lat="14.562251494261027" lon="121.02329138822246"><ele>20.0</ele><time>2026-03-30T11:06:01.001Z</time></trkpt><trkpt lat="14.562244474103572" lon="121.02318314364463"><ele>20.0</ele><time>2026-03-30T11:06:02.001Z</time></trkpt><trkpt lat="14.562236038259341" lon="121.02307314667425"><ele>20.0</ele><time>2026-03-30T11:06:03.001Z</time></trkpt><trkpt lat="14.562227281587157" lon="121.02295947269971"><ele>19.8</ele><time>2026-03-30T11:06:04.001Z</time></trkpt><trkpt lat="14.562223480732612" lon="121.0228488202466"><ele>19.6</ele><time>2026-03-30T11:06:05.001Z</time></trkpt><trkpt lat="14.562216454516449" lon="121.02274452922981"><ele>19.4</ele><time>2026-03-30T11:06:06.001Z</time></trkpt><trkpt lat="14.56221126764361" lon="121.02264713463826"><ele>19.2</ele><time>2026-03-30T11:06:07.001Z</time></trkpt><trkpt lat="14.562204001232262" lon="121.02255836183187"><ele>19.0</ele><time>2026-03-30T11:06:08.001Z</time></trkpt><trkpt lat="14.562200891344611" lon="121.02248188154607"><ele>19.166666666666664</ele><time>2026-03-30T11:06:09.001Z</time></trkpt><trkpt lat="14.56219785705203" lon="121.02241526924458"><ele>19.333333333333332</ele><time>2026-03-30T11:06:10.001Z</time></trkpt><trkpt lat="14.56219785435214" lon="121.02234481564601"><ele>19.5</ele><time>2026-03-30T11:06:11.001Z</time></trkpt><trkpt lat="14.562180120874482" lon="121.02224328952113"><ele>19.666666666666668</ele><time>2026-03-30T11:06:13.001Z</time></trkpt><trkpt lat="14.562170528116093" lon="121.02212295359247"><ele>19.833333333333336</ele><time>2026-03-30T11:06:16.001Z</time></trkpt><trkpt lat="14.562167060301727" lon="121.0220519488192"><ele>20.0</ele><time>2026-03-30T11:06:17.001Z</time></trkpt><trkpt lat="14.562165538354344" lon="121.02197681124653"><ele>20.0</ele><time>2026-03-30T11:06:18.001Z</time></trkpt><trkpt lat="14.562165345612948" lon="121.02190314239317"><ele>20.0</ele><time>2026-03-30T11:06:19.001Z</time></trkpt><trkpt lat="14.562161795424306" lon="121.02181109011205"><ele>20.0</ele><time>2026-03-30T11:06:20.001Z</time></trkpt><trkpt lat="14.562150331552422" lon="121.0217114420809"><ele>20.0</ele><time>2026-03-30T11:06:21.001Z</time></trkpt><trkpt lat="14.562139876802073" lon="121.02160266573468"><ele>20.0</ele><time>2026-03-30T11:06:22.001Z</time></trkpt><trkpt lat="14.562120836513827" lon="121.02148119275137"><ele>19.666666666666668</ele><time>2026-03-30T11:06:23.001Z</time></trkpt><trkpt lat="14.562106244484355" lon="121.02137552509957"><ele>19.333333333333336</ele><time>2026-03-30T11:06:24.001Z</time></trkpt><trkpt lat="14.562094309523152" lon="121.02127356297568"><ele>19.0</ele><time>2026-03-30T11:06:25.001Z</time></trkpt><trkpt lat="14.562073887712783" lon="121.02118454681593"><ele>18.666666666666668</ele><time>2026-03-30T11:06:26.001Z</time></trkpt><trkpt lat="14.562072923179848" lon="121.02110815347793"><ele>18.333333333333332</ele><time>2026-03-30T11:06:27.001Z</time></trkpt><trkpt lat="14.562063252701599" lon="121.02103915119099"><ele>18.0</ele><time>2026-03-30T11:06:28.001Z</time></trkpt><trkpt lat="14.562057781234216" lon="121.0209128696728"><ele>18.4</ele><time>2026-03-30T11:06:30.001Z</time></trkpt><trkpt lat="14.562041847087238" lon="121.02078968702021"><ele>18.8</ele><time>2026-03-30T11:06:32.001Z</time></trkpt><trkpt lat="14.562032761533994" lon="121.02067956816396"><ele>19.2</ele><time>2026-03-30T11:06:34.001Z</time></trkpt><trkpt lat="14.562023228385836" lon="121.02058474093728"><ele>19.6</ele><time>2026-03-30T11:06:36.001Z</time></trkpt><trkpt lat="14.562015445348894" lon="121.02051985184708"><ele>20.0</ele><time>2026-03-30T11:06:38.001Z</time></trkpt><trkpt lat="14.562012939493833" lon="121.02042548873406"><ele>20.6</ele><time>2026-03-30T11:06:41.001Z</time></trkpt><trkpt lat="14.562008886243596" lon="121.02035255562218"><ele>21.2</ele><time>2026-03-30T11:06:43.001Z</time></trkpt><trkpt lat="14.561991467342141" lon="121.02023433368682"><ele>21.799999999999997</ele><time>2026-03-30T11:06:45.001Z</time></trkpt><trkpt lat="14.561983091381421" lon="121.02015817547941"><ele>22.4</ele><time>2026-03-30T11:06:46.001Z</time></trkpt><trkpt lat="14.561976254859019" lon="121.02009182903606"><ele>23.0</ele><time>2026-03-30T11:06:59.001Z</time></trkpt><trkpt lat="14.561957311144614" lon="121.01994280176392"><ele>25.599999999999998</ele><time>2026-03-30T11:07:26.001Z</time></trkpt><trkpt lat="14.56195463348989" lon="121.01987212557897"><ele>28.2</ele><time>2026-03-30T11:07:27.001Z</time></trkpt><trkpt lat="14.561945711074976" lon="121.01977796504745"><ele>30.8</ele><time>2026-03-30T11:07:28.001Z</time></trkpt><trkpt lat="14.56194442055077" lon="121.01968152967804"><ele>33.4</ele><time>2026-03-30T11:07:29.001Z</time></trkpt><trkpt lat="14.56194625206845" lon="121.01956790454028"><ele>36.0</ele><time>2026-03-30T11:07:30.001Z</time></trkpt><trkpt lat="14.561923218282123" lon="121.01945713757006"><ele>36.0</ele><time>2026-03-30T11:07:31.001Z</time></trkpt><trkpt lat="14.561902653441011" lon="121.01933826117265"><ele>36.0</ele><time>2026-03-30T11:07:32.001Z</time></trkpt><trkpt lat="14.561885905478523" lon="121.01920864208519"><ele>36.0</ele><time>2026-03-30T11:07:33.001Z</time></trkpt><trkpt lat="14.56187061236896" lon="121.01907926958295"><ele>36.0</ele><time>2026-03-30T11:07:34.001Z</time></trkpt><trkpt lat="14.561856642488934" lon="121.01893960256456"><ele>38.0</ele><time>2026-03-30T11:07:35.001Z</time></trkpt><trkpt lat="14.561840127244148" lon="121.01879908994432"><ele>40.0</ele><time>2026-03-30T11:07:36.001Z</time></trkpt><trkpt lat="14.56180975738022" lon="121.01865157614324"><ele>42.0</ele><time>2026-03-30T11:07:37.001Z</time></trkpt><trkpt lat="14.561780433522955" lon="121.0184981193843"><ele>44.0</ele><time>2026-03-30T11:07:38.001Z</time></trkpt><trkpt lat="14.561758981574986" lon="121.01833956988624"><ele>36.666666666666664</ele><time>2026-03-30T11:07:39.001Z</time></trkpt><trkpt lat="14.561763052810694" lon="121.018187679984"><ele>29.333333333333332</ele><time>2026-03-30T11:07:40.001Z</time></trkpt><trkpt lat="14.56174337789105" lon="121.01802538912408"><ele>22.0</ele><time>2026-03-30T11:07:41.001Z</time></trkpt><trkpt lat="14.56173264154997" lon="121.01787200426486"><ele>22.0</ele><time>2026-03-30T11:07:42.001Z</time></trkpt><trkpt lat="14.561709332176765" lon="121.01770491435325"><ele>22.0</ele><time>2026-03-30T11:07:43.001Z</time></trkpt><trkpt lat="14.561690766344343" lon="121.01755355236172"><ele>22.0</ele><time>2026-03-30T11:07:44.001Z</time></trkpt><trkpt lat="14.56167472006518" lon="121.01741476888844"><ele>22.0</ele><time>2026-03-30T11:07:45.001Z</time></trkpt><trkpt lat="14.56165989696042" lon="121.01726621424767"><ele>23.0</ele><time>2026-03-30T11:07:46.001Z</time></trkpt><trkpt lat="14.561646740152092" lon="121.01711876925351"><ele>24.0</ele><time>2026-03-30T11:07:47.001Z</time></trkpt><trkpt lat="14.561618636178048" lon="121.01696346653293"><ele>25.0</ele><time>2026-03-30T11:07:48.001Z</time></trkpt><trkpt lat="14.561597998012823" lon="121.01681445240182"><ele>26.0</ele><time>2026-03-30T11:07:49.001Z</time></trkpt><trkpt lat="14.561563856550004" lon="121.01666926351413"><ele>25.0</ele><time>2026-03-30T11:07:50.001Z</time></trkpt><trkpt lat="14.561537860554344" lon="121.01652113540409"><ele>24.0</ele><time>2026-03-30T11:07:51.001Z</time></trkpt><trkpt lat="14.561518530365042" lon="121.01637457440323"><ele>23.0</ele><time>2026-03-30T11:07:52.001Z</time></trkpt><trkpt lat="14.561497455578726" lon="121.01622956027906"><ele>22.0</ele><time>2026-03-30T11:07:53.001Z</time></trkpt><trkpt lat="14.561472203142069" lon="121.01609724257926"><ele>22.0</ele><time>2026-03-30T11:07:54.001Z</time></trkpt><trkpt lat="14.561440769720862" lon="121.0159733054918"><ele>22.0</ele><time>2026-03-30T11:07:55.001Z</time></trkpt><trkpt lat="14.561424664410143" lon="121.0158560653673"><ele>22.0</ele><time>2026-03-30T11:07:56.001Z</time></trkpt><trkpt lat="14.561404429425599" lon="121.01574595591596"><ele>22.0</ele><time>2026-03-30T11:07:57.001Z</time></trkpt><trkpt lat="14.561390344453695" lon="121.01564322672635"><ele>22.0</ele><time>2026-03-30T11:07:58.001Z</time></trkpt><trkpt lat="14.561375812739204" lon="121.01554651545474"><ele>21.333333333333332</ele><time>2026-03-30T11:07:59.001Z</time></trkpt><trkpt lat="14.561367786669756" lon="121.01545991274659"><ele>20.666666666666664</ele><time>2026-03-30T11:08:00.001Z</time></trkpt><trkpt lat="14.561353225964298" lon="121.01539371083179"><ele>20.0</ele><time>2026-03-30T11:08:01.001Z</time></trkpt><trkpt lat="14.561335627655641" lon="121.01530249572812"><ele>19.333333333333332</ele><time>2026-03-30T11:08:03.001Z</time></trkpt><trkpt lat="14.561320641080968" lon="121.01521428470026"><ele>18.666666666666668</ele><time>2026-03-30T11:08:05.001Z</time></trkpt><trkpt lat="14.561300058157691" lon="121.01510433444625"><ele>18.0</ele><time>2026-03-30T11:08:07.001Z</time></trkpt><trkpt lat="14.561284713700045" lon="121.01503965460192"><ele>18.166666666666668</ele><time>2026-03-30T11:08:08.001Z</time></trkpt><trkpt lat="14.561268635089395" lon="121.01496552661978"><ele>18.333333333333332</ele><time>2026-03-30T11:08:09.001Z</time></trkpt><trkpt lat="14.561253981640236" lon="121.01489015699953"><ele>18.5</ele><time>2026-03-30T11:08:10.001Z</time></trkpt><trkpt lat="14.561238200059304" lon="121.01480587285145"><ele>18.666666666666664</ele><time>2026-03-30T11:08:11.001Z</time></trkpt><trkpt lat="14.561222905292075" lon="121.01472644585114"><ele>18.833333333333332</ele><time>2026-03-30T11:08:12.001Z</time></trkpt><trkpt lat="14.561206583688069" lon="121.01463810981943"><ele>19.0</ele><time>2026-03-30T11:08:13.001Z</time></trkpt><trkpt lat="14.561191854427873" lon="121.01452357157771"><ele>19.0</ele><time>2026-03-30T11:08:14.001Z</time></trkpt><trkpt lat="14.561163927911497" lon="121.01442879422281"><ele>19.0</ele><time>2026-03-30T11:08:15.001Z</time></trkpt><trkpt lat="14.561138662112365" lon="121.01435251795604"><ele>19.0</ele><time>2026-03-30T11:08:16.001Z</time></trkpt><trkpt lat="14.561116821652778" lon="121.0142741290992"><ele>19.0</ele><time>2026-03-30T11:08:17.001Z</time></trkpt><trkpt lat="14.561090387592301" lon="121.01420226130905"><ele>19.0</ele><time>2026-03-30T11:08:18.001Z</time></trkpt><trkpt lat="14.561062183879267" lon="121.0141250362093"><ele>19.0</ele><time>2026-03-30T11:08:19.001Z</time></trkpt><trkpt lat="14.561034102249158" lon="121.0140487391441"><ele>20.166666666666664</ele><time>2026-03-30T11:08:20.001Z</time></trkpt><trkpt lat="14.561015163385965" lon="121.01398012099409"><ele>21.333333333333332</ele><time>2026-03-30T11:08:21.001Z</time></trkpt><trkpt lat="14.560999532962759" lon="121.01391638988174"><ele>22.5</ele><time>2026-03-30T11:08:22.001Z</time></trkpt><trkpt lat="14.560958968474944" lon="121.01380937437325"><ele>23.666666666666664</ele><time>2026-03-30T11:08:24.001Z</time></trkpt><trkpt lat="14.560932166832682" lon="121.01372613391378"><ele>24.833333333333332</ele><time>2026-03-30T11:08:26.001Z</time></trkpt><trkpt lat="14.5609041784356" lon="121.01365090107562"><ele>26.0</ele><time>2026-03-30T11:08:29.001Z</time></trkpt><trkpt lat="14.560891973181363" lon="121.01357667070621"><ele>25.999999999999996</ele><time>2026-03-30T11:08:34.001Z</time></trkpt><trkpt lat="14.560869185166782" lon="121.01347937428436"><ele>26.0</ele><time>2026-03-30T11:08:37.001Z</time></trkpt><trkpt lat="14.560828228842425" lon="121.01337570596759"><ele>26.0</ele><time>2026-03-30T11:08:39.001Z</time></trkpt><trkpt lat="14.560800259341054" lon="121.01331236225482"><ele>26.0</ele><time>2026-03-30T11:08:40.001Z</time></trkpt><trkpt lat="14.56077009645765" lon="121.01324401308906"><ele>25.999999999999996</ele><time>2026-03-30T11:08:41.001Z</time></trkpt><trkpt lat="14.560738517848375" lon="121.0131696602146"><ele>26.0</ele><time>2026-03-30T11:08:42.001Z</time></trkpt><trkpt lat="14.56070372018326" lon="121.01309242910274"><ele>23.666666666666664</ele><time>2026-03-30T11:08:43.001Z</time></trkpt><trkpt lat="14.560667534892314" lon="121.01301396787743"><ele>21.333333333333332</ele><time>2026-03-30T11:08:44.001Z</time></trkpt><trkpt lat="14.560629644502248" lon="121.01293560805019"><ele>19.0</ele><time>2026-03-30T11:08:45.001Z</time></trkpt><trkpt lat="14.56059563639863" lon="121.01285483366495"><ele>16.666666666666664</ele><time>2026-03-30T11:08:46.001Z</time></trkpt><trkpt lat="14.56055916732382" lon="121.01277251925609"><ele>14.333333333333332</ele><time>2026-03-30T11:08:47.001Z</time></trkpt><trkpt lat="14.560515484160291" lon="121.01267810932619"><ele>12.0</ele><time>2026-03-30T11:08:48.001Z</time></trkpt><trkpt lat="14.560468682146542" lon="121.01257813517135"><ele>12.399999999999999</ele><time>2026-03-30T11:08:49.001Z</time></trkpt><trkpt lat="14.560410215714967" lon="121.0124782755158"><ele>12.799999999999999</ele><time>2026-03-30T11:08:50.001Z</time></trkpt><trkpt lat="14.560356405135632" lon="121.01238072797436"><ele>13.2</ele><time>2026-03-30T11:08:51.001Z</time></trkpt><trkpt lat="14.560313721800583" lon="121.01228758676994"><ele>13.6</ele><time>2026-03-30T11:08:52.001Z</time></trkpt><trkpt lat="14.560270254896523" lon="121.01220111030673"><ele>14.0</ele><time>2026-03-30T11:08:53.001Z</time></trkpt><trkpt lat="14.56023118241344" lon="121.0121232768222"><ele>14.000000000000002</ele><time>2026-03-30T11:08:54.001Z</time></trkpt><trkpt lat="14.560190670955858" lon="121.01206053943054"><ele>14.0</ele><time>2026-03-30T11:08:55.001Z</time></trkpt><trkpt lat="14.56015603214949" lon="121.0119985506734"><ele>14.0</ele><time>2026-03-30T11:08:56.001Z</time></trkpt><trkpt lat="14.560112586648827" lon="121.0119052292966"><ele>14.0</ele><time>2026-03-30T11:08:58.001Z</time></trkpt><trkpt lat="14.560074119942751" lon="121.0118251215631"><ele>14.000000000000002</ele><time>2026-03-30T11:09:00.001Z</time></trkpt><trkpt lat="14.56003904477718" lon="121.01176277648433"><ele>14.0</ele><time>2026-03-30T11:09:02.001Z</time></trkpt><trkpt lat="14.560000259570726" lon="121.01167644778374"><ele>13.714285714285714</ele><time>2026-03-30T11:09:05.001Z</time></trkpt><trkpt lat="14.559960859326578" lon="121.0116131852813"><ele>13.428571428571429</ele><time>2026-03-30T11:09:07.001Z</time></trkpt><trkpt lat="14.559924087689708" lon="121.01155064337388"><ele>13.142857142857142</ele><time>2026-03-30T11:09:09.001Z</time></trkpt><trkpt lat="14.559877767759366" lon="121.01148149202162"><ele>12.857142857142858</ele><time>2026-03-30T11:09:12.001Z</time></trkpt><trkpt lat="14.559837027183685" lon="121.01140807973238"><ele>12.571428571428571</ele><time>2026-03-30T11:09:14.001Z</time></trkpt><trkpt lat="14.559807388943408" lon="121.01134747671148"><ele>12.285714285714285</ele><time>2026-03-30T11:09:15.001Z</time></trkpt><trkpt lat="14.559776479312964" lon="121.01127877781448"><ele>12.0</ele><time>2026-03-30T11:09:16.001Z</time></trkpt><trkpt lat="14.55974218474078" lon="121.0112017767622"><ele>12.0</ele><time>2026-03-30T11:09:17.001Z</time></trkpt><trkpt lat="14.559703780726693" lon="121.01111765590792"><ele>12.0</ele><time>2026-03-30T11:09:18.001Z</time></trkpt><trkpt lat="14.559659392986637" lon="121.01102966827825"><ele>12.0</ele><time>2026-03-30T11:09:19.001Z</time></trkpt><trkpt lat="14.559615031882862" lon="121.01094567325165"><ele>12.0</ele><time>2026-03-30T11:09:20.001Z</time></trkpt><trkpt lat="14.559571427512282" lon="121.0108632982799"><ele>12.0</ele><time>2026-03-30T11:09:21.001Z</time></trkpt><trkpt lat="14.559521670341102" lon="121.01077588746413"><ele>11.4</ele><time>2026-03-30T11:09:22.001Z</time></trkpt><trkpt lat="14.559475025769686" lon="121.01068678297813"><ele>10.799999999999999</ele><time>2026-03-30T11:09:23.001Z</time></trkpt><trkpt lat="14.559431327096378" lon="121.01059102204964"><ele>10.2</ele><time>2026-03-30T11:09:24.001Z</time></trkpt><trkpt lat="14.559381730415138" lon="121.0104910764991"><ele>9.6</ele><time>2026-03-30T11:09:25.001Z</time></trkpt><trkpt lat="14.559337427378846" lon="121.01040187034037"><ele>9.0</ele><time>2026-03-30T11:09:26.001Z</time></trkpt><trkpt lat="14.559293459446044" lon="121.01032145412789"><ele>9.0</ele><time>2026-03-30T11:09:27.001Z</time></trkpt><trkpt lat="14.559257435961902" lon="121.01025813863197"><ele>9.0</ele><time>2026-03-30T11:09:28.001Z</time></trkpt><trkpt lat="14.55922642290723" lon="121.01019317912026"><ele>9.0</ele><time>2026-03-30T11:09:29.001Z</time></trkpt><trkpt lat="14.55916808075823" lon="121.01007048510013"><ele>9.0</ele><time>2026-03-30T11:09:31.001Z</time></trkpt><trkpt lat="14.559128868636881" lon="121.00999413636902"><ele>9.0</ele><time>2026-03-30T11:09:32.001Z</time></trkpt><trkpt lat="14.559083144363736" lon="121.00991348555405"><ele>9.0</ele><time>2026-03-30T11:09:33.001Z</time></trkpt><trkpt lat="14.559035728362662" lon="121.0098179329926"><ele>8.6</ele><time>2026-03-30T11:09:34.001Z</time></trkpt><trkpt lat="14.558989840402488" lon="121.00972006716687"><ele>8.2</ele><time>2026-03-30T11:09:35.001Z</time></trkpt><trkpt lat="14.558938696314287" lon="121.00961926986483"><ele>7.799999999999999</ele><time>2026-03-30T11:09:36.001Z</time></trkpt><trkpt lat="14.558890495968955" lon="121.00951799920958"><ele>7.3999999999999995</ele><time>2026-03-30T11:09:37.001Z</time></trkpt><trkpt lat="14.558842066295" lon="121.009420209043"><ele>7.0</ele><time>2026-03-30T11:09:38.001Z</time></trkpt><trkpt lat="14.558803240241827" lon="121.009324922974"><ele>7.0</ele><time>2026-03-30T11:09:39.001Z</time></trkpt><trkpt lat="14.55875361651266" lon="121.0092250412107"><ele>6.999999999999999</ele><time>2026-03-30T11:09:40.001Z</time></trkpt><trkpt lat="14.558712740285273" lon="121.00913722853484"><ele>6.999999999999999</ele><time>2026-03-30T11:09:41.001Z</time></trkpt><trkpt lat="14.558670927977154" lon="121.00905625340414"><ele>7.0</ele><time>2026-03-30T11:09:42.001Z</time></trkpt><trkpt lat="14.558622490390437" lon="121.00898232226008"><ele>7.0</ele><time>2026-03-30T11:09:43.001Z</time></trkpt><trkpt lat="14.558581542616865" lon="121.00889982782024"><ele>7.333333333333334</ele><time>2026-03-30T11:09:44.001Z</time></trkpt><trkpt lat="14.558537543634376" lon="121.00882943514151"><ele>7.666666666666667</ele><time>2026-03-30T11:09:45.001Z</time></trkpt><trkpt lat="14.558504383389556" lon="121.00876147883781"><ele>8.0</ele><time>2026-03-30T11:09:46.001Z</time></trkpt><trkpt lat="14.558474555893092" lon="121.00868616456849"><ele>8.333333333333334</ele><time>2026-03-30T11:09:47.001Z</time></trkpt><trkpt lat="14.558442447540754" lon="121.0086215423711"><ele>8.666666666666666</ele><time>2026-03-30T11:09:48.001Z</time></trkpt><trkpt lat="14.55840253120982" lon="121.00852297908749"><ele>9.0</ele><time>2026-03-30T11:09:50.001Z</time></trkpt><trkpt lat="14.558361786791304" lon="121.00843462329694"><ele>9.0</ele><time>2026-03-30T11:09:52.001Z</time></trkpt><trkpt lat="14.558323699860678" lon="121.0083540075304"><ele>9.0</ele><time>2026-03-30T11:09:54.001Z</time></trkpt><trkpt lat="14.558285492797442" lon="121.00828016732714"><ele>9.0</ele><time>2026-03-30T11:09:56.001Z</time></trkpt><trkpt lat="14.558256042955128" lon="121.00822136836803"><ele>9.0</ele><time>2026-03-30T11:09:58.001Z</time></trkpt><trkpt lat="14.558228477138393" lon="121.00815291721696"><ele>9.0</ele><time>2026-03-30T11:10:00.001Z</time></trkpt><trkpt lat="14.558199764542813" lon="121.00808687909736"><ele>9.0</ele><time>2026-03-30T11:10:02.001Z</time></trkpt><trkpt lat="14.5581614082155" lon="121.00799291458843"><ele>8.833333333333334</ele><time>2026-03-30T11:10:04.001Z</time></trkpt><trkpt lat="14.558116952372785" lon="121.00791637134134"><ele>8.666666666666666</ele><time>2026-03-30T11:10:06.001Z</time></trkpt><trkpt lat="14.558072858302987" lon="121.00785437224573"><ele>8.5</ele><time>2026-03-30T11:10:08.001Z</time></trkpt><trkpt lat="14.558026662063815" lon="121.00779072353458"><ele>8.333333333333332</ele><time>2026-03-30T11:10:10.001Z</time></trkpt><trkpt lat="14.557985124153815" lon="121.00771331799503"><ele>8.166666666666666</ele><time>2026-03-30T11:10:12.001Z</time></trkpt><trkpt lat="14.557932964259022" lon="121.0076247626388"><ele>8.0</ele><time>2026-03-30T11:10:14.001Z</time></trkpt><trkpt lat="14.557903059888943" lon="121.00755879417963"><ele>7.999999999999999</ele><time>2026-03-30T11:10:15.001Z</time></trkpt><trkpt lat="14.557884896531817" lon="121.00749006449357"><ele>8.0</ele><time>2026-03-30T11:10:16.001Z</time></trkpt><trkpt lat="14.55787082384492" lon="121.00741275679363"><ele>8.0</ele><time>2026-03-30T11:10:17.001Z</time></trkpt><trkpt lat="14.557856249612644" lon="121.0073267830741"><ele>8.0</ele><time>2026-03-30T11:10:18.001Z</time></trkpt><trkpt lat="14.557846846592724" lon="121.00723422910305"><ele>7.999999999999999</ele><time>2026-03-30T11:10:19.001Z</time></trkpt><trkpt lat="14.557856883075358" lon="121.00713050378916"><ele>8.0</ele><time>2026-03-30T11:10:20.001Z</time></trkpt><trkpt lat="14.557852616261034" lon="121.00704710190035"><ele>8.0</ele><time>2026-03-30T11:10:21.001Z</time></trkpt><trkpt lat="14.557745511981825" lon="121.00701303803544"><ele>8.0</ele><time>2026-03-30T11:10:23.001Z</time></trkpt><trkpt lat="14.557677240950799" lon="121.00692515506395"><ele>8.0</ele><time>2026-03-30T11:10:25.001Z</time></trkpt><trkpt lat="14.557606333472647" lon="121.00682664482191"><ele>8.0</ele><time>2026-03-30T11:10:27.001Z</time></trkpt><trkpt lat="14.557570619306286" lon="121.00677123984076"><ele>8.0</ele><time>2026-03-30T11:10:28.001Z</time></trkpt><trkpt lat="14.557508797931972" lon="121.0066545218433"><ele>7.833333333333333</ele><time>2026-03-30T11:10:30.001Z</time></trkpt><trkpt lat="14.557471835118584" lon="121.00658876894657"><ele>7.666666666666666</ele><time>2026-03-30T11:10:31.001Z</time></trkpt><trkpt lat="14.557429476894306" lon="121.00652380149799"><ele>7.5</ele><time>2026-03-30T11:10:32.001Z</time></trkpt><trkpt lat="14.557391658839853" lon="121.0064662586426"><ele>7.333333333333334</ele><time>2026-03-30T11:10:33.001Z</time></trkpt><trkpt lat="14.557343642940573" lon="121.00637898404375"><ele>7.166666666666667</ele><time>2026-03-30T11:10:35.001Z</time></trkpt><trkpt lat="14.557298766171355" lon="121.00630762554071"><ele>7.0</ele><time>2026-03-30T11:10:37.001Z</time></trkpt><trkpt lat="14.557254647516187" lon="121.0062251319713"><ele>7.0</ele><time>2026-03-30T11:10:39.001Z</time></trkpt><trkpt lat="14.557199323772773" lon="121.00613086035078"><ele>7.0</ele><time>2026-03-30T11:10:41.001Z</time></trkpt><trkpt lat="14.557134264725951" lon="121.00601535364588"><ele>7.0</ele><time>2026-03-30T11:10:43.001Z</time></trkpt><trkpt lat="14.557078298844303" lon="121.00590962634006"><ele>7.0</ele><time>2026-03-30T11:10:45.001Z</time></trkpt><trkpt lat="14.557033758302348" lon="121.00582051947777"><ele>7.666666666666667</ele><time>2026-03-30T11:10:47.001Z</time></trkpt><trkpt lat="14.556976309387194" lon="121.00572616012231"><ele>8.333333333333334</ele><time>2026-03-30T11:10:49.001Z</time></trkpt><trkpt lat="14.5569301553541" lon="121.00562856344555"><ele>9.0</ele><time>2026-03-30T11:10:51.001Z</time></trkpt><trkpt lat="14.556899957428257" lon="121.0055673632296"><ele>9.666666666666666</ele><time>2026-03-30T11:10:52.001Z</time></trkpt><trkpt lat="14.556869268064771" lon="121.00550073229594"><ele>10.333333333333332</ele><time>2026-03-30T11:10:53.001Z</time></trkpt><trkpt lat="14.556831438829926" lon="121.00542667037374"><ele>11.0</ele><time>2026-03-30T11:10:54.001Z</time></trkpt><trkpt lat="14.556790038836931" lon="121.00535088442416"><ele>11.0</ele><time>2026-03-30T11:10:55.001Z</time></trkpt><trkpt lat="14.556748673337244" lon="121.00526936487267"><ele>11.0</ele><time>2026-03-30T11:10:56.001Z</time></trkpt><trkpt lat="14.55670695187639" lon="121.00518636455413"><ele>11.0</ele><time>2026-03-30T11:10:57.001Z</time></trkpt><trkpt lat="14.556661579517097" lon="121.00510381293077"><ele>11.0</ele><time>2026-03-30T11:10:58.001Z</time></trkpt><trkpt lat="14.55662224558388" lon="121.00502923361171"><ele>11.0</ele><time>2026-03-30T11:10:59.001Z</time></trkpt><trkpt lat="14.556582822666833" lon="121.00495358367245"><ele>11.0</ele><time>2026-03-30T11:11:00.001Z</time></trkpt><trkpt lat="14.556540052452302" lon="121.00487667810695"><ele>10.857142857142858</ele><time>2026-03-30T11:11:01.001Z</time></trkpt><trkpt lat="14.556501310205618" lon="121.00480477637306"><ele>10.714285714285714</ele><time>2026-03-30T11:11:02.001Z</time></trkpt><trkpt lat="14.556465231586875" lon="121.00472833168944"><ele>10.571428571428571</ele><time>2026-03-30T11:11:03.001Z</time></trkpt><trkpt lat="14.556432580366673" lon="121.00465390147554"><ele>10.428571428571429</ele><time>2026-03-30T11:11:04.001Z</time></trkpt><trkpt lat="14.556405586752486" lon="121.00458547355916"><ele>10.285714285714286</ele><time>2026-03-30T11:11:05.001Z</time></trkpt><trkpt lat="14.556380119586452" lon="121.00452100543541"><ele>10.142857142857142</ele><time>2026-03-30T11:11:06.001Z</time></trkpt><trkpt lat="14.55634888615364" lon="121.00445966456537"><ele>10.0</ele><time>2026-03-30T11:11:07.001Z</time></trkpt><trkpt lat="14.556318579175485" lon="121.00439763026674"><ele>10.0</ele><time>2026-03-30T11:11:08.001Z</time></trkpt><trkpt lat="14.556292666291103" lon="121.00433804901981"><ele>10.0</ele><time>2026-03-30T11:11:09.001Z</time></trkpt><trkpt lat="14.556245969743038" lon="121.00422670510073"><ele>10.0</ele><time>2026-03-30T11:11:11.001Z</time></trkpt><trkpt lat="14.556201505313364" lon="121.00412228479797"><ele>10.0</ele><time>2026-03-30T11:11:13.001Z</time></trkpt><trkpt lat="14.556164948114523" lon="121.0040399309012"><ele>10.0</ele><time>2026-03-30T11:11:15.001Z</time></trkpt><trkpt lat="14.556137409330884" lon="121.00397831160699"><ele>10.0</ele><time>2026-03-30T11:11:17.001Z</time></trkpt><trkpt lat="14.556108219507149" lon="121.0039051416988"><ele>9.5</ele><time>2026-03-30T11:11:19.001Z</time></trkpt><trkpt lat="14.556077969773572" lon="121.00382539807737"><ele>9.0</ele><time>2026-03-30T11:11:21.001Z</time></trkpt><trkpt lat="14.55603612941464" lon="121.0037503409874"><ele>8.5</ele><time>2026-03-30T11:11:23.001Z</time></trkpt><trkpt lat="14.556027217298508" lon="121.00367706044831"><ele>8.0</ele><time>2026-03-30T11:11:25.001Z</time></trkpt><trkpt lat="14.556003952666957" lon="121.00359317019279"><ele>7.500000000000001</ele><time>2026-03-30T11:11:27.001Z</time></trkpt><trkpt lat="14.555984833819739" lon="121.00352499337943"><ele>7.0</ele><time>2026-03-30T11:11:29.001Z</time></trkpt><trkpt lat="14.555970716587689" lon="121.00344878811438"><ele>7.000000000000001</ele><time>2026-03-30T11:11:35.001Z</time></trkpt><trkpt lat="14.555951445024524" lon="121.00337932822875"><ele>7.0</ele><time>2026-03-30T11:11:37.001Z</time></trkpt><trkpt lat="14.555908672095926" lon="121.00328713090609"><ele>7.0</ele><time>2026-03-30T11:11:39.001Z</time></trkpt><trkpt lat="14.555867391560266" lon="121.00317830007045"><ele>7.0</ele><time>2026-03-30T11:11:41.001Z</time></trkpt><trkpt lat="14.555840845260139" lon="121.00311764791739"><ele>7.000000000000001</ele><time>2026-03-30T11:11:42.001Z</time></trkpt><trkpt lat="14.555816560443565" lon="121.00305550027468"><ele>7.0</ele><time>2026-03-30T11:11:43.001Z</time></trkpt><trkpt lat="14.555796987149586" lon="121.00298463779421"><ele>7.000000000000001</ele><time>2026-03-30T11:11:44.001Z</time></trkpt><trkpt lat="14.555762847319437" lon="121.00289077867038"><ele>7.0</ele><time>2026-03-30T11:11:46.001Z</time></trkpt><trkpt lat="14.555736020666174" lon="121.00280000843028"><ele>7.0</ele><time>2026-03-30T11:11:48.001Z</time></trkpt><trkpt lat="14.555707990170042" lon="121.00273871832236"><ele>7.0</ele><time>2026-03-30T11:11:50.001Z</time></trkpt><trkpt lat="14.555688849067737" lon="121.00265577956985"><ele>7.000000000000001</ele><time>2026-03-30T11:11:52.001Z</time></trkpt><trkpt lat="14.555665350123526" lon="121.0025908550902"><ele>7.0</ele><time>2026-03-30T11:11:54.001Z</time></trkpt><trkpt lat="14.555645156589051" lon="121.00251546150783"><ele>7.6</ele><time>2026-03-30T11:11:56.001Z</time></trkpt><trkpt lat="14.555616670390261" lon="121.00242561149844"><ele>8.2</ele><time>2026-03-30T11:11:58.001Z</time></trkpt><trkpt lat="14.555584170824654" lon="121.00231017430829"><ele>8.8</ele><time>2026-03-30T11:12:00.001Z</time></trkpt><trkpt lat="14.555567257911305" lon="121.00224653504846"><ele>9.4</ele><time>2026-03-30T11:12:01.001Z</time></trkpt><trkpt lat="14.55552842061341" lon="121.0021216897776"><ele>10.0</ele><time>2026-03-30T11:12:03.001Z</time></trkpt><trkpt lat="14.555511786714712" lon="121.00204360538861"><ele>10.0</ele><time>2026-03-30T11:12:04.001Z</time></trkpt><trkpt lat="14.555482955436116" lon="121.00197049047989"><ele>10.0</ele><time>2026-03-30T11:12:05.001Z</time></trkpt><trkpt lat="14.555457217353593" lon="121.00188613162052"><ele>10.0</ele><time>2026-03-30T11:12:06.001Z</time></trkpt><trkpt lat="14.555435643849558" lon="121.0017896966234"><ele>10.0</ele><time>2026-03-30T11:12:07.001Z</time></trkpt><trkpt lat="14.555407933198818" lon="121.00170044937822"><ele>10.0</ele><time>2026-03-30T11:12:08.001Z</time></trkpt><trkpt lat="14.555384837360858" lon="121.0016095274605"><ele>10.0</ele><time>2026-03-30T11:12:09.001Z</time></trkpt><trkpt lat="14.55536207217637" lon="121.00153046900975"><ele>9.6</ele><time>2026-03-30T11:12:10.001Z</time></trkpt><trkpt lat="14.555336230221496" lon="121.00145547634382"><ele>9.2</ele><time>2026-03-30T11:12:11.001Z</time></trkpt><trkpt lat="14.555311734553252" lon="121.00137724662798"><ele>8.8</ele><time>2026-03-30T11:12:12.001Z</time></trkpt><trkpt lat="14.555277097655543" lon="121.00128362098157"><ele>8.4</ele><time>2026-03-30T11:12:13.001Z</time></trkpt><trkpt lat="14.55523540957741" lon="121.00118437311914"><ele>8.0</ele><time>2026-03-30T11:12:14.001Z</time></trkpt><trkpt lat="14.555207315969207" lon="121.00109387279655"><ele>7.999999999999999</ele><time>2026-03-30T11:12:15.001Z</time></trkpt><trkpt lat="14.555197268214705" lon="121.00101104336636"><ele>8.0</ele><time>2026-03-30T11:12:16.001Z</time></trkpt><trkpt lat="14.555202829342761" lon="121.00092333519119"><ele>8.0</ele><time>2026-03-30T11:12:17.001Z</time></trkpt><trkpt lat="14.555169717124716" lon="121.00084855285957"><ele>8.0</ele><time>2026-03-30T11:12:18.001Z</time></trkpt><trkpt lat="14.55512789981709" lon="121.00077449630682"><ele>7.999999999999999</ele><time>2026-03-30T11:12:19.001Z</time></trkpt><trkpt lat="14.555099164679234" lon="121.00069593592382"><ele>8.0</ele><time>2026-03-30T11:12:20.001Z</time></trkpt><trkpt lat="14.555073237101663" lon="121.00060326317838"><ele>7.833333333333333</ele><time>2026-03-30T11:12:21.001Z</time></trkpt><trkpt lat="14.555053782962204" lon="121.00052145876931"><ele>7.666666666666666</ele><time>2026-03-30T11:12:22.001Z</time></trkpt><trkpt lat="14.555032526614436" lon="121.00043784608887"><ele>7.5</ele><time>2026-03-30T11:12:23.001Z</time></trkpt><trkpt lat="14.55501087491436" lon="121.00034604577884"><ele>7.333333333333334</ele><time>2026-03-30T11:12:24.001Z</time></trkpt><trkpt lat="14.554987047579441" lon="121.00026374442515"><ele>7.166666666666667</ele><time>2026-03-30T11:12:25.001Z</time></trkpt><trkpt lat="14.554964410609106" lon="121.00018352456728"><ele>7.0</ele><time>2026-03-30T11:12:26.001Z</time></trkpt><trkpt lat="14.554949189671984" lon="121.00011542495017"><ele>7.0</ele><time>2026-03-30T11:12:27.001Z</time></trkpt><trkpt lat="14.554917440774776" lon="120.99999173147047"><ele>6.999999999999999</ele><time>2026-03-30T11:12:29.001Z</time></trkpt><trkpt lat="14.554890708608482" lon="120.99986891546979"><ele>6.999999999999999</ele><time>2026-03-30T11:12:31.001Z</time></trkpt><trkpt lat="14.55487141189721" lon="120.99973932334872"><ele>7.0</ele><time>2026-03-30T11:12:33.001Z</time></trkpt><trkpt lat="14.55485488161613" lon="120.99966813457661"><ele>7.0</ele><time>2026-03-30T11:12:34.001Z</time></trkpt><trkpt lat="14.554838223901791" lon="120.9995937732262"><ele>7.000000000000001</ele><time>2026-03-30T11:12:35.001Z</time></trkpt><trkpt lat="14.554817268305579" lon="120.9995163219632"><ele>7.0</ele><time>2026-03-30T11:12:36.001Z</time></trkpt><trkpt lat="14.554791764957644" lon="120.99943267120449"><ele>7.0</ele><time>2026-03-30T11:12:37.001Z</time></trkpt><trkpt lat="14.554767139685048" lon="120.99934490852102"><ele>7.0</ele><time>2026-03-30T11:12:38.001Z</time></trkpt><trkpt lat="14.55474443483004" lon="120.9992658967724"><ele>7.000000000000001</ele><time>2026-03-30T11:12:39.001Z</time></trkpt><trkpt lat="14.554722095738054" lon="120.9991948980207"><ele>7.0</ele><time>2026-03-30T11:12:40.001Z</time></trkpt><trkpt lat="14.554704140075398" lon="120.99912384129036"><ele>7.166666666666667</ele><time>2026-03-30T11:12:41.001Z</time></trkpt><trkpt lat="14.55465959896051" lon="120.99901228256248"><ele>7.333333333333334</ele><time>2026-03-30T11:12:43.001Z</time></trkpt><trkpt lat="14.55462739179703" lon="120.9989350271759"><ele>7.5</ele><time>2026-03-30T11:12:45.001Z</time></trkpt><trkpt lat="14.554609630627919" lon="120.99885178271862"><ele>7.666666666666666</ele><time>2026-03-30T11:12:48.001Z</time></trkpt><trkpt lat="14.55459868025585" lon="120.99878668940343"><ele>7.833333333333333</ele><time>2026-03-30T11:12:50.001Z</time></trkpt><trkpt lat="14.554577909035979" lon="120.99872022730823"><ele>8.0</ele><time>2026-03-30T11:12:52.001Z</time></trkpt><trkpt lat="14.554568629020192" lon="120.99864127961445"><ele>7.999999999999999</ele><time>2026-03-30T11:12:54.001Z</time></trkpt><trkpt lat="14.554543999276808" lon="120.99857750533118"><ele>8.0</ele><time>2026-03-30T11:12:56.001Z</time></trkpt><trkpt lat="14.554532277470004" lon="120.99850175996609"><ele>8.0</ele><time>2026-03-30T11:12:58.001Z</time></trkpt><trkpt lat="14.554520288729837" lon="120.99841191370854"><ele>8.0</ele><time>2026-03-30T11:13:00.001Z</time></trkpt><trkpt lat="14.554496546503858" lon="120.99832543677303"><ele>7.999999999999999</ele><time>2026-03-30T11:13:02.001Z</time></trkpt><trkpt lat="14.554480360485806" lon="120.99824811670422"><ele>8.0</ele><time>2026-03-30T11:13:04.001Z</time></trkpt><trkpt lat="14.554467128739285" lon="120.9981700727773"><ele>7.833333333333333</ele><time>2026-03-30T11:13:06.001Z</time></trkpt><trkpt lat="14.55445559669886" lon="120.99810336081279"><ele>7.666666666666666</ele><time>2026-03-30T11:13:09.001Z</time></trkpt><trkpt lat="14.554460114398658" lon="120.99799316731041"><ele>7.5</ele><time>2026-03-30T11:13:13.001Z</time></trkpt><trkpt lat="14.554430685514644" lon="120.9979083290107"><ele>7.333333333333334</ele><time>2026-03-30T11:13:15.001Z</time></trkpt><trkpt lat="14.554411311521621" lon="120.99783988408885"><ele>7.166666666666667</ele><time>2026-03-30T11:13:17.001Z</time></trkpt><trkpt lat="14.554385948707875" lon="120.99776651361844"><ele>7.0</ele><time>2026-03-30T11:13:19.001Z</time></trkpt><trkpt lat="14.554354368416728" lon="120.99767384822728"><ele>7.0</ele><time>2026-03-30T11:13:21.001Z</time></trkpt><trkpt lat="14.55433332537695" lon="120.99755118570972"><ele>6.999999999999999</ele><time>2026-03-30T11:13:23.001Z</time></trkpt><trkpt lat="14.554315611204979" lon="120.99742825828915"><ele>6.999999999999999</ele><time>2026-03-30T11:13:25.001Z</time></trkpt><trkpt lat="14.554294781158665" lon="120.99736628553529"><ele>7.0</ele><time>2026-03-30T11:13:26.001Z</time></trkpt><trkpt lat="14.554278577744961" lon="120.99726544402841"><ele>7.0</ele><time>2026-03-30T11:13:28.001Z</time></trkpt><trkpt lat="14.554305041180102" lon="120.99717804662107"><ele>6.833333333333334</ele><time>2026-03-30T11:13:31.001Z</time></trkpt><trkpt lat="14.554378852106947" lon="120.99714047051332"><ele>6.666666666666667</ele><time>2026-03-30T11:13:46.001Z</time></trkpt><trkpt lat="14.554451809876339" lon="120.99713534730772"><ele>6.5</ele><time>2026-03-30T11:13:50.001Z</time></trkpt><trkpt lat="14.554534294184045" lon="120.99711769323882"><ele>6.333333333333334</ele><time>2026-03-30T11:13:53.001Z</time></trkpt><trkpt lat="14.554634399991603" lon="120.99709448057631"><ele>6.166666666666667</ele><time>2026-03-30T11:13:56.001Z</time></trkpt><trkpt lat="14.554732395606733" lon="120.99708420934816"><ele>6.0</ele><time>2026-03-30T11:13:58.001Z</time></trkpt><trkpt lat="14.554857426378843" lon="120.99706933047291"><ele>6.428571428571428</ele><time>2026-03-30T11:14:00.001Z</time></trkpt><trkpt lat="14.554920793821065" lon="120.99705917568369"><ele>6.857142857142858</ele><time>2026-03-30T11:14:01.001Z</time></trkpt><trkpt lat="14.55498338448487" lon="120.99704717546668"><ele>7.2857142857142865</ele><time>2026-03-30T11:14:02.001Z</time></trkpt><trkpt lat="14.555046248452042" lon="120.99702558824266"><ele>7.714285714285714</ele><time>2026-03-30T11:14:03.001Z</time></trkpt><trkpt lat="14.555114917114269" lon="120.99701072411884"><ele>8.142857142857142</ele><time>2026-03-30T11:14:04.001Z</time></trkpt><trkpt lat="14.555191929766162" lon="120.99699120356728"><ele>8.571428571428573</ele><time>2026-03-30T11:14:05.001Z</time></trkpt><trkpt lat="14.555271592527678" lon="120.99697222395585"><ele>9.0</ele><time>2026-03-30T11:14:06.001Z</time></trkpt><trkpt lat="14.555360525006632" lon="120.99694760464112"><ele>9.0</ele><time>2026-03-30T11:14:07.001Z</time></trkpt><trkpt lat="14.555446263251644" lon="120.99692783212132"><ele>9.0</ele><time>2026-03-30T11:14:08.001Z</time></trkpt><trkpt lat="14.555515120420903" lon="120.99690814676872"><ele>9.0</ele><time>2026-03-30T11:14:09.001Z</time></trkpt><trkpt lat="14.555577938230467" lon="120.99690078048842"><ele>9.0</ele><time>2026-03-30T11:14:10.001Z</time></trkpt><trkpt lat="14.555664861221366" lon="120.99687734088089"><ele>9.0</ele><time>2026-03-30T11:14:12.001Z</time></trkpt><trkpt lat="14.555745732905246" lon="120.99685174974356"><ele>9.0</ele><time>2026-03-30T11:14:14.001Z</time></trkpt><trkpt lat="14.555844660577154" lon="120.99682132784173"><ele>9.0</ele><time>2026-03-30T11:14:16.001Z</time></trkpt><trkpt lat="14.555950772747439" lon="120.99679137950916"><ele>9.0</ele><time>2026-03-30T11:14:18.001Z</time></trkpt><trkpt lat="14.556058097320312" lon="120.99675706839913"><ele>9.0</ele><time>2026-03-30T11:14:20.001Z</time></trkpt><trkpt lat="14.55617141959334" lon="120.99673913731064"><ele>9.0</ele><time>2026-03-30T11:14:22.001Z</time></trkpt><trkpt lat="14.556262235698279" lon="120.99671521296442"><ele>9.0</ele><time>2026-03-30T11:14:24.001Z</time></trkpt><trkpt lat="14.556351776059346" lon="120.99669460451847"><ele>9.2</ele><time>2026-03-30T11:14:26.001Z</time></trkpt><trkpt lat="14.55642208908638" lon="120.99667962473217"><ele>9.4</ele><time>2026-03-30T11:14:28.001Z</time></trkpt><trkpt lat="14.55649966810672" lon="120.99665533101944"><ele>9.6</ele><time>2026-03-30T11:14:30.001Z</time></trkpt><trkpt lat="14.556575639303883" lon="120.99663833202929"><ele>9.8</ele><time>2026-03-30T11:14:32.001Z</time></trkpt><trkpt lat="14.556671279942995" lon="120.99661729295393"><ele>10.0</ele><time>2026-03-30T11:14:34.001Z</time></trkpt><trkpt lat="14.556791990437898" lon="120.99659562014504"><ele>10.166666666666668</ele><time>2026-03-30T11:14:36.001Z</time></trkpt><trkpt lat="14.55685724492558" lon="120.99658646834801"><ele>10.333333333333334</ele><time>2026-03-30T11:14:37.001Z</time></trkpt><trkpt lat="14.556919254014039" lon="120.99655673585015"><ele>10.5</ele><time>2026-03-30T11:14:38.001Z</time></trkpt><trkpt lat="14.556987785307914" lon="120.99654547009665"><ele>10.666666666666666</ele><time>2026-03-30T11:14:39.001Z</time></trkpt><trkpt lat="14.557057418383494" lon="120.9965267982866"><ele>10.833333333333332</ele><time>2026-03-30T11:14:40.001Z</time></trkpt><trkpt lat="14.557143477771351" lon="120.99650637758042"><ele>11.0</ele><time>2026-03-30T11:14:41.001Z</time></trkpt><trkpt lat="14.557231104719905" lon="120.99648394260444"><ele>11.0</ele><time>2026-03-30T11:14:42.001Z</time></trkpt><trkpt lat="14.557315621325511" lon="120.99645984348379"><ele>11.0</ele><time>2026-03-30T11:14:43.001Z</time></trkpt><trkpt lat="14.557386225135858" lon="120.996439848682"><ele>11.0</ele><time>2026-03-30T11:14:44.001Z</time></trkpt><trkpt lat="14.557457296476215" lon="120.99642682020665"><ele>11.0</ele><time>2026-03-30T11:14:45.001Z</time></trkpt><trkpt lat="14.557532295290951" lon="120.99641982448493"><ele>11.0</ele><time>2026-03-30T11:14:46.001Z</time></trkpt><trkpt lat="14.557620442873288" lon="120.9964054909796"><ele>11.0</ele><time>2026-03-30T11:14:47.001Z</time></trkpt><trkpt lat="14.557702558242989" lon="120.99638532326153"><ele>11.0</ele><time>2026-03-30T11:14:48.001Z</time></trkpt><trkpt lat="14.557790135618173" lon="120.99636804946772"><ele>11.0</ele><time>2026-03-30T11:14:49.001Z</time></trkpt><trkpt lat="14.557876106790436" lon="120.99633787400856"><ele>11.0</ele><time>2026-03-30T11:14:50.001Z</time></trkpt><trkpt lat="14.557971041589473" lon="120.99632395280587"><ele>11.0</ele><time>2026-03-30T11:14:51.001Z</time></trkpt><trkpt lat="14.558056001481539" lon="120.99630795776429"><ele>11.0</ele><time>2026-03-30T11:14:52.001Z</time></trkpt><trkpt lat="14.558160865328855" lon="120.99627485628118"><ele>10.666666666666666</ele><time>2026-03-30T11:14:54.001Z</time></trkpt><trkpt lat="14.558243482328741" lon="120.99624334549772"><ele>10.333333333333332</ele><time>2026-03-30T11:14:56.001Z</time></trkpt><trkpt lat="14.558235929329665" lon="120.99613884404238"><ele>10.0</ele><time>2026-03-30T11:15:04.001Z</time></trkpt><trkpt lat="14.558202116825479" lon="120.99605977173172"><ele>9.666666666666666</ele><time>2026-03-30T11:15:16.001Z</time></trkpt><trkpt lat="14.55818376586776" lon="120.99598129981364"><ele>9.333333333333334</ele><time>2026-03-30T11:15:22.001Z</time></trkpt><trkpt lat="14.558140128118229" lon="120.99590576313254"><ele>9.0</ele><time>2026-03-30T11:15:24.001Z</time></trkpt><trkpt lat="14.558090073575348" lon="120.9958503641065"><ele>9.0</ele><time>2026-03-30T11:15:26.001Z</time></trkpt><trkpt lat="14.558040949068587" lon="120.99576857970804"><ele>9.0</ele><time>2026-03-30T11:15:28.001Z</time></trkpt><trkpt lat="14.557998585917497" lon="120.9957187705218"><ele>9.0</ele><time>2026-03-30T11:15:30.001Z</time></trkpt><trkpt lat="14.55795426773906" lon="120.99567149419933"><ele>9.0</ele><time>2026-03-30T11:15:32.001Z</time></trkpt><trkpt lat="14.55790822354614" lon="120.99562151963602"><ele>9.0</ele><time>2026-03-30T11:15:34.08Z</time></trkpt><trkpt lat="14.557841868483607" lon="120.99554458999572"><ele>9.0</ele><time>2026-03-30T11:15:37.06Z</time></trkpt><trkpt lat="14.557789428555875" lon="120.99548161354657"><ele>9.0</ele><time>2026-03-30T11:15:39.046Z</time></trkpt><trkpt lat="14.558363468727647" lon="120.99531598869845"><ele>9.0</ele><time>2026-03-30T11:16:58.001Z</time></trkpt></trkseg></trk></gpx>